<?xml version='1.0' encoding='UTF-8'?><gpx version="1.1" creator="JPX - https://github.com/jenetics/jpx" xmlns="http://www.topografix.com/GPX/1/1"><trk><trkseg><trkpt lat="36.79990693862246" lon="-108.12551475880261"><ele>1746.0</ele><time>2026-04-05T19:48:18Z</time></trkpt><trkpt lat="36.79981310144505" lon="-108.1256875457619"><ele>1746.0</ele><time>2026-04-05T19:48:21Z</time></trkpt><trkpt lat="36.79974725454686" lon="-108.12570913341104"><ele>1746.0</ele><time>2026-04-05T19:54:20.999Z</time></trkpt><trkpt lat="36.79976581137195" lon="-108.12581554987116"><ele>1746.0</ele><time>2026-04-05T19:54:24.999Z</time></trkpt><trkpt lat="36.79980247428825" lon="-108.12590130213079"><ele>1746.0</ele><time>2026-04-05T19:54:25.999Z</time></trkpt><trkpt lat="36.79981231385997" lon="-108.12598329133041"><ele>1746.1999999999998</ele><time>2026-04-05T19:54:26.999Z</time></trkpt><trkpt lat="36.799810336476334" lon="-108.12607295600172"><ele>1746.3999999999999</ele><time>2026-04-05T19:54:27.999Z</time></trkpt><trkpt lat="36.79978575611306" lon="-108.12620841713208"><ele>1746.6</ele><time>2026-04-05T19:54:29.999Z</time></trkpt><trkpt lat="36.79976509372224" lon="-108.12634771760554"><ele>1746.8</ele><time>2026-04-05T19:54:31.999Z</time></trkpt><trkpt lat="36.79972013091567" lon="-108.12645363097602"><ele>1747.0</ele><time>2026-04-05T19:54:33.999Z</time></trkpt><trkpt lat="36.7996146004376" lon="-108.12645687518085"><ele>1747.0000000000002</ele><time>2026-04-05T19:54:35.999Z</time></trkpt><trkpt lat="36.79954490741567" lon="-108.12645290431342"><ele>1747.0</ele><time>2026-04-05T19:54:36.999Z</time></trkpt><trkpt lat="36.79947351156378" lon="-108.12645676631486"><ele>1747.0</ele><time>2026-04-05T19:54:37.999Z</time></trkpt><trkpt lat="36.799396290480544" lon="-108.12646401193969"><ele>1747.0</ele><time>2026-04-05T19:54:38.999Z</time></trkpt><trkpt lat="36.79929932735621" lon="-108.12647192350815"><ele>1747.0000000000002</ele><time>2026-04-05T19:54:39.999Z</time></trkpt><trkpt lat="36.79919771557064" lon="-108.1264732902644"><ele>1747.0</ele><time>2026-04-05T19:54:40.999Z</time></trkpt><trkpt lat="36.799090316487174" lon="-108.12647218699796"><ele>1746.0</ele><time>2026-04-05T19:54:41.999Z</time></trkpt><trkpt lat="36.798966850154024" lon="-108.12646874573188"><ele>1744.9999999999998</ele><time>2026-04-05T19:54:42.999Z</time></trkpt><trkpt lat="36.7988401784389" lon="-108.1264677306407"><ele>1743.9999999999998</ele><time>2026-04-05T19:54:43.999Z</time></trkpt><trkpt lat="36.79873410007914" lon="-108.1264701356501"><ele>1743.0</ele><time>2026-04-05T19:54:44.999Z</time></trkpt><trkpt lat="36.79864462575217" lon="-108.12647224656104"><ele>1742.0</ele><time>2026-04-05T19:54:45.999Z</time></trkpt><trkpt lat="36.79855153674257" lon="-108.12647391818443"><ele>1741.8333333333333</ele><time>2026-04-05T19:54:46.999Z</time></trkpt><trkpt lat="36.798462488020306" lon="-108.1264752508981"><ele>1741.6666666666665</ele><time>2026-04-05T19:54:47.999Z</time></trkpt><trkpt lat="36.798385698651785" lon="-108.12648208012762"><ele>1741.5</ele><time>2026-04-05T19:54:48.999Z</time></trkpt><trkpt lat="36.79832174599945" lon="-108.1265027220597"><ele>1741.3333333333335</ele><time>2026-04-05T19:54:49.999Z</time></trkpt><trkpt lat="36.798255848970356" lon="-108.12663715080706"><ele>1741.1666666666667</ele><time>2026-04-05T19:54:51.999Z</time></trkpt><trkpt lat="36.79825146874589" lon="-108.12673028589364"><ele>1741.0</ele><time>2026-04-05T19:54:52.999Z</time></trkpt><trkpt lat="36.79824987444355" lon="-108.12682437213317"><ele>1742.4</ele><time>2026-04-05T19:54:53.999Z</time></trkpt><trkpt lat="36.798248921487115" lon="-108.12691884287042"><ele>1743.8</ele><time>2026-04-05T19:54:54.999Z</time></trkpt><trkpt lat="36.79825923291828" lon="-108.12703382113851"><ele>1745.2000000000003</ele><time>2026-04-05T19:54:55.999Z</time></trkpt><trkpt lat="36.79825705703183" lon="-108.12718984265776"><ele>1746.6000000000001</ele><time>2026-04-05T19:54:56.999Z</time></trkpt><trkpt lat="36.79825964478245" lon="-108.12734732021391"><ele>1748.0</ele><time>2026-04-05T19:54:57.999Z</time></trkpt><trkpt lat="36.79826435116834" lon="-108.12751603772375"><ele>1750.25</ele><time>2026-04-05T19:54:58.999Z</time></trkpt><trkpt lat="36.79827198024149" lon="-108.12769032265666"><ele>1752.5</ele><time>2026-04-05T19:54:59.999Z</time></trkpt><trkpt lat="36.79829688985542" lon="-108.12786980634111"><ele>1754.75</ele><time>2026-04-05T19:55:00.999Z</time></trkpt><trkpt lat="36.79833321603526" lon="-108.1280490704262"><ele>1757.0</ele><time>2026-04-05T19:55:01.999Z</time></trkpt><trkpt lat="36.798383992622334" lon="-108.12822511866342"><ele>1757.0</ele><time>2026-04-05T19:55:02.999Z</time></trkpt><trkpt lat="36.79844846822222" lon="-108.12838822820069"><ele>1757.0</ele><time>2026-04-05T19:55:03.999Z</time></trkpt><trkpt lat="36.79851703843067" lon="-108.12853917394067"><ele>1757.0</ele><time>2026-04-05T19:55:04.999Z</time></trkpt><trkpt lat="36.79859610493287" lon="-108.12867801456413"><ele>1757.0</ele><time>2026-04-05T19:55:05.999Z</time></trkpt><trkpt lat="36.79868807077098" lon="-108.1288139122262"><ele>1757.0</ele><time>2026-04-05T19:55:06.999Z</time></trkpt><trkpt lat="36.79878544823434" lon="-108.12894672349422"><ele>1757.0</ele><time>2026-04-05T19:55:07.999Z</time></trkpt><trkpt lat="36.798888188861035" lon="-108.12907224190056"><ele>1757.0</ele><time>2026-04-05T19:55:08.999Z</time></trkpt><trkpt lat="36.79900121555577" lon="-108.12918208736798"><ele>1757.0</ele><time>2026-04-05T19:55:09.999Z</time></trkpt><trkpt lat="36.799125117849876" lon="-108.12928121239638"><ele>1756.5</ele><time>2026-04-05T19:55:10.999Z</time></trkpt><trkpt lat="36.79925462297442" lon="-108.12936949427338"><ele>1756.0</ele><time>2026-04-05T19:55:11.999Z</time></trkpt><trkpt lat="36.79938910218013" lon="-108.12944502784708"><ele>1755.5</ele><time>2026-04-05T19:55:12.999Z</time></trkpt><trkpt lat="36.79953574939106" lon="-108.1295030761008"><ele>1755.0</ele><time>2026-04-05T19:55:13.999Z</time></trkpt><trkpt lat="36.79968438222169" lon="-108.12954688665803"><ele>1755.0</ele><time>2026-04-05T19:55:14.999Z</time></trkpt><trkpt lat="36.79983543005131" lon="-108.12958027278172"><ele>1755.0</ele><time>2026-04-05T19:55:15.999Z</time></trkpt><trkpt lat="36.79997904061626" lon="-108.1296116682084"><ele>1755.0</ele><time>2026-04-05T19:55:16.999Z</time></trkpt><trkpt lat="36.80012033030479" lon="-108.12964983863509"><ele>1755.0</ele><time>2026-04-05T19:55:17.999Z</time></trkpt><trkpt lat="36.80026197101547" lon="-108.12969107699752"><ele>1755.5</ele><time>2026-04-05T19:55:18.999Z</time></trkpt><trkpt lat="36.80039904525495" lon="-108.12974183521415"><ele>1756.0</ele><time>2026-04-05T19:55:19.999Z</time></trkpt><trkpt lat="36.8005386449222" lon="-108.12978485514641"><ele>1756.5</ele><time>2026-04-05T19:55:20.999Z</time></trkpt><trkpt lat="36.8006584063446" lon="-108.12988639027854"><ele>1757.0</ele><time>2026-04-05T19:55:21.999Z</time></trkpt><trkpt lat="36.800775544053664" lon="-108.1299852301323"><ele>1757.0</ele><time>2026-04-05T19:55:22.999Z</time></trkpt><trkpt lat="36.80088252797074" lon="-108.1300980554045"><ele>1757.0</ele><time>2026-04-05T19:55:23.999Z</time></trkpt><trkpt lat="36.80097844745976" lon="-108.13022464999707"><ele>1757.0</ele><time>2026-04-05T19:55:24.999Z</time></trkpt><trkpt lat="36.80106626090727" lon="-108.13036506225046"><ele>1757.0</ele><time>2026-04-05T19:55:25.999Z</time></trkpt><trkpt lat="36.80114491671544" lon="-108.13051770865124"><ele>1758.6666666666665</ele><time>2026-04-05T19:55:26.999Z</time></trkpt><trkpt lat="36.801213475272995" lon="-108.13068391021484"><ele>1760.3333333333335</ele><time>2026-04-05T19:55:27.999Z</time></trkpt><trkpt lat="36.801267600201726" lon="-108.13086052560202"><ele>1762.0</ele><time>2026-04-05T19:55:28.999Z</time></trkpt><trkpt lat="36.80130342306619" lon="-108.13104908391334"><ele>1762.6666666666667</ele><time>2026-04-05T19:55:29.999Z</time></trkpt><trkpt lat="36.801316995105346" lon="-108.13124287794304"><ele>1763.3333333333335</ele><time>2026-04-05T19:55:30.999Z</time></trkpt><trkpt lat="36.80132368283685" lon="-108.13143823763107"><ele>1764.0</ele><time>2026-04-05T19:55:31.999Z</time></trkpt><trkpt lat="36.80132875513242" lon="-108.13162632108298"><ele>1764.75</ele><time>2026-04-05T19:55:32.999Z</time></trkpt><trkpt lat="36.801339367229254" lon="-108.13180903853463"><ele>1765.5</ele><time>2026-04-05T19:55:33.999Z</time></trkpt><trkpt lat="36.8013579920048" lon="-108.13198470446088"><ele>1766.25</ele><time>2026-04-05T19:55:34.999Z</time></trkpt><trkpt lat="36.80138467819347" lon="-108.13215647694182"><ele>1767.0</ele><time>2026-04-05T19:55:35.999Z</time></trkpt><trkpt lat="36.801414543062236" lon="-108.13232588462968"><ele>1767.75</ele><time>2026-04-05T19:55:36.999Z</time></trkpt><trkpt lat="36.80146147598387" lon="-108.13249016645842"><ele>1768.5</ele><time>2026-04-05T19:55:37.999Z</time></trkpt><trkpt lat="36.80152516438245" lon="-108.13264777413455"><ele>1769.25</ele><time>2026-04-05T19:55:38.999Z</time></trkpt><trkpt lat="36.80159783861379" lon="-108.13280119547137"><ele>1770.0</ele><time>2026-04-05T19:55:39.999Z</time></trkpt><trkpt lat="36.8016617719813" lon="-108.13293052973243"><ele>1770.0</ele><time>2026-04-05T19:55:40.999Z</time></trkpt><trkpt lat="36.80172122963793" lon="-108.13303544645032"><ele>1770.0</ele><time>2026-04-05T19:55:41.999Z</time></trkpt><trkpt lat="36.8017863429398" lon="-108.13311141290747"><ele>1770.0</ele><time>2026-04-05T19:55:42.999Z</time></trkpt><trkpt lat="36.80183474311911" lon="-108.13316985256346"><ele>1770.0</ele><time>2026-04-05T19:55:43.999Z</time></trkpt><trkpt lat="36.80198050091525" lon="-108.13304203130696"><ele>1770.0</ele><time>2026-04-05T19:55:45.999Z</time></trkpt><trkpt lat="36.802059247211616" lon="-108.13298050780054"><ele>1770.8</ele><time>2026-04-05T19:55:46.999Z</time></trkpt><trkpt lat="36.802142574056646" lon="-108.13291999810441"><ele>1771.6</ele><time>2026-04-05T19:55:47.999Z</time></trkpt><trkpt lat="36.8022336611944" lon="-108.13286022357978"><ele>1772.4</ele><time>2026-04-05T19:55:49Z</time></trkpt><trkpt lat="36.802342080049144" lon="-108.13281031634196"><ele>1773.2</ele><time>2026-04-05T19:55:50Z</time></trkpt><trkpt lat="36.80247136568277" lon="-108.13279360095825"><ele>1774.0</ele><time>2026-04-05T19:55:51Z</time></trkpt><trkpt lat="36.802598717999714" lon="-108.13278545901164"><ele>1774.5</ele><time>2026-04-05T19:55:52Z</time></trkpt><trkpt lat="36.80273525799725" lon="-108.13278022532397"><ele>1775.0</ele><time>2026-04-05T19:55:53Z</time></trkpt><trkpt lat="36.80288256320405" lon="-108.1327757892905"><ele>1775.5</ele><time>2026-04-05T19:55:54Z</time></trkpt><trkpt lat="36.803034472981274" lon="-108.13277195174291"><ele>1776.0</ele><time>2026-04-05T19:55:55Z</time></trkpt><trkpt lat="36.803156714477105" lon="-108.13276886367538"><ele>1776.0</ele><time>2026-04-05T19:55:56Z</time></trkpt><trkpt lat="36.80326570673033" lon="-108.13276611031064"><ele>1776.0</ele><time>2026-04-05T19:55:57Z</time></trkpt><trkpt lat="36.80336833218222" lon="-108.13276351778347"><ele>1776.0</ele><time>2026-04-05T19:55:58Z</time></trkpt><trkpt lat="36.80346248224739" lon="-108.13276113936215"><ele>1776.0</ele><time>2026-04-05T19:55:59Z</time></trkpt><trkpt lat="36.803549104614035" lon="-108.13275895110587"><ele>1776.0</ele><time>2026-04-05T19:56:00Z</time></trkpt><trkpt lat="36.803625701521725" lon="-108.13277719007945"><ele>1777.25</ele><time>2026-04-05T19:56:01Z</time></trkpt><trkpt lat="36.80371059220286" lon="-108.13276853745327"><ele>1778.5</ele><time>2026-04-05T19:56:02Z</time></trkpt><trkpt lat="36.8038227102194" lon="-108.1327680711248"><ele>1779.75</ele><time>2026-04-05T19:56:03Z</time></trkpt><trkpt lat="36.80395083045228" lon="-108.13276777782636"><ele>1781.0</ele><time>2026-04-05T19:56:04Z</time></trkpt><trkpt lat="36.80409011403785" lon="-108.13274249095488"><ele>1781.0</ele><time>2026-04-05T19:56:05Z</time></trkpt><trkpt lat="36.804239317734535" lon="-108.13273625656046"><ele>1781.0</ele><time>2026-04-05T19:56:06Z</time></trkpt><trkpt lat="36.804383246878224" lon="-108.13273259642617"><ele>1781.0</ele><time>2026-04-05T19:56:07Z</time></trkpt><trkpt lat="36.80450044644492" lon="-108.1327296160355"><ele>1781.0</ele><time>2026-04-05T19:56:08Z</time></trkpt><trkpt lat="36.804603064447605" lon="-108.13272686253745"><ele>1781.1666666666665</ele><time>2026-04-05T19:56:09Z</time></trkpt><trkpt lat="36.80469426047076" lon="-108.13272502105907"><ele>1781.3333333333333</ele><time>2026-04-05T19:56:10Z</time></trkpt><trkpt lat="36.80477501061873" lon="-108.13272544978021"><ele>1781.5</ele><time>2026-04-05T19:56:11Z</time></trkpt><trkpt lat="36.80486153478357" lon="-108.13271091217426"><ele>1781.6666666666665</ele><time>2026-04-05T19:56:12Z</time></trkpt><trkpt lat="36.80493893079722" lon="-108.13269110243044"><ele>1781.8333333333333</ele><time>2026-04-05T19:56:13Z</time></trkpt><trkpt lat="36.80498453619679" lon="-108.13261718491096"><ele>1782.0</ele><time>2026-04-05T19:56:14Z</time></trkpt><trkpt lat="36.80499550826645" lon="-108.13252591147977"><ele>1782.0</ele><time>2026-04-05T19:56:15Z</time></trkpt><trkpt lat="36.804978381797525" lon="-108.13242679710842"><ele>1781.9999999999998</ele><time>2026-04-05T19:56:16Z</time></trkpt><trkpt lat="36.80496988849699" lon="-108.13230707522919"><ele>1781.9999999999998</ele><time>2026-04-05T19:56:17Z</time></trkpt><trkpt lat="36.804973499914425" lon="-108.13217770352941"><ele>1782.0</ele><time>2026-04-05T19:56:18Z</time></trkpt><trkpt lat="36.80497937005331" lon="-108.13204788794391"><ele>1782.0</ele><time>2026-04-05T19:56:19Z</time></trkpt><trkpt lat="36.80496614414479" lon="-108.1319349049746"><ele>1781.1999999999998</ele><time>2026-04-05T19:56:20Z</time></trkpt><trkpt lat="36.804966651585254" lon="-108.13182199844879"><ele>1780.3999999999999</ele><time>2026-04-05T19:56:21Z</time></trkpt><trkpt lat="36.80496716844403" lon="-108.13170392779539"><ele>1779.6000000000001</ele><time>2026-04-05T19:56:22Z</time></trkpt><trkpt lat="36.80496757198781" lon="-108.13157788756205"><ele>1778.8000000000002</ele><time>2026-04-05T19:56:23Z</time></trkpt><trkpt lat="36.8049679663339" lon="-108.13145472004571"><ele>1778.0</ele><time>2026-04-05T19:56:24Z</time></trkpt><trkpt lat="36.804968356055184" lon="-108.13133299673792"><ele>1777.8000000000002</ele><time>2026-04-05T19:56:25Z</time></trkpt><trkpt lat="36.80496874033262" lon="-108.13121297392105"><ele>1777.6000000000001</ele><time>2026-04-05T19:56:26Z</time></trkpt><trkpt lat="36.80496916195773" lon="-108.13108128608324"><ele>1777.3999999999999</ele><time>2026-04-05T19:56:27Z</time></trkpt><trkpt lat="36.80497021101571" lon="-108.13094403803841"><ele>1777.1999999999998</ele><time>2026-04-05T19:56:28Z</time></trkpt><trkpt lat="36.804971435754396" lon="-108.13080030329829"><ele>1777.0</ele><time>2026-04-05T19:56:29Z</time></trkpt><trkpt lat="36.80497276050496" lon="-108.13064483149408"><ele>1776.75</ele><time>2026-04-05T19:56:30Z</time></trkpt><trkpt lat="36.80497414482258" lon="-108.13048236854047"><ele>1776.5</ele><time>2026-04-05T19:56:31Z</time></trkpt><trkpt lat="36.80497558925748" lon="-108.13031285062823"><ele>1776.25</ele><time>2026-04-05T19:56:32Z</time></trkpt><trkpt lat="36.804975950953484" lon="-108.13013495222016"><ele>1776.0</ele><time>2026-04-05T19:56:33Z</time></trkpt><trkpt lat="36.80497629352223" lon="-108.1299482213867"><ele>1776.1999999999998</ele><time>2026-04-05T19:56:34Z</time></trkpt><trkpt lat="36.804984029327954" lon="-108.12978342202648"><ele>1776.3999999999999</ele><time>2026-04-05T19:56:35Z</time></trkpt><trkpt lat="36.80497671407501" lon="-108.12966027244433"><ele>1776.6</ele><time>2026-04-05T19:56:36Z</time></trkpt><trkpt lat="36.80498688163433" lon="-108.12955992812313"><ele>1776.8</ele><time>2026-04-05T19:56:37Z</time></trkpt><trkpt lat="36.80497715760177" lon="-108.12947720665387"><ele>1777.0</ele><time>2026-04-05T19:56:38Z</time></trkpt><trkpt lat="36.80497734719484" lon="-108.12937385724274"><ele>1777.0</ele><time>2026-04-05T19:56:39Z</time></trkpt><trkpt lat="36.805104163954496" lon="-108.12923434293428"><ele>1777.0</ele><time>2026-04-05T19:56:40Z</time></trkpt><trkpt lat="36.80513490795538" lon="-108.12912518517626"><ele>1777.0</ele><time>2026-04-05T19:56:41Z</time></trkpt><trkpt lat="36.80519255518888" lon="-108.12906614361091"><ele>1777.0</ele><time>2026-04-05T19:56:42Z</time></trkpt><trkpt lat="36.80530345206722" lon="-108.1290252671073"><ele>1778.3999999999999</ele><time>2026-04-05T19:56:43Z</time></trkpt><trkpt lat="36.805409900606016" lon="-108.12895027041098"><ele>1779.7999999999997</ele><time>2026-04-05T19:56:43.999Z</time></trkpt><trkpt lat="36.805499114060936" lon="-108.12883178625816"><ele>1781.2</ele><time>2026-04-05T19:56:44.999Z</time></trkpt><trkpt lat="36.805560778574836" lon="-108.12875463343897"><ele>1782.6</ele><time>2026-04-05T19:56:45.999Z</time></trkpt><trkpt lat="36.805629381173716" lon="-108.1286937990695"><ele>1784.0</ele><time>2026-04-05T19:56:46.999Z</time></trkpt><trkpt lat="36.805701661675805" lon="-108.1287290247311"><ele>1784.0</ele><time>2026-04-05T19:56:47.999Z</time></trkpt><trkpt lat="36.80580111971041" lon="-108.1287168132732"><ele>1784.0</ele><time>2026-04-05T19:56:48.999Z</time></trkpt><trkpt lat="36.805920433931014" lon="-108.12864396252563"><ele>1784.0</ele><time>2026-04-05T19:56:49.999Z</time></trkpt><trkpt lat="36.80603579953357" lon="-108.12857084881617"><ele>1784.0</ele><time>2026-04-05T19:56:50.999Z</time></trkpt><trkpt lat="36.80614203533991" lon="-108.12854208890936"><ele>1784.5</ele><time>2026-04-05T19:56:51.999Z</time></trkpt><trkpt lat="36.80626092657463" lon="-108.12853358656179"><ele>1785.0</ele><time>2026-04-05T19:56:52.999Z</time></trkpt><trkpt lat="36.80641274163966" lon="-108.12842257378433"><ele>1785.5</ele><time>2026-04-05T19:56:53.999Z</time></trkpt><trkpt lat="36.80651175615736" lon="-108.12829070617953"><ele>1786.0</ele><time>2026-04-05T19:56:54.999Z</time></trkpt><trkpt lat="36.80661136424595" lon="-108.128162850047"><ele>1786.0</ele><time>2026-04-05T19:56:55.999Z</time></trkpt><trkpt lat="36.80671898267411" lon="-108.12814825411171"><ele>1786.0</ele><time>2026-04-05T19:56:56.999Z</time></trkpt><trkpt lat="36.80687269170065" lon="-108.12819198552319"><ele>1786.0</ele><time>2026-04-05T19:56:57.999Z</time></trkpt><trkpt lat="36.807034804449366" lon="-108.12818377610097"><ele>1786.0</ele><time>2026-04-05T19:56:58.999Z</time></trkpt><trkpt lat="36.8071811731532" lon="-108.12818628087648"><ele>1786.25</ele><time>2026-04-05T19:56:59.999Z</time></trkpt><trkpt lat="36.807339151682434" lon="-108.12819603709904"><ele>1786.5</ele><time>2026-04-05T19:57:00.999Z</time></trkpt><trkpt lat="36.80748852784679" lon="-108.12818477730654"><ele>1786.75</ele><time>2026-04-05T19:57:01.999Z</time></trkpt><trkpt lat="36.8076247255669" lon="-108.12815846698788"><ele>1787.0</ele><time>2026-04-05T19:57:02.999Z</time></trkpt><trkpt lat="36.80774548004794" lon="-108.12817202251685"><ele>1787.8333333333333</ele><time>2026-04-05T19:57:03.999Z</time></trkpt><trkpt lat="36.8078412998719" lon="-108.12820667543541"><ele>1788.6666666666665</ele><time>2026-04-05T19:57:04.999Z</time></trkpt><trkpt lat="36.807903628171886" lon="-108.12819405393749"><ele>1789.5</ele><time>2026-04-05T19:57:05.999Z</time></trkpt><trkpt lat="36.8079003517111" lon="-108.12810518896205"><ele>1790.3333333333335</ele><time>2026-04-05T19:57:06.999Z</time></trkpt><trkpt lat="36.80788690757045" lon="-108.12798573335476"><ele>1791.1666666666667</ele><time>2026-04-05T19:57:07.999Z</time></trkpt><trkpt lat="36.80788236994663" lon="-108.12787800546964"><ele>1792.0</ele><time>2026-04-05T19:57:08.999Z</time></trkpt><trkpt lat="36.80790206876972" lon="-108.1277905924824"><ele>1792.0</ele><time>2026-04-05T19:57:09.999Z</time></trkpt><trkpt lat="36.807982949108386" lon="-108.12773602102129"><ele>1791.9999999999998</ele><time>2026-04-05T19:57:10.999Z</time></trkpt><trkpt lat="36.80807047243629" lon="-108.12764303541621"><ele>1791.9999999999998</ele><time>2026-04-05T19:57:11.999Z</time></trkpt><trkpt lat="36.8081485121651" lon="-108.12755912598458"><ele>1792.0</ele><time>2026-04-05T19:57:12.999Z</time></trkpt><trkpt lat="36.80822741746156" lon="-108.12746102945734"><ele>1792.0</ele><time>2026-04-05T19:57:13.999Z</time></trkpt><trkpt lat="36.80831221845901" lon="-108.12735057380745"><ele>1791.5000000000002</ele><time>2026-04-05T19:57:14.999Z</time></trkpt><trkpt lat="36.80839207296249" lon="-108.12726563538314"><ele>1791.0</ele><time>2026-04-05T19:57:15.999Z</time></trkpt><trkpt lat="36.80845183677149" lon="-108.12716251054026"><ele>1790.5</ele><time>2026-04-05T19:57:16.999Z</time></trkpt><trkpt lat="36.8084881566299" lon="-108.12709538705614"><ele>1790.0</ele><time>2026-04-05T19:57:17.999Z</time></trkpt><trkpt lat="36.80855306450086" lon="-108.12705997839306"><ele>1789.5000000000002</ele><time>2026-04-05T19:57:19.999Z</time></trkpt><trkpt lat="36.80860111833858" lon="-108.1269928555599"><ele>1789.0</ele><time>2026-04-05T19:58:33Z</time></trkpt><trkpt lat="36.808646514324025" lon="-108.12691138859853"><ele>1789.0</ele><time>2026-04-05T19:58:39Z</time></trkpt><trkpt lat="36.80869559480807" lon="-108.12685759105653"><ele>1789.0</ele><time>2026-04-05T19:58:40Z</time></trkpt><trkpt lat="36.808753436136904" lon="-108.12680054755646"><ele>1789.0</ele><time>2026-04-05T19:58:41Z</time></trkpt><trkpt lat="36.80882035934539" lon="-108.12671263606116"><ele>1789.0</ele><time>2026-04-05T19:58:42Z</time></trkpt><trkpt lat="36.808911417484644" lon="-108.12665317848337"><ele>1789.0</ele><time>2026-04-05T19:58:43Z</time></trkpt><trkpt lat="36.8090151071368" lon="-108.12658315088873"><ele>1788.0</ele><time>2026-04-05T19:58:44Z</time></trkpt><trkpt lat="36.80913984011087" lon="-108.1264984966192"><ele>1787.0</ele><time>2026-04-05T19:58:45Z</time></trkpt><trkpt lat="36.80927365277074" lon="-108.126413752514"><ele>1786.0</ele><time>2026-04-05T19:58:46Z</time></trkpt><trkpt lat="36.80942209687995" lon="-108.12633237392828"><ele>1788.5</ele><time>2026-04-05T19:58:47Z</time></trkpt><trkpt lat="36.809575116641696" lon="-108.12626324595422"><ele>1791.0</ele><time>2026-04-05T19:58:48Z</time></trkpt><trkpt lat="36.80971999269678" lon="-108.12621333593394"><ele>1793.5</ele><time>2026-04-05T19:58:49Z</time></trkpt><trkpt lat="36.8098517790085" lon="-108.1261741115435"><ele>1796.0</ele><time>2026-04-05T19:58:50Z</time></trkpt><trkpt lat="36.80996952899473" lon="-108.1261347282179"><ele>1796.0</ele><time>2026-04-05T19:58:51Z</time></trkpt><trkpt lat="36.810066582414116" lon="-108.1261017816535"><ele>1796.0</ele><time>2026-04-05T19:58:52Z</time></trkpt><trkpt lat="36.81013329915234" lon="-108.12607119567043"><ele>1796.0</ele><time>2026-04-05T19:58:54Z</time></trkpt><trkpt lat="36.81045341440103" lon="-108.12658978605533"><ele>1797.25</ele><time>2026-04-05T19:58:56Z</time></trkpt><trkpt lat="36.810554636484284" lon="-108.12665421412895"><ele>1798.5</ele><time>2026-04-05T19:58:57Z</time></trkpt><trkpt lat="36.810695352155896" lon="-108.12672922053699"><ele>1799.75</ele><time>2026-04-05T19:58:58Z</time></trkpt><trkpt lat="36.810801107029484" lon="-108.12681822350145"><ele>1801.0</ele><time>2026-04-05T19:58:59Z</time></trkpt><trkpt lat="36.810902230362984" lon="-108.12690680227341"><ele>1801.0000000000002</ele><time>2026-04-05T19:59:00Z</time></trkpt><trkpt lat="36.81095038278969" lon="-108.12697187251422"><ele>1801.0</ele><time>2026-04-05T19:59:01Z</time></trkpt><trkpt lat="36.81100771944778" lon="-108.12692583215659"><ele>1801.0</ele><time>2026-04-05T19:59:02Z</time></trkpt><trkpt lat="36.811054767117035" lon="-108.1268260792689"><ele>1801.0</ele><time>2026-04-05T19:59:03Z</time></trkpt><trkpt lat="36.811104424462656" lon="-108.12674397096433"><ele>1801.0000000000002</ele><time>2026-04-05T19:59:04Z</time></trkpt><trkpt lat="36.81118378245063" lon="-108.12669290677546"><ele>1801.0</ele><time>2026-04-05T19:59:05Z</time></trkpt><trkpt lat="36.81123993688066" lon="-108.1265980393307"><ele>1800.25</ele><time>2026-04-05T19:59:06Z</time></trkpt><trkpt lat="36.81133603984381" lon="-108.12652452781909"><ele>1799.5</ele><time>2026-04-05T19:59:07Z</time></trkpt><trkpt lat="36.81148317023063" lon="-108.12650619787146"><ele>1798.75</ele><time>2026-04-05T19:59:08Z</time></trkpt><trkpt lat="36.811653689121556" lon="-108.12650779091766"><ele>1798.0</ele><time>2026-04-05T19:59:09Z</time></trkpt><trkpt lat="36.81181673830694" lon="-108.12645815824787"><ele>1797.5</ele><time>2026-04-05T19:59:10Z</time></trkpt><trkpt lat="36.81193639453427" lon="-108.1263946856947"><ele>1797.0</ele><time>2026-04-05T19:59:11Z</time></trkpt><trkpt lat="36.812051381851084" lon="-108.1263414956291"><ele>1796.5</ele><time>2026-04-05T19:59:11.999Z</time></trkpt><trkpt lat="36.81214748195187" lon="-108.12628902545589"><ele>1796.0</ele><time>2026-04-05T19:59:12.999Z</time></trkpt><trkpt lat="36.81227718715467" lon="-108.12624566773323"><ele>1796.0</ele><time>2026-04-05T19:59:13.999Z</time></trkpt><trkpt lat="36.81241128636518" lon="-108.1262390078535"><ele>1796.0</ele><time>2026-04-05T19:59:14.999Z</time></trkpt><trkpt lat="36.81254510996902" lon="-108.12625671321487"><ele>1796.0</ele><time>2026-04-05T19:59:15.999Z</time></trkpt><trkpt lat="36.812654563606586" lon="-108.1262959272133"><ele>1796.0</ele><time>2026-04-05T19:59:16.999Z</time></trkpt><trkpt lat="36.812763646347854" lon="-108.12630115821067"><ele>1796.0</ele><time>2026-04-05T19:59:17.999Z</time></trkpt><trkpt lat="36.812840876458935" lon="-108.12635987156467"><ele>1796.0</ele><time>2026-04-05T19:59:18.999Z</time></trkpt><trkpt lat="36.81292258654544" lon="-108.1263986025271"><ele>1796.0</ele><time>2026-04-05T19:59:19.999Z</time></trkpt><trkpt lat="36.81302084504326" lon="-108.1264426771052"><ele>1796.0</ele><time>2026-04-05T19:59:20.999Z</time></trkpt><trkpt lat="36.81309056465842" lon="-108.12644625038654"><ele>1796.0</ele><time>2026-04-05T19:59:21.999Z</time></trkpt><trkpt lat="36.813253279329004" lon="-108.12595407171342"><ele>1796.0</ele><time>2026-04-05T19:59:22.999Z</time></trkpt><trkpt lat="36.81335855400636" lon="-108.12582601596066"><ele>1796.0</ele><time>2026-04-05T19:59:23.999Z</time></trkpt><trkpt lat="36.813430453502534" lon="-108.12569770703644"><ele>1796.0</ele><time>2026-04-05T19:59:24.999Z</time></trkpt><trkpt lat="36.81354586524411" lon="-108.12561467694293"><ele>1796.0</ele><time>2026-04-05T19:59:25.999Z</time></trkpt><trkpt lat="36.81366951572631" lon="-108.12555817515093"><ele>1795.25</ele><time>2026-04-05T19:59:26.999Z</time></trkpt><trkpt lat="36.8138240597307" lon="-108.12553130985386"><ele>1794.5</ele><time>2026-04-05T19:59:27.999Z</time></trkpt><trkpt lat="36.8139702809498" lon="-108.12547472393673"><ele>1793.75</ele><time>2026-04-05T19:59:28.999Z</time></trkpt><trkpt lat="36.81409873108497" lon="-108.12542128339584"><ele>1793.0</ele><time>2026-04-05T19:59:29.999Z</time></trkpt><trkpt lat="36.81421551863731" lon="-108.12535935564941"><ele>1792.9999999999998</ele><time>2026-04-05T19:59:30.999Z</time></trkpt><trkpt lat="36.81432067394564" lon="-108.12533131862641"><ele>1793.0</ele><time>2026-04-05T19:59:31.999Z</time></trkpt><trkpt lat="36.81439134172707" lon="-108.12534998806107"><ele>1793.0</ele><time>2026-04-05T19:59:32.999Z</time></trkpt><trkpt lat="36.81443196276678" lon="-108.12542978097504"><ele>1793.0</ele><time>2026-04-05T19:59:33.999Z</time></trkpt><trkpt lat="36.81447145355124" lon="-108.12552968040407"><ele>1792.9999999999998</ele><time>2026-04-05T19:59:34.999Z</time></trkpt><trkpt lat="36.81454673507435" lon="-108.12557303172669"><ele>1793.0</ele><time>2026-04-05T19:59:35.999Z</time></trkpt><trkpt lat="36.81463477854292" lon="-108.12552269934983"><ele>1792.25</ele><time>2026-04-05T19:59:36.999Z</time></trkpt><trkpt lat="36.814753098755304" lon="-108.12546349981376"><ele>1791.5</ele><time>2026-04-05T19:59:37.999Z</time></trkpt><trkpt lat="36.81486917573812" lon="-108.12544775841447"><ele>1790.75</ele><time>2026-04-05T19:59:38.999Z</time></trkpt><trkpt lat="36.81497495459303" lon="-108.12543819292783"><ele>1790.0</ele><time>2026-04-05T19:59:39.999Z</time></trkpt><trkpt lat="36.81510130358429" lon="-108.12540608022117"><ele>1789.25</ele><time>2026-04-05T19:59:40.999Z</time></trkpt><trkpt lat="36.81520824626385" lon="-108.12535301191642"><ele>1788.5</ele><time>2026-04-05T19:59:41.999Z</time></trkpt><trkpt lat="36.815348177833684" lon="-108.12533517092159"><ele>1787.75</ele><time>2026-04-05T19:59:42.999Z</time></trkpt><trkpt lat="36.81549003864324" lon="-108.12537584754935"><ele>1787.0</ele><time>2026-04-05T19:59:43.999Z</time></trkpt><trkpt lat="36.81563111311864" lon="-108.12540265667089"><ele>1787.0</ele><time>2026-04-05T19:59:44.999Z</time></trkpt><trkpt lat="36.81575331209791" lon="-108.12539726941453"><ele>1787.0</ele><time>2026-04-05T19:59:45.999Z</time></trkpt><trkpt lat="36.815876618215626" lon="-108.12538332913984"><ele>1787.0</ele><time>2026-04-05T19:59:46.999Z</time></trkpt><trkpt lat="36.816002224081664" lon="-108.12539145502613"><ele>1787.0</ele><time>2026-04-05T19:59:47.999Z</time></trkpt><trkpt lat="36.816133252135636" lon="-108.12542473146236"><ele>1787.6</ele><time>2026-04-05T19:59:48.999Z</time></trkpt><trkpt lat="36.81627527287667" lon="-108.12543954760146"><ele>1788.1999999999998</ele><time>2026-04-05T19:59:49.999Z</time></trkpt><trkpt lat="36.81637949966933" lon="-108.12543914428578"><ele>1788.8</ele><time>2026-04-05T19:59:50.999Z</time></trkpt><trkpt lat="36.816448262269915" lon="-108.1253916682824"><ele>1789.4</ele><time>2026-04-05T19:59:51.999Z</time></trkpt><trkpt lat="36.81653074775417" lon="-108.12529809872566"><ele>1790.0</ele><time>2026-04-05T19:59:52.999Z</time></trkpt><trkpt lat="36.81663265089309" lon="-108.12521958735275"><ele>1790.0</ele><time>2026-04-05T19:59:53.999Z</time></trkpt><trkpt lat="36.81672595720708" lon="-108.12519897135151"><ele>1790.0</ele><time>2026-04-05T19:59:54.999Z</time></trkpt><trkpt lat="36.81683994759333" lon="-108.12519019280437"><ele>1790.0</ele><time>2026-04-05T19:59:55.999Z</time></trkpt><trkpt lat="36.81695652995652" lon="-108.12517960042412"><ele>1790.0</ele><time>2026-04-05T19:59:56.999Z</time></trkpt><trkpt lat="36.817066681425864" lon="-108.12519912194354"><ele>1790.0</ele><time>2026-04-05T19:59:57.999Z</time></trkpt><trkpt lat="36.81716385566414" lon="-108.12523539976493"><ele>1790.75</ele><time>2026-04-05T19:59:58.999Z</time></trkpt><trkpt lat="36.81731048227195" lon="-108.12534223142082"><ele>1791.5</ele><time>2026-04-05T20:00:01Z</time></trkpt><trkpt lat="36.81736303194735" lon="-108.125433619469"><ele>1792.25</ele><time>2026-04-05T20:00:02Z</time></trkpt><trkpt lat="36.81739929399752" lon="-108.12555178492227"><ele>1793.0</ele><time>2026-04-05T20:00:03Z</time></trkpt><trkpt lat="36.8174328504694" lon="-108.12567599061504"><ele>1793.25</ele><time>2026-04-05T20:00:04Z</time></trkpt><trkpt lat="36.8174867341188" lon="-108.12573758365153"><ele>1793.5</ele><time>2026-04-05T20:00:06Z</time></trkpt><trkpt lat="36.817669040024036" lon="-108.12588884707235"><ele>1793.75</ele><time>2026-04-05T20:00:08Z</time></trkpt><trkpt lat="36.81773881044977" lon="-108.12594475734218"><ele>1794.0</ele><time>2026-04-05T20:00:10Z</time></trkpt><trkpt lat="36.81784331040075" lon="-108.12594923390336"><ele>1794.0</ele><time>2026-04-05T20:00:12Z</time></trkpt><trkpt lat="36.818012316854805" lon="-108.12595562084432"><ele>1794.0</ele><time>2026-04-05T20:00:14Z</time></trkpt><trkpt lat="36.8181203570803" lon="-108.12597200805958"><ele>1794.0</ele><time>2026-04-05T20:00:15Z</time></trkpt><trkpt lat="36.81822787470138" lon="-108.125978110095"><ele>1794.0</ele><time>2026-04-05T20:00:16Z</time></trkpt><trkpt lat="36.818344186319486" lon="-108.1259733406678"><ele>1794.0</ele><time>2026-04-05T20:00:17Z</time></trkpt><trkpt lat="36.81846772410119" lon="-108.12596255867373"><ele>1794.0</ele><time>2026-04-05T20:00:18Z</time></trkpt><trkpt lat="36.818635543480156" lon="-108.12595355055224"><ele>1794.0</ele><time>2026-04-05T20:00:19Z</time></trkpt><trkpt lat="36.81879617164461" lon="-108.12595583565906"><ele>1792.75</ele><time>2026-04-05T20:00:20Z</time></trkpt><trkpt lat="36.81894172977984" lon="-108.12595375180311"><ele>1791.5</ele><time>2026-04-05T20:00:21Z</time></trkpt><trkpt lat="36.81907673463522" lon="-108.12595160154724"><ele>1790.25</ele><time>2026-04-05T20:00:22Z</time></trkpt><trkpt lat="36.81919314087125" lon="-108.12595791842136"><ele>1789.0</ele><time>2026-04-05T20:00:23Z</time></trkpt><trkpt lat="36.819313600387595" lon="-108.12594588499225"><ele>1788.0</ele><time>2026-04-05T20:00:24Z</time></trkpt><trkpt lat="36.81942732849854" lon="-108.12591646336467"><ele>1787.0</ele><time>2026-04-05T20:00:25Z</time></trkpt><trkpt lat="36.81952087526815" lon="-108.12588694273587"><ele>1786.0</ele><time>2026-04-05T20:00:26Z</time></trkpt><trkpt lat="36.81959807147227" lon="-108.12587029123684"><ele>1785.0</ele><time>2026-04-05T20:00:27Z</time></trkpt><trkpt lat="36.81971090776741" lon="-108.12596615250229"><ele>1784.0</ele><time>2026-04-05T20:00:29Z</time></trkpt><trkpt lat="36.8198074553729" lon="-108.12603684200101"><ele>1784.0</ele><time>2026-04-05T20:00:30Z</time></trkpt><trkpt lat="36.81989137711114" lon="-108.12607549995701"><ele>1784.0</ele><time>2026-04-05T20:00:31Z</time></trkpt><trkpt lat="36.819965436583175" lon="-108.12611584958043"><ele>1784.0</ele><time>2026-04-05T20:00:32Z</time></trkpt><trkpt lat="36.820035066855255" lon="-108.12615487692496"><ele>1784.0</ele><time>2026-04-05T20:00:33Z</time></trkpt><trkpt lat="36.820114425311964" lon="-108.12614806938277"><ele>1784.0</ele><time>2026-04-05T20:00:34Z</time></trkpt><trkpt lat="36.8202368798575" lon="-108.1260587851323"><ele>1783.8000000000002</ele><time>2026-04-05T20:00:36Z</time></trkpt><trkpt lat="36.82032333645552" lon="-108.12607415812452"><ele>1783.6000000000001</ele><time>2026-04-05T20:00:37Z</time></trkpt><trkpt lat="36.820430333979125" lon="-108.12612608612469"><ele>1783.4</ele><time>2026-04-05T20:00:38Z</time></trkpt><trkpt lat="36.8205300469695" lon="-108.1261868304041"><ele>1783.2</ele><time>2026-04-05T20:00:39Z</time></trkpt><trkpt lat="36.82062902447257" lon="-108.12629382204291"><ele>1783.0</ele><time>2026-04-05T20:00:40Z</time></trkpt><trkpt lat="36.82074407086451" lon="-108.12642043005039"><ele>1783.0</ele><time>2026-04-05T20:00:41Z</time></trkpt><trkpt lat="36.820850375970124" lon="-108.12651435917547"><ele>1783.0000000000002</ele><time>2026-04-05T20:00:42Z</time></trkpt><trkpt lat="36.820949396073345" lon="-108.12654754035219"><ele>1783.0000000000002</ele><time>2026-04-05T20:00:43Z</time></trkpt><trkpt lat="36.82103742761203" lon="-108.12656372040543"><ele>1783.0</ele><time>2026-04-05T20:00:44Z</time></trkpt><trkpt lat="36.821141422536414" lon="-108.12658436922777"><ele>1783.0</ele><time>2026-04-05T20:00:45Z</time></trkpt><trkpt lat="36.8212385472342" lon="-108.12662076334782"><ele>1784.5</ele><time>2026-04-05T20:00:46Z</time></trkpt><trkpt lat="36.82136735674508" lon="-108.12662945476852"><ele>1786.0</ele><time>2026-04-05T20:00:47Z</time></trkpt><trkpt lat="36.82148486237253" lon="-108.12667031118774"><ele>1787.5</ele><time>2026-04-05T20:00:48Z</time></trkpt><trkpt lat="36.82156816702669" lon="-108.12679108189563"><ele>1789.0</ele><time>2026-04-05T20:00:49Z</time></trkpt><trkpt lat="36.82165407899505" lon="-108.1268752907687"><ele>1789.0000000000002</ele><time>2026-04-05T20:00:50Z</time></trkpt><trkpt lat="36.82172822297627" lon="-108.1269450796777"><ele>1789.0</ele><time>2026-04-05T20:00:51Z</time></trkpt><trkpt lat="36.82178702696146" lon="-108.12703748004742"><ele>1789.0</ele><time>2026-04-05T20:00:52Z</time></trkpt><trkpt lat="36.82184263555021" lon="-108.12709703149706"><ele>1789.0</ele><time>2026-04-05T20:00:53Z</time></trkpt><trkpt lat="36.82191727863737" lon="-108.12711834434731"><ele>1789.0000000000002</ele><time>2026-04-05T20:00:54Z</time></trkpt><trkpt lat="36.82199975468427" lon="-108.12711669955952"><ele>1789.0</ele><time>2026-04-05T20:00:55Z</time></trkpt><trkpt lat="36.82207066099123" lon="-108.12712055112989"><ele>1789.8000000000002</ele><time>2026-04-05T20:00:56Z</time></trkpt><trkpt lat="36.822121460255396" lon="-108.12707152253765"><ele>1790.6000000000001</ele><time>2026-04-05T20:00:57Z</time></trkpt><trkpt lat="36.82216595948927" lon="-108.12697055943494"><ele>1791.4</ele><time>2026-04-05T20:00:58Z</time></trkpt><trkpt lat="36.8222194615968" lon="-108.12685654457968"><ele>1792.2</ele><time>2026-04-05T20:00:59Z</time></trkpt><trkpt lat="36.82224595761914" lon="-108.12673692217716"><ele>1793.0</ele><time>2026-04-05T20:01:00Z</time></trkpt><trkpt lat="36.82226587684795" lon="-108.12662617992075"><ele>1791.75</ele><time>2026-04-05T20:01:01Z</time></trkpt><trkpt lat="36.822234322584634" lon="-108.12647819472106"><ele>1790.5</ele><time>2026-04-05T20:01:02Z</time></trkpt><trkpt lat="36.822222844449286" lon="-108.12632091489213"><ele>1789.25</ele><time>2026-04-05T20:01:03Z</time></trkpt><trkpt lat="36.822191450264086" lon="-108.12615117930493"><ele>1788.0</ele><time>2026-04-05T20:01:04Z</time></trkpt><trkpt lat="36.82215020796853" lon="-108.12603304836534"><ele>1788.0</ele><time>2026-04-05T20:01:05Z</time></trkpt><trkpt lat="36.822121215395434" lon="-108.1259229246713"><ele>1788.0000000000002</ele><time>2026-04-05T20:01:06Z</time></trkpt><trkpt lat="36.82216292849821" lon="-108.12583069178855"><ele>1788.0000000000002</ele><time>2026-04-05T20:01:07Z</time></trkpt><trkpt lat="36.82222679633094" lon="-108.12573720943655"><ele>1788.0</ele><time>2026-04-05T20:01:08Z</time></trkpt><trkpt lat="36.82230762531206" lon="-108.12562350115977"><ele>1788.0</ele><time>2026-04-05T20:01:09Z</time></trkpt><trkpt lat="36.82241217879432" lon="-108.12555204044867"><ele>1788.25</ele><time>2026-04-05T20:01:10Z</time></trkpt><trkpt lat="36.822503916021766" lon="-108.12549218048945"><ele>1788.5</ele><time>2026-04-05T20:01:11Z</time></trkpt><trkpt lat="36.82258664698106" lon="-108.1253972270204"><ele>1788.75</ele><time>2026-04-05T20:01:12Z</time></trkpt><trkpt lat="36.82268335345257" lon="-108.12531716295041"><ele>1789.0</ele><time>2026-04-05T20:01:13Z</time></trkpt><trkpt lat="36.822786141945436" lon="-108.12522953990474"><ele>1789.4</ele><time>2026-04-05T20:01:14Z</time></trkpt><trkpt lat="36.82288082091458" lon="-108.12513741216861"><ele>1789.8000000000002</ele><time>2026-04-05T20:01:15Z</time></trkpt><trkpt lat="36.822958833302216" lon="-108.12504219077353"><ele>1790.1999999999998</ele><time>2026-04-05T20:01:16Z</time></trkpt><trkpt lat="36.82302721727951" lon="-108.12497412602492"><ele>1790.6</ele><time>2026-04-05T20:01:17Z</time></trkpt><trkpt lat="36.82309509982447" lon="-108.12492421583006"><ele>1791.0</ele><time>2026-04-05T20:01:18Z</time></trkpt><trkpt lat="36.823181884953385" lon="-108.12488725413515"><ele>1791.0</ele><time>2026-04-05T20:01:19Z</time></trkpt><trkpt lat="36.82326387856089" lon="-108.12484978719014"><ele>1791.0</ele><time>2026-04-05T20:01:20Z</time></trkpt><trkpt lat="36.82332949728851" lon="-108.12480118643485"><ele>1791.0</ele><time>2026-04-05T20:01:21Z</time></trkpt><trkpt lat="36.82337112432928" lon="-108.12469942867934"><ele>1791.0</ele><time>2026-04-05T20:01:22Z</time></trkpt><trkpt lat="36.82340235177205" lon="-108.12459763402933"><ele>1791.0</ele><time>2026-04-05T20:01:23Z</time></trkpt><trkpt lat="36.82341269962327" lon="-108.12450380171664"><ele>1791.0</ele><time>2026-04-05T20:01:24Z</time></trkpt><trkpt lat="36.823441382726415" lon="-108.12440858401631"><ele>1791.0</ele><time>2026-04-05T20:01:24.999Z</time></trkpt><trkpt lat="36.82351338755469" lon="-108.12429115627964"><ele>1791.0</ele><time>2026-04-05T20:01:26.999Z</time></trkpt><trkpt lat="36.82360611990343" lon="-108.1242237074173"><ele>1791.0</ele><time>2026-04-05T20:01:28.999Z</time></trkpt><trkpt lat="36.82369975596284" lon="-108.12417725604884"><ele>1791.0</ele><time>2026-04-05T20:01:30.999Z</time></trkpt><trkpt lat="36.82377830769907" lon="-108.12416533847977"><ele>1791.0</ele><time>2026-04-05T20:01:31.999Z</time></trkpt><trkpt lat="36.82387218424201" lon="-108.12415348396097"><ele>1791.0</ele><time>2026-04-05T20:01:32.999Z</time></trkpt><trkpt lat="36.82396033141304" lon="-108.12412606460221"><ele>1791.0</ele><time>2026-04-05T20:01:33.999Z</time></trkpt><trkpt lat="36.824032404768126" lon="-108.12410579737403"><ele>1791.0</ele><time>2026-04-05T20:01:34.999Z</time></trkpt><trkpt lat="36.82410220770578" lon="-108.12412045441724"><ele>1791.0</ele><time>2026-04-05T20:01:35.999Z</time></trkpt><trkpt lat="36.82416558768465" lon="-108.12420448385538"><ele>1791.0</ele><time>2026-04-05T20:01:36.999Z</time></trkpt><trkpt lat="36.82426641232501" lon="-108.12431485771005"><ele>1790.75</ele><time>2026-04-05T20:01:37.999Z</time></trkpt><trkpt lat="36.82436371309106" lon="-108.12438323159036"><ele>1790.5</ele><time>2026-04-05T20:01:38.999Z</time></trkpt><trkpt lat="36.82446694764298" lon="-108.1244737259028"><ele>1790.25</ele><time>2026-04-05T20:01:39.999Z</time></trkpt><trkpt lat="36.82456627856893" lon="-108.1245546530648"><ele>1790.0</ele><time>2026-04-05T20:01:40.999Z</time></trkpt><trkpt lat="36.82467186768604" lon="-108.12460291497607"><ele>1790.0</ele><time>2026-04-05T20:01:41.999Z</time></trkpt><trkpt lat="36.82476408848327" lon="-108.1246183357975"><ele>1790.0</ele><time>2026-04-05T20:01:42.999Z</time></trkpt><trkpt lat="36.824838182089586" lon="-108.1246847141378"><ele>1790.0</ele><time>2026-04-05T20:01:43.999Z</time></trkpt><trkpt lat="36.82490807474065" lon="-108.12478576401577"><ele>1790.0</ele><time>2026-04-05T20:01:44.999Z</time></trkpt><trkpt lat="36.82499744053396" lon="-108.12484345962876"><ele>1790.0</ele><time>2026-04-05T20:01:45.999Z</time></trkpt><trkpt lat="36.82510709977625" lon="-108.12490259921829"><ele>1791.0</ele><time>2026-04-05T20:01:46.999Z</time></trkpt><trkpt lat="36.82521437744597" lon="-108.12496231855776"><ele>1792.0</ele><time>2026-04-05T20:01:47.999Z</time></trkpt><trkpt lat="36.825294470640365" lon="-108.12498150899383"><ele>1793.0</ele><time>2026-04-05T20:01:48.999Z</time></trkpt><trkpt lat="36.82537321541758" lon="-108.12488800349634"><ele>1794.0</ele><time>2026-04-05T20:01:49.999Z</time></trkpt><trkpt lat="36.82545411353466" lon="-108.12477965817249"><ele>1795.0</ele><time>2026-04-05T20:01:50.999Z</time></trkpt><trkpt lat="36.82554985822536" lon="-108.12471034953585"><ele>1795.0</ele><time>2026-04-05T20:01:51.999Z</time></trkpt><trkpt lat="36.8256786453419" lon="-108.12467268606144"><ele>1795.0</ele><time>2026-04-05T20:01:52.999Z</time></trkpt><trkpt lat="36.825800609326265" lon="-108.12459717944104"><ele>1795.0</ele><time>2026-04-05T20:01:53.999Z</time></trkpt><trkpt lat="36.82590602734941" lon="-108.12449026491026"><ele>1795.0</ele><time>2026-04-05T20:01:54.999Z</time></trkpt><trkpt lat="36.82602802570285" lon="-108.12438349594133"><ele>1795.5</ele><time>2026-04-05T20:01:55.999Z</time></trkpt><trkpt lat="36.82613362818506" lon="-108.12429900981867"><ele>1796.0</ele><time>2026-04-05T20:01:56.999Z</time></trkpt><trkpt lat="36.82622504022736" lon="-108.12421107518543"><ele>1796.5</ele><time>2026-04-05T20:01:57.999Z</time></trkpt><trkpt lat="36.82634650612905" lon="-108.12409044470458"><ele>1797.0</ele><time>2026-04-05T20:01:58.999Z</time></trkpt><trkpt lat="36.82647163200495" lon="-108.12398131974224"><ele>1797.0</ele><time>2026-04-05T20:01:59.999Z</time></trkpt><trkpt lat="36.826572912751324" lon="-108.12388856894145"><ele>1797.0</ele><time>2026-04-05T20:02:00.999Z</time></trkpt><trkpt lat="36.82668917694451" lon="-108.12374867141428"><ele>1797.0</ele><time>2026-04-05T20:02:01.999Z</time></trkpt><trkpt lat="36.82679531314295" lon="-108.12361936288286"><ele>1797.0</ele><time>2026-04-05T20:02:02.999Z</time></trkpt><trkpt lat="36.82690225640015" lon="-108.1235135976533"><ele>1797.0</ele><time>2026-04-05T20:02:03.999Z</time></trkpt><trkpt lat="36.82701269758702" lon="-108.12340843519357"><ele>1797.0</ele><time>2026-04-05T20:02:04.999Z</time></trkpt><trkpt lat="36.82713519433367" lon="-108.12328651635127"><ele>1797.0</ele><time>2026-04-05T20:02:05.999Z</time></trkpt><trkpt lat="36.827270083904736" lon="-108.12316779444508"><ele>1796.6666666666665</ele><time>2026-04-05T20:02:07Z</time></trkpt><trkpt lat="36.82739065438865" lon="-108.1230468876414"><ele>1796.3333333333333</ele><time>2026-04-05T20:02:08Z</time></trkpt><trkpt lat="36.82752363561929" lon="-108.12292185945304"><ele>1796.0</ele><time>2026-04-05T20:02:09Z</time></trkpt><trkpt lat="36.82766500109918" lon="-108.12279361652459"><ele>1795.0</ele><time>2026-04-05T20:02:10Z</time></trkpt><trkpt lat="36.82777820880596" lon="-108.12266400545013"><ele>1794.0</ele><time>2026-04-05T20:02:11Z</time></trkpt><trkpt lat="36.82789286933968" lon="-108.122552865802"><ele>1793.0</ele><time>2026-04-05T20:02:12Z</time></trkpt><trkpt lat="36.828023972445266" lon="-108.12244411699321"><ele>1793.0</ele><time>2026-04-05T20:02:13Z</time></trkpt><trkpt lat="36.828132526855164" lon="-108.12233368593343"><ele>1793.0</ele><time>2026-04-05T20:02:14Z</time></trkpt><trkpt lat="36.82823269068624" lon="-108.1222427278847"><ele>1793.0</ele><time>2026-04-05T20:02:15Z</time></trkpt><trkpt lat="36.82835155974966" lon="-108.1221711009126"><ele>1793.0</ele><time>2026-04-05T20:02:16Z</time></trkpt><trkpt lat="36.8284906777749" lon="-108.12210676396565"><ele>1793.0</ele><time>2026-04-05T20:02:17Z</time></trkpt><trkpt lat="36.82862964595281" lon="-108.12199912192737"><ele>1793.0</ele><time>2026-04-05T20:02:18Z</time></trkpt><trkpt lat="36.8287551136909" lon="-108.12183842143364"><ele>1793.0</ele><time>2026-04-05T20:02:19Z</time></trkpt><trkpt lat="36.82887767893243" lon="-108.12170730646706"><ele>1793.0</ele><time>2026-04-05T20:02:20Z</time></trkpt><trkpt lat="36.829001981147414" lon="-108.12160191426698"><ele>1793.0</ele><time>2026-04-05T20:02:21Z</time></trkpt><trkpt lat="36.82911614953617" lon="-108.1214883833099"><ele>1793.0</ele><time>2026-04-05T20:02:22Z</time></trkpt><trkpt lat="36.82921471657803" lon="-108.12139555985294"><ele>1793.0</ele><time>2026-04-05T20:02:23Z</time></trkpt><trkpt lat="36.829279598238436" lon="-108.12133344725558"><ele>1792.3333333333333</ele><time>2026-04-05T20:02:24Z</time></trkpt><trkpt lat="36.829324498200926" lon="-108.12127279776527"><ele>1791.6666666666665</ele><time>2026-04-05T20:02:25Z</time></trkpt><trkpt lat="36.82939457409464" lon="-108.12121193286195"><ele>1791.0</ele><time>2026-04-05T20:02:27Z</time></trkpt><trkpt lat="36.82946233815505" lon="-108.12118153216612"><ele>1790.3333333333335</ele><time>2026-04-05T20:02:29Z</time></trkpt><trkpt lat="36.82956012808501" lon="-108.12119209601079"><ele>1789.6666666666667</ele><time>2026-04-05T20:02:31Z</time></trkpt><trkpt lat="36.82962726531162" lon="-108.12120237850732"><ele>1789.0</ele><time>2026-04-05T20:02:32Z</time></trkpt><trkpt lat="36.82971923385211" lon="-108.12120874480027"><ele>1789.0</ele><time>2026-04-05T20:02:33Z</time></trkpt><trkpt lat="36.8298292730056" lon="-108.1212186997812"><ele>1789.0</ele><time>2026-04-05T20:02:34Z</time></trkpt><trkpt lat="36.82994147418317" lon="-108.12123110299736"><ele>1789.0</ele><time>2026-04-05T20:02:35Z</time></trkpt><trkpt lat="36.83003858957495" lon="-108.12122661436612"><ele>1789.0</ele><time>2026-04-05T20:02:36Z</time></trkpt><trkpt lat="36.830143223370705" lon="-108.12119998191694"><ele>1789.0</ele><time>2026-04-05T20:02:37Z</time></trkpt><trkpt lat="36.830260393789956" lon="-108.12119312064998"><ele>1788.0</ele><time>2026-04-05T20:02:38Z</time></trkpt><trkpt lat="36.83037243914747" lon="-108.12120534569138"><ele>1787.0</ele><time>2026-04-05T20:02:39Z</time></trkpt><trkpt lat="36.83047576854191" lon="-108.1212073956703"><ele>1786.0</ele><time>2026-04-05T20:02:40Z</time></trkpt><trkpt lat="36.830580665037914" lon="-108.12123015249823"><ele>1785.0</ele><time>2026-04-05T20:02:41Z</time></trkpt><trkpt lat="36.83068792877857" lon="-108.12125986158863"><ele>1784.0</ele><time>2026-04-05T20:02:42Z</time></trkpt><trkpt lat="36.83078558882691" lon="-108.12130111051047"><ele>1784.0</ele><time>2026-04-05T20:02:43Z</time></trkpt><trkpt lat="36.83085292403577" lon="-108.12132261220806"><ele>1784.0</ele><time>2026-04-05T20:02:44Z</time></trkpt><trkpt lat="36.830937619589506" lon="-108.12133814094439"><ele>1784.0</ele><time>2026-04-05T20:02:45Z</time></trkpt><trkpt lat="36.83103580179451" lon="-108.121322526405"><ele>1784.0</ele><time>2026-04-05T20:02:46Z</time></trkpt><trkpt lat="36.83115103562366" lon="-108.12132137398876"><ele>1784.0</ele><time>2026-04-05T20:02:47Z</time></trkpt><trkpt lat="36.83124926812082" lon="-108.12132782933374"><ele>1784.0</ele><time>2026-04-05T20:02:48Z</time></trkpt><trkpt lat="36.83135943883069" lon="-108.12135903853581"><ele>1784.0</ele><time>2026-04-05T20:02:49Z</time></trkpt><trkpt lat="36.83147008947381" lon="-108.12139714277085"><ele>1784.0</ele><time>2026-04-05T20:02:50Z</time></trkpt><trkpt lat="36.83157602788132" lon="-108.12142246900348"><ele>1784.0</ele><time>2026-04-05T20:02:51Z</time></trkpt><trkpt lat="36.83170159275764" lon="-108.1214435703362"><ele>1784.25</ele><time>2026-04-05T20:02:52Z</time></trkpt><trkpt lat="36.83180698885782" lon="-108.12144315304396"><ele>1784.5</ele><time>2026-04-05T20:02:53Z</time></trkpt><trkpt lat="36.83191911515416" lon="-108.12146821368773"><ele>1784.75</ele><time>2026-04-05T20:02:54Z</time></trkpt><trkpt lat="36.832051330440976" lon="-108.12151946946366"><ele>1785.0</ele><time>2026-04-05T20:02:55Z</time></trkpt><trkpt lat="36.83220364747942" lon="-108.12156865381776"><ele>1785.0</ele><time>2026-04-05T20:02:56Z</time></trkpt><trkpt lat="36.832359137244524" lon="-108.12161898081247"><ele>1785.0</ele><time>2026-04-05T20:02:57Z</time></trkpt><trkpt lat="36.832503353246224" lon="-108.12169090913338"><ele>1785.0</ele><time>2026-04-05T20:02:58Z</time></trkpt><trkpt lat="36.83265754909694" lon="-108.1218018328421"><ele>1785.5</ele><time>2026-04-05T20:02:59Z</time></trkpt><trkpt lat="36.8327938728601" lon="-108.12191353184939"><ele>1786.0</ele><time>2026-04-05T20:03:00Z</time></trkpt><trkpt lat="36.83291578568444" lon="-108.12199147123803"><ele>1786.5</ele><time>2026-04-05T20:03:01Z</time></trkpt><trkpt lat="36.833040120945405" lon="-108.12206167994215"><ele>1787.0</ele><time>2026-04-05T20:03:02Z</time></trkpt><trkpt lat="36.83314846677132" lon="-108.1221255586369"><ele>1787.0</ele><time>2026-04-05T20:03:03Z</time></trkpt><trkpt lat="36.83321857061133" lon="-108.12215232437444"><ele>1786.9999999999998</ele><time>2026-04-05T20:03:04Z</time></trkpt><trkpt lat="36.833310127884666" lon="-108.12216705398116"><ele>1786.9999999999998</ele><time>2026-04-05T20:03:05Z</time></trkpt><trkpt lat="36.83339912122053" lon="-108.12216552870139"><ele>1787.0</ele><time>2026-04-05T20:03:06Z</time></trkpt><trkpt lat="36.83349473771912" lon="-108.12218704348561"><ele>1787.0</ele><time>2026-04-05T20:03:07Z</time></trkpt><trkpt lat="36.83359683925936" lon="-108.1222385113244"><ele>1788.3333333333333</ele><time>2026-04-05T20:03:08Z</time></trkpt><trkpt lat="36.83370313076122" lon="-108.12228995531973"><ele>1789.6666666666665</ele><time>2026-04-05T20:03:09Z</time></trkpt><trkpt lat="36.83378845150255" lon="-108.12233055141834"><ele>1791.0</ele><time>2026-04-05T20:03:10Z</time></trkpt><trkpt lat="36.83384463362605" lon="-108.12237956976597"><ele>1792.3333333333335</ele><time>2026-04-05T20:03:11Z</time></trkpt><trkpt lat="36.83386753321872" lon="-108.12245515454246"><ele>1793.6666666666667</ele><time>2026-04-05T20:03:12Z</time></trkpt><trkpt lat="36.83393428011482" lon="-108.12254054164667"><ele>1795.0</ele><time>2026-04-05T20:03:14Z</time></trkpt><trkpt lat="36.833988524770916" lon="-108.12262938777735"><ele>1795.0</ele><time>2026-04-05T20:03:16Z</time></trkpt><trkpt lat="36.83401979425933" lon="-108.12270350601874"><ele>1795.0</ele><time>2026-04-05T20:03:17Z</time></trkpt><trkpt lat="36.83409783372575" lon="-108.12277414511904"><ele>1795.0</ele><time>2026-04-05T20:03:19Z</time></trkpt><trkpt lat="36.83432785341176" lon="-108.12267824560332"><ele>1795.0</ele><time>2026-04-05T20:03:22Z</time></trkpt><trkpt lat="36.834423173706526" lon="-108.12263790901287"><ele>1796.0</ele><time>2026-04-05T20:03:23Z</time></trkpt><trkpt lat="36.834512425051166" lon="-108.12260004506513"><ele>1797.0</ele><time>2026-04-05T20:03:24Z</time></trkpt><trkpt lat="36.83461916793152" lon="-108.12256351888855"><ele>1798.0</ele><time>2026-04-05T20:03:25Z</time></trkpt><trkpt lat="36.83474995242235" lon="-108.1225366791395"><ele>1799.0</ele><time>2026-04-05T20:03:26Z</time></trkpt><trkpt lat="36.83487916904926" lon="-108.12250384740005"><ele>1799.0</ele><time>2026-04-05T20:03:27Z</time></trkpt><trkpt lat="36.83497909626761" lon="-108.12245541093333"><ele>1799.0</ele><time>2026-04-05T20:03:28Z</time></trkpt><trkpt lat="36.8350769275429" lon="-108.12242269196844"><ele>1799.0</ele><time>2026-04-05T20:03:29Z</time></trkpt><trkpt lat="36.835192221259696" lon="-108.12242929519535"><ele>1799.0</ele><time>2026-04-05T20:03:30Z</time></trkpt><trkpt lat="36.83532293793691" lon="-108.12243806567979"><ele>1799.5</ele><time>2026-04-05T20:03:31Z</time></trkpt><trkpt lat="36.83546279082497" lon="-108.12246287638823"><ele>1800.0</ele><time>2026-04-05T20:03:32Z</time></trkpt><trkpt lat="36.835593730204515" lon="-108.12247678617626"><ele>1800.5</ele><time>2026-04-05T20:03:33Z</time></trkpt><trkpt lat="36.83571680144671" lon="-108.12245377643582"><ele>1801.0</ele><time>2026-04-05T20:03:34Z</time></trkpt><trkpt lat="36.83583844899375" lon="-108.1224050672148"><ele>1800.8</ele><time>2026-04-05T20:03:35Z</time></trkpt><trkpt lat="36.83594669678956" lon="-108.1223516783276"><ele>1800.6</ele><time>2026-04-05T20:03:36Z</time></trkpt><trkpt lat="36.836061567090724" lon="-108.12231888077665"><ele>1800.4</ele><time>2026-04-05T20:03:37Z</time></trkpt><trkpt lat="36.83616021686761" lon="-108.12226211635141"><ele>1800.2</ele><time>2026-04-05T20:03:38Z</time></trkpt><trkpt lat="36.83624838659584" lon="-108.12221161250137"><ele>1800.0</ele><time>2026-04-05T20:03:39Z</time></trkpt><trkpt lat="36.83637030357829" lon="-108.1222225869683"><ele>1800.0</ele><time>2026-04-05T20:03:40Z</time></trkpt><trkpt lat="36.836524596003535" lon="-108.12223199704562"><ele>1800.0</ele><time>2026-04-05T20:03:41Z</time></trkpt><trkpt lat="36.83666226550339" lon="-108.12224695642199"><ele>1800.0</ele><time>2026-04-05T20:03:42Z</time></trkpt><trkpt lat="36.836765062187204" lon="-108.12223638832786"><ele>1800.0</ele><time>2026-04-05T20:03:43Z</time></trkpt><trkpt lat="36.83686747785651" lon="-108.12220956495884"><ele>1800.0</ele><time>2026-04-05T20:03:44Z</time></trkpt><trkpt lat="36.83697240636548" lon="-108.12220353640026"><ele>1800.0</ele><time>2026-04-05T20:03:45Z</time></trkpt><trkpt lat="36.837053937687244" lon="-108.12221521288777"><ele>1800.0</ele><time>2026-04-05T20:03:46Z</time></trkpt><trkpt lat="36.83712005246721" lon="-108.12220387507232"><ele>1800.0</ele><time>2026-04-05T20:03:47Z</time></trkpt><trkpt lat="36.83719550364128" lon="-108.12216930712492"><ele>1800.0</ele><time>2026-04-05T20:03:48Z</time></trkpt><trkpt lat="36.83729795397072" lon="-108.12217882712046"><ele>1800.0</ele><time>2026-04-05T20:03:49Z</time></trkpt><trkpt lat="36.83740040080191" lon="-108.12220111878437"><ele>1800.0</ele><time>2026-04-05T20:03:50Z</time></trkpt><trkpt lat="36.83750476084272" lon="-108.12219127706993"><ele>1800.0</ele><time>2026-04-05T20:03:51Z</time></trkpt><trkpt lat="36.83761731062519" lon="-108.12215366572572"><ele>1800.0</ele><time>2026-04-05T20:03:51.999Z</time></trkpt><trkpt lat="36.837719579773754" lon="-108.12211365018867"><ele>1800.0</ele><time>2026-04-05T20:03:52.999Z</time></trkpt><trkpt lat="36.83781657917126" lon="-108.12210319986325"><ele>1800.0</ele><time>2026-04-05T20:03:53.999Z</time></trkpt><trkpt lat="36.83792678367475" lon="-108.12212923492771"><ele>1801.0</ele><time>2026-04-05T20:03:54.999Z</time></trkpt><trkpt lat="36.83806012048816" lon="-108.12215353672609"><ele>1802.0</ele><time>2026-04-05T20:03:55.999Z</time></trkpt><trkpt lat="36.838187879347565" lon="-108.12216294606878"><ele>1803.0</ele><time>2026-04-05T20:03:56.999Z</time></trkpt><trkpt lat="36.838313558437925" lon="-108.122149329608"><ele>1804.0</ele><time>2026-04-05T20:03:57.999Z</time></trkpt><trkpt lat="36.83843784152935" lon="-108.12210681657575"><ele>1806.0</ele><time>2026-04-05T20:03:58.999Z</time></trkpt><trkpt lat="36.838582658532225" lon="-108.12208331478325"><ele>1808.0</ele><time>2026-04-05T20:03:59.999Z</time></trkpt><trkpt lat="36.83872028313377" lon="-108.12206801588381"><ele>1810.0</ele><time>2026-04-05T20:04:00.999Z</time></trkpt><trkpt lat="36.83886250818862" lon="-108.12200874274772"><ele>1812.0</ele><time>2026-04-05T20:04:01.999Z</time></trkpt><trkpt lat="36.83900290882079" lon="-108.12191795408954"><ele>1812.0</ele><time>2026-04-05T20:04:02.999Z</time></trkpt><trkpt lat="36.839160846833245" lon="-108.12184655725643"><ele>1812.0</ele><time>2026-04-05T20:04:03.999Z</time></trkpt><trkpt lat="36.8392950045893" lon="-108.1217878456543"><ele>1812.0</ele><time>2026-04-05T20:04:04.999Z</time></trkpt><trkpt lat="36.83937933962215" lon="-108.1217268089668"><ele>1812.0</ele><time>2026-04-05T20:04:05.999Z</time></trkpt><trkpt lat="36.83940351226881" lon="-108.12162507305953"><ele>1812.8</ele><time>2026-04-05T20:04:06.999Z</time></trkpt><trkpt lat="36.83942996870865" lon="-108.12154401631808"><ele>1813.6</ele><time>2026-04-05T20:04:07.999Z</time></trkpt><trkpt lat="36.83951381147747" lon="-108.12143600915618"><ele>1814.3999999999999</ele><time>2026-04-05T20:04:09.999Z</time></trkpt><trkpt lat="36.83957261828636" lon="-108.12139372108597"><ele>1815.1999999999998</ele><time>2026-04-05T20:04:10.999Z</time></trkpt><trkpt lat="36.83963479891031" lon="-108.12133699956469"><ele>1816.0</ele><time>2026-04-05T20:04:11.999Z</time></trkpt><trkpt lat="36.83976895207949" lon="-108.12137210534179"><ele>1816.0000000000002</ele><time>2026-04-05T20:04:14Z</time></trkpt><trkpt lat="36.83984245128347" lon="-108.12141845509471"><ele>1816.0</ele><time>2026-04-05T20:04:15Z</time></trkpt><trkpt lat="36.839922854572855" lon="-108.12138180504292"><ele>1816.0</ele><time>2026-04-05T20:04:17Z</time></trkpt><trkpt lat="36.83999339592764" lon="-108.1213363227077"><ele>1816.0</ele><time>2026-04-05T20:04:18Z</time></trkpt><trkpt lat="36.84007530840608" lon="-108.12129155874489"><ele>1816.0000000000002</ele><time>2026-04-05T20:04:19Z</time></trkpt><trkpt lat="36.840174288874444" lon="-108.12123968177318"><ele>1816.0</ele><time>2026-04-05T20:04:20Z</time></trkpt><trkpt lat="36.840271758355726" lon="-108.12118095914329"><ele>1815.0</ele><time>2026-04-05T20:04:21Z</time></trkpt><trkpt lat="36.84035601409" lon="-108.12110715603256"><ele>1814.0</ele><time>2026-04-05T20:04:22Z</time></trkpt><trkpt lat="36.84042154163043" lon="-108.12099900780107"><ele>1813.0</ele><time>2026-04-05T20:04:23Z</time></trkpt><trkpt lat="36.840466834971814" lon="-108.1208702772775"><ele>1812.0</ele><time>2026-04-05T20:04:24Z</time></trkpt><trkpt lat="36.84050508136138" lon="-108.12072501674137"><ele>1811.0</ele><time>2026-04-05T20:04:25Z</time></trkpt><trkpt lat="36.84054377616967" lon="-108.12060011058922"><ele>1810.0</ele><time>2026-04-05T20:04:26Z</time></trkpt><trkpt lat="36.84057901688996" lon="-108.12047672486007"><ele>1809.0</ele><time>2026-04-05T20:04:27Z</time></trkpt><trkpt lat="36.84063881916256" lon="-108.12034952711842"><ele>1808.0</ele><time>2026-04-05T20:04:28Z</time></trkpt><trkpt lat="36.84072337236435" lon="-108.120236529446"><ele>1807.0</ele><time>2026-04-05T20:04:29Z</time></trkpt><trkpt lat="36.8408069083671" lon="-108.1201381681649"><ele>1807.0</ele><time>2026-04-05T20:04:30Z</time></trkpt><trkpt lat="36.84090159143378" lon="-108.12008072142633"><ele>1806.9999999999998</ele><time>2026-04-05T20:04:31Z</time></trkpt><trkpt lat="36.840986731192714" lon="-108.11999338105187"><ele>1806.9999999999998</ele><time>2026-04-05T20:04:32Z</time></trkpt><trkpt lat="36.84106225792203" lon="-108.11990501236451"><ele>1807.0</ele><time>2026-04-05T20:04:33Z</time></trkpt><trkpt lat="36.84115947331158" lon="-108.11985596497131"><ele>1807.0</ele><time>2026-04-05T20:04:34Z</time></trkpt><trkpt lat="36.841285304045414" lon="-108.11981305556382"><ele>1806.75</ele><time>2026-04-05T20:04:35Z</time></trkpt><trkpt lat="36.84140504261335" lon="-108.11977587638776"><ele>1806.5</ele><time>2026-04-05T20:04:36Z</time></trkpt><trkpt lat="36.84153077748893" lon="-108.11980000504853"><ele>1806.25</ele><time>2026-04-05T20:04:37Z</time></trkpt><trkpt lat="36.841673482301005" lon="-108.11981378374891"><ele>1806.0</ele><time>2026-04-05T20:04:38Z</time></trkpt><trkpt lat="36.8418252986737" lon="-108.11980000398064"><ele>1806.0</ele><time>2026-04-05T20:04:39Z</time></trkpt><trkpt lat="36.84193861591113" lon="-108.11977754751229"><ele>1806.0</ele><time>2026-04-05T20:04:40Z</time></trkpt><trkpt lat="36.84204904065672" lon="-108.11975095563322"><ele>1806.0</ele><time>2026-04-05T20:04:41Z</time></trkpt><trkpt lat="36.84217147499947" lon="-108.11970965863827"><ele>1806.0</ele><time>2026-04-05T20:04:42Z</time></trkpt><trkpt lat="36.842275396991546" lon="-108.11965325935422"><ele>1806.0</ele><time>2026-04-05T20:04:43Z</time></trkpt><trkpt lat="36.84237707947299" lon="-108.1196158279698"><ele>1806.0</ele><time>2026-04-05T20:04:44Z</time></trkpt><trkpt lat="36.84249051393494" lon="-108.11962372200362"><ele>1806.0</ele><time>2026-04-05T20:04:45Z</time></trkpt><trkpt lat="36.84258368335346" lon="-108.1195809863048"><ele>1806.0</ele><time>2026-04-05T20:04:46Z</time></trkpt><trkpt lat="36.84264628851237" lon="-108.11951554409411"><ele>1806.0</ele><time>2026-04-05T20:04:47Z</time></trkpt><trkpt lat="36.84269635791039" lon="-108.11945697661548"><ele>1806.1999999999998</ele><time>2026-04-05T20:04:48Z</time></trkpt><trkpt lat="36.84274495787544" lon="-108.11940642888413"><ele>1806.3999999999999</ele><time>2026-04-05T20:04:49Z</time></trkpt><trkpt lat="36.84279597169361" lon="-108.11929703915465"><ele>1806.6</ele><time>2026-04-05T20:04:50Z</time></trkpt><trkpt lat="36.84285325462638" lon="-108.11918613859945"><ele>1806.8</ele><time>2026-04-05T20:04:51Z</time></trkpt><trkpt lat="36.842929755250154" lon="-108.11909179484879"><ele>1807.0</ele><time>2026-04-05T20:04:52Z</time></trkpt><trkpt lat="36.84300688942186" lon="-108.11899777216033"><ele>1807.0</ele><time>2026-04-05T20:04:53Z</time></trkpt><trkpt lat="36.84306465819692" lon="-108.11889075457167"><ele>1806.9999999999998</ele><time>2026-04-05T20:04:54Z</time></trkpt><trkpt lat="36.8431294369216" lon="-108.11877249637904"><ele>1806.9999999999998</ele><time>2026-04-05T20:04:55Z</time></trkpt><trkpt lat="36.84315754000471" lon="-108.11865155676921"><ele>1807.0</ele><time>2026-04-05T20:04:56Z</time></trkpt><trkpt lat="36.84318229456365" lon="-108.11857307600057"><ele>1807.0</ele><time>2026-04-05T20:04:57Z</time></trkpt><trkpt lat="36.84326224149141" lon="-108.11854333497492"><ele>1807.0</ele><time>2026-04-05T20:04:58Z</time></trkpt><trkpt lat="36.843379844950164" lon="-108.11854397254686"><ele>1806.9999999999998</ele><time>2026-04-05T20:04:59Z</time></trkpt><trkpt lat="36.84348323294491" lon="-108.11849527389894"><ele>1806.9999999999998</ele><time>2026-04-05T20:05:00Z</time></trkpt><trkpt lat="36.84357803107407" lon="-108.11844651246591"><ele>1807.0</ele><time>2026-04-05T20:05:01Z</time></trkpt><trkpt lat="36.84365779430778" lon="-108.11839265975672"><ele>1807.0</ele><time>2026-04-05T20:05:02Z</time></trkpt><trkpt lat="36.84371142347721" lon="-108.11831096838489"><ele>1806.1999999999998</ele><time>2026-04-05T20:05:03Z</time></trkpt><trkpt lat="36.84375804934942" lon="-108.1181975734877"><ele>1805.3999999999999</ele><time>2026-04-05T20:05:04Z</time></trkpt><trkpt lat="36.84381137071941" lon="-108.11807547682302"><ele>1804.6000000000001</ele><time>2026-04-05T20:05:05Z</time></trkpt><trkpt lat="36.84386585147956" lon="-108.11796954365465"><ele>1803.8000000000002</ele><time>2026-04-05T20:05:06Z</time></trkpt><trkpt lat="36.843929431339106" lon="-108.11787267123908"><ele>1803.0</ele><time>2026-04-05T20:05:07Z</time></trkpt><trkpt lat="36.84401433058201" lon="-108.11779902223151"><ele>1803.0</ele><time>2026-04-05T20:05:08Z</time></trkpt><trkpt lat="36.84409900784188" lon="-108.11773297143094"><ele>1803.0000000000002</ele><time>2026-04-05T20:05:09Z</time></trkpt><trkpt lat="36.844173595349424" lon="-108.11764487905711"><ele>1803.0000000000002</ele><time>2026-04-05T20:05:10Z</time></trkpt><trkpt lat="36.84422199655005" lon="-108.1175397375841"><ele>1803.0</ele><time>2026-04-05T20:05:11Z</time></trkpt><trkpt lat="36.844272143144515" lon="-108.11745948551349"><ele>1803.0</ele><time>2026-04-05T20:05:12Z</time></trkpt><trkpt lat="36.84434995365592" lon="-108.11740662725332"><ele>1801.8000000000002</ele><time>2026-04-05T20:05:13Z</time></trkpt><trkpt lat="36.84443712496271" lon="-108.11735860670855"><ele>1800.6000000000001</ele><time>2026-04-05T20:05:14Z</time></trkpt><trkpt lat="36.844503479813035" lon="-108.11728623210337"><ele>1799.3999999999999</ele><time>2026-04-05T20:05:15Z</time></trkpt><trkpt lat="36.844552564027104" lon="-108.11717703468824"><ele>1798.1999999999998</ele><time>2026-04-05T20:05:16Z</time></trkpt><trkpt lat="36.84460427157558" lon="-108.11702303589324"><ele>1797.0</ele><time>2026-04-05T20:05:17Z</time></trkpt><trkpt lat="36.84467157046624" lon="-108.11687506364456"><ele>1797.0</ele><time>2026-04-05T20:05:18Z</time></trkpt><trkpt lat="36.84472237965998" lon="-108.11675052484973"><ele>1797.0</ele><time>2026-04-05T20:05:19Z</time></trkpt><trkpt lat="36.84478936006923" lon="-108.11663130661456"><ele>1797.0</ele><time>2026-04-05T20:05:20Z</time></trkpt><trkpt lat="36.84487550963096" lon="-108.11653327421256"><ele>1797.0</ele><time>2026-04-05T20:05:21Z</time></trkpt><trkpt lat="36.84497954933909" lon="-108.11645895504496"><ele>1798.0</ele><time>2026-04-05T20:05:22Z</time></trkpt><trkpt lat="36.84509244520655" lon="-108.11640213966031"><ele>1798.9999999999998</ele><time>2026-04-05T20:05:23Z</time></trkpt><trkpt lat="36.84517930868777" lon="-108.1162983382207"><ele>1799.9999999999998</ele><time>2026-04-05T20:05:24Z</time></trkpt><trkpt lat="36.84523674328508" lon="-108.11619305944022"><ele>1801.0</ele><time>2026-04-05T20:05:25Z</time></trkpt><trkpt lat="36.845289526218394" lon="-108.1160952906526"><ele>1802.0</ele><time>2026-04-05T20:05:26Z</time></trkpt><trkpt lat="36.84531483701485" lon="-108.11593046289595"><ele>1802.6</ele><time>2026-04-05T20:05:28Z</time></trkpt><trkpt lat="36.845231899558755" lon="-108.11583422441595"><ele>1803.1999999999998</ele><time>2026-04-05T20:05:30Z</time></trkpt><trkpt lat="36.84513948414232" lon="-108.11580559643106"><ele>1803.8</ele><time>2026-04-05T20:05:32Z</time></trkpt><trkpt lat="36.84504713936105" lon="-108.11571391163298"><ele>1804.4</ele><time>2026-04-05T20:12:57Z</time></trkpt><trkpt lat="36.84498688656928" lon="-108.11563425828248"><ele>1805.0</ele><time>2026-04-05T20:12:58Z</time></trkpt><trkpt lat="36.84494619914625" lon="-108.11553587243074"><ele>1805.2</ele><time>2026-04-05T20:12:59Z</time></trkpt><trkpt lat="36.844916904883725" lon="-108.11542715017544"><ele>1805.4</ele><time>2026-04-05T20:13:00Z</time></trkpt><trkpt lat="36.84488937874097" lon="-108.11530592665166"><ele>1805.6</ele><time>2026-04-05T20:13:01Z</time></trkpt><trkpt lat="36.8448639686123" lon="-108.11517211188718"><ele>1805.8</ele><time>2026-04-05T20:13:02Z</time></trkpt><trkpt lat="36.844838527942535" lon="-108.11506566011376"><ele>1806.0</ele><time>2026-04-05T20:13:03Z</time></trkpt><trkpt lat="36.84484901512004" lon="-108.11498734240195"><ele>1806.0</ele><time>2026-04-05T20:13:04Z</time></trkpt><trkpt lat="36.8448942599777" lon="-108.11492106242181"><ele>1806.0</ele><time>2026-04-05T20:13:05Z</time></trkpt><trkpt lat="36.84497477206006" lon="-108.1148459471687"><ele>1806.0</ele><time>2026-04-05T20:13:06Z</time></trkpt><trkpt lat="36.84500261393625" lon="-108.11477079115639"><ele>1806.0</ele><time>2026-04-05T20:13:07Z</time></trkpt><trkpt lat="36.844982207869776" lon="-108.11467152927261"><ele>1806.0</ele><time>2026-04-05T20:13:08Z</time></trkpt><trkpt lat="36.84493300373836" lon="-108.1145616153994"><ele>1806.0</ele><time>2026-04-05T20:13:09Z</time></trkpt><trkpt lat="36.84494370208596" lon="-108.11447271399378"><ele>1807.0</ele><time>2026-04-05T20:13:10Z</time></trkpt><trkpt lat="36.8449833191267" lon="-108.11437262352055"><ele>1808.0</ele><time>2026-04-05T20:13:11Z</time></trkpt><trkpt lat="36.84499313799352" lon="-108.1142472353823"><ele>1809.0</ele><time>2026-04-05T20:13:12Z</time></trkpt><trkpt lat="36.84498966514382" lon="-108.11411179245701"><ele>1810.0</ele><time>2026-04-05T20:13:13Z</time></trkpt><trkpt lat="36.84493927291986" lon="-108.1139937984017"><ele>1811.0</ele><time>2026-04-05T20:13:14Z</time></trkpt><trkpt lat="36.84490105517555" lon="-108.11391137714968"><ele>1812.0</ele><time>2026-04-05T20:13:15Z</time></trkpt><trkpt lat="36.84491209793258" lon="-108.11382182171253"><ele>1813.0</ele><time>2026-04-05T20:13:16Z</time></trkpt><trkpt lat="36.84489156225268" lon="-108.11371511634242"><ele>1814.0</ele><time>2026-04-05T20:13:17Z</time></trkpt><trkpt lat="36.844844236157265" lon="-108.11357747966449"><ele>1815.0</ele><time>2026-04-05T20:13:18Z</time></trkpt><trkpt lat="36.84478033994639" lon="-108.11345834842008"><ele>1816.0</ele><time>2026-04-05T20:13:19Z</time></trkpt><trkpt lat="36.84488329537658" lon="-108.11342890284324"><ele>1816.0</ele><time>2026-04-05T20:13:20Z</time></trkpt><trkpt lat="36.84470489974916" lon="-108.1133135333016"><ele>1816.0</ele><time>2026-04-05T20:13:22Z</time></trkpt><trkpt lat="36.84463216272974" lon="-108.113189447142"><ele>1816.0</ele><time>2026-04-05T20:13:23Z</time></trkpt><trkpt lat="36.844563410286156" lon="-108.11305413184516"><ele>1816.0</ele><time>2026-04-05T20:13:24Z</time></trkpt><trkpt lat="36.844506089991796" lon="-108.11291812269941"><ele>1816.0</ele><time>2026-04-05T20:13:25Z</time></trkpt><trkpt lat="36.844432509928275" lon="-108.11279817073259"><ele>1816.0</ele><time>2026-04-05T20:13:26Z</time></trkpt><trkpt lat="36.84436111669105" lon="-108.11265109598568"><ele>1816.0</ele><time>2026-04-05T20:13:27Z</time></trkpt><trkpt lat="36.844341043295444" lon="-108.11249659848988"><ele>1816.5</ele><time>2026-04-05T20:13:28Z</time></trkpt><trkpt lat="36.8443531144218" lon="-108.11232029107519"><ele>1817.0</ele><time>2026-04-05T20:13:29Z</time></trkpt><trkpt lat="36.84436037028549" lon="-108.11214771934485"><ele>1817.5</ele><time>2026-04-05T20:13:30Z</time></trkpt><trkpt lat="36.8443444366325" lon="-108.11195308752814"><ele>1818.0</ele><time>2026-04-05T20:13:31Z</time></trkpt><trkpt lat="36.84431528274874" lon="-108.11173972420512"><ele>1818.0</ele><time>2026-04-05T20:13:32Z</time></trkpt><trkpt lat="36.84430206398686" lon="-108.11158647335888"><ele>1818.0000000000002</ele><time>2026-04-05T20:13:33Z</time></trkpt><trkpt lat="36.84428219141688" lon="-108.11150246982697"><ele>1818.0000000000002</ele><time>2026-04-05T20:13:34Z</time></trkpt><trkpt lat="36.8441726590391" lon="-108.11143779537488"><ele>1818.0</ele><time>2026-04-05T20:13:36Z</time></trkpt><trkpt lat="36.84410114136459" lon="-108.11143332355871"><ele>1818.0</ele><time>2026-04-05T20:13:37Z</time></trkpt><trkpt lat="36.84401845604527" lon="-108.11146451053116"><ele>1817.8000000000002</ele><time>2026-04-05T20:13:38Z</time></trkpt><trkpt lat="36.84392824337151" lon="-108.11148042769622"><ele>1817.6000000000001</ele><time>2026-04-05T20:13:39Z</time></trkpt><trkpt lat="36.84382697914685" lon="-108.11154234065145"><ele>1817.3999999999999</ele><time>2026-04-05T20:13:40Z</time></trkpt><trkpt lat="36.84372386862006" lon="-108.11159246946568"><ele>1817.1999999999998</ele><time>2026-04-05T20:13:41Z</time></trkpt><trkpt lat="36.84363100939233" lon="-108.11163010848814"><ele>1817.0</ele><time>2026-04-05T20:13:42Z</time></trkpt><trkpt lat="36.843531796556725" lon="-108.11162312947006"><ele>1815.3999999999999</ele><time>2026-04-05T20:13:43Z</time></trkpt><trkpt lat="36.843429658987155" lon="-108.11160638790952"><ele>1813.7999999999997</ele><time>2026-04-05T20:13:44Z</time></trkpt><trkpt lat="36.84334150038178" lon="-108.11161384654542"><ele>1812.2</ele><time>2026-04-05T20:13:45Z</time></trkpt><trkpt lat="36.843265149431915" lon="-108.11157304688201"><ele>1810.6</ele><time>2026-04-05T20:13:46Z</time></trkpt><trkpt lat="36.843176624094546" lon="-108.11149905121175"><ele>1809.0</ele><time>2026-04-05T20:13:47Z</time></trkpt><trkpt lat="36.84309957604186" lon="-108.11145523545237"><ele>1809.0</ele><time>2026-04-05T20:13:48Z</time></trkpt><trkpt lat="36.84300553918103" lon="-108.11142276465759"><ele>1809.0</ele><time>2026-04-05T20:13:49Z</time></trkpt><trkpt lat="36.84293434247558" lon="-108.11137446147056"><ele>1809.0</ele><time>2026-04-05T20:13:50Z</time></trkpt><trkpt lat="36.842862916270526" lon="-108.11127683612327"><ele>1809.0</ele><time>2026-04-05T20:13:52Z</time></trkpt><trkpt lat="36.84281463969282" lon="-108.11116696992129"><ele>1809.0</ele><time>2026-04-05T20:13:54Z</time></trkpt><trkpt lat="36.84275317588482" lon="-108.11110385138855"><ele>1809.0</ele><time>2026-04-05T20:13:55Z</time></trkpt><trkpt lat="36.84266747372233" lon="-108.11102292366195"><ele>1809.0</ele><time>2026-04-05T20:13:56Z</time></trkpt><trkpt lat="36.84255918637002" lon="-108.11094638625622"><ele>1809.0</ele><time>2026-04-05T20:13:57Z</time></trkpt><trkpt lat="36.84245963515516" lon="-108.11085576744513"><ele>1809.0</ele><time>2026-04-05T20:13:58Z</time></trkpt><trkpt lat="36.842365721138584" lon="-108.11078210138889"><ele>1808.0</ele><time>2026-04-05T20:13:59Z</time></trkpt><trkpt lat="36.842271943264336" lon="-108.11068123818295"><ele>1807.0</ele><time>2026-04-05T20:14:00Z</time></trkpt><trkpt lat="36.8421778988638" lon="-108.11060044690181"><ele>1806.0</ele><time>2026-04-05T20:14:01Z</time></trkpt><trkpt lat="36.84211112286167" lon="-108.1105276863946"><ele>1805.0</ele><time>2026-04-05T20:14:02Z</time></trkpt><trkpt lat="36.84202684503469" lon="-108.11044728571189"><ele>1804.0</ele><time>2026-04-05T20:14:04Z</time></trkpt><trkpt lat="36.84205631095825" lon="-108.11037511836827"><ele>1804.0</ele><time>2026-04-05T20:14:07Z</time></trkpt><trkpt lat="36.84205875658912" lon="-108.11028529092081"><ele>1804.0</ele><time>2026-04-05T20:14:12Z</time></trkpt><trkpt lat="36.842110371363766" lon="-108.11020376494517"><ele>1804.0</ele><time>2026-04-05T20:14:14Z</time></trkpt><trkpt lat="36.842150918025546" lon="-108.11011897285402"><ele>1804.0</ele><time>2026-04-05T20:14:16Z</time></trkpt><trkpt lat="36.842174567459374" lon="-108.11003219744669"><ele>1804.0</ele><time>2026-04-05T20:14:17Z</time></trkpt><trkpt lat="36.842203246762764" lon="-108.10995152830104"><ele>1804.0</ele><time>2026-04-05T20:14:18Z</time></trkpt><trkpt lat="36.84223813117545" lon="-108.10987702980647"><ele>1804.0</ele><time>2026-04-05T20:14:19Z</time></trkpt><trkpt lat="36.84227145964655" lon="-108.10980425359314"><ele>1804.5000000000002</ele><time>2026-04-05T20:14:20Z</time></trkpt><trkpt lat="36.84228838308619" lon="-108.10972740989695"><ele>1805.0</ele><time>2026-04-05T20:14:21Z</time></trkpt><trkpt lat="36.84227510175557" lon="-108.10964575515672"><ele>1805.5</ele><time>2026-04-05T20:14:22Z</time></trkpt><trkpt lat="36.84224017722713" lon="-108.10955388739337"><ele>1806.0</ele><time>2026-04-05T20:14:23Z</time></trkpt><trkpt lat="36.84221917575124" lon="-108.10946172054646"><ele>1806.5000000000002</ele><time>2026-04-05T20:14:24Z</time></trkpt><trkpt lat="36.84227214003826" lon="-108.10932350064272"><ele>1807.0</ele><time>2026-04-05T20:14:26Z</time></trkpt><trkpt lat="36.84232591599244" lon="-108.10924983232667"><ele>1807.0</ele><time>2026-04-05T20:14:27Z</time></trkpt><trkpt lat="36.84237247461288" lon="-108.10913931296642"><ele>1806.9999999999998</ele><time>2026-04-05T20:14:28Z</time></trkpt><trkpt lat="36.842391360949804" lon="-108.10900106495906"><ele>1806.9999999999998</ele><time>2026-04-05T20:14:29Z</time></trkpt><trkpt lat="36.84240943067503" lon="-108.10887867385969"><ele>1807.0</ele><time>2026-04-05T20:14:30Z</time></trkpt><trkpt lat="36.84243591716937" lon="-108.1087541466383"><ele>1807.0</ele><time>2026-04-05T20:14:31Z</time></trkpt><trkpt lat="36.842475824655516" lon="-108.10864207485591"><ele>1805.6666666666667</ele><time>2026-04-05T20:14:32Z</time></trkpt><trkpt lat="36.8425164048099" lon="-108.1085422773004"><ele>1804.3333333333335</ele><time>2026-04-05T20:14:33Z</time></trkpt><trkpt lat="36.842534381973984" lon="-108.1084423546338"><ele>1803.0</ele><time>2026-04-05T20:14:34Z</time></trkpt><trkpt lat="36.84253322144983" lon="-108.10835057281754"><ele>1801.6666666666665</ele><time>2026-04-05T20:14:35Z</time></trkpt><trkpt lat="36.84249285636073" lon="-108.1082543357406"><ele>1800.3333333333333</ele><time>2026-04-05T20:14:36Z</time></trkpt><trkpt lat="36.84242082531478" lon="-108.10817433311749"><ele>1799.0</ele><time>2026-04-05T20:14:37Z</time></trkpt><trkpt lat="36.84230638499004" lon="-108.10811194405758"><ele>1797.4</ele><time>2026-04-05T20:14:38Z</time></trkpt><trkpt lat="36.8421885562653" lon="-108.10804862108532"><ele>1795.8000000000002</ele><time>2026-04-05T20:14:39Z</time></trkpt><trkpt lat="36.84208776119058" lon="-108.10798191281032"><ele>1794.1999999999998</ele><time>2026-04-05T20:14:40Z</time></trkpt><trkpt lat="36.842000472794204" lon="-108.1079035101258"><ele>1792.6</ele><time>2026-04-05T20:14:41Z</time></trkpt><trkpt lat="36.841922170489" lon="-108.1078291594192"><ele>1791.0</ele><time>2026-04-05T20:14:42Z</time></trkpt><trkpt lat="36.84185390179317" lon="-108.10778133812225"><ele>1791.0</ele><time>2026-04-05T20:14:43Z</time></trkpt><trkpt lat="36.84180010079313" lon="-108.1077102087623"><ele>1791.0</ele><time>2026-04-05T20:14:44Z</time></trkpt><trkpt lat="36.841808937390816" lon="-108.10759491710436"><ele>1791.0</ele><time>2026-04-05T20:14:45Z</time></trkpt><trkpt lat="36.8418004333606" lon="-108.10747705000027"><ele>1791.0</ele><time>2026-04-05T20:14:46Z</time></trkpt><trkpt lat="36.84177122899334" lon="-108.10734401769776"><ele>1791.0</ele><time>2026-04-05T20:14:47Z</time></trkpt><trkpt lat="36.841746608903826" lon="-108.10724625905756"><ele>1790.5</ele><time>2026-04-05T20:14:48Z</time></trkpt><trkpt lat="36.841734187243325" lon="-108.10716842968182"><ele>1790.0</ele><time>2026-04-05T20:14:49Z</time></trkpt><trkpt lat="36.84180231653873" lon="-108.1070791130183"><ele>1789.5</ele><time>2026-04-05T20:14:51Z</time></trkpt><trkpt lat="36.84184903882241" lon="-108.10701841204107"><ele>1789.0</ele><time>2026-04-05T20:14:52Z</time></trkpt><trkpt lat="36.84190451437893" lon="-108.10690988057223"><ele>1788.5</ele><time>2026-04-05T20:14:53Z</time></trkpt><trkpt lat="36.84197605082937" lon="-108.10679577389456"><ele>1788.0</ele><time>2026-04-05T20:14:54Z</time></trkpt><trkpt lat="36.84207386727763" lon="-108.10669307792192"><ele>1788.0</ele><time>2026-04-05T20:14:55Z</time></trkpt><trkpt lat="36.84218519613212" lon="-108.1065878204112"><ele>1788.0</ele><time>2026-04-05T20:14:56Z</time></trkpt><trkpt lat="36.842287338005804" lon="-108.10646397458657"><ele>1788.0</ele><time>2026-04-05T20:14:57Z</time></trkpt><trkpt lat="36.84234525020661" lon="-108.10633192578038"><ele>1788.0</ele><time>2026-04-05T20:14:58Z</time></trkpt><trkpt lat="36.84238126362726" lon="-108.1062087409459"><ele>1787.6000000000001</ele><time>2026-04-05T20:14:59Z</time></trkpt><trkpt lat="36.84240522344628" lon="-108.10610825590157"><ele>1787.2000000000003</ele><time>2026-04-05T20:15:00Z</time></trkpt><trkpt lat="36.8424183170108" lon="-108.10600941439186"><ele>1786.8</ele><time>2026-04-05T20:15:01Z</time></trkpt><trkpt lat="36.84240844493071" lon="-108.10590602055193"><ele>1786.4</ele><time>2026-04-05T20:15:02Z</time></trkpt><trkpt lat="36.842354760734864" lon="-108.10580164941203"><ele>1786.0</ele><time>2026-04-05T20:15:03Z</time></trkpt><trkpt lat="36.842269663680845" lon="-108.10570394293629"><ele>1785.75</ele><time>2026-04-05T20:15:04Z</time></trkpt><trkpt lat="36.84216846680146" lon="-108.10559242467654"><ele>1785.5</ele><time>2026-04-05T20:15:05Z</time></trkpt><trkpt lat="36.84206302163206" lon="-108.10546421527116"><ele>1785.25</ele><time>2026-04-05T20:15:06Z</time></trkpt><trkpt lat="36.841989170319465" lon="-108.10537137844456"><ele>1785.0</ele><time>2026-04-05T20:15:07Z</time></trkpt><trkpt lat="36.841936529328244" lon="-108.10530308023716"><ele>1785.0</ele><time>2026-04-05T20:15:08Z</time></trkpt><trkpt lat="36.84192811595538" lon="-108.10519767596969"><ele>1785.0</ele><time>2026-04-05T20:15:10Z</time></trkpt><trkpt lat="36.84204818812693" lon="-108.10509261467813"><ele>1785.0</ele><time>2026-04-05T20:15:12Z</time></trkpt><trkpt lat="36.84214171712794" lon="-108.10504400112707"><ele>1785.0</ele><time>2026-04-05T20:15:13Z</time></trkpt><trkpt lat="36.84223097249668" lon="-108.10499688867482"><ele>1785.0</ele><time>2026-04-05T20:15:14Z</time></trkpt><trkpt lat="36.84231538201423" lon="-108.1049657955249"><ele>1785.0</ele><time>2026-04-05T20:15:15Z</time></trkpt><trkpt lat="36.84244054849213" lon="-108.1049250636087"><ele>1785.0</ele><time>2026-04-05T20:15:17Z</time></trkpt><trkpt lat="36.842489789076794" lon="-108.10486483397737"><ele>1785.0</ele><time>2026-04-05T20:15:18Z</time></trkpt><trkpt lat="36.84254769058859" lon="-108.10479032255391"><ele>1785.0</ele><time>2026-04-05T20:15:19Z</time></trkpt><trkpt lat="36.84266283737242" lon="-108.10478322923721"><ele>1785.0</ele><time>2026-04-05T20:15:21Z</time></trkpt><trkpt lat="36.842694608581446" lon="-108.10471183989112"><ele>1786.0</ele><time>2026-04-05T20:15:23Z</time></trkpt><trkpt lat="36.84272208434648" lon="-108.10461183161539"><ele>1787.0</ele><time>2026-04-05T20:15:24Z</time></trkpt><trkpt lat="36.842720411110456" lon="-108.104510416902"><ele>1788.0</ele><time>2026-04-05T20:15:25Z</time></trkpt><trkpt lat="36.842752824864064" lon="-108.10441974395765"><ele>1789.0</ele><time>2026-04-05T20:15:26Z</time></trkpt><trkpt lat="36.84278309866814" lon="-108.1043110144155"><ele>1790.0</ele><time>2026-04-05T20:15:27Z</time></trkpt><trkpt lat="36.842843109832266" lon="-108.10415339122575"><ele>1789.0</ele><time>2026-04-05T20:15:28Z</time></trkpt><trkpt lat="36.842895039839746" lon="-108.10398122988039"><ele>1788.0</ele><time>2026-04-05T20:15:29Z</time></trkpt><trkpt lat="36.84295372554439" lon="-108.10379635302105"><ele>1787.0</ele><time>2026-04-05T20:15:30Z</time></trkpt><trkpt lat="36.84301996477915" lon="-108.10359679467733"><ele>1787.0</ele><time>2026-04-05T20:15:31Z</time></trkpt><trkpt lat="36.843076440251586" lon="-108.10340428471514"><ele>1787.0</ele><time>2026-04-05T20:15:32Z</time></trkpt><trkpt lat="36.84314346453537" lon="-108.10320542159455"><ele>1787.0</ele><time>2026-04-05T20:15:33Z</time></trkpt><trkpt lat="36.843194185508864" lon="-108.10298817216098"><ele>1788.0</ele><time>2026-04-05T20:15:34Z</time></trkpt><trkpt lat="36.84323926828608" lon="-108.10280482339172"><ele>1789.0</ele><time>2026-04-05T20:15:35Z</time></trkpt><trkpt lat="36.843282798713474" lon="-108.10263870234523"><ele>1790.0</ele><time>2026-04-05T20:15:36Z</time></trkpt><trkpt lat="36.84333446310446" lon="-108.10248745334297"><ele>1791.0</ele><time>2026-04-05T20:15:37Z</time></trkpt><trkpt lat="36.843388573889406" lon="-108.1023558082694"><ele>1792.0</ele><time>2026-04-05T20:15:38Z</time></trkpt><trkpt lat="36.843432452404045" lon="-108.10226073774203"><ele>1793.0</ele><time>2026-04-05T20:15:39Z</time></trkpt><trkpt lat="36.843468141893084" lon="-108.10214932475354"><ele>1794.0</ele><time>2026-04-05T20:15:40Z</time></trkpt><trkpt lat="36.84349522040217" lon="-108.10204585774517"><ele>1795.0</ele><time>2026-04-05T20:15:41Z</time></trkpt><trkpt lat="36.843502004330034" lon="-108.10194315495478"><ele>1796.0</ele><time>2026-04-05T20:15:42Z</time></trkpt><trkpt lat="36.843518663163685" lon="-108.10178805210965"><ele>1796.1666666666665</ele><time>2026-04-05T20:15:43Z</time></trkpt><trkpt lat="36.84350370256199" lon="-108.10165142321961"><ele>1796.3333333333333</ele><time>2026-04-05T20:15:44Z</time></trkpt><trkpt lat="36.84350002237563" lon="-108.1015715571884"><ele>1796.5</ele><time>2026-04-05T20:15:45Z</time></trkpt><trkpt lat="36.84354107617167" lon="-108.10148743898762"><ele>1796.6666666666665</ele><time>2026-04-05T20:15:46Z</time></trkpt><trkpt lat="36.843559483879375" lon="-108.1014009795603"><ele>1796.8333333333333</ele><time>2026-04-05T20:15:47Z</time></trkpt><trkpt lat="36.84354782083277" lon="-108.10130210377075"><ele>1797.0</ele><time>2026-04-05T20:15:48Z</time></trkpt><trkpt lat="36.84351462939653" lon="-108.10118888364804"><ele>1798.0</ele><time>2026-04-05T20:15:49Z</time></trkpt><trkpt lat="36.843513732109926" lon="-108.10108311281917"><ele>1799.0</ele><time>2026-04-05T20:15:50Z</time></trkpt><trkpt lat="36.84350986431243" lon="-108.10098253947478"><ele>1800.0</ele><time>2026-04-05T20:15:51Z</time></trkpt><trkpt lat="36.84353171111505" lon="-108.10089534565628"><ele>1801.0</ele><time>2026-04-05T20:15:52Z</time></trkpt><trkpt lat="36.84360229557464" lon="-108.10076947687635"><ele>1802.0</ele><time>2026-04-05T20:15:54Z</time></trkpt><trkpt lat="36.84361132619038" lon="-108.10068317655086"><ele>1803.0</ele><time>2026-04-05T20:15:55Z</time></trkpt><trkpt lat="36.843624377290666" lon="-108.10059301633858"><ele>1803.8000000000002</ele><time>2026-04-05T20:15:56Z</time></trkpt><trkpt lat="36.84367437353755" lon="-108.10052945291501"><ele>1804.6000000000001</ele><time>2026-04-05T20:15:57Z</time></trkpt><trkpt lat="36.84377266803983" lon="-108.10046851797777"><ele>1805.3999999999999</ele><time>2026-04-05T20:15:58Z</time></trkpt><trkpt lat="36.84388321225334" lon="-108.10039318400455"><ele>1806.1999999999998</ele><time>2026-04-05T20:15:59Z</time></trkpt><trkpt lat="36.84397970493836" lon="-108.1003120260299"><ele>1807.0</ele><time>2026-04-05T20:16:00Z</time></trkpt><trkpt lat="36.84402097261134" lon="-108.10023624502212"><ele>1807.0000000000002</ele><time>2026-04-05T20:16:01Z</time></trkpt><trkpt lat="36.844053850304554" lon="-108.10015143384243"><ele>1807.0</ele><time>2026-04-05T20:16:02Z</time></trkpt><trkpt lat="36.844136974596765" lon="-108.1000962823821"><ele>1807.0</ele><time>2026-04-05T20:16:03Z</time></trkpt><trkpt lat="36.844207666848284" lon="-108.10007106967102"><ele>1807.0</ele><time>2026-04-05T20:16:04Z</time></trkpt><trkpt lat="36.84428704982766" lon="-108.10002967818983"><ele>1807.0000000000002</ele><time>2026-04-05T20:16:05Z</time></trkpt><trkpt lat="36.844348062557934" lon="-108.09996817035992"><ele>1807.0</ele><time>2026-04-05T20:16:06Z</time></trkpt><trkpt lat="36.84440852500872" lon="-108.0999239921944"><ele>1807.0</ele><time>2026-04-05T20:16:07Z</time></trkpt><trkpt lat="36.844482994611184" lon="-108.09987601279724"><ele>1806.9999999999998</ele><time>2026-04-05T20:16:08Z</time></trkpt><trkpt lat="36.84457369244463" lon="-108.099864231665"><ele>1806.9999999999998</ele><time>2026-04-05T20:16:09Z</time></trkpt><trkpt lat="36.8446399953418" lon="-108.09993082319568"><ele>1807.0</ele><time>2026-04-05T20:16:10Z</time></trkpt><trkpt lat="36.84468297874023" lon="-108.10003222473124"><ele>1807.0</ele><time>2026-04-05T20:16:11Z</time></trkpt><trkpt lat="36.84475136323729" lon="-108.10014350337184"><ele>1806.8</ele><time>2026-04-05T20:16:12Z</time></trkpt><trkpt lat="36.844866410148065" lon="-108.10020302993789"><ele>1806.6</ele><time>2026-04-05T20:16:13Z</time></trkpt><trkpt lat="36.84493674095462" lon="-108.10025373297772"><ele>1806.3999999999999</ele><time>2026-04-05T20:16:14Z</time></trkpt><trkpt lat="36.84500133630947" lon="-108.1002613571776"><ele>1806.1999999999998</ele><time>2026-04-05T20:16:15Z</time></trkpt><trkpt lat="36.845074675476" lon="-108.10020093779464"><ele>1806.0</ele><time>2026-04-05T20:16:16Z</time></trkpt><trkpt lat="36.845171182776255" lon="-108.1001522534878"><ele>1805.0</ele><time>2026-04-05T20:16:17Z</time></trkpt><trkpt lat="36.84526758486615" lon="-108.10016448083176"><ele>1804.0</ele><time>2026-04-05T20:16:18Z</time></trkpt><trkpt lat="36.84535330024491" lon="-108.10016340528666"><ele>1803.0</ele><time>2026-04-05T20:16:19Z</time></trkpt><trkpt lat="36.84541931284174" lon="-108.10011610315662"><ele>1802.0</ele><time>2026-04-05T20:16:20Z</time></trkpt><trkpt lat="36.84552639904128" lon="-108.10005453327457"><ele>1801.0</ele><time>2026-04-05T20:16:21Z</time></trkpt><trkpt lat="36.84562545006971" lon="-108.0999825141958"><ele>1801.0</ele><time>2026-04-05T20:16:22Z</time></trkpt><trkpt lat="36.84571508006008" lon="-108.09991283442078"><ele>1801.0</ele><time>2026-04-05T20:16:23Z</time></trkpt><trkpt lat="36.84579032162354" lon="-108.09985261574904"><ele>1801.0</ele><time>2026-04-05T20:16:24Z</time></trkpt><trkpt lat="36.8459104883049" lon="-108.09991876289608"><ele>1801.0</ele><time>2026-04-05T20:16:26Z</time></trkpt><trkpt lat="36.84597095684264" lon="-108.09999689707105"><ele>1801.0</ele><time>2026-04-05T20:16:27Z</time></trkpt><trkpt lat="36.84606934985874" lon="-108.10005848233227"><ele>1801.25</ele><time>2026-04-05T20:16:28Z</time></trkpt><trkpt lat="36.84619255065589" lon="-108.1000654297895"><ele>1801.5</ele><time>2026-04-05T20:16:29Z</time></trkpt><trkpt lat="36.84631264916718" lon="-108.10008928231711"><ele>1801.75</ele><time>2026-04-05T20:16:30Z</time></trkpt><trkpt lat="36.84642224848305" lon="-108.10012920432989"><ele>1802.0</ele><time>2026-04-05T20:16:31Z</time></trkpt><trkpt lat="36.84653735589855" lon="-108.10015180221775"><ele>1802.0</ele><time>2026-04-05T20:16:32Z</time></trkpt><trkpt lat="36.84665249337303" lon="-108.10015078132885"><ele>1801.9999999999998</ele><time>2026-04-05T20:16:33Z</time></trkpt><trkpt lat="36.846742363143896" lon="-108.10014927692218"><ele>1801.9999999999998</ele><time>2026-04-05T20:16:34Z</time></trkpt><trkpt lat="36.846814479139674" lon="-108.10009459848352"><ele>1802.0</ele><time>2026-04-05T20:16:35Z</time></trkpt><trkpt lat="36.846863454209284" lon="-108.09996974979686"><ele>1802.0</ele><time>2026-04-05T20:16:36Z</time></trkpt><trkpt lat="36.846913208335074" lon="-108.0998262558026"><ele>1802.25</ele><time>2026-04-05T20:16:37Z</time></trkpt><trkpt lat="36.846974142423335" lon="-108.09969119825621"><ele>1802.5</ele><time>2026-04-05T20:16:38Z</time></trkpt><trkpt lat="36.84706512370599" lon="-108.09957179784121"><ele>1802.75</ele><time>2026-04-05T20:16:39Z</time></trkpt><trkpt lat="36.84718534514675" lon="-108.09946419462736"><ele>1803.0</ele><time>2026-04-05T20:16:40Z</time></trkpt><trkpt lat="36.84730600212731" lon="-108.09936347673408"><ele>1803.0</ele><time>2026-04-05T20:16:41Z</time></trkpt><trkpt lat="36.84742064255926" lon="-108.09924749031501"><ele>1803.0</ele><time>2026-04-05T20:16:42Z</time></trkpt><trkpt lat="36.84751103544029" lon="-108.0991096146057"><ele>1803.0</ele><time>2026-04-05T20:16:43Z</time></trkpt><trkpt lat="36.84757881875611" lon="-108.0989421512742"><ele>1803.0</ele><time>2026-04-05T20:16:44Z</time></trkpt><trkpt lat="36.84764745842326" lon="-108.09874708414631"><ele>1804.0</ele><time>2026-04-05T20:16:45Z</time></trkpt><trkpt lat="36.84774418138658" lon="-108.09859779642933"><ele>1805.0</ele><time>2026-04-05T20:16:46Z</time></trkpt><trkpt lat="36.84786630517615" lon="-108.09848387059431"><ele>1806.0</ele><time>2026-04-05T20:16:47Z</time></trkpt><trkpt lat="36.84796420474026" lon="-108.0983905686649"><ele>1807.0</ele><time>2026-04-05T20:16:48Z</time></trkpt><trkpt lat="36.84803214933085" lon="-108.09834385182056"><ele>1807.0000000000002</ele><time>2026-04-05T20:16:49Z</time></trkpt><trkpt lat="36.848095598478565" lon="-108.09831066571071"><ele>1807.0</ele><time>2026-04-05T20:16:50Z</time></trkpt><trkpt lat="36.84817575326072" lon="-108.0982865404692"><ele>1807.0</ele><time>2026-04-05T20:16:51Z</time></trkpt><trkpt lat="36.84825583360396" lon="-108.09821421249936"><ele>1807.0</ele><time>2026-04-05T20:16:52Z</time></trkpt><trkpt lat="36.84832134206888" lon="-108.09815873799676"><ele>1807.0000000000002</ele><time>2026-04-05T20:16:53Z</time></trkpt><trkpt lat="36.84841612173484" lon="-108.098136900766"><ele>1807.0</ele><time>2026-04-05T20:16:54Z</time></trkpt><trkpt lat="36.848510438748335" lon="-108.09808641577096"><ele>1808.1999999999998</ele><time>2026-04-05T20:16:55Z</time></trkpt><trkpt lat="36.848604542487145" lon="-108.09804692774217"><ele>1809.3999999999999</ele><time>2026-04-05T20:16:56Z</time></trkpt><trkpt lat="36.84869798536586" lon="-108.09805278801952"><ele>1810.6000000000001</ele><time>2026-04-05T20:16:57Z</time></trkpt><trkpt lat="36.84879370066108" lon="-108.09805621247968"><ele>1811.8000000000002</ele><time>2026-04-05T20:16:58Z</time></trkpt><trkpt lat="36.848868827901015" lon="-108.09803758106638"><ele>1813.0</ele><time>2026-04-05T20:16:59Z</time></trkpt><trkpt lat="36.84897368676727" lon="-108.09799862377251"><ele>1813.0</ele><time>2026-04-05T20:17:00Z</time></trkpt><trkpt lat="36.84904654214933" lon="-108.0979910408852"><ele>1813.0000000000002</ele><time>2026-04-05T20:17:01Z</time></trkpt><trkpt lat="36.84907550314018" lon="-108.09787075220025"><ele>1813.0000000000002</ele><time>2026-04-05T20:17:03Z</time></trkpt><trkpt lat="36.84907055497051" lon="-108.09775311646253"><ele>1813.0</ele><time>2026-04-05T20:17:04Z</time></trkpt><trkpt lat="36.84908141622633" lon="-108.09764422644112"><ele>1813.0</ele><time>2026-04-05T20:17:05Z</time></trkpt><trkpt lat="36.84918228908701" lon="-108.09759851636781"><ele>1813.0</ele><time>2026-04-05T20:17:07Z</time></trkpt><trkpt lat="36.84927856422051" lon="-108.09762459818796"><ele>1813.0000000000002</ele><time>2026-04-05T20:17:08Z</time></trkpt><trkpt lat="36.84936979628105" lon="-108.09760770260765"><ele>1813.0000000000002</ele><time>2026-04-05T20:17:09Z</time></trkpt><trkpt lat="36.84946890440832" lon="-108.09755645402261"><ele>1813.0</ele><time>2026-04-05T20:17:10Z</time></trkpt><trkpt lat="36.84956957210788" lon="-108.09751991084323"><ele>1813.0</ele><time>2026-04-05T20:17:11Z</time></trkpt><trkpt lat="36.849686383973875" lon="-108.09745656533708"><ele>1814.75</ele><time>2026-04-05T20:17:12Z</time></trkpt><trkpt lat="36.849817027837275" lon="-108.09741446346385"><ele>1816.5</ele><time>2026-04-05T20:17:13Z</time></trkpt><trkpt lat="36.84991782357826" lon="-108.09736405591337"><ele>1818.25</ele><time>2026-04-05T20:17:14Z</time></trkpt><trkpt lat="36.850011536438" lon="-108.09728743813953"><ele>1820.0</ele><time>2026-04-05T20:17:15Z</time></trkpt><trkpt lat="36.85007782599374" lon="-108.09719010629617"><ele>1820.0</ele><time>2026-04-05T20:17:16Z</time></trkpt><trkpt lat="36.850100616961555" lon="-108.09706541264148"><ele>1820.0</ele><time>2026-04-05T20:17:17Z</time></trkpt><trkpt lat="36.850079504813756" lon="-108.09690406766384"><ele>1820.0</ele><time>2026-04-05T20:17:18Z</time></trkpt><trkpt lat="36.850123938271466" lon="-108.09680464737379"><ele>1820.0</ele><time>2026-04-05T20:17:19Z</time></trkpt><trkpt lat="36.85017683414022" lon="-108.09667494159807"><ele>1820.0</ele><time>2026-04-05T20:17:20Z</time></trkpt><trkpt lat="36.850201268324476" lon="-108.09653541019729"><ele>1820.8</ele><time>2026-04-05T20:17:21Z</time></trkpt><trkpt lat="36.850236622615554" lon="-108.09641928048396"><ele>1821.6</ele><time>2026-04-05T20:17:22Z</time></trkpt><trkpt lat="36.85030056138208" lon="-108.09630618063888"><ele>1822.4</ele><time>2026-04-05T20:17:23Z</time></trkpt><trkpt lat="36.850369935704826" lon="-108.0962470432691"><ele>1823.2</ele><time>2026-04-05T20:17:24Z</time></trkpt><trkpt lat="36.850444140895924" lon="-108.0962017959402"><ele>1824.0</ele><time>2026-04-05T20:17:25Z</time></trkpt><trkpt lat="36.850494946027496" lon="-108.09613107331185"><ele>1824.0</ele><time>2026-04-05T20:17:26Z</time></trkpt><trkpt lat="36.850510956721656" lon="-108.09600577716995"><ele>1824.0</ele><time>2026-04-05T20:17:27Z</time></trkpt><trkpt lat="36.850525320785785" lon="-108.09588504727716"><ele>1824.0</ele><time>2026-04-05T20:17:28Z</time></trkpt><trkpt lat="36.85057868437001" lon="-108.09581301311547"><ele>1824.0</ele><time>2026-04-05T20:17:29Z</time></trkpt><trkpt lat="36.85068241275246" lon="-108.0958071225527"><ele>1824.0</ele><time>2026-04-05T20:17:30Z</time></trkpt><trkpt lat="36.850759553169716" lon="-108.09579864024822"><ele>1825.6</ele><time>2026-04-05T20:17:31Z</time></trkpt><trkpt lat="36.85080077845399" lon="-108.09566300974485"><ele>1827.2</ele><time>2026-04-05T20:17:33Z</time></trkpt><trkpt lat="36.850841487265065" lon="-108.09553474432114"><ele>1828.7999999999997</ele><time>2026-04-05T20:17:35Z</time></trkpt><trkpt lat="36.850876299672386" lon="-108.09540683335908"><ele>1830.3999999999999</ele><time>2026-04-05T20:17:37Z</time></trkpt><trkpt lat="36.85089861417737" lon="-108.09532229576503"><ele>1832.0</ele><time>2026-04-05T20:17:38Z</time></trkpt><trkpt lat="36.85093841138432" lon="-108.09517864050504"><ele>1831.6666666666665</ele><time>2026-04-05T20:17:40Z</time></trkpt><trkpt lat="36.850958641962" lon="-108.09508058924212"><ele>1831.3333333333333</ele><time>2026-04-05T20:17:41Z</time></trkpt><trkpt lat="36.85097874808861" lon="-108.09497676908532"><ele>1831.0</ele><time>2026-04-05T20:17:42Z</time></trkpt><trkpt lat="36.85101127493009" lon="-108.09488070645389"><ele>1830.6666666666665</ele><time>2026-04-05T20:17:43Z</time></trkpt><trkpt lat="36.85106963315391" lon="-108.0948205869901"><ele>1830.3333333333333</ele><time>2026-04-05T20:17:44Z</time></trkpt><trkpt lat="36.851141756405795" lon="-108.09482624641765"><ele>1830.0</ele><time>2026-04-05T20:17:45Z</time></trkpt><trkpt lat="36.851245581668636" lon="-108.09484240198859"><ele>1831.75</ele><time>2026-04-05T20:17:46Z</time></trkpt><trkpt lat="36.85137093564405" lon="-108.09481808380313"><ele>1833.5</ele><time>2026-04-05T20:17:47Z</time></trkpt><trkpt lat="36.8514906080583" lon="-108.09477740193394"><ele>1835.25</ele><time>2026-04-05T20:17:48Z</time></trkpt><trkpt lat="36.851602254104385" lon="-108.09474063329759"><ele>1837.0</ele><time>2026-04-05T20:17:49Z</time></trkpt><trkpt lat="36.85169182158521" lon="-108.09470784983885"><ele>1837.0</ele><time>2026-04-05T20:17:50Z</time></trkpt><trkpt lat="36.851762629883716" lon="-108.09464486855018"><ele>1837.0</ele><time>2026-04-05T20:17:51Z</time></trkpt><trkpt lat="36.85185938135761" lon="-108.09454310815632"><ele>1837.0</ele><time>2026-04-05T20:17:52Z</time></trkpt><trkpt lat="36.85198052337794" lon="-108.09447068074704"><ele>1837.0</ele><time>2026-04-05T20:17:53Z</time></trkpt><trkpt lat="36.852087197827416" lon="-108.09443642621075"><ele>1837.5000000000002</ele><time>2026-04-05T20:17:54Z</time></trkpt><trkpt lat="36.85217793568346" lon="-108.09442563102594"><ele>1838.0</ele><time>2026-04-05T20:17:55Z</time></trkpt><trkpt lat="36.85226791946534" lon="-108.09444899116981"><ele>1838.5</ele><time>2026-04-05T20:17:57Z</time></trkpt><trkpt lat="36.852251487254726" lon="-108.09454201316791"><ele>1839.0</ele><time>2026-04-05T20:17:58Z</time></trkpt><trkpt lat="36.852239180911155" lon="-108.09464336514745"><ele>1839.5000000000002</ele><time>2026-04-05T20:17:59Z</time></trkpt><trkpt lat="36.85225348717882" lon="-108.09474031248797"><ele>1840.0</ele><time>2026-04-05T20:18:00Z</time></trkpt><trkpt lat="36.85228750574428" lon="-108.09482772381074"><ele>1840.0</ele><time>2026-04-05T20:18:01Z</time></trkpt><trkpt lat="36.85233211107971" lon="-108.09489559119011"><ele>1840.0</ele><time>2026-04-05T20:18:02Z</time></trkpt><trkpt lat="36.85241005138533" lon="-108.09495793823233"><ele>1840.0</ele><time>2026-04-05T20:18:03Z</time></trkpt><trkpt lat="36.852523910335556" lon="-108.09500410214108"><ele>1840.0</ele><time>2026-04-05T20:18:04Z</time></trkpt><trkpt lat="36.852604570307676" lon="-108.09508026388352"><ele>1840.0</ele><time>2026-04-05T20:18:05Z</time></trkpt><trkpt lat="36.85265617948739" lon="-108.09516120661844"><ele>1841.0000000000002</ele><time>2026-04-05T20:18:06Z</time></trkpt><trkpt lat="36.85272551030335" lon="-108.09521729499711"><ele>1842.0</ele><time>2026-04-05T20:18:07Z</time></trkpt><trkpt lat="36.85281190298421" lon="-108.09525356766714"><ele>1843.0</ele><time>2026-04-05T20:18:08Z</time></trkpt><trkpt lat="36.85287982197646" lon="-108.09531825604924"><ele>1844.0</ele><time>2026-04-05T20:18:09Z</time></trkpt><trkpt lat="36.85294047119575" lon="-108.09537790200142"><ele>1845.0000000000002</ele><time>2026-04-05T20:18:10Z</time></trkpt><trkpt lat="36.85296079143583" lon="-108.09545957548438"><ele>1846.0</ele><time>2026-04-05T20:18:11Z</time></trkpt><trkpt lat="36.852988610548714" lon="-108.0955515342016"><ele>1846.0</ele><time>2026-04-05T20:18:12Z</time></trkpt><trkpt lat="36.85303878857393" lon="-108.09560435354949"><ele>1846.0</ele><time>2026-04-05T20:18:13Z</time></trkpt><trkpt lat="36.85311062552659" lon="-108.09559881439716"><ele>1846.0</ele><time>2026-04-05T20:18:14Z</time></trkpt><trkpt lat="36.85321058540308" lon="-108.095540573581"><ele>1846.0</ele><time>2026-04-05T20:18:15Z</time></trkpt><trkpt lat="36.853290480541766" lon="-108.09544654747047"><ele>1846.0</ele><time>2026-04-05T20:18:16Z</time></trkpt><trkpt lat="36.85335926964713" lon="-108.09536369327711"><ele>1846.0000000000002</ele><time>2026-04-05T20:18:17Z</time></trkpt><trkpt lat="36.85343241348252" lon="-108.09533528887769"><ele>1846.0</ele><time>2026-04-05T20:18:18Z</time></trkpt><trkpt lat="36.85350938846756" lon="-108.0953145801893"><ele>1846.0</ele><time>2026-04-05T20:18:19Z</time></trkpt><trkpt lat="36.853552280139546" lon="-108.09523868050472"><ele>1846.0</ele><time>2026-04-05T20:18:20Z</time></trkpt><trkpt lat="36.85360205128376" lon="-108.0951616853095"><ele>1846.0000000000002</ele><time>2026-04-05T20:18:21Z</time></trkpt><trkpt lat="36.85371635691224" lon="-108.09508734628541"><ele>1846.0</ele><time>2026-04-05T20:18:22Z</time></trkpt><trkpt lat="36.853810750554636" lon="-108.09502536832458"><ele>1847.4</ele><time>2026-04-05T20:18:23Z</time></trkpt><trkpt lat="36.85387451554779" lon="-108.0949970310437"><ele>1848.8</ele><time>2026-04-05T20:18:24Z</time></trkpt><trkpt lat="36.85396761491063" lon="-108.09498666176455"><ele>1850.2000000000003</ele><time>2026-04-05T20:18:25Z</time></trkpt><trkpt lat="36.85407281653664" lon="-108.09494415256614"><ele>1851.6000000000001</ele><time>2026-04-05T20:18:26Z</time></trkpt><trkpt lat="36.85416102223253" lon="-108.09486756128535"><ele>1853.0</ele><time>2026-04-05T20:18:27Z</time></trkpt><trkpt lat="36.854230818634775" lon="-108.09481455359045"><ele>1853.8333333333333</ele><time>2026-04-05T20:18:28Z</time></trkpt><trkpt lat="36.854313196735355" lon="-108.09479934397332"><ele>1854.6666666666665</ele><time>2026-04-05T20:18:29Z</time></trkpt><trkpt lat="36.85440434058076" lon="-108.09478994869058"><ele>1855.5</ele><time>2026-04-05T20:18:30Z</time></trkpt><trkpt lat="36.85448307637275" lon="-108.09479894665557"><ele>1856.3333333333335</ele><time>2026-04-05T20:18:31Z</time></trkpt><trkpt lat="36.85455082504635" lon="-108.09481769432169"><ele>1857.1666666666667</ele><time>2026-04-05T20:18:32Z</time></trkpt><trkpt lat="36.854607364692555" lon="-108.09490751784111"><ele>1858.0</ele><time>2026-04-05T20:18:33Z</time></trkpt><trkpt lat="36.85462726952887" lon="-108.09499800497787"><ele>1858.0</ele><time>2026-04-05T20:18:34Z</time></trkpt><trkpt lat="36.854700697072" lon="-108.09495145715795"><ele>1858.0000000000002</ele><time>2026-04-05T20:18:36Z</time></trkpt><trkpt lat="36.854797824776" lon="-108.0949295647641"><ele>1858.0000000000002</ele><time>2026-04-05T20:18:37Z</time></trkpt><trkpt lat="36.85487678626421" lon="-108.09493144230618"><ele>1858.0</ele><time>2026-04-05T20:18:38Z</time></trkpt><trkpt lat="36.85498501527502" lon="-108.09492583567696"><ele>1858.0</ele><time>2026-04-05T20:18:40Z</time></trkpt><trkpt lat="36.855100804119836" lon="-108.09487984382658"><ele>1859.3333333333335</ele><time>2026-04-05T20:18:42Z</time></trkpt><trkpt lat="36.855206021600246" lon="-108.09483951745959"><ele>1860.6666666666667</ele><time>2026-04-05T20:18:43Z</time></trkpt><trkpt lat="36.8552783266896" lon="-108.09484844849395"><ele>1862.0</ele><time>2026-04-05T20:18:44Z</time></trkpt><trkpt lat="36.855324046378556" lon="-108.09490606723683"><ele>1863.3333333333335</ele><time>2026-04-05T20:18:45Z</time></trkpt><trkpt lat="36.85542452298209" lon="-108.09498413639109"><ele>1864.6666666666667</ele><time>2026-04-05T20:18:47Z</time></trkpt><trkpt lat="36.855490407893775" lon="-108.09497670721154"><ele>1866.0</ele><time>2026-04-05T20:18:48Z</time></trkpt><trkpt lat="36.855580625780505" lon="-108.09502320136143"><ele>1866.1666666666667</ele><time>2026-04-05T20:18:49Z</time></trkpt><trkpt lat="36.85568177905074" lon="-108.09511326906757"><ele>1866.3333333333335</ele><time>2026-04-05T20:18:50Z</time></trkpt><trkpt lat="36.855753965320076" lon="-108.09516618691346"><ele>1866.5</ele><time>2026-04-05T20:18:51Z</time></trkpt><trkpt lat="36.855809032699426" lon="-108.09520661334551"><ele>1866.6666666666667</ele><time>2026-04-05T20:18:52Z</time></trkpt><trkpt lat="36.855847422830074" lon="-108.0952744863366"><ele>1866.8333333333335</ele><time>2026-04-05T20:18:53Z</time></trkpt><trkpt lat="36.85588259681325" lon="-108.09534623520308"><ele>1867.0</ele><time>2026-04-05T20:18:54Z</time></trkpt><trkpt lat="36.85594572496661" lon="-108.0953975985374"><ele>1868.1666666666667</ele><time>2026-04-05T20:18:55Z</time></trkpt><trkpt lat="36.855999350204456" lon="-108.09547203516344"><ele>1869.3333333333335</ele><time>2026-04-05T20:18:56Z</time></trkpt><trkpt lat="36.856053946723534" lon="-108.0955200107419"><ele>1870.5</ele><time>2026-04-05T20:18:57Z</time></trkpt><trkpt lat="36.85611795353852" lon="-108.0955752789592"><ele>1871.6666666666665</ele><time>2026-04-05T20:18:58Z</time></trkpt><trkpt lat="36.85620523347084" lon="-108.09565058055509"><ele>1872.8333333333333</ele><time>2026-04-05T20:18:59Z</time></trkpt><trkpt lat="36.85624881619542" lon="-108.09573948952732"><ele>1874.0</ele><time>2026-04-05T20:19:00Z</time></trkpt><trkpt lat="36.856261878699264" lon="-108.09585920497966"><ele>1874.3333333333333</ele><time>2026-04-05T20:19:01Z</time></trkpt><trkpt lat="36.8562738670652" lon="-108.0959880046658"><ele>1874.6666666666665</ele><time>2026-04-05T20:19:02Z</time></trkpt><trkpt lat="36.85629134100012" lon="-108.09608681518235"><ele>1875.0</ele><time>2026-04-05T20:19:03Z</time></trkpt><trkpt lat="36.85627900482755" lon="-108.09616773454074"><ele>1875.3333333333335</ele><time>2026-04-05T20:19:04Z</time></trkpt><trkpt lat="36.856382882398925" lon="-108.09622110634888"><ele>1875.6666666666667</ele><time>2026-04-05T20:19:06Z</time></trkpt><trkpt lat="36.85644149480887" lon="-108.09618631341067"><ele>1876.0</ele><time>2026-04-05T20:19:07Z</time></trkpt><trkpt lat="36.856505757875176" lon="-108.09618227482935"><ele>1876.0</ele><time>2026-04-05T20:19:11Z</time></trkpt><trkpt lat="36.85660317566564" lon="-108.09611251592557"><ele>1876.0</ele><time>2026-04-05T20:20:30Z</time></trkpt><trkpt lat="36.856704934769084" lon="-108.09607060519048"><ele>1876.0</ele><time>2026-04-05T20:20:32Z</time></trkpt><trkpt lat="36.85678943045895" lon="-108.09604824402483"><ele>1876.0</ele><time>2026-04-05T20:20:34Z</time></trkpt><trkpt lat="36.856914749153276" lon="-108.09602292283381"><ele>1876.0</ele><time>2026-04-05T20:20:36Z</time></trkpt><trkpt lat="36.856992897615996" lon="-108.09602565014004"><ele>1876.6666666666667</ele><time>2026-04-05T20:20:37Z</time></trkpt><trkpt lat="36.857068088931534" lon="-108.096029163171"><ele>1877.3333333333335</ele><time>2026-04-05T20:20:38Z</time></trkpt><trkpt lat="36.85713949161277" lon="-108.09600659142313"><ele>1878.0</ele><time>2026-04-05T20:20:39Z</time></trkpt><trkpt lat="36.85723133086429" lon="-108.095974245918"><ele>1878.6666666666665</ele><time>2026-04-05T20:20:40Z</time></trkpt><trkpt lat="36.85732126765365" lon="-108.09595438975627"><ele>1879.3333333333333</ele><time>2026-04-05T20:20:41Z</time></trkpt><trkpt lat="36.857413178479675" lon="-108.09594900977419"><ele>1880.0</ele><time>2026-04-05T20:20:42Z</time></trkpt><trkpt lat="36.85748211630592" lon="-108.09593468267141"><ele>1879.9999999999998</ele><time>2026-04-05T20:20:43Z</time></trkpt><trkpt lat="36.857547036205005" lon="-108.09594295611889"><ele>1880.0</ele><time>2026-04-05T20:20:44Z</time></trkpt><trkpt lat="36.857658875094934" lon="-108.09595980263451"><ele>1880.0</ele><time>2026-04-05T20:20:46Z</time></trkpt><trkpt lat="36.857737011010414" lon="-108.09593191367614"><ele>1880.0</ele><time>2026-04-05T20:20:47Z</time></trkpt><trkpt lat="36.85781386678742" lon="-108.09590219824419"><ele>1879.9999999999998</ele><time>2026-04-05T20:20:48Z</time></trkpt><trkpt lat="36.85789200737289" lon="-108.09583144655632"><ele>1880.0</ele><time>2026-04-05T20:20:49Z</time></trkpt><trkpt lat="36.85796999031117" lon="-108.09575808695325"><ele>1878.8333333333333</ele><time>2026-04-05T20:20:50Z</time></trkpt><trkpt lat="36.858023523138996" lon="-108.09571053998334"><ele>1877.6666666666665</ele><time>2026-04-05T20:20:51Z</time></trkpt><trkpt lat="36.85811015646201" lon="-108.09568125847771"><ele>1876.5</ele><time>2026-04-05T20:20:52Z</time></trkpt><trkpt lat="36.85821875131287" lon="-108.09566461020181"><ele>1875.3333333333335</ele><time>2026-04-05T20:20:53Z</time></trkpt><trkpt lat="36.85829202806479" lon="-108.09564145497494"><ele>1874.1666666666667</ele><time>2026-04-05T20:20:54Z</time></trkpt><trkpt lat="36.858352862746806" lon="-108.09559670299497"><ele>1873.0</ele><time>2026-04-05T20:20:55Z</time></trkpt><trkpt lat="36.85840641974417" lon="-108.09553410369953"><ele>1872.6666666666667</ele><time>2026-04-05T20:20:56Z</time></trkpt><trkpt lat="36.85846489081313" lon="-108.09546036654265"><ele>1872.3333333333335</ele><time>2026-04-05T20:20:57Z</time></trkpt><trkpt lat="36.858525390571124" lon="-108.09539538112709"><ele>1872.0</ele><time>2026-04-05T20:20:58Z</time></trkpt><trkpt lat="36.85858743834266" lon="-108.09533439751634"><ele>1871.6666666666665</ele><time>2026-04-05T20:20:59Z</time></trkpt><trkpt lat="36.85864723115448" lon="-108.0952767259737"><ele>1871.3333333333333</ele><time>2026-04-05T20:21:00Z</time></trkpt><trkpt lat="36.858700213440386" lon="-108.09522545194118"><ele>1871.0</ele><time>2026-04-05T20:21:01Z</time></trkpt><trkpt lat="36.85877428365385" lon="-108.09517339553176"><ele>1870.9999999999998</ele><time>2026-04-05T20:21:02Z</time></trkpt><trkpt lat="36.858858683709364" lon="-108.09510965874844"><ele>1871.0</ele><time>2026-04-05T20:21:03Z</time></trkpt><trkpt lat="36.85893265927544" lon="-108.09504416430157"><ele>1871.0</ele><time>2026-04-05T20:21:04Z</time></trkpt><trkpt lat="36.859006466842914" lon="-108.09498273412228"><ele>1871.0</ele><time>2026-04-05T20:21:05Z</time></trkpt><trkpt lat="36.8590865516168" lon="-108.09493491110096"><ele>1870.9999999999998</ele><time>2026-04-05T20:21:06Z</time></trkpt><trkpt lat="36.85916303315964" lon="-108.09489893997934"><ele>1871.0</ele><time>2026-04-05T20:21:07Z</time></trkpt><trkpt lat="36.859243962183264" lon="-108.09488562132839"><ele>1869.8</ele><time>2026-04-05T20:21:08Z</time></trkpt><trkpt lat="36.859318178888984" lon="-108.09485186996851"><ele>1868.6</ele><time>2026-04-05T20:21:09Z</time></trkpt><trkpt lat="36.859414612214486" lon="-108.09482555831869"><ele>1867.4</ele><time>2026-04-05T20:21:10Z</time></trkpt><trkpt lat="36.859509350057166" lon="-108.09481561526195"><ele>1866.2</ele><time>2026-04-05T20:21:11Z</time></trkpt><trkpt lat="36.85960449165781" lon="-108.09480018564983"><ele>1865.0</ele><time>2026-04-05T20:21:12Z</time></trkpt><trkpt lat="36.85970113263579" lon="-108.0947762277163"><ele>1864.9999999999998</ele><time>2026-04-05T20:21:13Z</time></trkpt><trkpt lat="36.8597969243003" lon="-108.0947667228393"><ele>1865.0</ele><time>2026-04-05T20:21:14Z</time></trkpt><trkpt lat="36.85986537871372" lon="-108.09478615003381"><ele>1865.0</ele><time>2026-04-05T20:21:15Z</time></trkpt><trkpt lat="36.85993710963432" lon="-108.09477888220354"><ele>1865.0</ele><time>2026-04-05T20:21:17Z</time></trkpt><trkpt lat="36.85992938241915" lon="-108.09469428280605"><ele>1864.9999999999998</ele><time>2026-04-05T20:21:29Z</time></trkpt><trkpt lat="36.8600073540773" lon="-108.09462343342183"><ele>1865.0</ele><time>2026-04-05T20:21:31Z</time></trkpt><trkpt lat="36.86008671443379" lon="-108.09462815064946"><ele>1866.0</ele><time>2026-04-05T20:21:32Z</time></trkpt><trkpt lat="36.86016504777185" lon="-108.09464791978823"><ele>1867.0</ele><time>2026-04-05T20:21:33Z</time></trkpt><trkpt lat="36.860239584548154" lon="-108.09464721615569"><ele>1868.0</ele><time>2026-04-05T20:21:34Z</time></trkpt><trkpt lat="36.86035757077247" lon="-108.09463454399166"><ele>1869.0</ele><time>2026-04-05T20:21:36Z</time></trkpt><trkpt lat="36.86043869728072" lon="-108.09465522923352"><ele>1870.0</ele><time>2026-04-05T20:21:38Z</time></trkpt><trkpt lat="36.86050043330899" lon="-108.0947842189185"><ele>1870.0000000000002</ele><time>2026-04-05T20:21:40Z</time></trkpt><trkpt lat="36.86055383611459" lon="-108.0948502594754"><ele>1870.0</ele><time>2026-04-05T20:21:41Z</time></trkpt><trkpt lat="36.860627598991044" lon="-108.0948706231954"><ele>1870.0</ele><time>2026-04-05T20:21:42Z</time></trkpt><trkpt lat="36.86072564416055" lon="-108.09486810666947"><ele>1870.0</ele><time>2026-04-05T20:21:43Z</time></trkpt><trkpt lat="36.860803991389034" lon="-108.09490886471097"><ele>1870.0000000000002</ele><time>2026-04-05T20:21:44Z</time></trkpt><trkpt lat="36.86088365888348" lon="-108.09497075262357"><ele>1870.0</ele><time>2026-04-05T20:21:45Z</time></trkpt><trkpt lat="36.86098583755401" lon="-108.09499165263236"><ele>1871.6</ele><time>2026-04-05T20:21:46Z</time></trkpt><trkpt lat="36.86110991575927" lon="-108.09500522088335"><ele>1873.2</ele><time>2026-04-05T20:21:47Z</time></trkpt><trkpt lat="36.86122439342169" lon="-108.09502230599128"><ele>1874.8000000000002</ele><time>2026-04-05T20:21:48Z</time></trkpt><trkpt lat="36.8613203365673" lon="-108.09502091514688"><ele>1876.4</ele><time>2026-04-05T20:21:49Z</time></trkpt><trkpt lat="36.86139938138221" lon="-108.09503949663801"><ele>1878.0</ele><time>2026-04-05T20:21:50Z</time></trkpt><trkpt lat="36.86152219306854" lon="-108.09510055923928"><ele>1878.0</ele><time>2026-04-05T20:21:52Z</time></trkpt><trkpt lat="36.86160056646595" lon="-108.0951595873043"><ele>1878.0</ele><time>2026-04-05T20:21:53Z</time></trkpt><trkpt lat="36.861664575355725" lon="-108.09519171894246"><ele>1878.0</ele><time>2026-04-05T20:21:54Z</time></trkpt><trkpt lat="36.86174778306145" lon="-108.09518824569834"><ele>1878.0</ele><time>2026-04-05T20:21:55Z</time></trkpt><trkpt lat="36.86182534520511" lon="-108.09519320300335"><ele>1878.0</ele><time>2026-04-05T20:21:56Z</time></trkpt><trkpt lat="36.86189508522983" lon="-108.09523215347495"><ele>1878.0</ele><time>2026-04-05T20:21:57Z</time></trkpt><trkpt lat="36.86197868502677" lon="-108.0952944256409"><ele>1878.0</ele><time>2026-04-05T20:21:58Z</time></trkpt><trkpt lat="36.86207194235809" lon="-108.09534862449598"><ele>1878.0000000000002</ele><time>2026-04-05T20:21:59Z</time></trkpt><trkpt lat="36.862166242699075" lon="-108.09537346788252"><ele>1878.0000000000002</ele><time>2026-04-05T20:22:00Z</time></trkpt><trkpt lat="36.86225877748015" lon="-108.09539217480659"><ele>1878.0</ele><time>2026-04-05T20:22:01Z</time></trkpt><trkpt lat="36.86234770625419" lon="-108.0953854347507"><ele>1878.0</ele><time>2026-04-05T20:22:02Z</time></trkpt><trkpt lat="36.86244981053839" lon="-108.09537314723052"><ele>1878.0</ele><time>2026-04-05T20:22:03Z</time></trkpt><trkpt lat="36.862534722588514" lon="-108.09527868835283"><ele>1878.0</ele><time>2026-04-05T20:22:04Z</time></trkpt><trkpt lat="36.86260071133982" lon="-108.0951921627093"><ele>1878.0</ele><time>2026-04-05T20:22:05Z</time></trkpt><trkpt lat="36.86262254729113" lon="-108.09511486870117"><ele>1878.0</ele><time>2026-04-05T20:22:06Z</time></trkpt><trkpt lat="36.86267062871856" lon="-108.09505282758083"><ele>1878.0</ele><time>2026-04-05T20:22:07Z</time></trkpt><trkpt lat="36.8627450351615" lon="-108.09501218541706"><ele>1878.0</ele><time>2026-04-05T20:22:08Z</time></trkpt><trkpt lat="36.86278751173875" lon="-108.09495268529277"><ele>1877.6666666666667</ele><time>2026-04-05T20:22:09Z</time></trkpt><trkpt lat="36.86281957245053" lon="-108.09488342503026"><ele>1877.3333333333335</ele><time>2026-04-05T20:22:10Z</time></trkpt><trkpt lat="36.862879708124545" lon="-108.09485134037372"><ele>1877.0</ele><time>2026-04-05T20:22:11Z</time></trkpt><trkpt lat="36.86294813105218" lon="-108.0948274518228"><ele>1876.6666666666667</ele><time>2026-04-05T20:22:12Z</time></trkpt><trkpt lat="36.863045520404576" lon="-108.09481527328761"><ele>1876.3333333333335</ele><time>2026-04-05T20:22:14Z</time></trkpt><trkpt lat="36.86315063673812" lon="-108.09484668788433"><ele>1876.0</ele><time>2026-04-05T20:22:16Z</time></trkpt><trkpt lat="36.8632894741331" lon="-108.094770723217"><ele>1876.0000000000002</ele><time>2026-04-05T20:22:18Z</time></trkpt><trkpt lat="36.863364432743666" lon="-108.09474068266984"><ele>1876.0</ele><time>2026-04-05T20:22:19Z</time></trkpt><trkpt lat="36.863435617483546" lon="-108.09476377715339"><ele>1876.0</ele><time>2026-04-05T20:22:20Z</time></trkpt><trkpt lat="36.863513619003044" lon="-108.09481115811829"><ele>1876.0</ele><time>2026-04-05T20:22:21Z</time></trkpt><trkpt lat="36.86360524151891" lon="-108.09483169111456"><ele>1876.0000000000002</ele><time>2026-04-05T20:22:22Z</time></trkpt><trkpt lat="36.863688269235766" lon="-108.09480676826419"><ele>1876.0</ele><time>2026-04-05T20:22:23Z</time></trkpt><trkpt lat="36.8637967517725" lon="-108.09477885444558"><ele>1876.1999999999998</ele><time>2026-04-05T20:22:25Z</time></trkpt><trkpt lat="36.863906982416346" lon="-108.09471172597569"><ele>1876.3999999999999</ele><time>2026-04-05T20:22:27Z</time></trkpt><trkpt lat="36.86398656016817" lon="-108.09465887575828"><ele>1876.6</ele><time>2026-04-05T20:22:28Z</time></trkpt><trkpt lat="36.86401242045882" lon="-108.09453664892635"><ele>1876.8</ele><time>2026-04-05T20:22:29Z</time></trkpt><trkpt lat="36.86404082869515" lon="-108.09446111850271"><ele>1877.0</ele><time>2026-04-05T20:22:30Z</time></trkpt><trkpt lat="36.86414782778556" lon="-108.09435614195597"><ele>1876.9999999999998</ele><time>2026-04-05T20:22:32Z</time></trkpt><trkpt lat="36.86421685857227" lon="-108.09433138375361"><ele>1877.0</ele><time>2026-04-05T20:22:33Z</time></trkpt><trkpt lat="36.864294325775916" lon="-108.09431166358887"><ele>1877.0</ele><time>2026-04-05T20:22:34Z</time></trkpt><trkpt lat="36.86439483572215" lon="-108.09431689153372"><ele>1877.0</ele><time>2026-04-05T20:22:35Z</time></trkpt><trkpt lat="36.86447374201824" lon="-108.09434182190957"><ele>1876.9999999999998</ele><time>2026-04-05T20:22:36Z</time></trkpt><trkpt lat="36.86452807037347" lon="-108.0943899124897"><ele>1877.0</ele><time>2026-04-05T20:22:37Z</time></trkpt><trkpt lat="36.86459464023089" lon="-108.0944993108177"><ele>1877.3999999999999</ele><time>2026-04-05T20:22:38Z</time></trkpt><trkpt lat="36.864665455125255" lon="-108.09461923486116"><ele>1877.7999999999997</ele><time>2026-04-05T20:22:39Z</time></trkpt><trkpt lat="36.86474924656174" lon="-108.09468502426549"><ele>1878.2</ele><time>2026-04-05T20:22:40Z</time></trkpt><trkpt lat="36.86482086562295" lon="-108.09475497250455"><ele>1878.6</ele><time>2026-04-05T20:22:41Z</time></trkpt><trkpt lat="36.86489299418044" lon="-108.09475876970413"><ele>1879.0</ele><time>2026-04-05T20:22:42Z</time></trkpt><trkpt lat="36.86498527136746" lon="-108.09471939344621"><ele>1879.0</ele><time>2026-04-05T20:22:43Z</time></trkpt><trkpt lat="36.86507047946257" lon="-108.09466986030498"><ele>1879.0</ele><time>2026-04-05T20:22:44Z</time></trkpt><trkpt lat="36.86518119810069" lon="-108.09467827941616"><ele>1879.0</ele><time>2026-04-05T20:22:45Z</time></trkpt><trkpt lat="36.865285282021254" lon="-108.09463771069785"><ele>1879.0</ele><time>2026-04-05T20:22:47Z</time></trkpt><trkpt lat="36.86537233254448" lon="-108.09456803103113"><ele>1879.0</ele><time>2026-04-05T20:22:49Z</time></trkpt><trkpt lat="36.86543906995065" lon="-108.09454131531056"><ele>1880.5</ele><time>2026-04-05T20:22:50Z</time></trkpt><trkpt lat="36.8655487031813" lon="-108.09451967615948"><ele>1882.0</ele><time>2026-04-05T20:22:51Z</time></trkpt><trkpt lat="36.865663919147586" lon="-108.09451648049958"><ele>1883.5</ele><time>2026-04-05T20:22:52Z</time></trkpt><trkpt lat="36.865774482345586" lon="-108.0945191347956"><ele>1885.0</ele><time>2026-04-05T20:22:53Z</time></trkpt><trkpt lat="36.865888692241036" lon="-108.09450052032176"><ele>1885.8</ele><time>2026-04-05T20:22:54Z</time></trkpt><trkpt lat="36.86598779662734" lon="-108.0944626847566"><ele>1886.6</ele><time>2026-04-05T20:22:55Z</time></trkpt><trkpt lat="36.86607794180717" lon="-108.09448441535554"><ele>1887.4</ele><time>2026-04-05T20:22:56Z</time></trkpt><trkpt lat="36.866191881974466" lon="-108.0945367987826"><ele>1888.2</ele><time>2026-04-05T20:22:57Z</time></trkpt><trkpt lat="36.86629733584556" lon="-108.09459301944042"><ele>1889.0</ele><time>2026-04-05T20:22:58Z</time></trkpt><trkpt lat="36.86638616236796" lon="-108.09459611653455"><ele>1889.0</ele><time>2026-04-05T20:22:59Z</time></trkpt><trkpt lat="36.86649319663169" lon="-108.09457787435512"><ele>1889.0</ele><time>2026-04-05T20:23:00Z</time></trkpt><trkpt lat="36.86660793137514" lon="-108.09458237854865"><ele>1889.0</ele><time>2026-04-05T20:23:01Z</time></trkpt><trkpt lat="36.86671381029216" lon="-108.09459176033165"><ele>1889.0</ele><time>2026-04-05T20:23:02Z</time></trkpt><trkpt lat="36.86679288739047" lon="-108.0945782691207"><ele>1889.0</ele><time>2026-04-05T20:23:03Z</time></trkpt><trkpt lat="36.86680870609009" lon="-108.09475292873222"><ele>1889.1666666666665</ele><time>2026-04-05T20:23:05Z</time></trkpt><trkpt lat="36.86683646278482" lon="-108.09486195162312"><ele>1889.3333333333333</ele><time>2026-04-05T20:23:06Z</time></trkpt><trkpt lat="36.866902563204775" lon="-108.09494977149335"><ele>1889.5</ele><time>2026-04-05T20:23:07Z</time></trkpt><trkpt lat="36.866935751184116" lon="-108.09501947323483"><ele>1889.6666666666665</ele><time>2026-04-05T20:23:08Z</time></trkpt><trkpt lat="36.86700813908895" lon="-108.09509071306523"><ele>1889.8333333333333</ele><time>2026-04-05T20:23:09Z</time></trkpt><trkpt lat="36.86707736458302" lon="-108.09513101539417"><ele>1890.0</ele><time>2026-04-05T20:23:10Z</time></trkpt><trkpt lat="36.86717925428153" lon="-108.09515766948215"><ele>1891.0</ele><time>2026-04-05T20:23:11Z</time></trkpt><trkpt lat="36.86730720471412" lon="-108.09519373808845"><ele>1892.0</ele><time>2026-04-05T20:23:12Z</time></trkpt><trkpt lat="36.86742713328513" lon="-108.09523867720252"><ele>1893.0</ele><time>2026-04-05T20:23:13Z</time></trkpt><trkpt lat="36.867512927496705" lon="-108.09532036923444"><ele>1894.0</ele><time>2026-04-05T20:23:14Z</time></trkpt><trkpt lat="36.867582705785324" lon="-108.09544768718827"><ele>1895.0</ele><time>2026-04-05T20:23:15Z</time></trkpt><trkpt lat="36.86765198189608" lon="-108.0955797846047"><ele>1896.0</ele><time>2026-04-05T20:23:16Z</time></trkpt><trkpt lat="36.86774063103182" lon="-108.09567931232513"><ele>1897.0</ele><time>2026-04-05T20:23:17Z</time></trkpt><trkpt lat="36.86782210487048" lon="-108.09579717101856"><ele>1898.0</ele><time>2026-04-05T20:23:18Z</time></trkpt><trkpt lat="36.867901944423956" lon="-108.09593021867931"><ele>1898.75</ele><time>2026-04-05T20:23:19Z</time></trkpt><trkpt lat="36.86797994047117" lon="-108.09603675305144"><ele>1899.5</ele><time>2026-04-05T20:23:20Z</time></trkpt><trkpt lat="36.86806042124925" lon="-108.09615409384119"><ele>1900.25</ele><time>2026-04-05T20:23:21Z</time></trkpt><trkpt lat="36.868143331778434" lon="-108.09626658855295"><ele>1901.0</ele><time>2026-04-05T20:23:22Z</time></trkpt><trkpt lat="36.86825090290514" lon="-108.09635859993492"><ele>1901.0</ele><time>2026-04-05T20:23:23Z</time></trkpt><trkpt lat="36.86835486669057" lon="-108.09645294082065"><ele>1901.0</ele><time>2026-04-05T20:23:24Z</time></trkpt><trkpt lat="36.86845152181915" lon="-108.09656309298519"><ele>1901.0</ele><time>2026-04-05T20:23:25Z</time></trkpt><trkpt lat="36.868547062191276" lon="-108.09667579760574"><ele>1901.0</ele><time>2026-04-05T20:23:26Z</time></trkpt><trkpt lat="36.86862906299852" lon="-108.09679500231672"><ele>1902.6</ele><time>2026-04-05T20:23:27Z</time></trkpt><trkpt lat="36.86871662015764" lon="-108.09689542135284"><ele>1904.1999999999998</ele><time>2026-04-05T20:23:28Z</time></trkpt><trkpt lat="36.86880404228877" lon="-108.09693644868753"><ele>1905.8000000000002</ele><time>2026-04-05T20:23:29Z</time></trkpt><trkpt lat="36.86889292693118" lon="-108.09695446639083"><ele>1907.4</ele><time>2026-04-05T20:23:30Z</time></trkpt><trkpt lat="36.868987222934415" lon="-108.09697611051769"><ele>1909.0</ele><time>2026-04-05T20:23:31Z</time></trkpt><trkpt lat="36.86906069784871" lon="-108.09693423717454"><ele>1909.0</ele><time>2026-04-05T20:23:32Z</time></trkpt><trkpt lat="36.869119209624536" lon="-108.09681309252302"><ele>1909.0</ele><time>2026-04-05T20:23:33Z</time></trkpt><trkpt lat="36.86921696833771" lon="-108.09674200396252"><ele>1909.0</ele><time>2026-04-05T20:23:34Z</time></trkpt><trkpt lat="36.86934099889121" lon="-108.0967475579702"><ele>1909.0</ele><time>2026-04-05T20:23:35Z</time></trkpt><trkpt lat="36.86942817821851" lon="-108.09678827257619"><ele>1909.0</ele><time>2026-04-05T20:23:36Z</time></trkpt><trkpt lat="36.86949911554029" lon="-108.09683879604592"><ele>1908.5000000000002</ele><time>2026-04-05T20:23:37Z</time></trkpt><trkpt lat="36.869587507509564" lon="-108.09687364697965"><ele>1908.0</ele><time>2026-04-05T20:23:38Z</time></trkpt><trkpt lat="36.869652784387924" lon="-108.09692984489817"><ele>1907.5</ele><time>2026-04-05T20:23:39Z</time></trkpt><trkpt lat="36.86970416336002" lon="-108.09699651297791"><ele>1907.0</ele><time>2026-04-05T20:23:40Z</time></trkpt><trkpt lat="36.86975887797667" lon="-108.09704176777463"><ele>1906.5000000000002</ele><time>2026-04-05T20:23:41Z</time></trkpt><trkpt lat="36.86984937583755" lon="-108.09711016171916"><ele>1906.0</ele><time>2026-04-05T20:23:43Z</time></trkpt><trkpt lat="36.869934553668166" lon="-108.09718858311072"><ele>1906.0</ele><time>2026-04-05T20:23:46Z</time></trkpt><trkpt lat="36.87009183149155" lon="-108.09709770765714"><ele>1906.0</ele><time>2026-04-05T20:23:47Z</time></trkpt><trkpt lat="36.87015354119168" lon="-108.09714507103436"><ele>1906.0</ele><time>2026-04-05T20:23:48Z</time></trkpt><trkpt lat="36.870288587994224" lon="-108.09716618513494"><ele>1906.0</ele><time>2026-04-05T20:23:50Z</time></trkpt><trkpt lat="36.870362762224985" lon="-108.0973230100218"><ele>1905.5</ele><time>2026-04-05T20:23:52Z</time></trkpt><trkpt lat="36.870433492541196" lon="-108.09741267721327"><ele>1905.0</ele><time>2026-04-05T20:23:53Z</time></trkpt><trkpt lat="36.87053447991564" lon="-108.09751400066033"><ele>1904.5</ele><time>2026-04-05T20:23:54Z</time></trkpt><trkpt lat="36.870662661755176" lon="-108.09760391406566"><ele>1904.0</ele><time>2026-04-05T20:23:55Z</time></trkpt><trkpt lat="36.87080352053562" lon="-108.09772565725245"><ele>1903.75</ele><time>2026-04-05T20:23:56Z</time></trkpt><trkpt lat="36.870934424769494" lon="-108.09784945710605"><ele>1903.5</ele><time>2026-04-05T20:23:57Z</time></trkpt><trkpt lat="36.871033030640554" lon="-108.09796983765763"><ele>1903.25</ele><time>2026-04-05T20:23:58Z</time></trkpt><trkpt lat="36.87111748386828" lon="-108.0980992564047"><ele>1903.0</ele><time>2026-04-05T20:23:59Z</time></trkpt><trkpt lat="36.87120924343855" lon="-108.09821989943622"><ele>1902.0</ele><time>2026-04-05T20:24:00Z</time></trkpt><trkpt lat="36.87131336515096" lon="-108.09833864761939"><ele>1901.0000000000002</ele><time>2026-04-05T20:24:01Z</time></trkpt><trkpt lat="36.871391507306484" lon="-108.09842793572419"><ele>1900.0000000000002</ele><time>2026-04-05T20:24:02Z</time></trkpt><trkpt lat="36.871458666083875" lon="-108.09850349448315"><ele>1899.0</ele><time>2026-04-05T20:24:03Z</time></trkpt><trkpt lat="36.87148238667836" lon="-108.0985764731132"><ele>1898.0</ele><time>2026-04-05T20:24:04Z</time></trkpt><trkpt lat="36.87140276397517" lon="-108.09871600837852"><ele>1898.0</ele><time>2026-04-05T20:24:06Z</time></trkpt><trkpt lat="36.87137191218027" lon="-108.09881407774573"><ele>1898.0000000000002</ele><time>2026-04-05T20:24:07Z</time></trkpt><trkpt lat="36.87137972918059" lon="-108.09890307778814"><ele>1898.0000000000002</ele><time>2026-04-05T20:24:08Z</time></trkpt><trkpt lat="36.87145939487724" lon="-108.09901265603736"><ele>1898.0</ele><time>2026-04-05T20:24:09Z</time></trkpt><trkpt lat="36.871517979577305" lon="-108.09913679596421"><ele>1898.0</ele><time>2026-04-05T20:24:10Z</time></trkpt><trkpt lat="36.87160658506474" lon="-108.09921113003114"><ele>1897.8000000000002</ele><time>2026-04-05T20:24:11Z</time></trkpt><trkpt lat="36.871691769727185" lon="-108.09928977386348"><ele>1897.6000000000001</ele><time>2026-04-05T20:24:12Z</time></trkpt><trkpt lat="36.87179843790501" lon="-108.09937974459123"><ele>1897.3999999999999</ele><time>2026-04-05T20:24:13Z</time></trkpt><trkpt lat="36.87187146865247" lon="-108.0994774916184"><ele>1897.1999999999998</ele><time>2026-04-05T20:24:14Z</time></trkpt><trkpt lat="36.87189312030835" lon="-108.09959935799007"><ele>1897.0</ele><time>2026-04-05T20:24:15Z</time></trkpt><trkpt lat="36.87191302939189" lon="-108.0997270946856"><ele>1896.0</ele><time>2026-04-05T20:24:16Z</time></trkpt><trkpt lat="36.87196346636027" lon="-108.09979980774949"><ele>1894.9999999999998</ele><time>2026-04-05T20:24:17Z</time></trkpt><trkpt lat="36.87204725028557" lon="-108.09988229927721"><ele>1893.9999999999998</ele><time>2026-04-05T20:24:18Z</time></trkpt><trkpt lat="36.872119140663735" lon="-108.09998654770922"><ele>1893.0</ele><time>2026-04-05T20:24:19Z</time></trkpt><trkpt lat="36.872182355307416" lon="-108.10005043001492"><ele>1892.0</ele><time>2026-04-05T20:24:20Z</time></trkpt><trkpt lat="36.87228064299676" lon="-108.10006179718485"><ele>1892.0</ele><time>2026-04-05T20:24:21Z</time></trkpt><trkpt lat="36.8723926077486" lon="-108.10008393662685"><ele>1891.9999999999998</ele><time>2026-04-05T20:24:22Z</time></trkpt><trkpt lat="36.87247078865273" lon="-108.10015621259798"><ele>1891.9999999999998</ele><time>2026-04-05T20:24:23Z</time></trkpt><trkpt lat="36.87250251750436" lon="-108.10027693331548"><ele>1892.0</ele><time>2026-04-05T20:24:24Z</time></trkpt><trkpt lat="36.872523952385244" lon="-108.10043269425886"><ele>1892.0</ele><time>2026-04-05T20:24:25Z</time></trkpt><trkpt lat="36.87256146950618" lon="-108.10058686738724"><ele>1891.1999999999998</ele><time>2026-04-05T20:24:26Z</time></trkpt><trkpt lat="36.87261625430737" lon="-108.10071679446519"><ele>1890.3999999999999</ele><time>2026-04-05T20:24:27Z</time></trkpt><trkpt lat="36.87268999554469" lon="-108.1008286845498"><ele>1889.6000000000001</ele><time>2026-04-05T20:24:28Z</time></trkpt><trkpt lat="36.872759522290785" lon="-108.10092986735269"><ele>1888.8000000000002</ele><time>2026-04-05T20:24:29Z</time></trkpt><trkpt lat="36.87280477992066" lon="-108.10103202574288"><ele>1888.0</ele><time>2026-04-05T20:24:30Z</time></trkpt><trkpt lat="36.872807349086536" lon="-108.10114748305685"><ele>1888.0</ele><time>2026-04-05T20:24:31Z</time></trkpt><trkpt lat="36.872821539347505" lon="-108.10126486739435"><ele>1888.0000000000002</ele><time>2026-04-05T20:24:32Z</time></trkpt><trkpt lat="36.872861523616386" lon="-108.10138953621362"><ele>1888.0000000000002</ele><time>2026-04-05T20:24:33Z</time></trkpt><trkpt lat="36.87289940901807" lon="-108.10152566756682"><ele>1888.0</ele><time>2026-04-05T20:24:34Z</time></trkpt><trkpt lat="36.87293681654242" lon="-108.10165094861861"><ele>1888.0</ele><time>2026-04-05T20:24:35Z</time></trkpt><trkpt lat="36.87293643599817" lon="-108.10175852892677"><ele>1888.0000000000002</ele><time>2026-04-05T20:24:36Z</time></trkpt><trkpt lat="36.87293307277879" lon="-108.10186023289943"><ele>1888.0</ele><time>2026-04-05T20:24:37Z</time></trkpt><trkpt lat="36.87296185084419" lon="-108.10193686705509"><ele>1888.0</ele><time>2026-04-05T20:24:38Z</time></trkpt><trkpt lat="36.87303587897075" lon="-108.10199948614161"><ele>1888.0</ele><time>2026-04-05T20:24:39Z</time></trkpt><trkpt lat="36.873124668469984" lon="-108.10204016706157"><ele>1888.0000000000002</ele><time>2026-04-05T20:24:40Z</time></trkpt><trkpt lat="36.87320848261448" lon="-108.1020905432107"><ele>1888.0</ele><time>2026-04-05T20:24:41Z</time></trkpt><trkpt lat="36.87330150419034" lon="-108.1021578575482"><ele>1888.0</ele><time>2026-04-05T20:24:42Z</time></trkpt><trkpt lat="36.87339931602299" lon="-108.1022116352347"><ele>1888.0000000000002</ele><time>2026-04-05T20:24:43Z</time></trkpt><trkpt lat="36.87347929263423" lon="-108.102273196888"><ele>1888.0000000000002</ele><time>2026-04-05T20:24:44Z</time></trkpt><trkpt lat="36.87355752231637" lon="-108.10235981832561"><ele>1888.0</ele><time>2026-04-05T20:24:45Z</time></trkpt><trkpt lat="36.87362177510793" lon="-108.10245656288033"><ele>1888.0</ele><time>2026-04-05T20:24:46Z</time></trkpt><trkpt lat="36.87368522478281" lon="-108.10252574225632"><ele>1886.6000000000001</ele><time>2026-04-05T20:24:47Z</time></trkpt><trkpt lat="36.873710109243795" lon="-108.10266434528616"><ele>1885.2000000000003</ele><time>2026-04-05T20:24:50Z</time></trkpt><trkpt lat="36.8737707862957" lon="-108.1027240074174"><ele>1883.8</ele><time>2026-04-05T20:24:51Z</time></trkpt><trkpt lat="36.873817738905224" lon="-108.1027781045585"><ele>1882.4</ele><time>2026-04-05T20:24:52Z</time></trkpt><trkpt lat="36.873811285562056" lon="-108.10296856027328"><ele>1881.0</ele><time>2026-04-05T20:24:54Z</time></trkpt><trkpt lat="36.87379209107995" lon="-108.10307187519919"><ele>1881.0</ele><time>2026-04-05T20:24:55Z</time></trkpt><trkpt lat="36.873737912601904" lon="-108.10318440042029"><ele>1881.0</ele><time>2026-04-05T20:24:56Z</time></trkpt><trkpt lat="36.873690394122235" lon="-108.10327581790183"><ele>1881.0</ele><time>2026-04-05T20:24:57Z</time></trkpt><trkpt lat="36.873630403000995" lon="-108.10337455637807"><ele>1881.0</ele><time>2026-04-05T20:24:58Z</time></trkpt><trkpt lat="36.873578306704694" lon="-108.10343113172652"><ele>1881.0</ele><time>2026-04-05T20:24:59Z</time></trkpt><trkpt lat="36.87354671441245" lon="-108.10350286550432"><ele>1881.0</ele><time>2026-04-05T20:25:00Z</time></trkpt><trkpt lat="36.87353439325746" lon="-108.10359834271011"><ele>1880.8333333333333</ele><time>2026-04-05T20:25:01Z</time></trkpt><trkpt lat="36.87353654178403" lon="-108.1037271245836"><ele>1880.6666666666665</ele><time>2026-04-05T20:25:02Z</time></trkpt><trkpt lat="36.873478055533155" lon="-108.10381692787412"><ele>1880.5</ele><time>2026-04-05T20:25:03Z</time></trkpt><trkpt lat="36.873451489923156" lon="-108.10389255905878"><ele>1880.3333333333333</ele><time>2026-04-05T20:25:04Z</time></trkpt><trkpt lat="36.87347914096633" lon="-108.10403266796243"><ele>1880.1666666666665</ele><time>2026-04-05T20:25:06Z</time></trkpt><trkpt lat="36.87348988694047" lon="-108.10412005499222"><ele>1880.0</ele><time>2026-04-05T20:25:08Z</time></trkpt><trkpt lat="36.87361886400065" lon="-108.10410861657347"><ele>1880.0</ele><time>2026-04-05T20:25:10Z</time></trkpt><trkpt lat="36.873721927328816" lon="-108.10402752635748"><ele>1880.0</ele><time>2026-04-05T20:25:11Z</time></trkpt><trkpt lat="36.873815692143864" lon="-108.1039157495514"><ele>1880.0</ele><time>2026-04-05T20:25:12Z</time></trkpt><trkpt lat="36.87390253386921" lon="-108.10379669925086"><ele>1880.0</ele><time>2026-04-05T20:25:13Z</time></trkpt><trkpt lat="36.873988318661034" lon="-108.10372593611278"><ele>1880.0</ele><time>2026-04-05T20:25:14Z</time></trkpt><trkpt lat="36.874078739599796" lon="-108.10366616710697"><ele>1880.0</ele><time>2026-04-05T20:25:15Z</time></trkpt><trkpt lat="36.87416204520881" lon="-108.10359769221407"><ele>1880.0</ele><time>2026-04-05T20:25:16Z</time></trkpt><trkpt lat="36.87422785594559" lon="-108.10352845587553"><ele>1880.0</ele><time>2026-04-05T20:25:17Z</time></trkpt><trkpt lat="36.87430718099496" lon="-108.1034569500279"><ele>1880.0</ele><time>2026-04-05T20:25:18Z</time></trkpt><trkpt lat="36.87439335520202" lon="-108.10339827483524"><ele>1878.9999999999998</ele><time>2026-04-05T20:25:19Z</time></trkpt><trkpt lat="36.874476405629494" lon="-108.10334117008497"><ele>1878.0</ele><time>2026-04-05T20:25:20Z</time></trkpt><trkpt lat="36.874529779970956" lon="-108.10327881150796"><ele>1877.0</ele><time>2026-04-05T20:25:21Z</time></trkpt><trkpt lat="36.874562455455035" lon="-108.10319356176593"><ele>1876.0</ele><time>2026-04-05T20:25:22Z</time></trkpt><trkpt lat="36.87461335871952" lon="-108.10313813717109"><ele>1874.9999999999998</ele><time>2026-04-05T20:25:23Z</time></trkpt><trkpt lat="36.874696204017056" lon="-108.10310594844563"><ele>1874.0</ele><time>2026-04-05T20:25:25Z</time></trkpt><trkpt lat="36.874726919426166" lon="-108.10301567720154"><ele>1873.9999999999998</ele><time>2026-04-05T20:25:26Z</time></trkpt><trkpt lat="36.87475570252835" lon="-108.10291166748884"><ele>1874.0</ele><time>2026-04-05T20:25:27Z</time></trkpt><trkpt lat="36.874783260837894" lon="-108.10282421378282"><ele>1874.0</ele><time>2026-04-05T20:25:28Z</time></trkpt><trkpt lat="36.87484721251196" lon="-108.1027853906535"><ele>1874.0</ele><time>2026-04-05T20:25:29Z</time></trkpt><trkpt lat="36.87494174109859" lon="-108.1027472496972"><ele>1873.9999999999998</ele><time>2026-04-05T20:25:30Z</time></trkpt><trkpt lat="36.87501438118575" lon="-108.10270999288777"><ele>1874.0</ele><time>2026-04-05T20:25:31Z</time></trkpt><trkpt lat="36.87510467138208" lon="-108.10272923261077"><ele>1873.1666666666665</ele><time>2026-04-05T20:25:32Z</time></trkpt><trkpt lat="36.87518947261858" lon="-108.10272592309443"><ele>1872.3333333333333</ele><time>2026-04-05T20:25:33Z</time></trkpt><trkpt lat="36.87527623028065" lon="-108.10267920430904"><ele>1871.5</ele><time>2026-04-05T20:25:34Z</time></trkpt><trkpt lat="36.875370266100624" lon="-108.10265070489045"><ele>1870.6666666666665</ele><time>2026-04-05T20:25:35Z</time></trkpt><trkpt lat="36.875459139456105" lon="-108.10264435417041"><ele>1869.8333333333333</ele><time>2026-04-05T20:25:36Z</time></trkpt><trkpt lat="36.87553849597752" lon="-108.102625838453"><ele>1869.0</ele><time>2026-04-05T20:25:37Z</time></trkpt><trkpt lat="36.87564048265843" lon="-108.10259522736378"><ele>1869.0</ele><time>2026-04-05T20:25:39Z</time></trkpt><trkpt lat="36.87577364570048" lon="-108.10257717319934"><ele>1869.0</ele><time>2026-04-05T20:25:41Z</time></trkpt><trkpt lat="36.875845535665775" lon="-108.10257986855666"><ele>1869.0</ele><time>2026-04-05T20:25:42Z</time></trkpt><trkpt lat="36.875901273794746" lon="-108.1026299031341"><ele>1869.0</ele><time>2026-04-05T20:25:45Z</time></trkpt><trkpt lat="36.87595125182666" lon="-108.10268982903094"><ele>1869.0</ele><time>2026-04-05T20:25:50Z</time></trkpt><trkpt lat="36.87604160163388" lon="-108.10281589847564"><ele>1868.6</ele><time>2026-04-05T20:25:52Z</time></trkpt><trkpt lat="36.87608742585099" lon="-108.10292108204222"><ele>1868.2</ele><time>2026-04-05T20:25:53Z</time></trkpt><trkpt lat="36.87614801585734" lon="-108.10303924217735"><ele>1867.7999999999997</ele><time>2026-04-05T20:25:54Z</time></trkpt><trkpt lat="36.87621741877307" lon="-108.10313404659782"><ele>1867.3999999999999</ele><time>2026-04-05T20:25:55Z</time></trkpt><trkpt lat="36.87625549061219" lon="-108.1032331215441"><ele>1867.0</ele><time>2026-04-05T20:25:56Z</time></trkpt><trkpt lat="36.87628499041271" lon="-108.10334573301184"><ele>1867.0</ele><time>2026-04-05T20:25:57Z</time></trkpt><trkpt lat="36.87633636544692" lon="-108.10348023272256"><ele>1867.0</ele><time>2026-04-05T20:25:58Z</time></trkpt><trkpt lat="36.87639615875919" lon="-108.1036198181199"><ele>1867.0</ele><time>2026-04-05T20:25:59Z</time></trkpt><trkpt lat="36.87647619856621" lon="-108.1037360857742"><ele>1867.0</ele><time>2026-04-05T20:26:00Z</time></trkpt><trkpt lat="36.876524963457584" lon="-108.10382665669735"><ele>1867.0</ele><time>2026-04-05T20:26:01Z</time></trkpt><trkpt lat="36.87658389195752" lon="-108.10390597139839"><ele>1866.9999999999998</ele><time>2026-04-05T20:26:02Z</time></trkpt><trkpt lat="36.87667659685438" lon="-108.10398925545307"><ele>1866.9999999999998</ele><time>2026-04-05T20:26:03Z</time></trkpt><trkpt lat="36.87678080792412" lon="-108.10406976751105"><ele>1867.0</ele><time>2026-04-05T20:26:04Z</time></trkpt><trkpt lat="36.87687029609447" lon="-108.10409880672194"><ele>1867.0</ele><time>2026-04-05T20:26:05Z</time></trkpt><trkpt lat="36.876959215629576" lon="-108.1039495758446"><ele>1867.6666666666667</ele><time>2026-04-05T20:26:07Z</time></trkpt><trkpt lat="36.87700826865327" lon="-108.10386642279012"><ele>1868.3333333333335</ele><time>2026-04-05T20:26:08Z</time></trkpt><trkpt lat="36.877034820270815" lon="-108.10379083904641"><ele>1869.0</ele><time>2026-04-05T20:26:09Z</time></trkpt><trkpt lat="36.877125760962585" lon="-108.1037040517036"><ele>1869.6666666666665</ele><time>2026-04-05T20:26:12Z</time></trkpt><trkpt lat="36.87717359422982" lon="-108.1036382084817"><ele>1870.3333333333333</ele><time>2026-04-05T20:26:13Z</time></trkpt><trkpt lat="36.877242932491306" lon="-108.10358717278615"><ele>1871.0</ele><time>2026-04-05T20:26:14Z</time></trkpt><trkpt lat="36.877322701790284" lon="-108.10351257716141"><ele>1871.0</ele><time>2026-04-05T20:26:15Z</time></trkpt><trkpt lat="36.877409220136045" lon="-108.1034225507606"><ele>1871.0</ele><time>2026-04-05T20:26:16Z</time></trkpt><trkpt lat="36.877491310023046" lon="-108.10333359908049"><ele>1871.0</ele><time>2026-04-05T20:26:17Z</time></trkpt><trkpt lat="36.877582610879045" lon="-108.10327260727661"><ele>1871.0</ele><time>2026-04-05T20:26:18Z</time></trkpt><trkpt lat="36.87768391699144" lon="-108.10320172288192"><ele>1871.0</ele><time>2026-04-05T20:26:19Z</time></trkpt><trkpt lat="36.87778223423584" lon="-108.10310470365162"><ele>1873.25</ele><time>2026-04-05T20:26:20Z</time></trkpt><trkpt lat="36.87790745679911" lon="-108.10301467758342"><ele>1875.5</ele><time>2026-04-05T20:26:21Z</time></trkpt><trkpt lat="36.87801964602956" lon="-108.10291959930977"><ele>1877.75</ele><time>2026-04-05T20:26:22Z</time></trkpt><trkpt lat="36.878095799222386" lon="-108.1028211368027"><ele>1880.0</ele><time>2026-04-05T20:26:23Z</time></trkpt><trkpt lat="36.8781381790556" lon="-108.10276198599166"><ele>1880.0</ele><time>2026-04-05T20:26:24Z</time></trkpt><trkpt lat="36.87803363796379" lon="-108.10276326411594"><ele>1880.0</ele><time>2026-04-05T20:26:27Z</time></trkpt><trkpt lat="36.87798483203758" lon="-108.10265478304092"><ele>1880.0</ele><time>2026-04-05T20:26:30Z</time></trkpt><trkpt lat="36.877866483919036" lon="-108.10259424009767"><ele>1880.0</ele><time>2026-04-05T20:26:32Z</time></trkpt><trkpt lat="36.87778901908817" lon="-108.10249021343107"><ele>1880.0</ele><time>2026-04-05T20:26:33Z</time></trkpt><trkpt lat="36.87772593301846" lon="-108.10237433253626"><ele>1880.4</ele><time>2026-04-05T20:26:34Z</time></trkpt><trkpt lat="36.87764978351976" lon="-108.10226642889072"><ele>1880.8</ele><time>2026-04-05T20:26:35Z</time></trkpt><trkpt lat="36.87758284420266" lon="-108.10218372520785"><ele>1881.1999999999998</ele><time>2026-04-05T20:26:36Z</time></trkpt><trkpt lat="36.87750681059122" lon="-108.10212620612499"><ele>1881.6</ele><time>2026-04-05T20:26:37Z</time></trkpt><trkpt lat="36.87743905788357" lon="-108.10207561780126"><ele>1882.0</ele><time>2026-04-05T20:26:38Z</time></trkpt><trkpt lat="36.87744173754119" lon="-108.10191790005905"><ele>1882.0</ele><time>2026-04-05T20:26:40Z</time></trkpt><trkpt lat="36.87746441251373" lon="-108.10182248548483"><ele>1881.9999999999998</ele><time>2026-04-05T20:26:41Z</time></trkpt><trkpt lat="36.87741198527139" lon="-108.101755680764"><ele>1881.9999999999998</ele><time>2026-04-05T20:26:42Z</time></trkpt><trkpt lat="36.87732007145532" lon="-108.10167429960079"><ele>1882.0</ele><time>2026-04-05T20:26:43Z</time></trkpt><trkpt lat="36.877246393254545" lon="-108.10158019993088"><ele>1882.0</ele><time>2026-04-05T20:26:44Z</time></trkpt><trkpt lat="36.87718937230767" lon="-108.10150823612823"><ele>1881.6666666666667</ele><time>2026-04-05T20:26:45Z</time></trkpt><trkpt lat="36.87711476292437" lon="-108.10144094732105"><ele>1881.3333333333335</ele><time>2026-04-05T20:26:46Z</time></trkpt><trkpt lat="36.877036028747085" lon="-108.10139048837682"><ele>1881.0</ele><time>2026-04-05T20:26:47Z</time></trkpt><trkpt lat="36.87696379906154" lon="-108.10132193876679"><ele>1880.6666666666665</ele><time>2026-04-05T20:26:48Z</time></trkpt><trkpt lat="36.87690172800976" lon="-108.1012521358958"><ele>1880.3333333333333</ele><time>2026-04-05T20:26:49Z</time></trkpt><trkpt lat="36.876824330910246" lon="-108.10118785707667"><ele>1880.0</ele><time>2026-04-05T20:26:50Z</time></trkpt><trkpt lat="36.876753386163735" lon="-108.10113362334158"><ele>1879.9999999999998</ele><time>2026-04-05T20:26:51Z</time></trkpt><trkpt lat="36.87663634104908" lon="-108.10111293136254"><ele>1880.0</ele><time>2026-04-05T20:26:53Z</time></trkpt><trkpt lat="36.876533325889305" lon="-108.1011048390263"><ele>1880.0</ele><time>2026-04-05T20:26:54Z</time></trkpt><trkpt lat="36.876471388902566" lon="-108.10105164279734"><ele>1880.0</ele><time>2026-04-05T20:26:55Z</time></trkpt><trkpt lat="36.87647317466064" lon="-108.10097057224246"><ele>1879.9999999999998</ele><time>2026-04-05T20:26:56Z</time></trkpt><trkpt lat="36.87650440464727" lon="-108.10088144007308"><ele>1880.0</ele><time>2026-04-05T20:26:57Z</time></trkpt><trkpt lat="36.876613916692015" lon="-108.10082753189566"><ele>1880.0</ele><time>2026-04-05T20:26:59Z</time></trkpt><trkpt lat="36.87668857509095" lon="-108.10078448055803"><ele>1880.0</ele><time>2026-04-05T20:27:01Z</time></trkpt><trkpt lat="36.87674198705806" lon="-108.10074002454796"><ele>1880.0</ele><time>2026-04-05T20:27:02Z</time></trkpt><trkpt lat="36.87684945125393" lon="-108.10074756849112"><ele>1880.0</ele><time>2026-04-05T20:27:03Z</time></trkpt><trkpt lat="36.876961696327044" lon="-108.10079982122963"><ele>1880.0</ele><time>2026-04-05T20:27:04Z</time></trkpt><trkpt lat="36.87708418665396" lon="-108.10080032631515"><ele>1881.1666666666665</ele><time>2026-04-05T20:27:05Z</time></trkpt><trkpt lat="36.87716728274871" lon="-108.1007959242596"><ele>1882.3333333333333</ele><time>2026-04-05T20:27:06Z</time></trkpt><trkpt lat="36.87723465074877" lon="-108.1007750733338"><ele>1883.5</ele><time>2026-04-05T20:27:07Z</time></trkpt><trkpt lat="36.87731542199514" lon="-108.10069188339064"><ele>1884.6666666666665</ele><time>2026-04-05T20:27:08Z</time></trkpt><trkpt lat="36.877402359177324" lon="-108.10062992247632"><ele>1885.8333333333333</ele><time>2026-04-05T20:27:09Z</time></trkpt><trkpt lat="36.87745491018074" lon="-108.1005628359977"><ele>1887.0</ele><time>2026-04-05T20:27:10Z</time></trkpt><trkpt lat="36.8775194509974" lon="-108.1004587421097"><ele>1887.0</ele><time>2026-04-05T20:27:11Z</time></trkpt><trkpt lat="36.87758422947519" lon="-108.10038580904305"><ele>1886.9999999999998</ele><time>2026-04-05T20:27:12Z</time></trkpt><trkpt lat="36.87764417414013" lon="-108.10029606027486"><ele>1886.9999999999998</ele><time>2026-04-05T20:27:13Z</time></trkpt><trkpt lat="36.87770339029533" lon="-108.10020960053046"><ele>1887.0</ele><time>2026-04-05T20:27:14Z</time></trkpt><trkpt lat="36.87776799696503" lon="-108.10015064067322"><ele>1887.0</ele><time>2026-04-05T20:27:15Z</time></trkpt><trkpt lat="36.877870728051874" lon="-108.10014176401299"><ele>1887.8</ele><time>2026-04-05T20:27:16Z</time></trkpt><trkpt lat="36.87795573871273" lon="-108.1001665633663"><ele>1888.6</ele><time>2026-04-05T20:27:17Z</time></trkpt><trkpt lat="36.878026229535394" lon="-108.10014619316296"><ele>1889.3999999999999</ele><time>2026-04-05T20:27:18Z</time></trkpt><trkpt lat="36.87813334851461" lon="-108.10010281120194"><ele>1890.1999999999998</ele><time>2026-04-05T20:27:19Z</time></trkpt><trkpt lat="36.878221014792274" lon="-108.10005554049397"><ele>1891.0</ele><time>2026-04-05T20:27:20Z</time></trkpt><trkpt lat="36.87830337086718" lon="-108.09994337396014"><ele>1890.8</ele><time>2026-04-05T20:27:21Z</time></trkpt><trkpt lat="36.87838581203208" lon="-108.09984347378331"><ele>1890.6</ele><time>2026-04-05T20:27:22Z</time></trkpt><trkpt lat="36.87846153413283" lon="-108.09979124468724"><ele>1890.4</ele><time>2026-04-05T20:27:23Z</time></trkpt><trkpt lat="36.87851113307118" lon="-108.09970492343435"><ele>1890.2</ele><time>2026-04-05T20:27:24Z</time></trkpt><trkpt lat="36.87852544637215" lon="-108.09959467730472"><ele>1890.0</ele><time>2026-04-05T20:27:25Z</time></trkpt><trkpt lat="36.878541515444226" lon="-108.09947262622393"><ele>1890.0</ele><time>2026-04-05T20:27:26Z</time></trkpt><trkpt lat="36.87858518778181" lon="-108.09933824539264"><ele>1890.0</ele><time>2026-04-05T20:27:27Z</time></trkpt><trkpt lat="36.87863364449196" lon="-108.09920913178175"><ele>1890.0</ele><time>2026-04-05T20:27:28Z</time></trkpt><trkpt lat="36.87868479536926" lon="-108.09911113721004"><ele>1890.0</ele><time>2026-04-05T20:27:29Z</time></trkpt><trkpt lat="36.87876197804074" lon="-108.09903800011439"><ele>1890.0</ele><time>2026-04-05T20:27:30Z</time></trkpt><trkpt lat="36.878851493558734" lon="-108.09905181816636"><ele>1890.0</ele><time>2026-04-05T20:27:31Z</time></trkpt><trkpt lat="36.87893400183999" lon="-108.09907141100616"><ele>1890.0</ele><time>2026-04-05T20:27:32Z</time></trkpt><trkpt lat="36.879012996260045" lon="-108.09908290878116"><ele>1890.0</ele><time>2026-04-05T20:27:33Z</time></trkpt><trkpt lat="36.87909481997922" lon="-108.09910154626962"><ele>1890.0</ele><time>2026-04-05T20:27:34Z</time></trkpt><trkpt lat="36.879212184518416" lon="-108.09912854972417"><ele>1890.0</ele><time>2026-04-05T20:27:35Z</time></trkpt><trkpt lat="36.879309587314886" lon="-108.09914785220465"><ele>1888.8</ele><time>2026-04-05T20:27:36Z</time></trkpt><trkpt lat="36.87940585425351" lon="-108.09918566874462"><ele>1887.6</ele><time>2026-04-05T20:27:37Z</time></trkpt><trkpt lat="36.87950015332237" lon="-108.09919902493269"><ele>1886.4</ele><time>2026-04-05T20:27:38Z</time></trkpt><trkpt lat="36.879552598935" lon="-108.09924922086984"><ele>1885.2</ele><time>2026-04-05T20:27:39Z</time></trkpt><trkpt lat="36.87955908935757" lon="-108.09936223053764"><ele>1884.0</ele><time>2026-04-05T20:27:40Z</time></trkpt><trkpt lat="36.87956134573924" lon="-108.09950022052058"><ele>1884.0</ele><time>2026-04-05T20:27:41Z</time></trkpt><trkpt lat="36.87957739259192" lon="-108.09961210431608"><ele>1884.0</ele><time>2026-04-05T20:27:42Z</time></trkpt><trkpt lat="36.879702556119206" lon="-108.09957433808488"><ele>1884.0</ele><time>2026-04-05T20:27:45Z</time></trkpt><trkpt lat="36.87979221729619" lon="-108.09954356223643"><ele>1884.0</ele><time>2026-04-05T20:27:46Z</time></trkpt><trkpt lat="36.87985229735731" lon="-108.09957958587654"><ele>1884.0</ele><time>2026-04-05T20:27:47Z</time></trkpt><trkpt lat="36.87994309849034" lon="-108.09961356311645"><ele>1884.0</ele><time>2026-04-05T20:27:48Z</time></trkpt><trkpt lat="36.88001335443948" lon="-108.09961219844962"><ele>1884.0</ele><time>2026-04-05T20:27:49Z</time></trkpt><trkpt lat="36.880109165378" lon="-108.09961666116715"><ele>1884.0</ele><time>2026-04-05T20:27:50Z</time></trkpt><trkpt lat="36.88022489625708" lon="-108.0996278024086"><ele>1884.0</ele><time>2026-04-05T20:27:51Z</time></trkpt><trkpt lat="36.88031516859368" lon="-108.09960561817005"><ele>1884.0</ele><time>2026-04-05T20:27:52Z</time></trkpt><trkpt lat="36.88038514550798" lon="-108.0996212344091"><ele>1884.0</ele><time>2026-04-05T20:27:53Z</time></trkpt><trkpt lat="36.88045111016282" lon="-108.09962689857423"><ele>1883.6666666666667</ele><time>2026-04-05T20:27:54Z</time></trkpt><trkpt lat="36.88052433959693" lon="-108.09958526923502"><ele>1883.3333333333335</ele><time>2026-04-05T20:27:55Z</time></trkpt><trkpt lat="36.88060080728602" lon="-108.09955872986498"><ele>1883.0</ele><time>2026-04-05T20:27:56Z</time></trkpt><trkpt lat="36.88072301866089" lon="-108.09951768777098"><ele>1882.6666666666667</ele><time>2026-04-05T20:27:58Z</time></trkpt><trkpt lat="36.880793769202064" lon="-108.0994852726892"><ele>1882.3333333333335</ele><time>2026-04-05T20:27:59Z</time></trkpt><trkpt lat="36.88085251370713" lon="-108.09941107028497"><ele>1882.0</ele><time>2026-04-05T20:28:00Z</time></trkpt><trkpt lat="36.88090820001447" lon="-108.09931933080303"><ele>1882.0</ele><time>2026-04-05T20:28:01Z</time></trkpt><trkpt lat="36.88096619474247" lon="-108.09924781528319"><ele>1881.9999999999998</ele><time>2026-04-05T20:28:02Z</time></trkpt><trkpt lat="36.881038284201544" lon="-108.09920227864741"><ele>1881.9999999999998</ele><time>2026-04-05T20:28:03Z</time></trkpt><trkpt lat="36.881123545277504" lon="-108.09915511994758"><ele>1882.0</ele><time>2026-04-05T20:28:04Z</time></trkpt><trkpt lat="36.88123319340996" lon="-108.0991529231906"><ele>1882.0</ele><time>2026-04-05T20:28:05Z</time></trkpt><trkpt lat="36.88131624944266" lon="-108.09912192088395"><ele>1881.5000000000002</ele><time>2026-04-05T20:28:06Z</time></trkpt><trkpt lat="36.881361483718315" lon="-108.0990491208827"><ele>1881.0</ele><time>2026-04-05T20:28:07Z</time></trkpt><trkpt lat="36.88143092719382" lon="-108.09898105962763"><ele>1880.5</ele><time>2026-04-05T20:28:08Z</time></trkpt><trkpt lat="36.881470296487926" lon="-108.09889458544988"><ele>1880.0</ele><time>2026-04-05T20:28:09Z</time></trkpt><trkpt lat="36.88154775238044" lon="-108.0988690814166"><ele>1879.5000000000002</ele><time>2026-04-05T20:28:10Z</time></trkpt><trkpt lat="36.88166411927198" lon="-108.0988826896631"><ele>1879.0</ele><time>2026-04-05T20:28:11Z</time></trkpt><trkpt lat="36.8817549828137" lon="-108.0988759671935"><ele>1877.8000000000002</ele><time>2026-04-05T20:28:12Z</time></trkpt><trkpt lat="36.881817657059116" lon="-108.0989654938578"><ele>1876.6000000000001</ele><time>2026-04-05T20:28:14Z</time></trkpt><trkpt lat="36.88189518180664" lon="-108.09906251604377"><ele>1875.4</ele><time>2026-04-05T20:28:15Z</time></trkpt><trkpt lat="36.881969977763404" lon="-108.09910510843515"><ele>1874.2</ele><time>2026-04-05T20:28:16Z</time></trkpt><trkpt lat="36.8820509560833" lon="-108.09909444742121"><ele>1873.0</ele><time>2026-04-05T20:28:17Z</time></trkpt><trkpt lat="36.88215324410396" lon="-108.09908562058543"><ele>1873.0</ele><time>2026-04-05T20:28:18Z</time></trkpt><trkpt lat="36.88225841993348" lon="-108.09909620539909"><ele>1873.0000000000002</ele><time>2026-04-05T20:28:19Z</time></trkpt><trkpt lat="36.88236775507228" lon="-108.09912536789274"><ele>1873.0000000000002</ele><time>2026-04-05T20:28:20Z</time></trkpt><trkpt lat="36.88243809664139" lon="-108.0991468435077"><ele>1873.0</ele><time>2026-04-05T20:28:21Z</time></trkpt><trkpt lat="36.882563773195784" lon="-108.09911692804819"><ele>1873.0</ele><time>2026-04-05T20:28:23Z</time></trkpt><trkpt lat="36.88265355040766" lon="-108.09908481294775"><ele>1872.0000000000002</ele><time>2026-04-05T20:28:25Z</time></trkpt><trkpt lat="36.88270677182613" lon="-108.09913366643055"><ele>1871.0</ele><time>2026-04-05T20:28:31Z</time></trkpt><trkpt lat="36.882761384099084" lon="-108.09919885272221"><ele>1870.0</ele><time>2026-04-05T20:28:35Z</time></trkpt><trkpt lat="36.88281136946304" lon="-108.09926522012437"><ele>1869.0</ele><time>2026-04-05T20:28:37Z</time></trkpt><trkpt lat="36.88285527668662" lon="-108.09932668622642"><ele>1868.0000000000002</ele><time>2026-04-05T20:28:39Z</time></trkpt><trkpt lat="36.882871993495236" lon="-108.09943416097042"><ele>1867.0</ele><time>2026-04-05T20:28:42Z</time></trkpt><trkpt lat="36.88296538116858" lon="-108.09955564384354"><ele>1867.0</ele><time>2026-04-05T20:33:36.999Z</time></trkpt><trkpt lat="36.88302071710951" lon="-108.09965076727721"><ele>1866.9999999999998</ele><time>2026-04-05T20:33:37.999Z</time></trkpt><trkpt lat="36.883085875275015" lon="-108.09971977712448"><ele>1866.9999999999998</ele><time>2026-04-05T20:33:38.999Z</time></trkpt><trkpt lat="36.88321251074248" lon="-108.09978571658431"><ele>1867.0</ele><time>2026-04-05T20:33:39.999Z</time></trkpt><trkpt lat="36.88333315429465" lon="-108.0998258786914"><ele>1867.0</ele><time>2026-04-05T20:33:40.999Z</time></trkpt><trkpt lat="36.883442394058875" lon="-108.09987298391394"><ele>1866.1666666666667</ele><time>2026-04-05T20:33:41.999Z</time></trkpt><trkpt lat="36.88355648747039" lon="-108.09991777061983"><ele>1865.3333333333335</ele><time>2026-04-05T20:33:42.999Z</time></trkpt><trkpt lat="36.88363708359097" lon="-108.09992016955577"><ele>1864.5</ele><time>2026-04-05T20:33:43.999Z</time></trkpt><trkpt lat="36.88369127366192" lon="-108.09999600968706"><ele>1863.6666666666665</ele><time>2026-04-05T20:33:46Z</time></trkpt><trkpt lat="36.883754302110496" lon="-108.10005716151107"><ele>1862.8333333333333</ele><time>2026-04-05T20:33:49Z</time></trkpt><trkpt lat="36.88379128510944" lon="-108.10012686202055"><ele>1862.0</ele><time>2026-04-05T20:33:53Z</time></trkpt><trkpt lat="36.88372661739946" lon="-108.10017970194005"><ele>1861.9999999999998</ele><time>2026-04-05T20:33:55Z</time></trkpt><trkpt lat="36.88371540669533" lon="-108.10030981197868"><ele>1862.0</ele><time>2026-04-05T20:33:56.999Z</time></trkpt><trkpt lat="36.8837369891425" lon="-108.10039951608988"><ele>1862.0</ele><time>2026-04-05T20:33:57.999Z</time></trkpt><trkpt lat="36.88376309741828" lon="-108.10048793460274"><ele>1862.0</ele><time>2026-04-05T20:33:58.999Z</time></trkpt><trkpt lat="36.883813513982645" lon="-108.10060157758066"><ele>1861.9999999999998</ele><time>2026-04-05T20:33:59.999Z</time></trkpt><trkpt lat="36.88387303153571" lon="-108.10068466055867"><ele>1862.0</ele><time>2026-04-05T20:34:00.999Z</time></trkpt><trkpt lat="36.88394782218141" lon="-108.10074658120126"><ele>1861.6</ele><time>2026-04-05T20:34:01.999Z</time></trkpt><trkpt lat="36.88399817835925" lon="-108.10081367153421"><ele>1861.1999999999998</ele><time>2026-04-05T20:34:02.999Z</time></trkpt><trkpt lat="36.88402522781633" lon="-108.1009115960186"><ele>1860.8</ele><time>2026-04-05T20:34:03.999Z</time></trkpt><trkpt lat="36.88407040056914" lon="-108.10101275703904"><ele>1860.4</ele><time>2026-04-05T20:34:04.999Z</time></trkpt><trkpt lat="36.88414601158814" lon="-108.10113421042642"><ele>1860.0</ele><time>2026-04-05T20:34:05.999Z</time></trkpt><trkpt lat="36.884223934692635" lon="-108.10124028060044"><ele>1859.3333333333333</ele><time>2026-04-05T20:34:06.999Z</time></trkpt><trkpt lat="36.88430600863991" lon="-108.10131512697144"><ele>1858.6666666666665</ele><time>2026-04-05T20:34:07.999Z</time></trkpt><trkpt lat="36.884374573354116" lon="-108.10136153013129"><ele>1858.0</ele><time>2026-04-05T20:34:08.999Z</time></trkpt><trkpt lat="36.884419100435366" lon="-108.10144380191171"><ele>1857.3333333333333</ele><time>2026-04-05T20:34:09.999Z</time></trkpt><trkpt lat="36.88446394680614" lon="-108.10153929919582"><ele>1856.6666666666665</ele><time>2026-04-05T20:34:10.999Z</time></trkpt><trkpt lat="36.88452241525549" lon="-108.10160657215823"><ele>1856.0</ele><time>2026-04-05T20:34:11.999Z</time></trkpt><trkpt lat="36.88461765673389" lon="-108.10161471464107"><ele>1855.5</ele><time>2026-04-05T20:34:12.999Z</time></trkpt><trkpt lat="36.88474855475773" lon="-108.10162879168738"><ele>1855.0</ele><time>2026-04-05T20:34:13.999Z</time></trkpt><trkpt lat="36.88488090115816" lon="-108.10165060529062"><ele>1854.5</ele><time>2026-04-05T20:34:14.999Z</time></trkpt><trkpt lat="36.88499003879381" lon="-108.10168347234482"><ele>1854.0</ele><time>2026-04-05T20:34:15.999Z</time></trkpt><trkpt lat="36.885088321597614" lon="-108.10170388829677"><ele>1854.0</ele><time>2026-04-05T20:34:16.999Z</time></trkpt><trkpt lat="36.88515888276281" lon="-108.1017046815275"><ele>1854.0</ele><time>2026-04-05T20:34:17.999Z</time></trkpt><trkpt lat="36.88525105621679" lon="-108.10179159431031"><ele>1854.0</ele><time>2026-04-05T20:34:19.999Z</time></trkpt><trkpt lat="36.88529333882793" lon="-108.10187858783932"><ele>1854.0</ele><time>2026-04-05T20:34:20.999Z</time></trkpt><trkpt lat="36.885384213358286" lon="-108.10194786063391"><ele>1854.0</ele><time>2026-04-05T20:34:21.999Z</time></trkpt><trkpt lat="36.885485726782974" lon="-108.10198470465097"><ele>1854.0</ele><time>2026-04-05T20:34:22.999Z</time></trkpt><trkpt lat="36.88560051899262" lon="-108.10197362518312"><ele>1854.0</ele><time>2026-04-05T20:34:23.999Z</time></trkpt><trkpt lat="36.88567541191042" lon="-108.10201817699398"><ele>1854.0</ele><time>2026-04-05T20:34:24.999Z</time></trkpt><trkpt lat="36.88573791069127" lon="-108.10211784753805"><ele>1854.0</ele><time>2026-04-05T20:34:25.999Z</time></trkpt><trkpt lat="36.88579425355449" lon="-108.10225293139035"><ele>1854.0</ele><time>2026-04-05T20:34:26.999Z</time></trkpt><trkpt lat="36.885831128493194" lon="-108.10243126586917"><ele>1853.0</ele><time>2026-04-05T20:34:27.999Z</time></trkpt><trkpt lat="36.88586666630232" lon="-108.10263139459188"><ele>1852.0</ele><time>2026-04-05T20:34:28.999Z</time></trkpt><trkpt lat="36.88592007918467" lon="-108.10281445933832"><ele>1851.0</ele><time>2026-04-05T20:34:29.999Z</time></trkpt><trkpt lat="36.88599062326536" lon="-108.10300545187297"><ele>1850.6666666666665</ele><time>2026-04-05T20:34:30.999Z</time></trkpt><trkpt lat="36.886060925637274" lon="-108.10321771528244"><ele>1850.3333333333333</ele><time>2026-04-05T20:34:31.999Z</time></trkpt><trkpt lat="36.88610442445695" lon="-108.1034161455079"><ele>1850.0</ele><time>2026-04-05T20:34:32.999Z</time></trkpt><trkpt lat="36.88617102752506" lon="-108.10355398321815"><ele>1849.2</ele><time>2026-04-05T20:34:33.999Z</time></trkpt><trkpt lat="36.88622824279276" lon="-108.10368831569586"><ele>1848.4</ele><time>2026-04-05T20:34:34.999Z</time></trkpt><trkpt lat="36.88627512043391" lon="-108.10382633482352"><ele>1847.6</ele><time>2026-04-05T20:34:35.999Z</time></trkpt><trkpt lat="36.88630383561085" lon="-108.10396252721699"><ele>1846.8</ele><time>2026-04-05T20:34:36.999Z</time></trkpt><trkpt lat="36.88629591110771" lon="-108.10406414907114"><ele>1846.0</ele><time>2026-04-05T20:34:37.999Z</time></trkpt><trkpt lat="36.88623769975255" lon="-108.10414313535308"><ele>1845.5000000000002</ele><time>2026-04-05T20:34:39.999Z</time></trkpt><trkpt lat="36.88616597282816" lon="-108.10416196735324"><ele>1845.0</ele><time>2026-04-05T20:34:51.999Z</time></trkpt><trkpt lat="36.88613940851135" lon="-108.10427838550677"><ele>1844.5</ele><time>2026-04-05T20:34:53.999Z</time></trkpt><trkpt lat="36.88619421226251" lon="-108.10440830258524"><ele>1844.0</ele><time>2026-04-05T20:34:55.999Z</time></trkpt><trkpt lat="36.88622222660285" lon="-108.10448716170553"><ele>1843.5000000000002</ele><time>2026-04-05T20:34:56.999Z</time></trkpt><trkpt lat="36.886272862804105" lon="-108.10457837898744"><ele>1843.0</ele><time>2026-04-05T20:34:58.999Z</time></trkpt><trkpt lat="36.88635108935235" lon="-108.10461450975832"><ele>1843.0</ele><time>2026-04-05T20:35:00.999Z</time></trkpt><trkpt lat="36.88649415733352" lon="-108.10462739814604"><ele>1843.0000000000002</ele><time>2026-04-05T20:35:02.999Z</time></trkpt><trkpt lat="36.886587355620094" lon="-108.10465851419623"><ele>1843.0000000000002</ele><time>2026-04-05T20:35:03.999Z</time></trkpt><trkpt lat="36.88667373415666" lon="-108.10465253656992"><ele>1843.0</ele><time>2026-04-05T20:35:04.999Z</time></trkpt><trkpt lat="36.88678512593741" lon="-108.10465708251783"><ele>1843.0</ele><time>2026-04-05T20:35:05.999Z</time></trkpt><trkpt lat="36.88686582096786" lon="-108.10470635779612"><ele>1844.25</ele><time>2026-04-05T20:35:06.999Z</time></trkpt><trkpt lat="36.886936360332186" lon="-108.10484513862475"><ele>1845.5</ele><time>2026-04-05T20:35:07.999Z</time></trkpt><trkpt lat="36.88701966608484" lon="-108.10498501461925"><ele>1846.75</ele><time>2026-04-05T20:35:08.999Z</time></trkpt><trkpt lat="36.88712484698982" lon="-108.10508062884591"><ele>1848.0</ele><time>2026-04-05T20:35:09.999Z</time></trkpt><trkpt lat="36.88723219380192" lon="-108.10515628392116"><ele>1848.4</ele><time>2026-04-05T20:35:10.999Z</time></trkpt><trkpt lat="36.88733586501736" lon="-108.10522333959706"><ele>1848.8000000000002</ele><time>2026-04-05T20:35:11.999Z</time></trkpt><trkpt lat="36.88743360151859" lon="-108.1053002584857"><ele>1849.2</ele><time>2026-04-05T20:35:12.999Z</time></trkpt><trkpt lat="36.88751271675085" lon="-108.10537449391005"><ele>1849.6</ele><time>2026-04-05T20:35:13.999Z</time></trkpt><trkpt lat="36.887586844170634" lon="-108.10547742223399"><ele>1850.0</ele><time>2026-04-05T20:35:14.999Z</time></trkpt><trkpt lat="36.88766081437723" lon="-108.10557860390519"><ele>1851.0</ele><time>2026-04-05T20:35:15.999Z</time></trkpt><trkpt lat="36.887754414954806" lon="-108.10566673866825"><ele>1852.0</ele><time>2026-04-05T20:35:16.999Z</time></trkpt><trkpt lat="36.88785284858452" lon="-108.10573316809683"><ele>1853.0</ele><time>2026-04-05T20:35:17.999Z</time></trkpt><trkpt lat="36.88793286537679" lon="-108.10576223155108"><ele>1854.0</ele><time>2026-04-05T20:35:18.999Z</time></trkpt><trkpt lat="36.888042337070274" lon="-108.1057664454087"><ele>1855.0</ele><time>2026-04-05T20:35:20.999Z</time></trkpt><trkpt lat="36.888149331387254" lon="-108.10586280046388"><ele>1856.0</ele><time>2026-04-05T20:35:22.999Z</time></trkpt><trkpt lat="36.88827082650746" lon="-108.10585817196137"><ele>1857.0</ele><time>2026-04-05T20:35:24.999Z</time></trkpt><trkpt lat="36.88837205897385" lon="-108.10574722884903"><ele>1858.0</ele><time>2026-04-05T20:35:25.999Z</time></trkpt><trkpt lat="36.8884817691896" lon="-108.1056517312975"><ele>1859.0</ele><time>2026-04-05T20:35:26.999Z</time></trkpt><trkpt lat="36.88857629782585" lon="-108.10555526414551"><ele>1859.0</ele><time>2026-04-05T20:35:27.999Z</time></trkpt><trkpt lat="36.888671769316936" lon="-108.10549815226604"><ele>1859.0</ele><time>2026-04-05T20:35:28.999Z</time></trkpt><trkpt lat="36.888784213019164" lon="-108.10549516357155"><ele>1859.0</ele><time>2026-04-05T20:35:29.999Z</time></trkpt><trkpt lat="36.8888870890478" lon="-108.1055175109817"><ele>1859.0</ele><time>2026-04-05T20:35:30.999Z</time></trkpt><trkpt lat="36.88895075840917" lon="-108.10559761624575"><ele>1859.0</ele><time>2026-04-05T20:35:31.999Z</time></trkpt><trkpt lat="36.88907795446293" lon="-108.10564069055367"><ele>1858.9999999999998</ele><time>2026-04-05T20:35:33.999Z</time></trkpt><trkpt lat="36.889150372517136" lon="-108.10565170543508"><ele>1859.0</ele><time>2026-04-05T20:35:34.999Z</time></trkpt><trkpt lat="36.889203415102564" lon="-108.10569533658149"><ele>1859.0</ele><time>2026-04-05T20:35:35.999Z</time></trkpt><trkpt lat="36.88928683186932" lon="-108.1057436745993"><ele>1859.0</ele><time>2026-04-05T20:35:37.999Z</time></trkpt><trkpt lat="36.8893466265897" lon="-108.10578169931871"><ele>1858.9999999999998</ele><time>2026-04-05T20:35:38.999Z</time></trkpt><trkpt lat="36.889446348672635" lon="-108.10589300795077"><ele>1859.0</ele><time>2026-04-05T20:35:41Z</time></trkpt><trkpt lat="36.88951086677764" lon="-108.1059208343646"><ele>1859.8333333333333</ele><time>2026-04-05T20:35:42Z</time></trkpt><trkpt lat="36.88958550452772" lon="-108.10598729998792"><ele>1860.6666666666665</ele><time>2026-04-05T20:35:44Z</time></trkpt><trkpt lat="36.88967177013388" lon="-108.10603572488475"><ele>1861.5</ele><time>2026-04-05T20:35:46Z</time></trkpt><trkpt lat="36.889775365589415" lon="-108.10611190077127"><ele>1862.3333333333335</ele><time>2026-04-05T20:35:47Z</time></trkpt><trkpt lat="36.88982103259136" lon="-108.1061735381077"><ele>1863.1666666666667</ele><time>2026-04-05T20:35:48Z</time></trkpt><trkpt lat="36.88986221193553" lon="-108.10623861219402"><ele>1864.0</ele><time>2026-04-05T20:35:49Z</time></trkpt><trkpt lat="36.88991365772531" lon="-108.10632983918603"><ele>1864.0</ele><time>2026-04-05T20:35:50Z</time></trkpt><trkpt lat="36.88997029462142" lon="-108.10642900155439"><ele>1864.0</ele><time>2026-04-05T20:35:51Z</time></trkpt><trkpt lat="36.89004008564523" lon="-108.1065271935567"><ele>1864.0</ele><time>2026-04-05T20:35:52Z</time></trkpt><trkpt lat="36.89010928149623" lon="-108.10659814609042"><ele>1864.0</ele><time>2026-04-05T20:35:53Z</time></trkpt><trkpt lat="36.890196020119646" lon="-108.10662014634171"><ele>1864.0</ele><time>2026-04-05T20:35:54Z</time></trkpt><trkpt lat="36.89027815229604" lon="-108.10664771372625"><ele>1865.0</ele><time>2026-04-05T20:35:55Z</time></trkpt><trkpt lat="36.89035508998997" lon="-108.1067070799288"><ele>1866.0</ele><time>2026-04-05T20:35:56Z</time></trkpt><trkpt lat="36.890433135603885" lon="-108.10677045558984"><ele>1867.0</ele><time>2026-04-05T20:35:57Z</time></trkpt><trkpt lat="36.890512355568546" lon="-108.10684486214336"><ele>1868.0</ele><time>2026-04-05T20:35:58Z</time></trkpt><trkpt lat="36.89059788528803" lon="-108.10693964754375"><ele>1869.0</ele><time>2026-04-05T20:35:59Z</time></trkpt><trkpt lat="36.89066948482954" lon="-108.10705329510373"><ele>1869.0</ele><time>2026-04-05T20:36:00Z</time></trkpt><trkpt lat="36.89074495593991" lon="-108.10717922628166"><ele>1869.0</ele><time>2026-04-05T20:36:01Z</time></trkpt><trkpt lat="36.89080879146387" lon="-108.10729356835606"><ele>1869.0</ele><time>2026-04-05T20:36:02Z</time></trkpt><trkpt lat="36.890868122105395" lon="-108.10740991768883"><ele>1869.0</ele><time>2026-04-05T20:36:03Z</time></trkpt><trkpt lat="36.89092262972859" lon="-108.10753838383795"><ele>1870.25</ele><time>2026-04-05T20:36:04Z</time></trkpt><trkpt lat="36.89084024894474" lon="-108.10774714102912"><ele>1871.5</ele><time>2026-04-05T20:36:05Z</time></trkpt><trkpt lat="36.89094351333017" lon="-108.10781830699491"><ele>1872.75</ele><time>2026-04-05T20:36:07Z</time></trkpt><trkpt lat="36.891026489829876" lon="-108.10781501590965"><ele>1874.0</ele><time>2026-04-05T20:36:08Z</time></trkpt><trkpt lat="36.891122992817635" lon="-108.1077932882142"><ele>1873.9999999999998</ele><time>2026-04-05T20:36:09Z</time></trkpt><trkpt lat="36.89121717651384" lon="-108.10778114945985"><ele>1874.0</ele><time>2026-04-05T20:36:10Z</time></trkpt><trkpt lat="36.891284622804456" lon="-108.1078069985885"><ele>1874.0</ele><time>2026-04-05T20:36:11Z</time></trkpt><trkpt lat="36.89133874424605" lon="-108.10788835716677"><ele>1874.0</ele><time>2026-04-05T20:36:12Z</time></trkpt><trkpt lat="36.89137794512652" lon="-108.10797742476957"><ele>1873.9999999999998</ele><time>2026-04-05T20:36:13Z</time></trkpt><trkpt lat="36.89142092096148" lon="-108.10808024110402"><ele>1874.0</ele><time>2026-04-05T20:36:14Z</time></trkpt><trkpt lat="36.89149195520864" lon="-108.1081321477576"><ele>1874.0</ele><time>2026-04-05T20:36:15Z</time></trkpt><trkpt lat="36.8915854017896" lon="-108.1081839830618"><ele>1874.0</ele><time>2026-04-05T20:36:16Z</time></trkpt><trkpt lat="36.89161724673227" lon="-108.10828906490423"><ele>1874.0</ele><time>2026-04-05T20:36:17Z</time></trkpt><trkpt lat="36.891640390607364" lon="-108.10841454248764"><ele>1874.0</ele><time>2026-04-05T20:36:18Z</time></trkpt><trkpt lat="36.89167836639729" lon="-108.10855414748525"><ele>1874.0</ele><time>2026-04-05T20:36:19Z</time></trkpt><trkpt lat="36.89172307290944" lon="-108.10865041190492"><ele>1874.4</ele><time>2026-04-05T20:36:20Z</time></trkpt><trkpt lat="36.891766391178315" lon="-108.10873359476157"><ele>1874.8000000000002</ele><time>2026-04-05T20:36:21Z</time></trkpt><trkpt lat="36.89183841267839" lon="-108.10883228280115"><ele>1875.1999999999998</ele><time>2026-04-05T20:36:22Z</time></trkpt><trkpt lat="36.89190422197524" lon="-108.10893175377032"><ele>1875.6</ele><time>2026-04-05T20:36:23Z</time></trkpt><trkpt lat="36.89194776424097" lon="-108.10903235193851"><ele>1876.0</ele><time>2026-04-05T20:36:24Z</time></trkpt><trkpt lat="36.89194542406982" lon="-108.10916721853732"><ele>1877.0</ele><time>2026-04-05T20:36:25Z</time></trkpt><trkpt lat="36.891955175225256" lon="-108.10927512071332"><ele>1878.0</ele><time>2026-04-05T20:36:26Z</time></trkpt><trkpt lat="36.89200204558079" lon="-108.10935944624948"><ele>1879.0</ele><time>2026-04-05T20:36:27Z</time></trkpt><trkpt lat="36.89205671667204" lon="-108.10945120643156"><ele>1880.0</ele><time>2026-04-05T20:36:28Z</time></trkpt><trkpt lat="36.89212747261777" lon="-108.10951617397912"><ele>1881.0</ele><time>2026-04-05T20:36:29Z</time></trkpt><trkpt lat="36.89221674736838" lon="-108.10959592264793"><ele>1881.0</ele><time>2026-04-05T20:36:30Z</time></trkpt><trkpt lat="36.892274899514916" lon="-108.10966628774773"><ele>1881.0</ele><time>2026-04-05T20:36:31Z</time></trkpt><trkpt lat="36.89227041275099" lon="-108.10975811020995"><ele>1881.0</ele><time>2026-04-05T20:36:31.999Z</time></trkpt><trkpt lat="36.89222560248967" lon="-108.10987303850362"><ele>1881.0</ele><time>2026-04-05T20:36:32.999Z</time></trkpt><trkpt lat="36.892187703680136" lon="-108.10995716395978"><ele>1881.0</ele><time>2026-04-05T20:36:33.999Z</time></trkpt><trkpt lat="36.89216396068166" lon="-108.11004532773698"><ele>1881.0</ele><time>2026-04-05T20:36:34.999Z</time></trkpt><trkpt lat="36.89219579325864" lon="-108.11014907648426"><ele>1882.8</ele><time>2026-04-05T20:36:35.999Z</time></trkpt><trkpt lat="36.892233591305434" lon="-108.1102714461302"><ele>1884.6</ele><time>2026-04-05T20:36:36.999Z</time></trkpt><trkpt lat="36.892230750379504" lon="-108.11040696037439"><ele>1886.4</ele><time>2026-04-05T20:36:37.999Z</time></trkpt><trkpt lat="36.89221355699132" lon="-108.11050409910278"><ele>1888.2</ele><time>2026-04-05T20:36:38.999Z</time></trkpt><trkpt lat="36.89232246845785" lon="-108.110556615924"><ele>1890.0</ele><time>2026-04-05T20:36:41.999Z</time></trkpt><trkpt lat="36.89240291572646" lon="-108.11055569270623"><ele>1890.0</ele><time>2026-04-05T20:36:42.999Z</time></trkpt><trkpt lat="36.89247087339768" lon="-108.11051884141588"><ele>1890.0</ele><time>2026-04-05T20:36:43.999Z</time></trkpt><trkpt lat="36.89256089221711" lon="-108.11049396542622"><ele>1890.0</ele><time>2026-04-05T20:36:44.999Z</time></trkpt><trkpt lat="36.89265264910865" lon="-108.11051479686904"><ele>1890.0</ele><time>2026-04-05T20:36:45.999Z</time></trkpt><trkpt lat="36.89274756890756" lon="-108.1105595319967"><ele>1890.0</ele><time>2026-04-05T20:36:46.999Z</time></trkpt><trkpt lat="36.89281261640667" lon="-108.11062406497905"><ele>1890.0</ele><time>2026-04-05T20:36:47.999Z</time></trkpt><trkpt lat="36.89285588025489" lon="-108.1107088532526"><ele>1890.0</ele><time>2026-04-05T20:36:48.999Z</time></trkpt><trkpt lat="36.89299742417251" lon="-108.11069382639366"><ele>1890.0</ele><time>2026-04-05T20:36:50.999Z</time></trkpt><trkpt lat="36.893109000284426" lon="-108.11066772392171"><ele>1890.0</ele><time>2026-04-05T20:36:51.999Z</time></trkpt><trkpt lat="36.893193503355" lon="-108.1106556033619"><ele>1890.0</ele><time>2026-04-05T20:36:52.999Z</time></trkpt><trkpt lat="36.89327951426973" lon="-108.11066013525274"><ele>1890.0</ele><time>2026-04-05T20:36:53.999Z</time></trkpt><trkpt lat="36.893353289477304" lon="-108.1107233055802"><ele>1890.2</ele><time>2026-04-05T20:36:54.999Z</time></trkpt><trkpt lat="36.89343398109152" lon="-108.11072406794085"><ele>1890.4</ele><time>2026-04-05T20:36:55.999Z</time></trkpt><trkpt lat="36.89353731624266" lon="-108.11068159276513"><ele>1890.6</ele><time>2026-04-05T20:36:56.999Z</time></trkpt><trkpt lat="36.893635698078675" lon="-108.11065829150209"><ele>1890.8</ele><time>2026-04-05T20:36:57.999Z</time></trkpt><trkpt lat="36.89372447067242" lon="-108.1106104002901"><ele>1891.0</ele><time>2026-04-05T20:36:58.999Z</time></trkpt><trkpt lat="36.89380413082099" lon="-108.11054227526681"><ele>1891.0</ele><time>2026-04-05T20:36:59.999Z</time></trkpt><trkpt lat="36.893877544832925" lon="-108.11049991288006"><ele>1891.0</ele><time>2026-04-05T20:37:00.999Z</time></trkpt><trkpt lat="36.89395293038992" lon="-108.11049481176148"><ele>1891.0</ele><time>2026-04-05T20:37:01.999Z</time></trkpt><trkpt lat="36.89405020850406" lon="-108.11041215029674"><ele>1891.0</ele><time>2026-04-05T20:37:02.999Z</time></trkpt><trkpt lat="36.894148418612204" lon="-108.11031874095279"><ele>1891.0</ele><time>2026-04-05T20:37:03.999Z</time></trkpt><trkpt lat="36.894228156660326" lon="-108.1102802513359"><ele>1891.0</ele><time>2026-04-05T20:37:04.999Z</time></trkpt><trkpt lat="36.89429923389012" lon="-108.110195104278"><ele>1891.0</ele><time>2026-04-05T20:37:05.999Z</time></trkpt><trkpt lat="36.894324674935774" lon="-108.11007370115327"><ele>1891.0</ele><time>2026-04-05T20:37:06.999Z</time></trkpt><trkpt lat="36.89438285935987" lon="-108.1099712003804"><ele>1891.0</ele><time>2026-04-05T20:37:07.999Z</time></trkpt><trkpt lat="36.894468938265184" lon="-108.10990270498782"><ele>1891.0</ele><time>2026-04-05T20:37:08.999Z</time></trkpt><trkpt lat="36.89454208127049" lon="-108.10984380463859"><ele>1892.1999999999998</ele><time>2026-04-05T20:37:09.999Z</time></trkpt><trkpt lat="36.89459350742034" lon="-108.10975097369088"><ele>1893.3999999999999</ele><time>2026-04-05T20:37:10.999Z</time></trkpt><trkpt lat="36.89464864388781" lon="-108.10965507078458"><ele>1894.6</ele><time>2026-04-05T20:37:11.999Z</time></trkpt><trkpt lat="36.89470484887707" lon="-108.10956766384545"><ele>1895.8</ele><time>2026-04-05T20:37:12.999Z</time></trkpt><trkpt lat="36.894776202085055" lon="-108.10951791605598"><ele>1897.0</ele><time>2026-04-05T20:37:13.999Z</time></trkpt><trkpt lat="36.89488143617579" lon="-108.10954106867528"><ele>1897.0</ele><time>2026-04-05T20:37:14.999Z</time></trkpt><trkpt lat="36.89497764752226" lon="-108.10956247477289"><ele>1896.9999999999998</ele><time>2026-04-05T20:37:15.999Z</time></trkpt><trkpt lat="36.89507232455641" lon="-108.10959113403196"><ele>1896.9999999999998</ele><time>2026-04-05T20:37:16.999Z</time></trkpt><trkpt lat="36.89514347786959" lon="-108.10968582421526"><ele>1897.0</ele><time>2026-04-05T20:37:17.999Z</time></trkpt><trkpt lat="36.89527988105805" lon="-108.10967096475316"><ele>1897.0</ele><time>2026-04-05T20:37:19.999Z</time></trkpt><trkpt lat="36.89539035301314" lon="-108.10960206178503"><ele>1896.3333333333335</ele><time>2026-04-05T20:37:20.999Z</time></trkpt><trkpt lat="36.895462336818454" lon="-108.1095557776951"><ele>1895.6666666666667</ele><time>2026-04-05T20:37:21.999Z</time></trkpt><trkpt lat="36.895499666451016" lon="-108.10948375758404"><ele>1895.0</ele><time>2026-04-05T20:37:22.999Z</time></trkpt><trkpt lat="36.895556178375514" lon="-108.10939753728725"><ele>1894.3333333333335</ele><time>2026-04-05T20:37:23.999Z</time></trkpt><trkpt lat="36.89564215359462" lon="-108.1093345324164"><ele>1893.6666666666667</ele><time>2026-04-05T20:37:24.999Z</time></trkpt><trkpt lat="36.89571597723987" lon="-108.10930579963775"><ele>1893.0</ele><time>2026-04-05T20:37:25.999Z</time></trkpt><trkpt lat="36.89576603331884" lon="-108.10922677376077"><ele>1893.0</ele><time>2026-04-05T20:37:26.999Z</time></trkpt><trkpt lat="36.895779643519866" lon="-108.10908697082694"><ele>1893.0000000000002</ele><time>2026-04-05T20:37:27.999Z</time></trkpt><trkpt lat="36.89579907673528" lon="-108.10894008284562"><ele>1893.0000000000002</ele><time>2026-04-05T20:37:28.999Z</time></trkpt><trkpt lat="36.89585957559911" lon="-108.10886991274559"><ele>1893.0</ele><time>2026-04-05T20:37:29.999Z</time></trkpt><trkpt lat="36.89594869272437" lon="-108.10885546442985"><ele>1893.0</ele><time>2026-04-05T20:37:30.999Z</time></trkpt><trkpt lat="36.89603083777973" lon="-108.10881583943983"><ele>1893.5</ele><time>2026-04-05T20:37:31.999Z</time></trkpt><trkpt lat="36.89610527129364" lon="-108.10872955882755"><ele>1894.0</ele><time>2026-04-05T20:37:32.999Z</time></trkpt><trkpt lat="36.896154613924224" lon="-108.1086327321427"><ele>1894.5</ele><time>2026-04-05T20:37:33.999Z</time></trkpt><trkpt lat="36.89619894693169" lon="-108.1085532736494"><ele>1895.0</ele><time>2026-04-05T20:37:34.999Z</time></trkpt><trkpt lat="36.89624477747979" lon="-108.10849773249633"><ele>1895.5</ele><time>2026-04-05T20:37:35.999Z</time></trkpt><trkpt lat="36.89631576922725" lon="-108.10850664365594"><ele>1896.0</ele><time>2026-04-05T20:37:36.999Z</time></trkpt><trkpt lat="36.89641039577051" lon="-108.10853023944748"><ele>1896.0</ele><time>2026-04-05T20:37:37.999Z</time></trkpt><trkpt lat="36.89649405771837" lon="-108.10852064172005"><ele>1896.0</ele><time>2026-04-05T20:37:38.999Z</time></trkpt><trkpt lat="36.89657420168449" lon="-108.10852795979937"><ele>1896.0</ele><time>2026-04-05T20:37:39.999Z</time></trkpt><trkpt lat="36.8966670407133" lon="-108.10851699914478"><ele>1896.0</ele><time>2026-04-05T20:37:40.999Z</time></trkpt><trkpt lat="36.89673933796256" lon="-108.10846345289605"><ele>1896.0</ele><time>2026-04-05T20:37:41.999Z</time></trkpt><trkpt lat="36.896799150299714" lon="-108.10838601200592"><ele>1896.0</ele><time>2026-04-05T20:37:42.999Z</time></trkpt><trkpt lat="36.89687882042164" lon="-108.10832639041384"><ele>1894.8</ele><time>2026-04-05T20:37:43.999Z</time></trkpt><trkpt lat="36.896995246108" lon="-108.10824456306818"><ele>1893.6</ele><time>2026-04-05T20:37:46Z</time></trkpt><trkpt lat="36.897023960149006" lon="-108.10816778840007"><ele>1892.4</ele><time>2026-04-05T20:37:47Z</time></trkpt><trkpt lat="36.89701339752457" lon="-108.10803913832599"><ele>1891.2</ele><time>2026-04-05T20:37:48Z</time></trkpt><trkpt lat="36.89701326644993" lon="-108.1079183157892"><ele>1890.0</ele><time>2026-04-05T20:37:49Z</time></trkpt><trkpt lat="36.897010392813115" lon="-108.10782791850293"><ele>1890.0</ele><time>2026-04-05T20:37:50Z</time></trkpt><trkpt lat="36.897017439037306" lon="-108.1077459828544"><ele>1890.0</ele><time>2026-04-05T20:37:51Z</time></trkpt><trkpt lat="36.89708004532231" lon="-108.10767248997779"><ele>1890.0</ele><time>2026-04-05T20:37:52Z</time></trkpt><trkpt lat="36.897125044231046" lon="-108.10758812094423"><ele>1890.0</ele><time>2026-04-05T20:37:53Z</time></trkpt><trkpt lat="36.8971598467523" lon="-108.10746403092317"><ele>1890.0</ele><time>2026-04-05T20:37:54Z</time></trkpt><trkpt lat="36.897180780244355" lon="-108.10732922077938"><ele>1890.0</ele><time>2026-04-05T20:37:55Z</time></trkpt><trkpt lat="36.89723657078808" lon="-108.10723260916286"><ele>1890.6666666666667</ele><time>2026-04-05T20:37:56Z</time></trkpt><trkpt lat="36.89731811011435" lon="-108.10713123516062"><ele>1891.3333333333335</ele><time>2026-04-05T20:37:57Z</time></trkpt><trkpt lat="36.897407554289614" lon="-108.10707405769524"><ele>1892.0</ele><time>2026-04-05T20:37:58Z</time></trkpt><trkpt lat="36.89748354461475" lon="-108.107017683447"><ele>1892.6666666666667</ele><time>2026-04-05T20:37:59Z</time></trkpt><trkpt lat="36.897554863662755" lon="-108.10700193296641"><ele>1893.3333333333335</ele><time>2026-04-05T20:38:00Z</time></trkpt><trkpt lat="36.89762263851807" lon="-108.10701182078866"><ele>1894.0</ele><time>2026-04-05T20:38:01Z</time></trkpt><trkpt lat="36.897744415899645" lon="-108.1069369631948"><ele>1894.2</ele><time>2026-04-05T20:38:03Z</time></trkpt><trkpt lat="36.89783413405935" lon="-108.10687546400942"><ele>1894.4</ele><time>2026-04-05T20:38:04Z</time></trkpt><trkpt lat="36.8979103668783" lon="-108.10679957312198"><ele>1894.6</ele><time>2026-04-05T20:38:05Z</time></trkpt><trkpt lat="36.897996944438376" lon="-108.10676190860521"><ele>1894.8</ele><time>2026-04-05T20:38:06Z</time></trkpt><trkpt lat="36.89809542289517" lon="-108.10675415166702"><ele>1895.0</ele><time>2026-04-05T20:38:07Z</time></trkpt><trkpt lat="36.898183518637815" lon="-108.10675902841163"><ele>1894.9999999999998</ele><time>2026-04-05T20:38:08Z</time></trkpt><trkpt lat="36.898260159600476" lon="-108.10674861351407"><ele>1895.0</ele><time>2026-04-05T20:38:09Z</time></trkpt><trkpt lat="36.89836957326429" lon="-108.10671498757115"><ele>1895.0</ele><time>2026-04-05T20:38:11Z</time></trkpt><trkpt lat="36.89843218480692" lon="-108.10669597151035"><ele>1895.0</ele><time>2026-04-05T20:38:12Z</time></trkpt><trkpt lat="36.898530174646126" lon="-108.10669315097388"><ele>1894.9999999999998</ele><time>2026-04-05T20:38:14Z</time></trkpt><trkpt lat="36.89861795386603" lon="-108.10672412538935"><ele>1895.0</ele><time>2026-04-05T20:38:16Z</time></trkpt><trkpt lat="36.898684020771" lon="-108.10676629057848"><ele>1895.0</ele><time>2026-04-05T20:38:17Z</time></trkpt><trkpt lat="36.898762400483214" lon="-108.10680126803784"><ele>1895.0</ele><time>2026-04-05T20:38:18Z</time></trkpt><trkpt lat="36.89883454753452" lon="-108.10681900995819"><ele>1895.0</ele><time>2026-04-05T20:38:19Z</time></trkpt><trkpt lat="36.898914235257344" lon="-108.1068095220381"><ele>1895.0</ele><time>2026-04-05T20:38:20Z</time></trkpt><trkpt lat="36.89899715542196" lon="-108.10675968199595"><ele>1895.0</ele><time>2026-04-05T20:38:21Z</time></trkpt><trkpt lat="36.89905167314884" lon="-108.10661433973276"><ele>1894.0</ele><time>2026-04-05T20:38:22Z</time></trkpt><trkpt lat="36.89912028353532" lon="-108.10646939388148"><ele>1893.0</ele><time>2026-04-05T20:38:23Z</time></trkpt><trkpt lat="36.89920396726192" lon="-108.10639248544116"><ele>1892.0</ele><time>2026-04-05T20:38:24Z</time></trkpt><trkpt lat="36.899290615324944" lon="-108.10632738275109"><ele>1891.0</ele><time>2026-04-05T20:38:25Z</time></trkpt><trkpt lat="36.899335381385285" lon="-108.10625050947341"><ele>1890.0</ele><time>2026-04-05T20:38:26Z</time></trkpt><trkpt lat="36.89937146061333" lon="-108.10611634760728"><ele>1889.6</ele><time>2026-04-05T20:38:27Z</time></trkpt><trkpt lat="36.89942160929516" lon="-108.10599965400795"><ele>1889.2</ele><time>2026-04-05T20:38:28Z</time></trkpt><trkpt lat="36.89949558100988" lon="-108.10588948584403"><ele>1888.8000000000002</ele><time>2026-04-05T20:38:29Z</time></trkpt><trkpt lat="36.89954296375434" lon="-108.10578159725104"><ele>1888.4</ele><time>2026-04-05T20:38:30Z</time></trkpt><trkpt lat="36.89959286296982" lon="-108.10571852636299"><ele>1888.0</ele><time>2026-04-05T20:38:31Z</time></trkpt><trkpt lat="36.89965410680001" lon="-108.10566040353272"><ele>1888.0</ele><time>2026-04-05T20:38:32Z</time></trkpt><trkpt lat="36.89972395105209" lon="-108.10555262881407"><ele>1888.0</ele><time>2026-04-05T20:38:33Z</time></trkpt><trkpt lat="36.89980751835407" lon="-108.1054668395194"><ele>1888.0</ele><time>2026-04-05T20:38:34Z</time></trkpt><trkpt lat="36.89990391713257" lon="-108.10536939456554"><ele>1888.0</ele><time>2026-04-05T20:38:35Z</time></trkpt><trkpt lat="36.8999730015564" lon="-108.10526648309546"><ele>1888.0</ele><time>2026-04-05T20:38:36Z</time></trkpt><trkpt lat="36.90002753818528" lon="-108.10515420506503"><ele>1888.0000000000002</ele><time>2026-04-05T20:38:37Z</time></trkpt><trkpt lat="36.90006355910961" lon="-108.10504828130064"><ele>1888.0000000000002</ele><time>2026-04-05T20:38:38Z</time></trkpt><trkpt lat="36.90014106320542" lon="-108.10495928136054"><ele>1888.0</ele><time>2026-04-05T20:38:39Z</time></trkpt><trkpt lat="36.90021650674027" lon="-108.1048805383057"><ele>1888.0</ele><time>2026-04-05T20:38:40Z</time></trkpt><trkpt lat="36.90028791449176" lon="-108.10481835336373"><ele>1888.4</ele><time>2026-04-05T20:38:41Z</time></trkpt><trkpt lat="36.900359670548205" lon="-108.10475212715627"><ele>1888.8000000000002</ele><time>2026-04-05T20:38:42Z</time></trkpt><trkpt lat="36.90043844365695" lon="-108.10469189369036"><ele>1889.2</ele><time>2026-04-05T20:38:43Z</time></trkpt><trkpt lat="36.900469435333854" lon="-108.10457472369485"><ele>1889.6</ele><time>2026-04-05T20:38:45Z</time></trkpt><trkpt lat="36.90057586173616" lon="-108.104420414135"><ele>1890.0</ele><time>2026-04-05T20:38:47Z</time></trkpt><trkpt lat="36.900652505420055" lon="-108.10437319051772"><ele>1890.0</ele><time>2026-04-05T20:38:48Z</time></trkpt><trkpt lat="36.900738740685185" lon="-108.10432584482032"><ele>1890.0</ele><time>2026-04-05T20:38:49Z</time></trkpt><trkpt lat="36.90085894393808" lon="-108.10424862058399"><ele>1890.0</ele><time>2026-04-05T20:38:50Z</time></trkpt><trkpt lat="36.90095529788971" lon="-108.10417785441892"><ele>1890.0</ele><time>2026-04-05T20:38:51Z</time></trkpt><trkpt lat="36.90100739114607" lon="-108.10410682730434"><ele>1890.0</ele><time>2026-04-05T20:38:52Z</time></trkpt><trkpt lat="36.901100584213005" lon="-108.10414679442229"><ele>1890.0</ele><time>2026-04-05T20:38:53.999Z</time></trkpt><trkpt lat="36.90119052633722" lon="-108.10413166571624"><ele>1890.0</ele><time>2026-04-05T20:38:55.999Z</time></trkpt><trkpt lat="36.90127471858792" lon="-108.1040814041218"><ele>1890.0</ele><time>2026-04-05T20:38:56.999Z</time></trkpt><trkpt lat="36.90138151135416" lon="-108.10402784637454"><ele>1890.0</ele><time>2026-04-05T20:38:57.999Z</time></trkpt><trkpt lat="36.90146421623611" lon="-108.10394977785283"><ele>1890.0</ele><time>2026-04-05T20:38:58.999Z</time></trkpt><trkpt lat="36.90152955655524" lon="-108.1038887745362"><ele>1890.0</ele><time>2026-04-05T20:38:59.999Z</time></trkpt><trkpt lat="36.90160540312852" lon="-108.10385122661762"><ele>1890.0</ele><time>2026-04-05T20:39:00.999Z</time></trkpt><trkpt lat="36.90167732622734" lon="-108.10381033557445"><ele>1890.0</ele><time>2026-04-05T20:39:01.999Z</time></trkpt><trkpt lat="36.90172999527343" lon="-108.103741206308"><ele>1890.0</ele><time>2026-04-05T20:39:02.999Z</time></trkpt><trkpt lat="36.90176470790476" lon="-108.10365219717939"><ele>1890.0</ele><time>2026-04-05T20:39:03.999Z</time></trkpt><trkpt lat="36.90176664862661" lon="-108.10355618476567"><ele>1890.0</ele><time>2026-04-05T20:39:04.999Z</time></trkpt><trkpt lat="36.90175395064341" lon="-108.10345024059731"><ele>1889.2</ele><time>2026-04-05T20:39:05.999Z</time></trkpt><trkpt lat="36.90176078053322" lon="-108.10336335173294"><ele>1888.4</ele><time>2026-04-05T20:39:06.999Z</time></trkpt><trkpt lat="36.90175890062561" lon="-108.10324425812152"><ele>1887.6</ele><time>2026-04-05T20:39:07.999Z</time></trkpt><trkpt lat="36.90181014523048" lon="-108.10309605262569"><ele>1886.8</ele><time>2026-04-05T20:39:09.999Z</time></trkpt><trkpt lat="36.90185975730864" lon="-108.10299647429852"><ele>1886.0</ele><time>2026-04-05T20:39:10.999Z</time></trkpt><trkpt lat="36.901881192743424" lon="-108.1029158233712"><ele>1885.9999999999998</ele><time>2026-04-05T20:39:11.999Z</time></trkpt><trkpt lat="36.90191885466499" lon="-108.10284615921762"><ele>1886.0</ele><time>2026-04-05T20:39:12.999Z</time></trkpt><trkpt lat="36.90196082929297" lon="-108.10275605076028"><ele>1886.0</ele><time>2026-04-05T20:39:13.999Z</time></trkpt><trkpt lat="36.90199139796683" lon="-108.10265888436832"><ele>1886.0</ele><time>2026-04-05T20:39:14.999Z</time></trkpt><trkpt lat="36.902029847234814" lon="-108.1025907818167"><ele>1885.9999999999998</ele><time>2026-04-05T20:39:15.999Z</time></trkpt><trkpt lat="36.902091916277776" lon="-108.10249053045928"><ele>1886.0</ele><time>2026-04-05T20:39:17.999Z</time></trkpt><trkpt lat="36.902088904512205" lon="-108.10238152792117"><ele>1885.6</ele><time>2026-04-05T20:39:18.999Z</time></trkpt><trkpt lat="36.90210682254173" lon="-108.10227658774967"><ele>1885.1999999999998</ele><time>2026-04-05T20:39:19.999Z</time></trkpt><trkpt lat="36.90213179350083" lon="-108.10217801786261"><ele>1884.8000000000002</ele><time>2026-04-05T20:39:20.999Z</time></trkpt><trkpt lat="36.90211606776855" lon="-108.10203257573907"><ele>1884.4</ele><time>2026-04-05T20:39:21.999Z</time></trkpt><trkpt lat="36.90211287505425" lon="-108.10190690922862"><ele>1884.0</ele><time>2026-04-05T20:39:22.999Z</time></trkpt><trkpt lat="36.90218207133141" lon="-108.10184267176332"><ele>1884.0</ele><time>2026-04-05T20:39:23.999Z</time></trkpt><trkpt lat="36.90225621062284" lon="-108.10177045713692"><ele>1884.0</ele><time>2026-04-05T20:39:24.999Z</time></trkpt><trkpt lat="36.902312030523234" lon="-108.10167374318458"><ele>1884.0</ele><time>2026-04-05T20:39:25.999Z</time></trkpt><trkpt lat="36.902377019624986" lon="-108.10159308610123"><ele>1884.0</ele><time>2026-04-05T20:39:26.999Z</time></trkpt><trkpt lat="36.90246930605256" lon="-108.10154191226341"><ele>1884.0</ele><time>2026-04-05T20:39:27.999Z</time></trkpt><trkpt lat="36.902576087065135" lon="-108.10147357262721"><ele>1885.0</ele><time>2026-04-05T20:39:28.999Z</time></trkpt><trkpt lat="36.90265506226409" lon="-108.10140045434784"><ele>1886.0</ele><time>2026-04-05T20:39:29.999Z</time></trkpt><trkpt lat="36.90274170837787" lon="-108.10132802850475"><ele>1887.0</ele><time>2026-04-05T20:39:30.999Z</time></trkpt><trkpt lat="36.90284434064313" lon="-108.1012388844637"><ele>1888.0</ele><time>2026-04-05T20:39:31.999Z</time></trkpt><trkpt lat="36.90296780874952" lon="-108.10117572879403"><ele>1888.0</ele><time>2026-04-05T20:39:32.999Z</time></trkpt><trkpt lat="36.90311015938587" lon="-108.10113132843516"><ele>1888.0</ele><time>2026-04-05T20:39:33.999Z</time></trkpt><trkpt lat="36.90322606678693" lon="-108.10104790444247"><ele>1888.0</ele><time>2026-04-05T20:39:34.999Z</time></trkpt><trkpt lat="36.903298240432235" lon="-108.10092644626448"><ele>1888.0</ele><time>2026-04-05T20:39:35.999Z</time></trkpt><trkpt lat="36.90334079972644" lon="-108.10085118213898"><ele>1889.0</ele><time>2026-04-05T20:39:36.999Z</time></trkpt><trkpt lat="36.90341375245259" lon="-108.1007487912048"><ele>1890.0000000000002</ele><time>2026-04-05T20:39:38.999Z</time></trkpt><trkpt lat="36.90344691584887" lon="-108.10065352795124"><ele>1891.0000000000002</ele><time>2026-04-05T20:39:39.999Z</time></trkpt><trkpt lat="36.903483722243045" lon="-108.10054660367406"><ele>1892.0</ele><time>2026-04-05T20:39:40.999Z</time></trkpt><trkpt lat="36.90351805444462" lon="-108.1004480699774"><ele>1893.0</ele><time>2026-04-05T20:39:41.999Z</time></trkpt><trkpt lat="36.90356859653458" lon="-108.1003549798212"><ele>1894.2</ele><time>2026-04-05T20:39:42.999Z</time></trkpt><trkpt lat="36.903646305786864" lon="-108.10026631475847"><ele>1895.4</ele><time>2026-04-05T20:39:43.999Z</time></trkpt><trkpt lat="36.90371418070225" lon="-108.10015854971606"><ele>1896.6000000000001</ele><time>2026-04-05T20:39:44.999Z</time></trkpt><trkpt lat="36.9037740528387" lon="-108.10003264981776"><ele>1897.8000000000002</ele><time>2026-04-05T20:39:45.999Z</time></trkpt><trkpt lat="36.90382984639732" lon="-108.09994286196763"><ele>1899.0</ele><time>2026-04-05T20:39:46.999Z</time></trkpt><trkpt lat="36.90387426896255" lon="-108.09984995568544"><ele>1899.0</ele><time>2026-04-05T20:39:47.999Z</time></trkpt><trkpt lat="36.90393553884646" lon="-108.09975140694145"><ele>1899.0</ele><time>2026-04-05T20:39:48.999Z</time></trkpt><trkpt lat="36.90400184920302" lon="-108.09963494785852"><ele>1899.0</ele><time>2026-04-05T20:39:49.999Z</time></trkpt><trkpt lat="36.90405485601896" lon="-108.09951907240001"><ele>1899.0</ele><time>2026-04-05T20:39:50.999Z</time></trkpt><trkpt lat="36.90410121405846" lon="-108.0994386070325"><ele>1899.0</ele><time>2026-04-05T20:39:52Z</time></trkpt><trkpt lat="36.90417045366548" lon="-108.09931669958114"><ele>1899.0</ele><time>2026-04-05T20:39:55Z</time></trkpt><trkpt lat="36.9042057500357" lon="-108.09922645339"><ele>1899.0</ele><time>2026-04-05T20:39:56Z</time></trkpt><trkpt lat="36.90425634897357" lon="-108.09914677863541"><ele>1899.0</ele><time>2026-04-05T20:39:57Z</time></trkpt><trkpt lat="36.90430425557289" lon="-108.09909154437672"><ele>1899.0</ele><time>2026-04-05T20:39:58Z</time></trkpt><trkpt lat="36.90439146360053" lon="-108.09907035794717"><ele>1899.0</ele><time>2026-04-05T20:39:59Z</time></trkpt><trkpt lat="36.90446302963554" lon="-108.09903993779298"><ele>1899.0</ele><time>2026-04-05T20:40:00Z</time></trkpt><trkpt lat="36.904535317497064" lon="-108.09904765671162"><ele>1898.2</ele><time>2026-04-05T20:40:01Z</time></trkpt><trkpt lat="36.90462562565853" lon="-108.09906163101289"><ele>1897.4</ele><time>2026-04-05T20:40:02Z</time></trkpt><trkpt lat="36.904711746570555" lon="-108.09903546896695"><ele>1896.6</ele><time>2026-04-05T20:40:03Z</time></trkpt><trkpt lat="36.90482235287164" lon="-108.09899052698418"><ele>1895.8</ele><time>2026-04-05T20:40:04Z</time></trkpt><trkpt lat="36.90491322841252" lon="-108.09894117759549"><ele>1895.0</ele><time>2026-04-05T20:40:05Z</time></trkpt><trkpt lat="36.90501134206653" lon="-108.09887384803676"><ele>1894.4</ele><time>2026-04-05T20:40:06Z</time></trkpt><trkpt lat="36.905101328586696" lon="-108.09880961878378"><ele>1893.8</ele><time>2026-04-05T20:40:07Z</time></trkpt><trkpt lat="36.90521338173506" lon="-108.09880574880904"><ele>1893.1999999999998</ele><time>2026-04-05T20:40:08Z</time></trkpt><trkpt lat="36.90532034963611" lon="-108.09881374187636"><ele>1892.6</ele><time>2026-04-05T20:40:09Z</time></trkpt><trkpt lat="36.90539045584441" lon="-108.09879226091363"><ele>1892.0</ele><time>2026-04-05T20:40:10Z</time></trkpt><trkpt lat="36.90543720850685" lon="-108.09868933128658"><ele>1892.0</ele><time>2026-04-05T20:40:11Z</time></trkpt><trkpt lat="36.90547396859855" lon="-108.09856273646393"><ele>1891.9999999999998</ele><time>2026-04-05T20:40:12Z</time></trkpt><trkpt lat="36.905528270072885" lon="-108.09849958011469"><ele>1891.9999999999998</ele><time>2026-04-05T20:40:13Z</time></trkpt><trkpt lat="36.90562064545711" lon="-108.0984373043628"><ele>1892.0</ele><time>2026-04-05T20:40:14Z</time></trkpt><trkpt lat="36.90570961280084" lon="-108.09838387463525"><ele>1892.0</ele><time>2026-04-05T20:40:15Z</time></trkpt><trkpt lat="36.90579282517665" lon="-108.09833468266001"><ele>1892.0</ele><time>2026-04-05T20:40:16Z</time></trkpt><trkpt lat="36.90587707670673" lon="-108.09828741315567"><ele>1891.9999999999998</ele><time>2026-04-05T20:40:17Z</time></trkpt><trkpt lat="36.905933227446475" lon="-108.09821168001073"><ele>1891.9999999999998</ele><time>2026-04-05T20:40:18Z</time></trkpt><trkpt lat="36.90596712198493" lon="-108.09804968037193"><ele>1892.0</ele><time>2026-04-05T20:40:20Z</time></trkpt><trkpt lat="36.905980087464386" lon="-108.09795963830312"><ele>1892.0</ele><time>2026-04-05T20:40:21Z</time></trkpt><trkpt lat="36.90605229502675" lon="-108.0979093802907"><ele>1891.9999999999998</ele><time>2026-04-05T20:40:22Z</time></trkpt><trkpt lat="36.90614839227114" lon="-108.09784109460882"><ele>1892.0</ele><time>2026-04-05T20:40:23Z</time></trkpt><trkpt lat="36.90619406655406" lon="-108.0977357978366"><ele>1892.0</ele><time>2026-04-05T20:40:24Z</time></trkpt><trkpt lat="36.906273363285614" lon="-108.09769987950511"><ele>1892.0</ele><time>2026-04-05T20:40:25Z</time></trkpt><trkpt lat="36.90633697255306" lon="-108.09768308804611"><ele>1891.9999999999998</ele><time>2026-04-05T20:40:26Z</time></trkpt><trkpt lat="36.906404254309116" lon="-108.09765118819632"><ele>1892.0</ele><time>2026-04-05T20:40:27Z</time></trkpt><trkpt lat="36.90649393270417" lon="-108.09759664891922"><ele>1892.0</ele><time>2026-04-05T20:40:28Z</time></trkpt><trkpt lat="36.9066086675668" lon="-108.09752852394153"><ele>1891.9999999999998</ele><time>2026-04-05T20:40:29Z</time></trkpt><trkpt lat="36.90670891936302" lon="-108.09746490980436"><ele>1891.9999999999998</ele><time>2026-04-05T20:40:30Z</time></trkpt><trkpt lat="36.90679839849591" lon="-108.0974397758188"><ele>1892.0</ele><time>2026-04-05T20:40:31Z</time></trkpt><trkpt lat="36.90690008753543" lon="-108.09740941214608"><ele>1892.0</ele><time>2026-04-05T20:40:32Z</time></trkpt><trkpt lat="36.906995114283674" lon="-108.09735997417361"><ele>1893.3999999999999</ele><time>2026-04-05T20:40:33Z</time></trkpt><trkpt lat="36.907092491414616" lon="-108.09730014020988"><ele>1894.7999999999997</ele><time>2026-04-05T20:40:34Z</time></trkpt><trkpt lat="36.90718070261298" lon="-108.09723904469766"><ele>1896.2</ele><time>2026-04-05T20:40:35Z</time></trkpt><trkpt lat="36.90730771288615" lon="-108.09721297547104"><ele>1897.6</ele><time>2026-04-05T20:40:37Z</time></trkpt><trkpt lat="36.90740649195461" lon="-108.09726444903372"><ele>1899.0</ele><time>2026-04-05T20:40:38Z</time></trkpt><trkpt lat="36.907528770555224" lon="-108.09729651575444"><ele>1899.6</ele><time>2026-04-05T20:40:39Z</time></trkpt><trkpt lat="36.90764031931552" lon="-108.09726289394122"><ele>1900.2</ele><time>2026-04-05T20:40:40Z</time></trkpt><trkpt lat="36.90772854669822" lon="-108.09722434931"><ele>1900.7999999999997</ele><time>2026-04-05T20:40:41Z</time></trkpt><trkpt lat="36.90778054669422" lon="-108.09714055011275"><ele>1901.3999999999999</ele><time>2026-04-05T20:40:42Z</time></trkpt><trkpt lat="36.90788062635612" lon="-108.09703354326642"><ele>1902.0</ele><time>2026-04-05T20:40:43Z</time></trkpt><trkpt lat="36.90802304364312" lon="-108.09694239422663"><ele>1902.0</ele><time>2026-04-05T20:40:44Z</time></trkpt><trkpt lat="36.90815927949139" lon="-108.09685190170202"><ele>1902.0</ele><time>2026-04-05T20:40:45Z</time></trkpt><trkpt lat="36.90827546808959" lon="-108.09673120759629"><ele>1902.0</ele><time>2026-04-05T20:40:46Z</time></trkpt><trkpt lat="36.90836609175947" lon="-108.09662384336353"><ele>1902.0</ele><time>2026-04-05T20:40:47Z</time></trkpt><trkpt lat="36.908452961624874" lon="-108.09658581313866"><ele>1904.8</ele><time>2026-04-05T20:40:48Z</time></trkpt><trkpt lat="36.9085413277486" lon="-108.09654451216844"><ele>1907.6</ele><time>2026-04-05T20:40:49Z</time></trkpt><trkpt lat="36.90859373609381" lon="-108.09647025778361"><ele>1910.3999999999999</ele><time>2026-04-05T20:40:50Z</time></trkpt><trkpt lat="36.90865163551301" lon="-108.09638355327878"><ele>1913.1999999999998</ele><time>2026-04-05T20:40:51Z</time></trkpt><trkpt lat="36.90873522161408" lon="-108.09633499452387"><ele>1916.0</ele><time>2026-04-05T20:40:52Z</time></trkpt><trkpt lat="36.90881972791617" lon="-108.09628161293296"><ele>1916.0</ele><time>2026-04-05T20:40:53Z</time></trkpt><trkpt lat="36.90889995713995" lon="-108.09622181880795"><ele>1916.0</ele><time>2026-04-05T20:40:54Z</time></trkpt><trkpt lat="36.90900683015141" lon="-108.09616527989415"><ele>1916.0</ele><time>2026-04-05T20:40:55Z</time></trkpt><trkpt lat="36.909141676189364" lon="-108.09610792657172"><ele>1916.0</ele><time>2026-04-05T20:40:56Z</time></trkpt><trkpt lat="36.9092551220615" lon="-108.09606033473939"><ele>1916.5</ele><time>2026-04-05T20:40:57Z</time></trkpt><trkpt lat="36.90932282894591" lon="-108.09602290153019"><ele>1917.0</ele><time>2026-04-05T20:40:58Z</time></trkpt><trkpt lat="36.90945153616505" lon="-108.09600394551268"><ele>1917.5</ele><time>2026-04-05T20:41:00Z</time></trkpt><trkpt lat="36.909561369212206" lon="-108.09586157047438"><ele>1918.0</ele><time>2026-04-05T20:41:02Z</time></trkpt><trkpt lat="36.90963845086346" lon="-108.09576868711204"><ele>1918.4</ele><time>2026-04-05T20:41:03Z</time></trkpt><trkpt lat="36.90971197788891" lon="-108.09568814051073"><ele>1918.8000000000002</ele><time>2026-04-05T20:41:04Z</time></trkpt><trkpt lat="36.90978403796325" lon="-108.09560234215968"><ele>1919.2</ele><time>2026-04-05T20:41:05Z</time></trkpt><trkpt lat="36.909848043064585" lon="-108.09552895922398"><ele>1919.6</ele><time>2026-04-05T20:41:06Z</time></trkpt><trkpt lat="36.90993113086034" lon="-108.09546686744179"><ele>1920.0</ele><time>2026-04-05T20:41:07Z</time></trkpt><trkpt lat="36.91001113395659" lon="-108.09543011814188"><ele>1920.0</ele><time>2026-04-05T20:41:08Z</time></trkpt><trkpt lat="36.91008446770629" lon="-108.09545335264957"><ele>1920.0</ele><time>2026-04-05T20:41:09Z</time></trkpt><trkpt lat="36.91013297908906" lon="-108.0955549606247"><ele>1920.0</ele><time>2026-04-05T20:41:10Z</time></trkpt><trkpt lat="36.910207873492325" lon="-108.09566557348016"><ele>1920.0</ele><time>2026-04-05T20:41:11Z</time></trkpt><trkpt lat="36.91029781038843" lon="-108.09575358348339"><ele>1920.0</ele><time>2026-04-05T20:41:12Z</time></trkpt><trkpt lat="36.910388636101224" lon="-108.0958320461144"><ele>1920.1666666666667</ele><time>2026-04-05T20:41:13Z</time></trkpt><trkpt lat="36.910465952001914" lon="-108.09583478204958"><ele>1920.3333333333335</ele><time>2026-04-05T20:41:14Z</time></trkpt><trkpt lat="36.91055006563551" lon="-108.09586118180161"><ele>1920.5</ele><time>2026-04-05T20:41:15Z</time></trkpt><trkpt lat="36.91065266041832" lon="-108.09588572574711"><ele>1920.6666666666667</ele><time>2026-04-05T20:41:16Z</time></trkpt><trkpt lat="36.91072457385899" lon="-108.09592373047504"><ele>1920.8333333333335</ele><time>2026-04-05T20:41:17Z</time></trkpt><trkpt lat="36.91079844177859" lon="-108.09591707069303"><ele>1921.0</ele><time>2026-04-05T20:41:18Z</time></trkpt><trkpt lat="36.910884758128496" lon="-108.09586907292146"><ele>1920.5000000000002</ele><time>2026-04-05T20:41:19Z</time></trkpt><trkpt lat="36.91096418428591" lon="-108.09580740920704"><ele>1920.0</ele><time>2026-04-05T20:41:20Z</time></trkpt><trkpt lat="36.91099677103543" lon="-108.09571349637355"><ele>1919.5</ele><time>2026-04-05T20:41:21Z</time></trkpt><trkpt lat="36.91100673400122" lon="-108.09560588605127"><ele>1919.0</ele><time>2026-04-05T20:41:22Z</time></trkpt><trkpt lat="36.911031087439056" lon="-108.09550282044535"><ele>1918.5000000000002</ele><time>2026-04-05T20:41:23Z</time></trkpt><trkpt lat="36.91110762098913" lon="-108.09543808596027"><ele>1918.0</ele><time>2026-04-05T20:41:24Z</time></trkpt><trkpt lat="36.91118340366445" lon="-108.09529673271442"><ele>1918.0</ele><time>2026-04-05T20:41:25.999Z</time></trkpt><trkpt lat="36.91125959305152" lon="-108.09522165206407"><ele>1918.0000000000002</ele><time>2026-04-05T20:41:26.999Z</time></trkpt><trkpt lat="36.91131695746002" lon="-108.09513817347818"><ele>1918.0000000000002</ele><time>2026-04-05T20:41:27.999Z</time></trkpt><trkpt lat="36.91137026246282" lon="-108.09501831670651"><ele>1918.0</ele><time>2026-04-05T20:41:28.999Z</time></trkpt><trkpt lat="36.91142190673059" lon="-108.09489116846184"><ele>1918.0</ele><time>2026-04-05T20:41:29.999Z</time></trkpt><trkpt lat="36.91149112993677" lon="-108.09475846397117"><ele>1918.4</ele><time>2026-04-05T20:41:30.999Z</time></trkpt><trkpt lat="36.911567436097826" lon="-108.09465002423703"><ele>1918.8000000000002</ele><time>2026-04-05T20:41:31.999Z</time></trkpt><trkpt lat="36.91164926569063" lon="-108.09456247438419"><ele>1919.2</ele><time>2026-04-05T20:41:32.999Z</time></trkpt><trkpt lat="36.91174244032587" lon="-108.09448505450531"><ele>1919.6</ele><time>2026-04-05T20:41:33.999Z</time></trkpt><trkpt lat="36.91182934881682" lon="-108.09443610076279"><ele>1920.0</ele><time>2026-04-05T20:41:34.999Z</time></trkpt><trkpt lat="36.91190485523265" lon="-108.09437378580687"><ele>1919.0</ele><time>2026-04-05T20:41:35.999Z</time></trkpt><trkpt lat="36.911967628790336" lon="-108.09429515974382"><ele>1918.0</ele><time>2026-04-05T20:41:36.999Z</time></trkpt><trkpt lat="36.9120341605406" lon="-108.09422329053335"><ele>1917.0</ele><time>2026-04-05T20:41:37.999Z</time></trkpt><trkpt lat="36.91210941283648" lon="-108.09417792895592"><ele>1916.0</ele><time>2026-04-05T20:41:38.999Z</time></trkpt><trkpt lat="36.9121918857827" lon="-108.09416071427815"><ele>1915.0</ele><time>2026-04-05T20:41:39.999Z</time></trkpt><trkpt lat="36.91228027292208" lon="-108.09412340995306"><ele>1914.0</ele><time>2026-04-05T20:41:40.999Z</time></trkpt><trkpt lat="36.91234529736441" lon="-108.09407490113821"><ele>1914.0</ele><time>2026-04-05T20:41:41.999Z</time></trkpt><trkpt lat="36.91237742066043" lon="-108.09397948228248"><ele>1914.0</ele><time>2026-04-05T20:41:42.999Z</time></trkpt><trkpt lat="36.91237138072007" lon="-108.09383774164829"><ele>1914.0</ele><time>2026-04-05T20:41:43.999Z</time></trkpt><trkpt lat="36.912387104980354" lon="-108.09371188536029"><ele>1914.0</ele><time>2026-04-05T20:41:44.999Z</time></trkpt><trkpt lat="36.912395278592584" lon="-108.09358353906403"><ele>1914.0</ele><time>2026-04-05T20:41:45.999Z</time></trkpt><trkpt lat="36.91240118656437" lon="-108.0934408238753"><ele>1914.0</ele><time>2026-04-05T20:41:46.999Z</time></trkpt><trkpt lat="36.912393797797286" lon="-108.09329927195644"><ele>1914.0</ele><time>2026-04-05T20:41:47.999Z</time></trkpt><trkpt lat="36.91234984558742" lon="-108.0931784132368"><ele>1914.0</ele><time>2026-04-05T20:41:48.999Z</time></trkpt><trkpt lat="36.91233535430869" lon="-108.0930457993622"><ele>1914.0</ele><time>2026-04-05T20:41:49.999Z</time></trkpt><trkpt lat="36.91235878313277" lon="-108.09292557916774"><ele>1914.0</ele><time>2026-04-05T20:41:50.999Z</time></trkpt><trkpt lat="36.912348519447484" lon="-108.09279511085906"><ele>1914.0</ele><time>2026-04-05T20:41:51.999Z</time></trkpt><trkpt lat="36.91234131296765" lon="-108.09267690811362"><ele>1914.0</ele><time>2026-04-05T20:41:52.999Z</time></trkpt><trkpt lat="36.91233633631435" lon="-108.09257674928826"><ele>1914.0</ele><time>2026-04-05T20:41:53.999Z</time></trkpt><trkpt lat="36.91233508533609" lon="-108.0924870483028"><ele>1914.0</ele><time>2026-04-05T20:41:54.999Z</time></trkpt><trkpt lat="36.91233964752483" lon="-108.09238643879512"><ele>1914.0</ele><time>2026-04-05T20:41:55.999Z</time></trkpt><trkpt lat="36.9123500857738" lon="-108.09227088671446"><ele>1914.0</ele><time>2026-04-05T20:41:56.999Z</time></trkpt><trkpt lat="36.912380781697806" lon="-108.09216173565683"><ele>1914.5</ele><time>2026-04-05T20:41:58Z</time></trkpt><trkpt lat="36.91242989971218" lon="-108.09207601460568"><ele>1915.0</ele><time>2026-04-05T20:41:59Z</time></trkpt><trkpt lat="36.91246927526306" lon="-108.09198567760401"><ele>1915.5</ele><time>2026-04-05T20:42:00Z</time></trkpt><trkpt lat="36.91250193206348" lon="-108.09188772001924"><ele>1916.0</ele><time>2026-04-05T20:42:01Z</time></trkpt><trkpt lat="36.912519066387254" lon="-108.09178827392994"><ele>1916.5</ele><time>2026-04-05T20:42:02Z</time></trkpt><trkpt lat="36.91253031555495" lon="-108.09167105900181"><ele>1917.0</ele><time>2026-04-05T20:42:03Z</time></trkpt><trkpt lat="36.912537817384624" lon="-108.09153230110176"><ele>1917.1999999999998</ele><time>2026-04-05T20:42:04Z</time></trkpt><trkpt lat="36.91254631550219" lon="-108.0914126609694"><ele>1917.3999999999999</ele><time>2026-04-05T20:42:05Z</time></trkpt><trkpt lat="36.91256478748618" lon="-108.09130170703138"><ele>1917.6000000000001</ele><time>2026-04-05T20:42:06Z</time></trkpt><trkpt lat="36.91259241900591" lon="-108.09119698162661"><ele>1917.8000000000002</ele><time>2026-04-05T20:42:07Z</time></trkpt><trkpt lat="36.912625750200796" lon="-108.09108351966209"><ele>1918.0</ele><time>2026-04-05T20:42:08Z</time></trkpt><trkpt lat="36.91265748855112" lon="-108.09096050748938"><ele>1917.6000000000001</ele><time>2026-04-05T20:42:09Z</time></trkpt><trkpt lat="36.91268914535622" lon="-108.0908489320249"><ele>1917.2000000000003</ele><time>2026-04-05T20:42:10Z</time></trkpt><trkpt lat="36.91273341655655" lon="-108.09075034053546"><ele>1916.8</ele><time>2026-04-05T20:42:11Z</time></trkpt><trkpt lat="36.91276869257691" lon="-108.09063790702044"><ele>1916.4</ele><time>2026-04-05T20:42:12Z</time></trkpt><trkpt lat="36.912770794954305" lon="-108.09051951015303"><ele>1916.0</ele><time>2026-04-05T20:42:13Z</time></trkpt><trkpt lat="36.91273522184181" lon="-108.09040740200797"><ele>1915.9999999999998</ele><time>2026-04-05T20:42:14Z</time></trkpt><trkpt lat="36.912743391887425" lon="-108.09028756124539"><ele>1916.0</ele><time>2026-04-05T20:42:15Z</time></trkpt><trkpt lat="36.91273972048111" lon="-108.09018568550167"><ele>1916.0</ele><time>2026-04-05T20:42:16Z</time></trkpt><trkpt lat="36.912691503358516" lon="-108.09011571409638"><ele>1916.0</ele><time>2026-04-05T20:42:18Z</time></trkpt><trkpt lat="36.91263075014386" lon="-108.09005792580574"><ele>1915.9999999999998</ele><time>2026-04-05T20:42:22Z</time></trkpt><trkpt lat="36.9125619145792" lon="-108.09000636516834"><ele>1916.0</ele><time>2026-04-05T20:42:24Z</time></trkpt><trkpt lat="36.912491502413445" lon="-108.08992868025886"><ele>1916.3333333333333</ele><time>2026-04-05T20:42:25Z</time></trkpt><trkpt lat="36.912412120057745" lon="-108.0898918888779"><ele>1916.6666666666665</ele><time>2026-04-05T20:42:27Z</time></trkpt><trkpt lat="36.91234840970798" lon="-108.08986950904062"><ele>1917.0</ele><time>2026-04-05T20:42:29Z</time></trkpt><trkpt lat="36.912287728439956" lon="-108.089782804335"><ele>1917.3333333333335</ele><time>2026-04-05T20:42:32Z</time></trkpt><trkpt lat="36.912198710883224" lon="-108.08969461677414"><ele>1917.6666666666667</ele><time>2026-04-05T20:42:35Z</time></trkpt><trkpt lat="36.91213130990744" lon="-108.08962858225168"><ele>1918.0</ele><time>2026-04-05T20:42:38Z</time></trkpt><trkpt lat="36.91208414452264" lon="-108.08957587325634"><ele>1918.0</ele><time>2026-04-05T20:42:41Z</time></trkpt><trkpt lat="36.912006884858734" lon="-108.08952557830631"><ele>1918.0</ele><time>2026-04-05T20:42:43Z</time></trkpt><trkpt lat="36.91180401579159" lon="-108.089440682575"><ele>1918.0</ele><time>2026-04-05T20:42:45Z</time></trkpt><trkpt lat="36.91171225325215" lon="-108.08938476888913"><ele>1918.0</ele><time>2026-04-05T20:42:46Z</time></trkpt><trkpt lat="36.911654151474806" lon="-108.08931599647467"><ele>1917.6000000000001</ele><time>2026-04-05T20:42:47Z</time></trkpt><trkpt lat="36.91158967773769" lon="-108.08922118862615"><ele>1917.2000000000003</ele><time>2026-04-05T20:42:48Z</time></trkpt><trkpt lat="36.91151482627179" lon="-108.0891167305268"><ele>1916.8</ele><time>2026-04-05T20:42:49Z</time></trkpt><trkpt lat="36.91141721289502" lon="-108.08904121511469"><ele>1916.4</ele><time>2026-04-05T20:42:50Z</time></trkpt><trkpt lat="36.91132563881723" lon="-108.08900971584676"><ele>1916.0</ele><time>2026-04-05T20:42:51Z</time></trkpt><trkpt lat="36.91122982360788" lon="-108.08898071572483"><ele>1915.0</ele><time>2026-04-05T20:42:52Z</time></trkpt><trkpt lat="36.91113452770191" lon="-108.0889044533339"><ele>1914.0</ele><time>2026-04-05T20:42:53Z</time></trkpt><trkpt lat="36.911086642646154" lon="-108.08880471310306"><ele>1913.0</ele><time>2026-04-05T20:42:54Z</time></trkpt><trkpt lat="36.91108936400012" lon="-108.08871535848105"><ele>1912.0</ele><time>2026-04-05T20:42:55Z</time></trkpt><trkpt lat="36.91112175524456" lon="-108.08860933301439"><ele>1911.0</ele><time>2026-04-05T20:42:56Z</time></trkpt><trkpt lat="36.91113183270683" lon="-108.08847005621766"><ele>1911.0</ele><time>2026-04-05T20:42:57Z</time></trkpt><trkpt lat="36.91110141855861" lon="-108.0883246680347"><ele>1911.0</ele><time>2026-04-05T20:42:58Z</time></trkpt><trkpt lat="36.9110596607294" lon="-108.08819487270208"><ele>1911.0</ele><time>2026-04-05T20:42:59Z</time></trkpt><trkpt lat="36.91101938559801" lon="-108.08806988907497"><ele>1911.0</ele><time>2026-04-05T20:43:00Z</time></trkpt><trkpt lat="36.91096193243022" lon="-108.08796477399723"><ele>1911.0</ele><time>2026-04-05T20:43:01Z</time></trkpt><trkpt lat="36.91092229043707" lon="-108.08788756175738"><ele>1909.8333333333333</ele><time>2026-04-05T20:43:02Z</time></trkpt><trkpt lat="36.91086512298635" lon="-108.0878415149927"><ele>1908.6666666666665</ele><time>2026-04-05T20:43:03Z</time></trkpt><trkpt lat="36.910768266188725" lon="-108.08776652451574"><ele>1907.5</ele><time>2026-04-05T20:43:04Z</time></trkpt><trkpt lat="36.910681505745146" lon="-108.08768256287513"><ele>1906.3333333333333</ele><time>2026-04-05T20:43:05Z</time></trkpt><trkpt lat="36.91065403876521" lon="-108.08759927339312"><ele>1905.1666666666665</ele><time>2026-04-05T20:43:06Z</time></trkpt><trkpt lat="36.91061301613421" lon="-108.08751541468047"><ele>1904.0</ele><time>2026-04-05T20:43:07Z</time></trkpt><trkpt lat="36.91056306588004" lon="-108.08746357836256"><ele>1902.8000000000002</ele><time>2026-04-05T20:43:08Z</time></trkpt><trkpt lat="36.91055097917662" lon="-108.08737762523619"><ele>1901.6000000000001</ele><time>2026-04-05T20:43:09Z</time></trkpt><trkpt lat="36.91053525981487" lon="-108.08725760322994"><ele>1900.4</ele><time>2026-04-05T20:43:10Z</time></trkpt><trkpt lat="36.910495372296786" lon="-108.08714746929313"><ele>1899.2</ele><time>2026-04-05T20:43:11Z</time></trkpt><trkpt lat="36.91044101436992" lon="-108.08705095761245"><ele>1898.0</ele><time>2026-04-05T20:43:12Z</time></trkpt><trkpt lat="36.91037747529887" lon="-108.08694531538825"><ele>1898.0</ele><time>2026-04-05T20:43:13Z</time></trkpt><trkpt lat="36.910306758200576" lon="-108.08685954905415"><ele>1898.0000000000002</ele><time>2026-04-05T20:43:14Z</time></trkpt><trkpt lat="36.910235055219246" lon="-108.08681640859236"><ele>1898.0000000000002</ele><time>2026-04-05T20:43:15Z</time></trkpt><trkpt lat="36.91013330076925" lon="-108.08682732367258"><ele>1898.0</ele><time>2026-04-05T20:43:16Z</time></trkpt><trkpt lat="36.91000468787721" lon="-108.08686659204855"><ele>1898.0</ele><time>2026-04-05T20:43:17Z</time></trkpt><trkpt lat="36.90988248998177" lon="-108.08688464619965"><ele>1897.2</ele><time>2026-04-05T20:43:18Z</time></trkpt><trkpt lat="36.90978787388868" lon="-108.08687350032758"><ele>1896.4</ele><time>2026-04-05T20:43:19Z</time></trkpt><trkpt lat="36.909680704045904" lon="-108.08686146848147"><ele>1895.6000000000001</ele><time>2026-04-05T20:43:20Z</time></trkpt><trkpt lat="36.90955722921777" lon="-108.08685947865422"><ele>1894.8000000000002</ele><time>2026-04-05T20:43:21Z</time></trkpt><trkpt lat="36.90944705869031" lon="-108.08685596362594"><ele>1894.0</ele><time>2026-04-05T20:43:22Z</time></trkpt><trkpt lat="36.90934685074406" lon="-108.08680503063242"><ele>1894.0000000000002</ele><time>2026-04-05T20:43:23Z</time></trkpt><trkpt lat="36.909256595508516" lon="-108.08671678581628"><ele>1894.0</ele><time>2026-04-05T20:43:24Z</time></trkpt><trkpt lat="36.90917794836642" lon="-108.08670664639729"><ele>1894.0</ele><time>2026-04-05T20:43:25Z</time></trkpt><trkpt lat="36.90909834974819" lon="-108.0867066386257"><ele>1894.0</ele><time>2026-04-05T20:43:26Z</time></trkpt><trkpt lat="36.9090051530891" lon="-108.08667775458593"><ele>1894.0000000000002</ele><time>2026-04-05T20:43:27Z</time></trkpt><trkpt lat="36.90894046828848" lon="-108.08663584954019"><ele>1894.0</ele><time>2026-04-05T20:43:28Z</time></trkpt><trkpt lat="36.908836899673084" lon="-108.08659772203598"><ele>1891.8000000000002</ele><time>2026-04-05T20:43:29Z</time></trkpt><trkpt lat="36.908733297317326" lon="-108.08659200359078"><ele>1889.6000000000001</ele><time>2026-04-05T20:43:30Z</time></trkpt><trkpt lat="36.908666224923344" lon="-108.08658041367838"><ele>1887.4</ele><time>2026-04-05T20:43:31Z</time></trkpt><trkpt lat="36.90856145810115" lon="-108.08651919448742"><ele>1885.2</ele><time>2026-04-05T20:43:33Z</time></trkpt><trkpt lat="36.90845975414645" lon="-108.08655961526651"><ele>1883.0</ele><time>2026-04-05T20:43:35Z</time></trkpt><trkpt lat="36.908358103023154" lon="-108.08657363908556"><ele>1882.4</ele><time>2026-04-05T20:43:37Z</time></trkpt><trkpt lat="36.90826411742328" lon="-108.0865018352917"><ele>1881.8000000000002</ele><time>2026-04-05T20:43:40Z</time></trkpt><trkpt lat="36.90823697200547" lon="-108.08634651342228"><ele>1881.2</ele><time>2026-04-05T20:43:42Z</time></trkpt><trkpt lat="36.90824587913135" lon="-108.08626734845733"><ele>1880.6</ele><time>2026-04-05T20:43:43Z</time></trkpt><trkpt lat="36.90817853363503" lon="-108.08617359950436"><ele>1880.0</ele><time>2026-04-05T20:43:45Z</time></trkpt><trkpt lat="36.90812580342936" lon="-108.08611369745422"><ele>1880.0</ele><time>2026-04-05T20:43:46Z</time></trkpt><trkpt lat="36.90806141700814" lon="-108.08604142544873"><ele>1880.0</ele><time>2026-04-05T20:43:47Z</time></trkpt><trkpt lat="36.907981619537836" lon="-108.08598290549276"><ele>1880.0</ele><time>2026-04-05T20:43:48Z</time></trkpt><trkpt lat="36.90788258880893" lon="-108.08593769987971"><ele>1880.0</ele><time>2026-04-05T20:43:49Z</time></trkpt><trkpt lat="36.90778249909843" lon="-108.08584531720399"><ele>1880.0</ele><time>2026-04-05T20:43:49.999Z</time></trkpt><trkpt lat="36.90769354079298" lon="-108.08572865285083"><ele>1879.75</ele><time>2026-04-05T20:43:50.999Z</time></trkpt><trkpt lat="36.907592245524256" lon="-108.08562426684155"><ele>1879.5</ele><time>2026-04-05T20:43:51.999Z</time></trkpt><trkpt lat="36.90750046869385" lon="-108.08554219315448"><ele>1879.25</ele><time>2026-04-05T20:43:52.999Z</time></trkpt><trkpt lat="36.90740202618214" lon="-108.0854857985139"><ele>1879.0</ele><time>2026-04-05T20:43:53.999Z</time></trkpt><trkpt lat="36.90730424906273" lon="-108.0854874594663"><ele>1878.8000000000002</ele><time>2026-04-05T20:43:54.999Z</time></trkpt><trkpt lat="36.90718278479731" lon="-108.08555345647123"><ele>1878.6000000000001</ele><time>2026-04-05T20:43:55.999Z</time></trkpt><trkpt lat="36.90707010373796" lon="-108.0855916004124"><ele>1878.4</ele><time>2026-04-05T20:43:56.999Z</time></trkpt><trkpt lat="36.90699679732999" lon="-108.0856242846039"><ele>1878.2</ele><time>2026-04-05T20:43:57.999Z</time></trkpt><trkpt lat="36.90691796563558" lon="-108.08566128689638"><ele>1878.0</ele><time>2026-04-05T20:43:58.999Z</time></trkpt><trkpt lat="36.90684758162361" lon="-108.08568611725411"><ele>1878.0</ele><time>2026-04-05T20:43:59.999Z</time></trkpt><trkpt lat="36.906761965697356" lon="-108.08574316974753"><ele>1878.0</ele><time>2026-04-05T20:44:01.999Z</time></trkpt><trkpt lat="36.90669193253895" lon="-108.08575748129886"><ele>1878.0</ele><time>2026-04-05T20:44:56Z</time></trkpt><trkpt lat="36.90660102560961" lon="-108.08572746741432"><ele>1878.0</ele><time>2026-04-05T20:47:23Z</time></trkpt><trkpt lat="36.90654423136694" lon="-108.08561454280505"><ele>1878.0</ele><time>2026-04-05T20:47:25Z</time></trkpt><trkpt lat="36.90654679416462" lon="-108.08553253246745"><ele>1878.0</ele><time>2026-04-05T20:47:26Z</time></trkpt><trkpt lat="36.906517166221285" lon="-108.08540723866639"><ele>1877.6000000000001</ele><time>2026-04-05T20:47:28Z</time></trkpt><trkpt lat="36.906432355802295" lon="-108.08531643357932"><ele>1877.2000000000003</ele><time>2026-04-05T20:47:30Z</time></trkpt><trkpt lat="36.90630335260384" lon="-108.08535881964151"><ele>1876.8</ele><time>2026-04-05T20:47:32Z</time></trkpt><trkpt lat="36.90622498471385" lon="-108.08541875212003"><ele>1876.4</ele><time>2026-04-05T20:47:33Z</time></trkpt><trkpt lat="36.90615633420827" lon="-108.08546799394234"><ele>1876.0</ele><time>2026-04-05T20:47:34Z</time></trkpt><trkpt lat="36.90608437612425" lon="-108.08552324878613"><ele>1876.0</ele><time>2026-04-05T20:47:35Z</time></trkpt><trkpt lat="36.90600253044796" lon="-108.08556360711918"><ele>1876.0</ele><time>2026-04-05T20:47:36Z</time></trkpt><trkpt lat="36.90591778301233" lon="-108.08562284599664"><ele>1876.0</ele><time>2026-04-05T20:47:37Z</time></trkpt><trkpt lat="36.90582364315811" lon="-108.08570119970864"><ele>1876.0</ele><time>2026-04-05T20:47:38Z</time></trkpt><trkpt lat="36.90574765463646" lon="-108.08582984286802"><ele>1876.0</ele><time>2026-04-05T20:47:39Z</time></trkpt><trkpt lat="36.90567725267913" lon="-108.08598594801344"><ele>1875.3333333333335</ele><time>2026-04-05T20:47:40Z</time></trkpt><trkpt lat="36.90558063550251" lon="-108.08609874484125"><ele>1874.6666666666665</ele><time>2026-04-05T20:47:41Z</time></trkpt><trkpt lat="36.90543302514715" lon="-108.08617138015796"><ele>1874.0</ele><time>2026-04-05T20:47:42Z</time></trkpt><trkpt lat="36.90527151358559" lon="-108.08620698500712"><ele>1874.0</ele><time>2026-04-05T20:47:43Z</time></trkpt><trkpt lat="36.90512361024388" lon="-108.08624929060697"><ele>1874.0</ele><time>2026-04-05T20:47:44Z</time></trkpt><trkpt lat="36.9050331742823" lon="-108.08633149349868"><ele>1874.0</ele><time>2026-04-05T20:47:45Z</time></trkpt><trkpt lat="36.90498021601354" lon="-108.08646044416946"><ele>1874.0</ele><time>2026-04-05T20:47:46Z</time></trkpt><trkpt lat="36.90494118178724" lon="-108.0866277854192"><ele>1874.0</ele><time>2026-04-05T20:47:47Z</time></trkpt><trkpt lat="36.90487386405792" lon="-108.08677404290289"><ele>1874.0</ele><time>2026-04-05T20:47:48Z</time></trkpt><trkpt lat="36.90476954527955" lon="-108.08688761782922"><ele>1874.0</ele><time>2026-04-05T20:47:49Z</time></trkpt><trkpt lat="36.904636210127116" lon="-108.08699559227497"><ele>1874.0</ele><time>2026-04-05T20:47:50Z</time></trkpt><trkpt lat="36.904547877353416" lon="-108.08714321262246"><ele>1874.0</ele><time>2026-04-05T20:47:51Z</time></trkpt><trkpt lat="36.90447655051703" lon="-108.0873086701655"><ele>1874.0</ele><time>2026-04-05T20:47:52Z</time></trkpt><trkpt lat="36.904387562534765" lon="-108.08747396896091"><ele>1874.0</ele><time>2026-04-05T20:47:53Z</time></trkpt><trkpt lat="36.904276931598645" lon="-108.08765461057877"><ele>1874.0</ele><time>2026-04-05T20:47:54Z</time></trkpt><trkpt lat="36.904169767885996" lon="-108.08782945052353"><ele>1874.0</ele><time>2026-04-05T20:47:55Z</time></trkpt><trkpt lat="36.904041661778614" lon="-108.0879698689217"><ele>1874.0</ele><time>2026-04-05T20:47:56Z</time></trkpt><trkpt lat="36.90387786076767" lon="-108.08811552286454"><ele>1873.25</ele><time>2026-04-05T20:47:57Z</time></trkpt><trkpt lat="36.90375723218355" lon="-108.08826649078843"><ele>1872.5</ele><time>2026-04-05T20:47:58Z</time></trkpt><trkpt lat="36.90367555612441" lon="-108.08841881237224"><ele>1871.75</ele><time>2026-04-05T20:47:59Z</time></trkpt><trkpt lat="36.90362283206427" lon="-108.08855112426916"><ele>1871.0</ele><time>2026-04-05T20:48:00Z</time></trkpt><trkpt lat="36.90356876107211" lon="-108.0886475094706"><ele>1871.0</ele><time>2026-04-05T20:48:01Z</time></trkpt><trkpt lat="36.903502372213154" lon="-108.08868559798188"><ele>1871.0</ele><time>2026-04-05T20:48:02Z</time></trkpt><trkpt lat="36.90339708752022" lon="-108.08868568498211"><ele>1871.0</ele><time>2026-04-05T20:48:03Z</time></trkpt><trkpt lat="36.903273345984374" lon="-108.08867191617483"><ele>1871.0</ele><time>2026-04-05T20:48:04Z</time></trkpt><trkpt lat="36.90316412480422" lon="-108.08874198293069"><ele>1871.0</ele><time>2026-04-05T20:48:05Z</time></trkpt><trkpt lat="36.90309679995034" lon="-108.08890932942366"><ele>1870.8</ele><time>2026-04-05T20:48:06Z</time></trkpt><trkpt lat="36.903020560380696" lon="-108.0890329947322"><ele>1870.6</ele><time>2026-04-05T20:48:07Z</time></trkpt><trkpt lat="36.902951691138476" lon="-108.08911889804159"><ele>1870.4</ele><time>2026-04-05T20:48:08Z</time></trkpt><trkpt lat="36.90290185011842" lon="-108.08922026695343"><ele>1870.2</ele><time>2026-04-05T20:48:09Z</time></trkpt><trkpt lat="36.902918865568566" lon="-108.0893458533367"><ele>1870.0</ele><time>2026-04-05T20:48:11Z</time></trkpt><trkpt lat="36.90300607112508" lon="-108.08936836823219"><ele>1869.6666666666667</ele><time>2026-04-05T20:48:12Z</time></trkpt><trkpt lat="36.903084793840534" lon="-108.08934013864959"><ele>1869.3333333333335</ele><time>2026-04-05T20:48:13Z</time></trkpt><trkpt lat="36.90315208057195" lon="-108.0892336906502"><ele>1869.0</ele><time>2026-04-05T20:48:14Z</time></trkpt><trkpt lat="36.9032102132796" lon="-108.08920057090738"><ele>1868.6666666666665</ele><time>2026-04-05T20:48:15Z</time></trkpt><trkpt lat="36.90322951060149" lon="-108.08931413698146"><ele>1868.3333333333333</ele><time>2026-04-05T20:48:17Z</time></trkpt><trkpt lat="36.90320052023253" lon="-108.08938664428113"><ele>1868.0</ele><time>2026-04-05T20:48:18Z</time></trkpt><trkpt lat="36.90317014335349" lon="-108.08946763906039"><ele>1868.0</ele><time>2026-04-05T20:48:19Z</time></trkpt><trkpt lat="36.90306217653265" lon="-108.0895636262723"><ele>1868.0000000000002</ele><time>2026-04-05T20:48:20Z</time></trkpt><trkpt lat="36.903066059438906" lon="-108.08964692973301"><ele>1868.0000000000002</ele><time>2026-04-05T20:48:21Z</time></trkpt><trkpt lat="36.90300867008913" lon="-108.08975525178921"><ele>1868.0</ele><time>2026-04-05T20:48:22Z</time></trkpt><trkpt lat="36.90293967392985" lon="-108.08987917795157"><ele>1868.0</ele><time>2026-04-05T20:48:23Z</time></trkpt><trkpt lat="36.90285053360349" lon="-108.08998397177636"><ele>1868.25</ele><time>2026-04-05T20:48:24Z</time></trkpt><trkpt lat="36.90274369524121" lon="-108.09004534143178"><ele>1868.5</ele><time>2026-04-05T20:48:25Z</time></trkpt><trkpt lat="36.902621146603316" lon="-108.09007454024652"><ele>1868.75</ele><time>2026-04-05T20:48:26Z</time></trkpt><trkpt lat="36.90250687408898" lon="-108.09012297834805"><ele>1869.0</ele><time>2026-04-05T20:48:27Z</time></trkpt><trkpt lat="36.902409854006336" lon="-108.09018428834612"><ele>1868.5</ele><time>2026-04-05T20:48:28Z</time></trkpt><trkpt lat="36.902313454663954" lon="-108.0902677423758"><ele>1868.0</ele><time>2026-04-05T20:48:29Z</time></trkpt><trkpt lat="36.90223028373992" lon="-108.09038576779237"><ele>1867.5</ele><time>2026-04-05T20:48:30Z</time></trkpt><trkpt lat="36.902145990288886" lon="-108.09049940986266"><ele>1867.0</ele><time>2026-04-05T20:48:31Z</time></trkpt><trkpt lat="36.902073410823014" lon="-108.0906696709575"><ele>1866.6666666666667</ele><time>2026-04-05T20:48:32Z</time></trkpt><trkpt lat="36.90203296899611" lon="-108.09089868045413"><ele>1866.3333333333335</ele><time>2026-04-05T20:48:33Z</time></trkpt><trkpt lat="36.90198538574971" lon="-108.09108934401408"><ele>1866.0</ele><time>2026-04-05T20:48:34Z</time></trkpt><trkpt lat="36.901911670220855" lon="-108.09124760400317"><ele>1866.0</ele><time>2026-04-05T20:48:35Z</time></trkpt><trkpt lat="36.90184174492207" lon="-108.0913778727144"><ele>1866.0</ele><time>2026-04-05T20:48:36Z</time></trkpt><trkpt lat="36.90177492521053" lon="-108.09145856286767"><ele>1866.0</ele><time>2026-04-05T20:48:37Z</time></trkpt><trkpt lat="36.90169377984799" lon="-108.0915190931886"><ele>1866.0</ele><time>2026-04-05T20:48:38Z</time></trkpt><trkpt lat="36.901577596054814" lon="-108.09136516490928"><ele>1866.1666666666667</ele><time>2026-04-05T20:48:39Z</time></trkpt><trkpt lat="36.90149581570632" lon="-108.09143031311609"><ele>1866.3333333333335</ele><time>2026-04-05T20:48:40Z</time></trkpt><trkpt lat="36.90145118671051" lon="-108.09149426256236"><ele>1866.5</ele><time>2026-04-05T20:48:41Z</time></trkpt><trkpt lat="36.901452385827376" lon="-108.09161961985015"><ele>1866.6666666666667</ele><time>2026-04-05T20:48:43Z</time></trkpt><trkpt lat="36.90153004712609" lon="-108.09167740364096"><ele>1866.8333333333335</ele><time>2026-04-05T20:48:44Z</time></trkpt><trkpt lat="36.90159628951619" lon="-108.09170837185536"><ele>1867.0</ele><time>2026-04-05T20:48:45Z</time></trkpt><trkpt lat="36.90170349365101" lon="-108.09168163357162"><ele>1867.0000000000002</ele><time>2026-04-05T20:48:46Z</time></trkpt><trkpt lat="36.90179023399069" lon="-108.09169952742388"><ele>1867.0</ele><time>2026-04-05T20:48:47Z</time></trkpt><trkpt lat="36.90184698400262" lon="-108.09174509210256"><ele>1867.0</ele><time>2026-04-05T20:48:48Z</time></trkpt><trkpt lat="36.90184004006193" lon="-108.09186493618456"><ele>1867.0</ele><time>2026-04-05T20:48:49Z</time></trkpt><trkpt lat="36.90178571861134" lon="-108.091951196886"><ele>1867.0000000000002</ele><time>2026-04-05T20:48:50Z</time></trkpt><trkpt lat="36.90169938164884" lon="-108.09201023040667"><ele>1867.0</ele><time>2026-04-05T20:48:51Z</time></trkpt><trkpt lat="36.901590797840846" lon="-108.09205718203258"><ele>1867.0</ele><time>2026-04-05T20:48:52Z</time></trkpt><trkpt lat="36.901482420168925" lon="-108.09210059254842"><ele>1867.0</ele><time>2026-04-05T20:48:53Z</time></trkpt><trkpt lat="36.90137543379621" lon="-108.09213537032248"><ele>1867.0</ele><time>2026-04-05T20:48:54Z</time></trkpt><trkpt lat="36.9012238620647" lon="-108.09219336630842"><ele>1867.0</ele><time>2026-04-05T20:48:55Z</time></trkpt><trkpt lat="36.901109473021215" lon="-108.09220327128402"><ele>1867.0</ele><time>2026-04-05T20:48:56Z</time></trkpt><trkpt lat="36.9010030007607" lon="-108.09219385148599"><ele>1866.9999999999998</ele><time>2026-04-05T20:48:57Z</time></trkpt><trkpt lat="36.90091204202827" lon="-108.09219676896797"><ele>1866.9999999999998</ele><time>2026-04-05T20:48:58Z</time></trkpt><trkpt lat="36.900848450082044" lon="-108.09230135401161"><ele>1867.0</ele><time>2026-04-05T20:49:00Z</time></trkpt><trkpt lat="36.90087934988237" lon="-108.09238686177308"><ele>1867.0</ele><time>2026-04-05T20:49:01Z</time></trkpt><trkpt lat="36.90092578800303" lon="-108.09248049552411"><ele>1866.3999999999999</ele><time>2026-04-05T20:49:02Z</time></trkpt><trkpt lat="36.90099885556117" lon="-108.0925662729271"><ele>1865.7999999999997</ele><time>2026-04-05T20:49:03Z</time></trkpt><trkpt lat="36.901048724503035" lon="-108.09266963514182"><ele>1865.2</ele><time>2026-04-05T20:49:04Z</time></trkpt><trkpt lat="36.90105931171055" lon="-108.09279961200392"><ele>1864.6</ele><time>2026-04-05T20:49:05Z</time></trkpt><trkpt lat="36.90100997742973" lon="-108.09289704717581"><ele>1864.0</ele><time>2026-04-05T20:49:06Z</time></trkpt><trkpt lat="36.90092523409651" lon="-108.09295165827166"><ele>1863.75</ele><time>2026-04-05T20:49:07Z</time></trkpt><trkpt lat="36.900803264313886" lon="-108.09300931761479"><ele>1863.5</ele><time>2026-04-05T20:49:08Z</time></trkpt><trkpt lat="36.900692682782086" lon="-108.09310668479576"><ele>1863.25</ele><time>2026-04-05T20:49:09Z</time></trkpt><trkpt lat="36.90059987067159" lon="-108.09321268290643"><ele>1863.0</ele><time>2026-04-05T20:49:10Z</time></trkpt><trkpt lat="36.90049318205319" lon="-108.09331213230855"><ele>1862.75</ele><time>2026-04-05T20:49:11Z</time></trkpt><trkpt lat="36.90038605074199" lon="-108.09344247552961"><ele>1862.5</ele><time>2026-04-05T20:49:12Z</time></trkpt><trkpt lat="36.90029556248802" lon="-108.0935515978355"><ele>1862.25</ele><time>2026-04-05T20:49:13Z</time></trkpt><trkpt lat="36.900256050329546" lon="-108.09362953992132"><ele>1862.0</ele><time>2026-04-05T20:49:14Z</time></trkpt><trkpt lat="36.90029251329652" lon="-108.09375755444964"><ele>1862.0</ele><time>2026-04-05T20:49:16Z</time></trkpt><trkpt lat="36.900354958117894" lon="-108.09381297316303"><ele>1861.9999999999998</ele><time>2026-04-05T20:49:17Z</time></trkpt><trkpt lat="36.90043800488104" lon="-108.09387226897132"><ele>1861.9999999999998</ele><time>2026-04-05T20:49:18Z</time></trkpt><trkpt lat="36.90048823357536" lon="-108.09395118513618"><ele>1862.0</ele><time>2026-04-05T20:49:19Z</time></trkpt><trkpt lat="36.90053560916878" lon="-108.09406639015967"><ele>1862.0</ele><time>2026-04-05T20:49:20Z</time></trkpt><trkpt lat="36.900451981376364" lon="-108.0941861871507"><ele>1862.0</ele><time>2026-04-05T20:49:22Z</time></trkpt><trkpt lat="36.900351960692205" lon="-108.09423701767714"><ele>1862.0</ele><time>2026-04-05T20:49:23Z</time></trkpt><trkpt lat="36.90023191760445" lon="-108.09427850768886"><ele>1862.0</ele><time>2026-04-05T20:49:24Z</time></trkpt><trkpt lat="36.900122602939945" lon="-108.094302583503"><ele>1862.0</ele><time>2026-04-05T20:49:25Z</time></trkpt><trkpt lat="36.89999481051861" lon="-108.09431840651749"><ele>1862.0</ele><time>2026-04-05T20:49:26Z</time></trkpt><trkpt lat="36.89988736832202" lon="-108.09434878075511"><ele>1861.9999999999998</ele><time>2026-04-05T20:49:27Z</time></trkpt><trkpt lat="36.899816193585124" lon="-108.09437957569745"><ele>1861.9999999999998</ele><time>2026-04-05T20:49:28Z</time></trkpt><trkpt lat="36.89978289546572" lon="-108.09452336506479"><ele>1862.0</ele><time>2026-04-05T20:49:30Z</time></trkpt><trkpt lat="36.899768586645635" lon="-108.09463452652511"><ele>1862.0</ele><time>2026-04-05T20:49:31Z</time></trkpt><trkpt lat="36.899707679733545" lon="-108.09467752501033"><ele>1861.9999999999998</ele><time>2026-04-05T20:49:32Z</time></trkpt><trkpt lat="36.89963312686472" lon="-108.09471826715671"><ele>1862.0</ele><time>2026-04-05T20:49:33Z</time></trkpt><trkpt lat="36.89955518439774" lon="-108.09478826260334"><ele>1862.0</ele><time>2026-04-05T20:49:34Z</time></trkpt><trkpt lat="36.899489942664495" lon="-108.09486684262615"><ele>1862.0</ele><time>2026-04-05T20:49:35Z</time></trkpt><trkpt lat="36.89944206851661" lon="-108.09496384595916"><ele>1861.9999999999998</ele><time>2026-04-05T20:49:36Z</time></trkpt><trkpt lat="36.899442203828364" lon="-108.0950673920521"><ele>1862.0</ele><time>2026-04-05T20:49:37Z</time></trkpt><trkpt lat="36.89947031900528" lon="-108.09516032915553"><ele>1861.6</ele><time>2026-04-05T20:49:38Z</time></trkpt><trkpt lat="36.89949251556645" lon="-108.09525541708443"><ele>1861.1999999999998</ele><time>2026-04-05T20:49:39Z</time></trkpt><trkpt lat="36.899493172962025" lon="-108.09536174620209"><ele>1860.8</ele><time>2026-04-05T20:49:40Z</time></trkpt><trkpt lat="36.89945914219258" lon="-108.09547691088605"><ele>1860.4</ele><time>2026-04-05T20:49:41Z</time></trkpt><trkpt lat="36.89938481877015" lon="-108.09559048010075"><ele>1860.0</ele><time>2026-04-05T20:49:42Z</time></trkpt><trkpt lat="36.89931440131354" lon="-108.09566046976431"><ele>1860.0</ele><time>2026-04-05T20:49:43Z</time></trkpt><trkpt lat="36.89925534457095" lon="-108.09569439236547"><ele>1860.0</ele><time>2026-04-05T20:49:44Z</time></trkpt><trkpt lat="36.899166956222004" lon="-108.09561995420606"><ele>1860.0</ele><time>2026-04-05T20:49:46Z</time></trkpt><trkpt lat="36.899114545271" lon="-108.09553668147349"><ele>1860.0</ele><time>2026-04-05T20:49:48Z</time></trkpt><trkpt lat="36.89908608127786" lon="-108.09545229700844"><ele>1860.0</ele><time>2026-04-05T20:49:49Z</time></trkpt><trkpt lat="36.89902463913508" lon="-108.09535615502406"><ele>1860.0</ele><time>2026-04-05T20:50:33Z</time></trkpt><trkpt lat="36.89893835227904" lon="-108.09532445834104"><ele>1860.1666666666667</ele><time>2026-04-05T20:50:35Z</time></trkpt><trkpt lat="36.89886683253203" lon="-108.09543983171189"><ele>1860.3333333333335</ele><time>2026-04-05T20:50:37Z</time></trkpt><trkpt lat="36.89886280424156" lon="-108.09553571330564"><ele>1860.5</ele><time>2026-04-05T20:50:38Z</time></trkpt><trkpt lat="36.89888901747332" lon="-108.09562462566454"><ele>1860.6666666666667</ele><time>2026-04-05T20:50:39Z</time></trkpt><trkpt lat="36.89893171184021" lon="-108.09569679061116"><ele>1860.8333333333335</ele><time>2026-04-05T20:50:40Z</time></trkpt><trkpt lat="36.8989685191338" lon="-108.09577819123912"><ele>1861.0</ele><time>2026-04-05T20:50:41Z</time></trkpt><trkpt lat="36.898966090636634" lon="-108.09587289306974"><ele>1861.1666666666667</ele><time>2026-04-05T20:50:42Z</time></trkpt><trkpt lat="36.89890121776081" lon="-108.09596392871198"><ele>1861.3333333333335</ele><time>2026-04-05T20:50:43Z</time></trkpt><trkpt lat="36.8988301502325" lon="-108.09601767363353"><ele>1861.5</ele><time>2026-04-05T20:50:44Z</time></trkpt><trkpt lat="36.898762331846626" lon="-108.09602074631856"><ele>1861.6666666666665</ele><time>2026-04-05T20:50:45Z</time></trkpt><trkpt lat="36.8986765319908" lon="-108.09600224818294"><ele>1861.8333333333333</ele><time>2026-04-05T20:50:46Z</time></trkpt><trkpt lat="36.89859272176179" lon="-108.09599065450391"><ele>1862.0</ele><time>2026-04-05T20:50:47Z</time></trkpt><trkpt lat="36.89849896286736" lon="-108.09600888012575"><ele>1861.5</ele><time>2026-04-05T20:50:48Z</time></trkpt><trkpt lat="36.89840751196662" lon="-108.09607394749713"><ele>1861.0</ele><time>2026-04-05T20:50:49Z</time></trkpt><trkpt lat="36.89830936246692" lon="-108.09613998788801"><ele>1860.5</ele><time>2026-04-05T20:50:50Z</time></trkpt><trkpt lat="36.89821941776222" lon="-108.09624420562652"><ele>1860.0</ele><time>2026-04-05T20:50:51Z</time></trkpt><trkpt lat="36.89815129831435" lon="-108.09638896247019"><ele>1860.0</ele><time>2026-04-05T20:50:52Z</time></trkpt><trkpt lat="36.89807957652377" lon="-108.09649767076687"><ele>1860.0</ele><time>2026-04-05T20:50:53Z</time></trkpt><trkpt lat="36.89798448144442" lon="-108.09660521335171"><ele>1860.0</ele><time>2026-04-05T20:50:54Z</time></trkpt><trkpt lat="36.897890413133034" lon="-108.09670926253315"><ele>1860.0</ele><time>2026-04-05T20:50:55Z</time></trkpt><trkpt lat="36.89777039957355" lon="-108.09679819610601"><ele>1859.6666666666665</ele><time>2026-04-05T20:50:56Z</time></trkpt><trkpt lat="36.897640990977756" lon="-108.09688407820202"><ele>1859.3333333333333</ele><time>2026-04-05T20:50:57Z</time></trkpt><trkpt lat="36.89750870440297" lon="-108.0969515435901"><ele>1859.0</ele><time>2026-04-05T20:50:58Z</time></trkpt><trkpt lat="36.897344219451156" lon="-108.09698841180422"><ele>1859.0</ele><time>2026-04-05T20:50:59Z</time></trkpt><trkpt lat="36.89715850740834" lon="-108.09700581310302"><ele>1859.0</ele><time>2026-04-05T20:51:00Z</time></trkpt><trkpt lat="36.89696966826837" lon="-108.09701283507088"><ele>1859.0</ele><time>2026-04-05T20:51:01Z</time></trkpt><trkpt lat="36.896802740170834" lon="-108.09705583062996"><ele>1859.0</ele><time>2026-04-05T20:51:02Z</time></trkpt><trkpt lat="36.89664674034234" lon="-108.0971369086544"><ele>1859.0</ele><time>2026-04-05T20:51:03Z</time></trkpt><trkpt lat="36.89647350551038" lon="-108.09727100618609"><ele>1859.0</ele><time>2026-04-05T20:51:04Z</time></trkpt><trkpt lat="36.89632876021686" lon="-108.09742711633963"><ele>1858.2</ele><time>2026-04-05T20:51:05Z</time></trkpt><trkpt lat="36.896222993193135" lon="-108.097542665769"><ele>1857.4</ele><time>2026-04-05T20:51:06Z</time></trkpt><trkpt lat="36.89613944438314" lon="-108.09763088419368"><ele>1856.6</ele><time>2026-04-05T20:51:07Z</time></trkpt><trkpt lat="36.89609420260909" lon="-108.0977110885678"><ele>1855.8</ele><time>2026-04-05T20:51:08Z</time></trkpt><trkpt lat="36.896059317738576" lon="-108.0978426606228"><ele>1855.0</ele><time>2026-04-05T20:51:09Z</time></trkpt><trkpt lat="36.8960686659303" lon="-108.09798008139859"><ele>1855.0</ele><time>2026-04-05T20:51:10Z</time></trkpt><trkpt lat="36.8960810872459" lon="-108.09814249358598"><ele>1855.0</ele><time>2026-04-05T20:51:11Z</time></trkpt><trkpt lat="36.89609728747408" lon="-108.09830980159359"><ele>1855.0</ele><time>2026-04-05T20:51:12Z</time></trkpt><trkpt lat="36.89612643508217" lon="-108.09847087514548"><ele>1855.0</ele><time>2026-04-05T20:51:13Z</time></trkpt><trkpt lat="36.896135717719325" lon="-108.09867171761692"><ele>1855.25</ele><time>2026-04-05T20:51:14Z</time></trkpt><trkpt lat="36.89612185506245" lon="-108.09884626128527"><ele>1855.5</ele><time>2026-04-05T20:51:15Z</time></trkpt><trkpt lat="36.89610107388494" lon="-108.09900881243033"><ele>1855.75</ele><time>2026-04-05T20:51:16Z</time></trkpt><trkpt lat="36.89605293829451" lon="-108.09916608604003"><ele>1856.0</ele><time>2026-04-05T20:51:17Z</time></trkpt><trkpt lat="36.895988485283866" lon="-108.09930599414922"><ele>1855.75</ele><time>2026-04-05T20:51:18Z</time></trkpt><trkpt lat="36.895874848621496" lon="-108.09942927821159"><ele>1855.5</ele><time>2026-04-05T20:51:19Z</time></trkpt><trkpt lat="36.895754161603406" lon="-108.09952875099437"><ele>1855.25</ele><time>2026-04-05T20:51:20Z</time></trkpt><trkpt lat="36.89562258491172" lon="-108.09959563803751"><ele>1855.0</ele><time>2026-04-05T20:51:21Z</time></trkpt><trkpt lat="36.895482183269465" lon="-108.09961554536946"><ele>1855.0</ele><time>2026-04-05T20:51:22Z</time></trkpt><trkpt lat="36.895331747244526" lon="-108.09961568227335"><ele>1855.0</ele><time>2026-04-05T20:51:23Z</time></trkpt><trkpt lat="36.89520908755177" lon="-108.09965440606058"><ele>1855.0</ele><time>2026-04-05T20:51:24Z</time></trkpt><trkpt lat="36.89512461426933" lon="-108.0997605709385"><ele>1855.0</ele><time>2026-04-05T20:51:25Z</time></trkpt><trkpt lat="36.895057409994074" lon="-108.09991448029662"><ele>1854.5</ele><time>2026-04-05T20:51:26Z</time></trkpt><trkpt lat="36.89497697202881" lon="-108.100067334931"><ele>1854.0</ele><time>2026-04-05T20:51:27Z</time></trkpt><trkpt lat="36.89487214727365" lon="-108.10018200638088"><ele>1853.5</ele><time>2026-04-05T20:51:28Z</time></trkpt><trkpt lat="36.89476563019035" lon="-108.10024360655714"><ele>1853.0</ele><time>2026-04-05T20:51:29Z</time></trkpt><trkpt lat="36.89467762254041" lon="-108.10024489337562"><ele>1853.0</ele><time>2026-04-05T20:51:30Z</time></trkpt><trkpt lat="36.89456447060921" lon="-108.10018961476433"><ele>1853.0000000000002</ele><time>2026-04-05T20:51:31Z</time></trkpt><trkpt lat="36.894458964177645" lon="-108.10016103840736"><ele>1853.0000000000002</ele><time>2026-04-05T20:51:32Z</time></trkpt><trkpt lat="36.89435153888823" lon="-108.1002289153036"><ele>1853.0</ele><time>2026-04-05T20:51:33Z</time></trkpt><trkpt lat="36.89431058479966" lon="-108.1003414649609"><ele>1853.0</ele><time>2026-04-05T20:51:34Z</time></trkpt><trkpt lat="36.89429167531153" lon="-108.100479704324"><ele>1852.9999999999998</ele><time>2026-04-05T20:51:35Z</time></trkpt><trkpt lat="36.894284632718175" lon="-108.1006165540455"><ele>1853.0</ele><time>2026-04-05T20:51:36Z</time></trkpt><trkpt lat="36.894230872600545" lon="-108.10066709912275"><ele>1853.0</ele><time>2026-04-05T20:51:37Z</time></trkpt><trkpt lat="36.89415621839747" lon="-108.10065273388402"><ele>1853.0</ele><time>2026-04-05T20:51:38Z</time></trkpt><trkpt lat="36.894104202272736" lon="-108.10057929593209"><ele>1852.9999999999998</ele><time>2026-04-05T20:51:39Z</time></trkpt><trkpt lat="36.89405677512984" lon="-108.10049472187949"><ele>1853.0</ele><time>2026-04-05T20:51:40Z</time></trkpt><trkpt lat="36.89397903245564" lon="-108.10044662368925"><ele>1853.0</ele><time>2026-04-05T20:51:41Z</time></trkpt><trkpt lat="36.89388222806463" lon="-108.10042980885825"><ele>1853.0000000000002</ele><time>2026-04-05T20:51:42Z</time></trkpt><trkpt lat="36.89378792520739" lon="-108.10043752594144"><ele>1853.0000000000002</ele><time>2026-04-05T20:51:43Z</time></trkpt><trkpt lat="36.8936898712559" lon="-108.10048439889728"><ele>1853.0</ele><time>2026-04-05T20:51:44Z</time></trkpt><trkpt lat="36.89360988451225" lon="-108.10058528233864"><ele>1853.0</ele><time>2026-04-05T20:51:46Z</time></trkpt><trkpt lat="36.893574676163645" lon="-108.10076069410793"><ele>1853.0</ele><time>2026-04-05T20:51:48Z</time></trkpt><trkpt lat="36.893545501113756" lon="-108.10087912319521"><ele>1853.0</ele><time>2026-04-05T20:51:49Z</time></trkpt><trkpt lat="36.8934747125749" lon="-108.10095264778302"><ele>1853.0</ele><time>2026-04-05T20:51:50Z</time></trkpt><trkpt lat="36.89335336249617" lon="-108.1010342629127"><ele>1853.0</ele><time>2026-04-05T20:51:51Z</time></trkpt><trkpt lat="36.89323475630207" lon="-108.10112660355152"><ele>1853.0</ele><time>2026-04-05T20:51:52Z</time></trkpt><trkpt lat="36.89310344342257" lon="-108.10120465673552"><ele>1853.0</ele><time>2026-04-05T20:51:53Z</time></trkpt><trkpt lat="36.892972475015306" lon="-108.1012641388043"><ele>1853.0</ele><time>2026-04-05T20:51:54Z</time></trkpt><trkpt lat="36.892833923302085" lon="-108.10133251023565"><ele>1853.0</ele><time>2026-04-05T20:51:55Z</time></trkpt><trkpt lat="36.89266257568526" lon="-108.10142410922968"><ele>1852.3333333333333</ele><time>2026-04-05T20:51:56Z</time></trkpt><trkpt lat="36.89248683519595" lon="-108.101526339157"><ele>1851.6666666666665</ele><time>2026-04-05T20:51:57Z</time></trkpt><trkpt lat="36.89232796768451" lon="-108.10161539654959"><ele>1851.0</ele><time>2026-04-05T20:51:58Z</time></trkpt><trkpt lat="36.89219773661442" lon="-108.10166828179239"><ele>1851.0</ele><time>2026-04-05T20:51:59Z</time></trkpt><trkpt lat="36.892054355152816" lon="-108.10167390157092"><ele>1851.0</ele><time>2026-04-05T20:52:00Z</time></trkpt><trkpt lat="36.89189175143023" lon="-108.10168224871018"><ele>1851.0</ele><time>2026-04-05T20:52:01Z</time></trkpt><trkpt lat="36.89172838468927" lon="-108.10163152320101"><ele>1850.3333333333335</ele><time>2026-04-05T20:52:02Z</time></trkpt><trkpt lat="36.891573174247455" lon="-108.10160758227562"><ele>1849.6666666666667</ele><time>2026-04-05T20:52:03Z</time></trkpt><trkpt lat="36.891408933119294" lon="-108.10164804535574"><ele>1849.0</ele><time>2026-04-05T20:52:04Z</time></trkpt><trkpt lat="36.891251684035694" lon="-108.10170735993613"><ele>1849.0</ele><time>2026-04-05T20:52:05Z</time></trkpt><trkpt lat="36.891139867376125" lon="-108.10178266237932"><ele>1849.0</ele><time>2026-04-05T20:52:06Z</time></trkpt><trkpt lat="36.891056252864594" lon="-108.10189112130456"><ele>1849.0</ele><time>2026-04-05T20:52:07Z</time></trkpt><trkpt lat="36.890976468543776" lon="-108.10193238768188"><ele>1849.0</ele><time>2026-04-05T20:52:08Z</time></trkpt><trkpt lat="36.89087711015188" lon="-108.10190523542894"><ele>1849.0</ele><time>2026-04-05T20:52:09Z</time></trkpt><trkpt lat="36.8907650169588" lon="-108.1018323712375"><ele>1849.0</ele><time>2026-04-05T20:52:10Z</time></trkpt><trkpt lat="36.89066799143018" lon="-108.10180294595189"><ele>1849.0</ele><time>2026-04-05T20:52:11Z</time></trkpt><trkpt lat="36.89053676177749" lon="-108.10178061369221"><ele>1849.0</ele><time>2026-04-05T20:52:12Z</time></trkpt><trkpt lat="36.8904010301399" lon="-108.10177039767818"><ele>1849.0</ele><time>2026-04-05T20:52:13Z</time></trkpt><trkpt lat="36.890270407034684" lon="-108.10176821539194"><ele>1849.0000000000002</ele><time>2026-04-05T20:52:14Z</time></trkpt><trkpt lat="36.890164360421785" lon="-108.10179548356244"><ele>1849.0</ele><time>2026-04-05T20:52:15Z</time></trkpt><trkpt lat="36.89009611689312" lon="-108.1018277790907"><ele>1849.0</ele><time>2026-04-05T20:52:16Z</time></trkpt><trkpt lat="36.89005091499331" lon="-108.10188295166616"><ele>1849.0</ele><time>2026-04-05T20:52:17Z</time></trkpt><trkpt lat="36.8900825389162" lon="-108.10201266087378"><ele>1849.0000000000002</ele><time>2026-04-05T20:52:19Z</time></trkpt><trkpt lat="36.89008576999314" lon="-108.1021041600248"><ele>1849.0</ele><time>2026-04-05T20:52:20Z</time></trkpt><trkpt lat="36.89004415886865" lon="-108.10217851208941"><ele>1849.0</ele><time>2026-04-05T20:52:21Z</time></trkpt><trkpt lat="36.88998023143324" lon="-108.10221711752116"><ele>1849.0</ele><time>2026-04-05T20:52:22Z</time></trkpt><trkpt lat="36.88989120176253" lon="-108.10223300337023"><ele>1849.0</ele><time>2026-04-05T20:52:23Z</time></trkpt><trkpt lat="36.889795781104716" lon="-108.10223789888212"><ele>1849.0</ele><time>2026-04-05T20:52:24Z</time></trkpt><trkpt lat="36.889697544158736" lon="-108.10226224334248"><ele>1849.0</ele><time>2026-04-05T20:52:25Z</time></trkpt><trkpt lat="36.88959197308847" lon="-108.10229682516172"><ele>1849.0</ele><time>2026-04-05T20:52:26Z</time></trkpt><trkpt lat="36.8894959951613" lon="-108.10235284732367"><ele>1849.0</ele><time>2026-04-05T20:52:27Z</time></trkpt><trkpt lat="36.8894044603633" lon="-108.10242667980887"><ele>1849.0</ele><time>2026-04-05T20:52:28Z</time></trkpt><trkpt lat="36.88930165242557" lon="-108.10252264938948"><ele>1849.0</ele><time>2026-04-05T20:52:29Z</time></trkpt><trkpt lat="36.889184918904036" lon="-108.10261569762342"><ele>1848.75</ele><time>2026-04-05T20:52:30Z</time></trkpt><trkpt lat="36.889049054995134" lon="-108.10269842478871"><ele>1848.5</ele><time>2026-04-05T20:52:31Z</time></trkpt><trkpt lat="36.88891686927697" lon="-108.10275442655151"><ele>1848.25</ele><time>2026-04-05T20:52:32Z</time></trkpt><trkpt lat="36.88877660243248" lon="-108.10279512275376"><ele>1848.0</ele><time>2026-04-05T20:52:33Z</time></trkpt><trkpt lat="36.88863994236223" lon="-108.10279387264411"><ele>1848.0</ele><time>2026-04-05T20:52:34Z</time></trkpt><trkpt lat="36.88848936637476" lon="-108.10276365961369"><ele>1848.0</ele><time>2026-04-05T20:52:35Z</time></trkpt><trkpt lat="36.88832934079605" lon="-108.10275239465408"><ele>1848.0</ele><time>2026-04-05T20:52:36Z</time></trkpt><trkpt lat="36.888169625648274" lon="-108.10281291853836"><ele>1847.75</ele><time>2026-04-05T20:52:37Z</time></trkpt><trkpt lat="36.888047017482364" lon="-108.1029024093902"><ele>1847.5</ele><time>2026-04-05T20:52:38Z</time></trkpt><trkpt lat="36.887980014732655" lon="-108.10301097606212"><ele>1847.25</ele><time>2026-04-05T20:52:39Z</time></trkpt><trkpt lat="36.88788823929277" lon="-108.10309834364378"><ele>1847.0</ele><time>2026-04-05T20:52:40Z</time></trkpt><trkpt lat="36.88778962040943" lon="-108.1031182292731"><ele>1846.9999999999998</ele><time>2026-04-05T20:52:41Z</time></trkpt><trkpt lat="36.88772713135716" lon="-108.1030998635861"><ele>1847.0</ele><time>2026-04-05T20:52:42Z</time></trkpt><trkpt lat="36.88765434782413" lon="-108.10305223788691"><ele>1847.0</ele><time>2026-04-05T20:52:43Z</time></trkpt><trkpt lat="36.88756226675838" lon="-108.103002222591"><ele>1847.0</ele><time>2026-04-05T20:52:44Z</time></trkpt><trkpt lat="36.887510848916534" lon="-108.10305228940628"><ele>1846.9999999999998</ele><time>2026-04-05T20:52:45Z</time></trkpt><trkpt lat="36.88742859880559" lon="-108.10314677559546"><ele>1847.0</ele><time>2026-04-05T20:52:46Z</time></trkpt><trkpt lat="36.887348527524765" lon="-108.10324123603986"><ele>1846.6</ele><time>2026-04-05T20:52:47Z</time></trkpt><trkpt lat="36.88727754427485" lon="-108.10333340467085"><ele>1846.1999999999998</ele><time>2026-04-05T20:52:48Z</time></trkpt><trkpt lat="36.88719235122996" lon="-108.10339171202106"><ele>1845.8</ele><time>2026-04-05T20:52:49Z</time></trkpt><trkpt lat="36.88708137090078" lon="-108.10343855051282"><ele>1845.4</ele><time>2026-04-05T20:52:50Z</time></trkpt><trkpt lat="36.886970271588396" lon="-108.10347678992993"><ele>1845.0</ele><time>2026-04-05T20:52:51Z</time></trkpt><trkpt lat="36.88684540310498" lon="-108.10350795081767"><ele>1845.25</ele><time>2026-04-05T20:52:52Z</time></trkpt><trkpt lat="36.88673620690542" lon="-108.10356384302055"><ele>1845.5</ele><time>2026-04-05T20:52:53Z</time></trkpt><trkpt lat="36.886625255323345" lon="-108.10361666680025"><ele>1845.75</ele><time>2026-04-05T20:52:54Z</time></trkpt><trkpt lat="36.88651086692983" lon="-108.10369995384147"><ele>1846.0</ele><time>2026-04-05T20:52:55Z</time></trkpt><trkpt lat="36.88641895170448" lon="-108.10379295263976"><ele>1846.0</ele><time>2026-04-05T20:52:56Z</time></trkpt><trkpt lat="36.88643435246862" lon="-108.10387463713869"><ele>1846.0</ele><time>2026-04-05T20:52:58Z</time></trkpt><trkpt lat="36.88649349947732" lon="-108.10390322074241"><ele>1846.0</ele><time>2026-04-05T20:53:31Z</time></trkpt><trkpt lat="36.88655902056344" lon="-108.10396493906151"><ele>1846.0</ele><time>2026-04-05T20:53:34Z</time></trkpt><trkpt lat="36.88662794291838" lon="-108.10403286470427"><ele>1846.0</ele><time>2026-04-05T20:53:46Z</time></trkpt><trkpt lat="36.88667670517133" lon="-108.10411439083336"><ele>1846.0</ele><time>2026-04-05T20:53:48Z</time></trkpt><trkpt lat="36.88663537932458" lon="-108.10417861354485"><ele>1846.0</ele><time>2026-04-05T20:54:21Z</time></trkpt><trkpt lat="36.88658353240015" lon="-108.10423174175612"><ele>1845.5000000000002</ele><time>2026-04-05T20:54:22Z</time></trkpt><trkpt lat="36.88651498898553" lon="-108.10425561977937"><ele>1845.0</ele><time>2026-04-05T20:54:23Z</time></trkpt><trkpt lat="36.88643759781422" lon="-108.10427158435398"><ele>1844.5</ele><time>2026-04-05T20:54:24Z</time></trkpt><trkpt lat="36.8863537562005" lon="-108.10429590048993"><ele>1844.0</ele><time>2026-04-05T20:54:25Z</time></trkpt><trkpt lat="36.88626031302039" lon="-108.10433418778814"><ele>1843.5000000000002</ele><time>2026-04-05T20:54:26Z</time></trkpt><trkpt lat="36.886169299139766" lon="-108.10436978702971"><ele>1843.0</ele><time>2026-04-05T20:54:27Z</time></trkpt><trkpt lat="36.886082046269166" lon="-108.10441675195803"><ele>1843.0000000000002</ele><time>2026-04-05T20:54:29Z</time></trkpt><trkpt lat="36.88614814409994" lon="-108.10434857851779"><ele>1843.0</ele><time>2026-04-05T20:55:02Z</time></trkpt><trkpt lat="36.886154464403454" lon="-108.10426255753623"><ele>1843.0</ele><time>2026-04-05T20:55:04Z</time></trkpt><trkpt lat="36.88610416909958" lon="-108.1041738235131"><ele>1843.0</ele><time>2026-04-05T20:55:10Z</time></trkpt><trkpt lat="36.88616719930884" lon="-108.1041067200533"><ele>1843.0000000000002</ele><time>2026-04-05T20:55:12Z</time></trkpt><trkpt lat="36.886231447721265" lon="-108.10403757994408"><ele>1843.0</ele><time>2026-04-05T20:55:15Z</time></trkpt><trkpt lat="36.88629094572469" lon="-108.10388836793722"><ele>1843.6000000000001</ele><time>2026-04-05T20:55:16Z</time></trkpt><trkpt lat="36.88625659670756" lon="-108.10370950717282"><ele>1844.2000000000003</ele><time>2026-04-05T20:55:18Z</time></trkpt><trkpt lat="36.88620909362186" lon="-108.10361656088574"><ele>1844.8</ele><time>2026-04-05T20:55:19Z</time></trkpt><trkpt lat="36.886169401270095" lon="-108.1035101331866"><ele>1845.4</ele><time>2026-04-05T20:55:20Z</time></trkpt><trkpt lat="36.88612189939002" lon="-108.10339995080712"><ele>1846.0</ele><time>2026-04-05T20:55:21Z</time></trkpt><trkpt lat="36.88606007686321" lon="-108.1032411159908"><ele>1847.0</ele><time>2026-04-05T20:55:22Z</time></trkpt><trkpt lat="36.88600224676881" lon="-108.10308064631285"><ele>1848.0</ele><time>2026-04-05T20:55:23Z</time></trkpt><trkpt lat="36.885952013793116" lon="-108.10292326348659"><ele>1849.0</ele><time>2026-04-05T20:55:24Z</time></trkpt><trkpt lat="36.88589556800335" lon="-108.10272293578151"><ele>1850.0</ele><time>2026-04-05T20:55:25Z</time></trkpt><trkpt lat="36.885833384609555" lon="-108.10250645835342"><ele>1851.3333333333333</ele><time>2026-04-05T20:55:26Z</time></trkpt><trkpt lat="36.88575791802432" lon="-108.10225545878984"><ele>1852.6666666666665</ele><time>2026-04-05T20:55:27Z</time></trkpt><trkpt lat="36.885690126321904" lon="-108.1020600960255"><ele>1854.0</ele><time>2026-04-05T20:55:28Z</time></trkpt><trkpt lat="36.88562150930543" lon="-108.10187470915682"><ele>1854.0</ele><time>2026-04-05T20:55:29Z</time></trkpt><trkpt lat="36.88555145245567" lon="-108.1017359394445"><ele>1854.0</ele><time>2026-04-05T20:55:30Z</time></trkpt><trkpt lat="36.88549011983224" lon="-108.10160205205011"><ele>1854.0</ele><time>2026-04-05T20:55:31Z</time></trkpt><trkpt lat="36.88538057481513" lon="-108.10163229247597"><ele>1854.0</ele><time>2026-04-05T20:55:32Z</time></trkpt><trkpt lat="36.885282732152426" lon="-108.10166694569214"><ele>1854.0</ele><time>2026-04-05T20:55:33Z</time></trkpt><trkpt lat="36.88515408203657" lon="-108.1017459282176"><ele>1854.0</ele><time>2026-04-05T20:55:34Z</time></trkpt><trkpt lat="36.88508382326814" lon="-108.10166925654413"><ele>1854.0</ele><time>2026-04-05T20:55:35Z</time></trkpt><trkpt lat="36.88504169311121" lon="-108.10159620437298"><ele>1854.0</ele><time>2026-04-05T20:55:36Z</time></trkpt><trkpt lat="36.884927510641916" lon="-108.10157799483792"><ele>1854.0</ele><time>2026-04-05T20:55:38Z</time></trkpt><trkpt lat="36.88499800523562" lon="-108.10159104419834"><ele>1853.9999999999998</ele><time>2026-04-05T20:56:57Z</time></trkpt><trkpt lat="36.88509624057836" lon="-108.10161429175113"><ele>1854.0</ele><time>2026-04-05T20:56:59Z</time></trkpt><trkpt lat="36.88514102641031" lon="-108.10167741865995"><ele>1853.9999999999998</ele><time>2026-04-05T20:57:01Z</time></trkpt><trkpt lat="36.88518223463821" lon="-108.10174806884461"><ele>1853.9999999999998</ele><time>2026-04-05T20:57:04Z</time></trkpt><trkpt lat="36.885120428194995" lon="-108.10177282517924"><ele>1854.0</ele><time>2026-04-05T20:57:08Z</time></trkpt><trkpt lat="36.885095490701815" lon="-108.10169062807189"><ele>1853.9999999999998</ele><time>2026-04-05T20:57:10Z</time></trkpt><trkpt lat="36.88504399088584" lon="-108.1016355656659"><ele>1853.9999999999998</ele><time>2026-04-05T20:57:14Z</time></trkpt><trkpt lat="36.88493353638596" lon="-108.10165681953563"><ele>1854.0</ele><time>2026-04-05T20:57:16Z</time></trkpt><trkpt lat="36.884831268333905" lon="-108.10162409300696"><ele>1854.0</ele><time>2026-04-05T20:57:18Z</time></trkpt><trkpt lat="36.88473274823798" lon="-108.10158657517061"><ele>1854.0</ele><time>2026-04-05T20:57:20Z</time></trkpt><trkpt lat="36.88460474163664" lon="-108.10154863976202"><ele>1854.0</ele><time>2026-04-05T20:57:22Z</time></trkpt><trkpt lat="36.8845228342774" lon="-108.10152023813893"><ele>1854.0</ele><time>2026-04-05T20:57:23Z</time></trkpt><trkpt lat="36.884433280901575" lon="-108.10149067084899"><ele>1854.4</ele><time>2026-04-05T20:57:24Z</time></trkpt><trkpt lat="36.88436304245204" lon="-108.10144569379891"><ele>1854.8000000000002</ele><time>2026-04-05T20:57:25Z</time></trkpt><trkpt lat="36.88431042078609" lon="-108.10128681641496"><ele>1855.1999999999998</ele><time>2026-04-05T20:57:27Z</time></trkpt><trkpt lat="36.884268015693465" lon="-108.10121044712496"><ele>1855.6</ele><time>2026-04-05T20:57:28Z</time></trkpt><trkpt lat="36.8841593652671" lon="-108.10114164398641"><ele>1856.0</ele><time>2026-04-05T20:57:30Z</time></trkpt><trkpt lat="36.88410366042565" lon="-108.10107313784219"><ele>1856.6666666666665</ele><time>2026-04-05T20:57:31Z</time></trkpt><trkpt lat="36.88405222022214" lon="-108.1009877193256"><ele>1857.3333333333333</ele><time>2026-04-05T20:57:32Z</time></trkpt><trkpt lat="36.884004211498876" lon="-108.10089626290669"><ele>1858.0</ele><time>2026-04-05T20:57:33Z</time></trkpt><trkpt lat="36.88396045074018" lon="-108.100804171131"><ele>1858.6666666666665</ele><time>2026-04-05T20:57:34Z</time></trkpt><trkpt lat="36.883923835878676" lon="-108.10072652129197"><ele>1859.3333333333333</ele><time>2026-04-05T20:57:35Z</time></trkpt><trkpt lat="36.88385082878163" lon="-108.10062204323363"><ele>1860.0</ele><time>2026-04-05T20:57:37Z</time></trkpt><trkpt lat="36.88379637853748" lon="-108.10056891209473"><ele>1860.3333333333333</ele><time>2026-04-05T20:57:38Z</time></trkpt><trkpt lat="36.88375787892731" lon="-108.10049755838527"><ele>1860.6666666666665</ele><time>2026-04-05T20:57:39Z</time></trkpt><trkpt lat="36.8837278922215" lon="-108.10040133076727"><ele>1861.0</ele><time>2026-04-05T20:57:40Z</time></trkpt><trkpt lat="36.88369821298305" lon="-108.1003051007821"><ele>1861.3333333333333</ele><time>2026-04-05T20:57:41Z</time></trkpt><trkpt lat="36.88366798492968" lon="-108.10019315909203"><ele>1861.6666666666665</ele><time>2026-04-05T20:57:42Z</time></trkpt><trkpt lat="36.88363210946083" lon="-108.10007394106736"><ele>1862.0</ele><time>2026-04-05T20:57:43Z</time></trkpt><trkpt lat="36.88360501589886" lon="-108.0999747553448"><ele>1861.8</ele><time>2026-04-05T20:57:44Z</time></trkpt><trkpt lat="36.88360295838541" lon="-108.09989513407837"><ele>1861.6</ele><time>2026-04-05T20:57:45Z</time></trkpt><trkpt lat="36.883516224036775" lon="-108.09987319981609"><ele>1861.3999999999999</ele><time>2026-04-05T20:57:47Z</time></trkpt><trkpt lat="36.88342460015788" lon="-108.09987097328654"><ele>1861.1999999999998</ele><time>2026-04-05T20:57:48Z</time></trkpt><trkpt lat="36.88332773920259" lon="-108.09983881948307"><ele>1861.0</ele><time>2026-04-05T20:57:49Z</time></trkpt><trkpt lat="36.883225046055905" lon="-108.09977537985989"><ele>1862.0000000000002</ele><time>2026-04-05T20:57:50Z</time></trkpt><trkpt lat="36.88312202370627" lon="-108.09970335580554"><ele>1863.0</ele><time>2026-04-05T20:57:51Z</time></trkpt><trkpt lat="36.88302756542863" lon="-108.09965284616759"><ele>1864.0</ele><time>2026-04-05T20:57:52Z</time></trkpt><trkpt lat="36.88295948667442" lon="-108.0995989119115"><ele>1865.0</ele><time>2026-04-05T20:57:53Z</time></trkpt><trkpt lat="36.88292224342628" lon="-108.09951994821307"><ele>1866.0000000000002</ele><time>2026-04-05T20:57:54Z</time></trkpt><trkpt lat="36.882899980569206" lon="-108.0994429153956"><ele>1867.0</ele><time>2026-04-05T20:57:55Z</time></trkpt><trkpt lat="36.88285986410182" lon="-108.09936345761606"><ele>1867.0</ele><time>2026-04-05T21:06:23Z</time></trkpt><trkpt lat="36.88281072626763" lon="-108.09928215488473"><ele>1866.9999999999998</ele><time>2026-04-05T21:06:25Z</time></trkpt><trkpt lat="36.882722573580914" lon="-108.09918488172076"><ele>1866.9999999999998</ele><time>2026-04-05T21:06:27Z</time></trkpt><trkpt lat="36.88267043726718" lon="-108.0991284992012"><ele>1867.0</ele><time>2026-04-05T21:06:28Z</time></trkpt><trkpt lat="36.8825706607693" lon="-108.09911505632293"><ele>1867.0</ele><time>2026-04-05T21:06:30Z</time></trkpt><trkpt lat="36.88247335041703" lon="-108.09916609158735"><ele>1867.8</ele><time>2026-04-05T21:06:32Z</time></trkpt><trkpt lat="36.882408128662775" lon="-108.09921295129762"><ele>1868.6</ele><time>2026-04-05T21:06:33Z</time></trkpt><trkpt lat="36.88232733847024" lon="-108.09928195076975"><ele>1869.3999999999999</ele><time>2026-04-05T21:06:35Z</time></trkpt><trkpt lat="36.88223564734766" lon="-108.09936017079553"><ele>1870.1999999999998</ele><time>2026-04-05T21:06:37Z</time></trkpt><trkpt lat="36.88213107547639" lon="-108.09944915029375"><ele>1871.0</ele><time>2026-04-05T21:06:39Z</time></trkpt><trkpt lat="36.88184557550132" lon="-108.09903574739613"><ele>1871.0</ele><time>2026-04-05T21:06:41Z</time></trkpt><trkpt lat="36.88177308095768" lon="-108.09895212114408"><ele>1871.0</ele><time>2026-04-05T21:06:42Z</time></trkpt><trkpt lat="36.88169324933766" lon="-108.09889467608645"><ele>1871.0</ele><time>2026-04-05T21:06:43Z</time></trkpt><trkpt lat="36.88163208315904" lon="-108.09885303381427"><ele>1871.0</ele><time>2026-04-05T21:06:45Z</time></trkpt><trkpt lat="36.88134091621827" lon="-108.09877617851915"><ele>1872.6</ele><time>2026-04-05T21:06:51Z</time></trkpt><trkpt lat="36.88133095534343" lon="-108.09892577589564"><ele>1874.1999999999998</ele><time>2026-04-05T21:06:53Z</time></trkpt><trkpt lat="36.88129612081994" lon="-108.09905929528503"><ele>1875.8000000000002</ele><time>2026-04-05T21:06:54Z</time></trkpt><trkpt lat="36.88123461681476" lon="-108.09913555634307"><ele>1877.4</ele><time>2026-04-05T21:06:55Z</time></trkpt><trkpt lat="36.88116128641423" lon="-108.09918344874819"><ele>1879.0</ele><time>2026-04-05T21:06:56Z</time></trkpt><trkpt lat="36.88109245429008" lon="-108.09921868975881"><ele>1879.5000000000002</ele><time>2026-04-05T21:06:57Z</time></trkpt><trkpt lat="36.881023058617" lon="-108.09923644054862"><ele>1880.0</ele><time>2026-04-05T21:06:58Z</time></trkpt><trkpt lat="36.8809515630157" lon="-108.09926201281162"><ele>1880.5</ele><time>2026-04-05T21:06:59Z</time></trkpt><trkpt lat="36.88088896992416" lon="-108.09930532246831"><ele>1881.0</ele><time>2026-04-05T21:07:00Z</time></trkpt><trkpt lat="36.880823616968065" lon="-108.09937995753906"><ele>1881.5000000000002</ele><time>2026-04-05T21:07:01Z</time></trkpt><trkpt lat="36.880751833097975" lon="-108.09946530424682"><ele>1882.0</ele><time>2026-04-05T21:07:02Z</time></trkpt><trkpt lat="36.88068414630054" lon="-108.09953964744902"><ele>1882.0</ele><time>2026-04-05T21:07:03Z</time></trkpt><trkpt lat="36.88061922638074" lon="-108.09959308505792"><ele>1881.9999999999998</ele><time>2026-04-05T21:07:04Z</time></trkpt><trkpt lat="36.880513059433916" lon="-108.09966052871896"><ele>1881.9999999999998</ele><time>2026-04-05T21:07:06Z</time></trkpt><trkpt lat="36.88038220290723" lon="-108.09968898821836"><ele>1882.0</ele><time>2026-04-05T21:07:08Z</time></trkpt><trkpt lat="36.880298861409564" lon="-108.09969921570931"><ele>1882.0</ele><time>2026-04-05T21:07:09Z</time></trkpt><trkpt lat="36.88017950649007" lon="-108.09962446420283"><ele>1882.3333333333335</ele><time>2026-04-05T21:07:10Z</time></trkpt><trkpt lat="36.88007952219142" lon="-108.09960893064881"><ele>1882.6666666666667</ele><time>2026-04-05T21:07:11Z</time></trkpt><trkpt lat="36.879972550305595" lon="-108.09961564068291"><ele>1883.0</ele><time>2026-04-05T21:07:12Z</time></trkpt><trkpt lat="36.87988545969481" lon="-108.09958345600134"><ele>1883.3333333333335</ele><time>2026-04-05T21:07:13Z</time></trkpt><trkpt lat="36.8798144741441" lon="-108.09956702739545"><ele>1883.6666666666667</ele><time>2026-04-05T21:07:14Z</time></trkpt><trkpt lat="36.87975568582489" lon="-108.09952965141586"><ele>1884.0</ele><time>2026-04-05T21:07:15Z</time></trkpt><trkpt lat="36.87961113292878" lon="-108.09954043402932"><ele>1884.0</ele><time>2026-04-05T21:07:17Z</time></trkpt><trkpt lat="36.879524594700044" lon="-108.09954723482815"><ele>1884.0</ele><time>2026-04-05T21:07:18Z</time></trkpt><trkpt lat="36.879499071262856" lon="-108.09945664644157"><ele>1884.0</ele><time>2026-04-05T21:07:19Z</time></trkpt><trkpt lat="36.87947655556793" lon="-108.09929900943193"><ele>1884.0</ele><time>2026-04-05T21:07:21Z</time></trkpt><trkpt lat="36.87942926327578" lon="-108.09920604946348"><ele>1884.0</ele><time>2026-04-05T21:07:22Z</time></trkpt><trkpt lat="36.87930234607197" lon="-108.09917939126383"><ele>1885.0</ele><time>2026-04-05T21:07:24Z</time></trkpt><trkpt lat="36.87922944704005" lon="-108.09919083440668"><ele>1886.0</ele><time>2026-04-05T21:07:25Z</time></trkpt><trkpt lat="36.879140211979404" lon="-108.09917211299906"><ele>1887.0</ele><time>2026-04-05T21:07:26Z</time></trkpt><trkpt lat="36.87904686773854" lon="-108.09913248770424"><ele>1888.0</ele><time>2026-04-05T21:07:27Z</time></trkpt><trkpt lat="36.87895417268556" lon="-108.0991145418351"><ele>1889.0</ele><time>2026-04-05T21:07:28Z</time></trkpt><trkpt lat="36.878876421841206" lon="-108.09911433991913"><ele>1890.0</ele><time>2026-04-05T21:07:29Z</time></trkpt><trkpt lat="36.87879329880702" lon="-108.09910161818146"><ele>1890.0</ele><time>2026-04-05T21:07:30Z</time></trkpt><trkpt lat="36.87870041375673" lon="-108.09914089759637"><ele>1890.0</ele><time>2026-04-05T21:07:31Z</time></trkpt><trkpt lat="36.878638634357635" lon="-108.0992291324301"><ele>1890.0</ele><time>2026-04-05T21:07:32Z</time></trkpt><trkpt lat="36.87859977671588" lon="-108.0993546768604"><ele>1890.0</ele><time>2026-04-05T21:07:33Z</time></trkpt><trkpt lat="36.878566870559496" lon="-108.09948798369822"><ele>1890.0</ele><time>2026-04-05T21:07:34Z</time></trkpt><trkpt lat="36.878521893732554" lon="-108.09962340875343"><ele>1890.0</ele><time>2026-04-05T21:07:35Z</time></trkpt><trkpt lat="36.87847629477456" lon="-108.09976224305987"><ele>1890.0</ele><time>2026-04-05T21:07:36Z</time></trkpt><trkpt lat="36.878442071163924" lon="-108.09986472914183"><ele>1890.0</ele><time>2026-04-05T21:07:37Z</time></trkpt><trkpt lat="36.87830767907601" lon="-108.09995117856043"><ele>1890.0</ele><time>2026-04-05T21:07:39Z</time></trkpt><trkpt lat="36.87821435788121" lon="-108.10002008294626"><ele>1890.1666666666667</ele><time>2026-04-05T21:07:40Z</time></trkpt><trkpt lat="36.87814895517533" lon="-108.10011554863009"><ele>1890.3333333333335</ele><time>2026-04-05T21:07:41Z</time></trkpt><trkpt lat="36.878079302599794" lon="-108.10017262716805"><ele>1890.5</ele><time>2026-04-05T21:07:42Z</time></trkpt><trkpt lat="36.8780079782951" lon="-108.10016283740873"><ele>1890.6666666666667</ele><time>2026-04-05T21:07:43Z</time></trkpt><trkpt lat="36.87790301633358" lon="-108.1001741647879"><ele>1890.8333333333335</ele><time>2026-04-05T21:07:45Z</time></trkpt><trkpt lat="36.87783590894052" lon="-108.10019229940148"><ele>1891.0</ele><time>2026-04-05T21:07:46Z</time></trkpt><trkpt lat="36.877769665402205" lon="-108.10018429286276"><ele>1891.0</ele><time>2026-04-05T21:07:47Z</time></trkpt><trkpt lat="36.877681316388866" lon="-108.10026299632558"><ele>1891.0</ele><time>2026-04-05T21:07:48Z</time></trkpt><trkpt lat="36.87762906875469" lon="-108.10036523403312"><ele>1891.0</ele><time>2026-04-05T21:07:49Z</time></trkpt><trkpt lat="36.877583393814795" lon="-108.10045186082216"><ele>1891.0</ele><time>2026-04-05T21:07:50Z</time></trkpt><trkpt lat="36.87751117176869" lon="-108.100548534242"><ele>1891.0</ele><time>2026-04-05T21:07:51Z</time></trkpt><trkpt lat="36.877457286693655" lon="-108.10061559771886"><ele>1890.1999999999998</ele><time>2026-04-05T21:07:52Z</time></trkpt><trkpt lat="36.8773873828374" lon="-108.10068735785845"><ele>1889.3999999999999</ele><time>2026-04-05T21:07:53Z</time></trkpt><trkpt lat="36.877316919253865" lon="-108.10075490460582"><ele>1888.6</ele><time>2026-04-05T21:07:54Z</time></trkpt><trkpt lat="36.87722298530972" lon="-108.1008044097585"><ele>1887.8</ele><time>2026-04-05T21:07:55Z</time></trkpt><trkpt lat="36.87714887157893" lon="-108.10082717492831"><ele>1887.0</ele><time>2026-04-05T21:07:56Z</time></trkpt><trkpt lat="36.87701810545961" lon="-108.10078647943797"><ele>1887.0</ele><time>2026-04-05T21:07:58Z</time></trkpt><trkpt lat="36.87692167986948" lon="-108.10077314884452"><ele>1886.9999999999998</ele><time>2026-04-05T21:07:59Z</time></trkpt><trkpt lat="36.87682457585735" lon="-108.10075607239314"><ele>1886.9999999999998</ele><time>2026-04-05T21:08:00Z</time></trkpt><trkpt lat="36.87671985910998" lon="-108.10083180414753"><ele>1887.0</ele><time>2026-04-05T21:08:02Z</time></trkpt><trkpt lat="36.876639328036745" lon="-108.10089137577968"><ele>1887.0</ele><time>2026-04-05T21:08:03Z</time></trkpt><trkpt lat="36.876566195315704" lon="-108.10087339888577"><ele>1885.6</ele><time>2026-04-05T21:08:04Z</time></trkpt><trkpt lat="36.8764931951316" lon="-108.10096998165997"><ele>1884.1999999999998</ele><time>2026-04-05T21:08:06Z</time></trkpt><trkpt lat="36.87647465597384" lon="-108.10104548142404"><ele>1882.8</ele><time>2026-04-05T21:08:07Z</time></trkpt><trkpt lat="36.87655579013492" lon="-108.10108980117353"><ele>1881.4</ele><time>2026-04-05T21:08:09Z</time></trkpt><trkpt lat="36.87665349108945" lon="-108.10113935333096"><ele>1880.0</ele><time>2026-04-05T21:08:11Z</time></trkpt><trkpt lat="36.87627764164834" lon="-108.10110486502136"><ele>1880.0</ele><time>2026-04-05T21:08:13Z</time></trkpt><trkpt lat="36.87639112466683" lon="-108.1011018316179"><ele>1880.0</ele><time>2026-04-05T21:08:14Z</time></trkpt><trkpt lat="36.876495952548105" lon="-108.10110735116835"><ele>1880.0</ele><time>2026-04-05T21:08:17Z</time></trkpt><trkpt lat="36.876568142344816" lon="-108.10114771697063"><ele>1880.0</ele><time>2026-04-05T21:08:18Z</time></trkpt><trkpt lat="36.8766482527013" lon="-108.10121095372179"><ele>1880.0</ele><time>2026-04-05T21:08:19Z</time></trkpt><trkpt lat="36.876728874808755" lon="-108.1012636907082"><ele>1880.3333333333333</ele><time>2026-04-05T21:08:20Z</time></trkpt><trkpt lat="36.87679904483198" lon="-108.10132445469951"><ele>1880.6666666666665</ele><time>2026-04-05T21:08:21Z</time></trkpt><trkpt lat="36.87685985152469" lon="-108.10138300492291"><ele>1881.0</ele><time>2026-04-05T21:08:22Z</time></trkpt><trkpt lat="36.876915892994646" lon="-108.1014607529432"><ele>1881.3333333333335</ele><time>2026-04-05T21:08:23Z</time></trkpt><trkpt lat="36.876974916757824" lon="-108.1015419584858"><ele>1881.6666666666667</ele><time>2026-04-05T21:08:24Z</time></trkpt><trkpt lat="36.877031413707904" lon="-108.10162345664514"><ele>1882.0</ele><time>2026-04-05T21:08:25Z</time></trkpt><trkpt lat="36.87706750079835" lon="-108.10171862329244"><ele>1882.0</ele><time>2026-04-05T21:08:26Z</time></trkpt><trkpt lat="36.87710155112099" lon="-108.10181962698364"><ele>1882.0</ele><time>2026-04-05T21:08:27Z</time></trkpt><trkpt lat="36.87713573250529" lon="-108.10190041690245"><ele>1882.0</ele><time>2026-04-05T21:08:28Z</time></trkpt><trkpt lat="36.87718780525371" lon="-108.10201800476115"><ele>1882.0</ele><time>2026-04-05T21:08:30Z</time></trkpt><trkpt lat="36.87758830343432" lon="-108.10222600016347"><ele>1881.6</ele><time>2026-04-05T21:08:32Z</time></trkpt><trkpt lat="36.87767308755624" lon="-108.10231732591504"><ele>1881.1999999999998</ele><time>2026-04-05T21:08:34Z</time></trkpt><trkpt lat="36.87773730668561" lon="-108.10237897041429"><ele>1880.8</ele><time>2026-04-05T21:08:35Z</time></trkpt><trkpt lat="36.87777541613099" lon="-108.10246512809896"><ele>1880.4</ele><time>2026-04-05T21:08:36Z</time></trkpt><trkpt lat="36.877856080914626" lon="-108.10255298220713"><ele>1880.0</ele><time>2026-04-05T21:08:37Z</time></trkpt><trkpt lat="36.8779400592752" lon="-108.10261262954393"><ele>1879.9999999999998</ele><time>2026-04-05T21:08:38Z</time></trkpt><trkpt lat="36.87799643964056" lon="-108.102652319541"><ele>1880.0</ele><time>2026-04-05T21:08:39Z</time></trkpt><trkpt lat="36.87805405563759" lon="-108.10269639710019"><ele>1880.0</ele><time>2026-04-05T21:08:40Z</time></trkpt><trkpt lat="36.87807782569219" lon="-108.10282114421742"><ele>1880.0</ele><time>2026-04-05T21:08:42Z</time></trkpt><trkpt lat="36.878004970221966" lon="-108.10289080687102"><ele>1879.9999999999998</ele><time>2026-04-05T21:08:43Z</time></trkpt><trkpt lat="36.8778977810779" lon="-108.102963779562"><ele>1880.0</ele><time>2026-04-05T21:08:44Z</time></trkpt><trkpt lat="36.87779789192306" lon="-108.10305343777979"><ele>1880.0</ele><time>2026-04-05T21:08:45Z</time></trkpt><trkpt lat="36.877745833339844" lon="-108.10323508932754"><ele>1880.0</ele><time>2026-04-05T21:08:46Z</time></trkpt><trkpt lat="36.87765157950029" lon="-108.10331712311019"><ele>1880.0</ele><time>2026-04-05T21:08:47Z</time></trkpt><trkpt lat="36.877572017607555" lon="-108.10338636979418"><ele>1880.0</ele><time>2026-04-05T21:08:48Z</time></trkpt><trkpt lat="36.87749582200724" lon="-108.10345268654038"><ele>1878.4999999999998</ele><time>2026-04-05T21:08:49Z</time></trkpt><trkpt lat="36.877423915585425" lon="-108.10351611086462"><ele>1877.0</ele><time>2026-04-05T21:08:50Z</time></trkpt><trkpt lat="36.87735834652233" lon="-108.10357394137236"><ele>1875.5</ele><time>2026-04-05T21:08:51Z</time></trkpt><trkpt lat="36.87729036970488" lon="-108.10363389547207"><ele>1874.0</ele><time>2026-04-05T21:08:52Z</time></trkpt><trkpt lat="36.87721372213157" lon="-108.10370149708866"><ele>1872.4999999999998</ele><time>2026-04-05T21:08:53Z</time></trkpt><trkpt lat="36.87714094562149" lon="-108.10376568445207"><ele>1871.0</ele><time>2026-04-05T21:08:54Z</time></trkpt><trkpt lat="36.87708133544355" lon="-108.10381825939542"><ele>1870.9999999999998</ele><time>2026-04-05T21:08:55Z</time></trkpt><trkpt lat="36.87702793614116" lon="-108.1038653562501"><ele>1871.0</ele><time>2026-04-05T21:08:56Z</time></trkpt><trkpt lat="36.87695270839946" lon="-108.10393170563032"><ele>1871.0</ele><time>2026-04-05T21:08:58Z</time></trkpt><trkpt lat="36.87687197032763" lon="-108.10400291494635"><ele>1871.0</ele><time>2026-04-05T21:09:00Z</time></trkpt><trkpt lat="36.876814936292426" lon="-108.10405333146616"><ele>1870.9999999999998</ele><time>2026-04-05T21:09:02Z</time></trkpt><trkpt lat="36.87675908661484" lon="-108.10410276371752"><ele>1871.0</ele><time>2026-04-05T21:09:04Z</time></trkpt><trkpt lat="36.87651641843756" lon="-108.1038485397824"><ele>1870.1999999999998</ele><time>2026-04-05T21:09:07Z</time></trkpt><trkpt lat="36.87644815898841" lon="-108.10376303760958"><ele>1869.3999999999999</ele><time>2026-04-05T21:09:08Z</time></trkpt><trkpt lat="36.87639639545888" lon="-108.10366134351062"><ele>1868.6</ele><time>2026-04-05T21:09:09Z</time></trkpt><trkpt lat="36.87635403209662" lon="-108.1035447581727"><ele>1867.8</ele><time>2026-04-05T21:09:10Z</time></trkpt><trkpt lat="36.876307029097354" lon="-108.10343219307828"><ele>1867.0</ele><time>2026-04-05T21:09:11Z</time></trkpt><trkpt lat="36.87626167579034" lon="-108.10329934925085"><ele>1868.0</ele><time>2026-04-05T21:09:12Z</time></trkpt><trkpt lat="36.876213807163644" lon="-108.10315865378577"><ele>1868.9999999999998</ele><time>2026-04-05T21:09:13Z</time></trkpt><trkpt lat="36.87615566616435" lon="-108.10302239543186"><ele>1869.9999999999998</ele><time>2026-04-05T21:09:14Z</time></trkpt><trkpt lat="36.87609376187702" lon="-108.10291758967041"><ele>1871.0</ele><time>2026-04-05T21:09:15Z</time></trkpt><trkpt lat="36.876039421900856" lon="-108.10282199144108"><ele>1872.0</ele><time>2026-04-05T21:09:16Z</time></trkpt><trkpt lat="36.875988481009635" lon="-108.10272827216582"><ele>1872.0</ele><time>2026-04-05T21:09:17Z</time></trkpt><trkpt lat="36.8759398732419" lon="-108.10265327530003"><ele>1872.0</ele><time>2026-04-05T21:09:18Z</time></trkpt><trkpt lat="36.87587809300639" lon="-108.10259230863869"><ele>1872.0</ele><time>2026-04-05T21:09:19Z</time></trkpt><trkpt lat="36.87579862734836" lon="-108.10256163008827"><ele>1872.0</ele><time>2026-04-05T21:09:20Z</time></trkpt><trkpt lat="36.87570199116485" lon="-108.1025859779677"><ele>1872.0</ele><time>2026-04-05T21:09:21Z</time></trkpt><trkpt lat="36.87563572726074" lon="-108.10262537901102"><ele>1872.0</ele><time>2026-04-05T21:09:22Z</time></trkpt><trkpt lat="36.87557289014437" lon="-108.1026585687984"><ele>1871.3999999999999</ele><time>2026-04-05T21:09:24Z</time></trkpt><trkpt lat="36.87543724701049" lon="-108.10271554686081"><ele>1870.7999999999997</ele><time>2026-04-05T21:09:26Z</time></trkpt><trkpt lat="36.87535553964802" lon="-108.10274052076036"><ele>1870.2</ele><time>2026-04-05T21:09:27Z</time></trkpt><trkpt lat="36.87528112278105" lon="-108.10275504658759"><ele>1869.6</ele><time>2026-04-05T21:09:28Z</time></trkpt><trkpt lat="36.87521555566734" lon="-108.10276112549221"><ele>1869.0</ele><time>2026-04-05T21:09:29Z</time></trkpt><trkpt lat="36.87511863737751" lon="-108.10278474477842"><ele>1870.0</ele><time>2026-04-05T21:09:31Z</time></trkpt><trkpt lat="36.875057067713705" lon="-108.10273285015222"><ele>1871.0</ele><time>2026-04-05T21:09:35Z</time></trkpt><trkpt lat="36.87498007364851" lon="-108.10271530902905"><ele>1872.0</ele><time>2026-04-05T21:09:38Z</time></trkpt><trkpt lat="36.87483633337909" lon="-108.10274410519075"><ele>1873.0</ele><time>2026-04-05T21:09:40Z</time></trkpt><trkpt lat="36.87472688307876" lon="-108.10280232898954"><ele>1874.0</ele><time>2026-04-05T21:09:42Z</time></trkpt><trkpt lat="36.874628663482945" lon="-108.10291806595669"><ele>1874.0</ele><time>2026-04-05T21:09:44Z</time></trkpt><trkpt lat="36.87457822153621" lon="-108.10305248263428"><ele>1874.0</ele><time>2026-04-05T21:09:45Z</time></trkpt><trkpt lat="36.87453914141916" lon="-108.10316363673192"><ele>1874.0</ele><time>2026-04-05T21:09:46Z</time></trkpt><trkpt lat="36.87450025529703" lon="-108.10323580642364"><ele>1874.0</ele><time>2026-04-05T21:09:47Z</time></trkpt><trkpt lat="36.87446933482995" lon="-108.10334321357313"><ele>1874.0</ele><time>2026-04-05T21:09:48Z</time></trkpt><trkpt lat="36.87440709537962" lon="-108.10344241985503"><ele>1873.9999999999998</ele><time>2026-04-05T21:09:49Z</time></trkpt><trkpt lat="36.874343960741065" lon="-108.10351676513632"><ele>1874.0</ele><time>2026-04-05T21:09:50Z</time></trkpt><trkpt lat="36.87428125994886" lon="-108.10357885691003"><ele>1874.0</ele><time>2026-04-05T21:09:51Z</time></trkpt><trkpt lat="36.87421691358418" lon="-108.10364283407183"><ele>1874.0</ele><time>2026-04-05T21:09:52Z</time></trkpt><trkpt lat="36.87414973816892" lon="-108.10370465810392"><ele>1873.9999999999998</ele><time>2026-04-05T21:09:53Z</time></trkpt><trkpt lat="36.874071138416305" lon="-108.10377338094466"><ele>1874.0</ele><time>2026-04-05T21:09:54Z</time></trkpt><trkpt lat="36.87396731538906" lon="-108.1038458979556"><ele>1874.5</ele><time>2026-04-05T21:09:55Z</time></trkpt><trkpt lat="36.873868296935726" lon="-108.10391305360602"><ele>1875.0</ele><time>2026-04-05T21:09:56Z</time></trkpt><trkpt lat="36.873771333171604" lon="-108.1040052998807"><ele>1875.5</ele><time>2026-04-05T21:09:57Z</time></trkpt><trkpt lat="36.873644611973766" lon="-108.10410407626685"><ele>1876.0</ele><time>2026-04-05T21:09:58Z</time></trkpt><trkpt lat="36.87354918269116" lon="-108.10411843625924"><ele>1876.8</ele><time>2026-04-05T21:09:59Z</time></trkpt><trkpt lat="36.87345503798534" lon="-108.10407041932243"><ele>1877.6</ele><time>2026-04-05T21:10:01Z</time></trkpt><trkpt lat="36.87348889563141" lon="-108.10393775990148"><ele>1878.4</ele><time>2026-04-05T21:10:02Z</time></trkpt><trkpt lat="36.87349229570511" lon="-108.10383262266468"><ele>1879.2</ele><time>2026-04-05T21:10:03Z</time></trkpt><trkpt lat="36.87349404756859" lon="-108.10374650448387"><ele>1880.0</ele><time>2026-04-05T21:10:04Z</time></trkpt><trkpt lat="36.873566010771405" lon="-108.10360366562193"><ele>1880.0</ele><time>2026-04-05T21:10:06Z</time></trkpt><trkpt lat="36.873573603933174" lon="-108.10348751729582"><ele>1880.0</ele><time>2026-04-05T21:10:07Z</time></trkpt><trkpt lat="36.8735486843387" lon="-108.10340780734118"><ele>1880.0</ele><time>2026-04-05T21:10:08Z</time></trkpt><trkpt lat="36.873625507358554" lon="-108.10335958207956"><ele>1880.0</ele><time>2026-04-05T21:10:09Z</time></trkpt><trkpt lat="36.87371343348168" lon="-108.10327991692705"><ele>1880.0</ele><time>2026-04-05T21:10:10Z</time></trkpt><trkpt lat="36.87375556392127" lon="-108.10315086026809"><ele>1880.2</ele><time>2026-04-05T21:10:11Z</time></trkpt><trkpt lat="36.87379651790686" lon="-108.10300078047794"><ele>1880.4</ele><time>2026-04-05T21:10:12Z</time></trkpt><trkpt lat="36.87381720611159" lon="-108.10288260656932"><ele>1880.6</ele><time>2026-04-05T21:10:13Z</time></trkpt><trkpt lat="36.87378370898081" lon="-108.10272986335023"><ele>1880.8</ele><time>2026-04-05T21:10:15Z</time></trkpt><trkpt lat="36.873748218317964" lon="-108.10263581120374"><ele>1881.0</ele><time>2026-04-05T21:10:16Z</time></trkpt><trkpt lat="36.873686808380626" lon="-108.10258194461535"><ele>1881.0</ele><time>2026-04-05T21:10:17Z</time></trkpt><trkpt lat="36.873660547152355" lon="-108.1024552934712"><ele>1881.0</ele><time>2026-04-05T21:10:19Z</time></trkpt><trkpt lat="36.8736011077936" lon="-108.10241624413096"><ele>1881.0</ele><time>2026-04-05T21:10:20Z</time></trkpt><trkpt lat="36.873548717826694" lon="-108.10236196876401"><ele>1881.0</ele><time>2026-04-05T21:10:21Z</time></trkpt><trkpt lat="36.87349516558784" lon="-108.10229396657785"><ele>1881.0</ele><time>2026-04-05T21:10:22Z</time></trkpt><trkpt lat="36.87343979395033" lon="-108.102226010035"><ele>1881.0</ele><time>2026-04-05T21:10:23Z</time></trkpt><trkpt lat="36.873373817547495" lon="-108.10216749030303"><ele>1882.4</ele><time>2026-04-05T21:10:24Z</time></trkpt><trkpt lat="36.873291194831744" lon="-108.1020992414987"><ele>1883.8</ele><time>2026-04-05T21:10:25Z</time></trkpt><trkpt lat="36.8732066671712" lon="-108.10205481044828"><ele>1885.2000000000003</ele><time>2026-04-05T21:10:26Z</time></trkpt><trkpt lat="36.87310911424117" lon="-108.10198941716891"><ele>1886.6000000000001</ele><time>2026-04-05T21:10:27Z</time></trkpt><trkpt lat="36.873030935786566" lon="-108.10191423957114"><ele>1888.0</ele><time>2026-04-05T21:10:28Z</time></trkpt><trkpt lat="36.872968788532" lon="-108.1018558439896"><ele>1888.0</ele><time>2026-04-05T21:10:29Z</time></trkpt><trkpt lat="36.87291998097262" lon="-108.10179429779524"><ele>1888.0000000000002</ele><time>2026-04-05T21:10:30Z</time></trkpt><trkpt lat="36.87289164804289" lon="-108.1017014260541"><ele>1888.0000000000002</ele><time>2026-04-05T21:10:31Z</time></trkpt><trkpt lat="36.87289416402606" lon="-108.10153141132189"><ele>1888.0</ele><time>2026-04-05T21:10:33Z</time></trkpt><trkpt lat="36.87286399827119" lon="-108.10139839344735"><ele>1888.0</ele><time>2026-04-05T21:10:34Z</time></trkpt><trkpt lat="36.872814241566" lon="-108.10126351660806"><ele>1888.0</ele><time>2026-04-05T21:10:35Z</time></trkpt><trkpt lat="36.87277576900252" lon="-108.10112819184349"><ele>1888.0000000000002</ele><time>2026-04-05T21:10:36Z</time></trkpt><trkpt lat="36.872752536790415" lon="-108.10101251926548"><ele>1888.0000000000002</ele><time>2026-04-05T21:10:37Z</time></trkpt><trkpt lat="36.87272687301694" lon="-108.100898537947"><ele>1888.0</ele><time>2026-04-05T21:10:38Z</time></trkpt><trkpt lat="36.872721972710764" lon="-108.1008057761785"><ele>1888.0</ele><time>2026-04-05T21:10:39Z</time></trkpt><trkpt lat="36.87264658842297" lon="-108.10069627492477"><ele>1889.0</ele><time>2026-04-05T21:10:40Z</time></trkpt><trkpt lat="36.87255629957654" lon="-108.10058651524027"><ele>1890.0</ele><time>2026-04-05T21:10:41Z</time></trkpt><trkpt lat="36.87250748941358" lon="-108.10044809541887"><ele>1891.0</ele><time>2026-04-05T21:10:42Z</time></trkpt><trkpt lat="36.8724672923619" lon="-108.10030221126141"><ele>1892.0</ele><time>2026-04-05T21:10:43Z</time></trkpt><trkpt lat="36.87242638372243" lon="-108.10016332501272"><ele>1892.0</ele><time>2026-04-05T21:10:44Z</time></trkpt><trkpt lat="36.872379933272924" lon="-108.10006718719382"><ele>1891.9999999999998</ele><time>2026-04-05T21:10:45Z</time></trkpt><trkpt lat="36.87232324280753" lon="-108.10000898388816"><ele>1891.9999999999998</ele><time>2026-04-05T21:10:46Z</time></trkpt><trkpt lat="36.87222673431956" lon="-108.09999524673893"><ele>1892.0</ele><time>2026-04-05T21:10:47Z</time></trkpt><trkpt lat="36.87212104645608" lon="-108.09996267446975"><ele>1892.0</ele><time>2026-04-05T21:10:48Z</time></trkpt><trkpt lat="36.87205322267152" lon="-108.09989145758938"><ele>1892.0</ele><time>2026-04-05T21:10:49Z</time></trkpt><trkpt lat="36.87200432565196" lon="-108.09979002877928"><ele>1891.9999999999998</ele><time>2026-04-05T21:10:50Z</time></trkpt><trkpt lat="36.87195671253079" lon="-108.09967982913619"><ele>1891.9999999999998</ele><time>2026-04-05T21:10:51Z</time></trkpt><trkpt lat="36.871891355993355" lon="-108.09960365290783"><ele>1892.0</ele><time>2026-04-05T21:10:52Z</time></trkpt><trkpt lat="36.87184878782769" lon="-108.09950388520744"><ele>1892.0</ele><time>2026-04-05T21:10:53Z</time></trkpt><trkpt lat="36.871813448013526" lon="-108.09937919909515"><ele>1893.25</ele><time>2026-04-05T21:10:54Z</time></trkpt><trkpt lat="36.871742297507986" lon="-108.09926766171033"><ele>1894.5</ele><time>2026-04-05T21:10:54.999Z</time></trkpt><trkpt lat="36.87164130191365" lon="-108.0991724354117"><ele>1895.75</ele><time>2026-04-05T21:10:55.999Z</time></trkpt><trkpt lat="36.87153496962871" lon="-108.09909878245959"><ele>1897.0</ele><time>2026-04-05T21:10:56.999Z</time></trkpt><trkpt lat="36.87144807044217" lon="-108.09899080372575"><ele>1897.1999999999998</ele><time>2026-04-05T21:10:57.999Z</time></trkpt><trkpt lat="36.87139112237116" lon="-108.09887106488442"><ele>1897.3999999999999</ele><time>2026-04-05T21:10:58.999Z</time></trkpt><trkpt lat="36.871374906541064" lon="-108.09876421995854"><ele>1897.6000000000001</ele><time>2026-04-05T21:10:59.999Z</time></trkpt><trkpt lat="36.87136957359779" lon="-108.09861942230066"><ele>1897.8000000000002</ele><time>2026-04-05T21:11:00.999Z</time></trkpt><trkpt lat="36.87134002296093" lon="-108.09847880223869"><ele>1898.0</ele><time>2026-04-05T21:11:01.999Z</time></trkpt><trkpt lat="36.871317016712084" lon="-108.09836508063714"><ele>1898.0</ele><time>2026-04-05T21:11:02.999Z</time></trkpt><trkpt lat="36.87129003607369" lon="-108.09828549913473"><ele>1898.0000000000002</ele><time>2026-04-05T21:11:03.999Z</time></trkpt><trkpt lat="36.87122557152793" lon="-108.09818878957691"><ele>1898.0000000000002</ele><time>2026-04-05T21:11:04.999Z</time></trkpt><trkpt lat="36.8711129788582" lon="-108.09811062182024"><ele>1898.0</ele><time>2026-04-05T21:11:05.999Z</time></trkpt><trkpt lat="36.8710317461916" lon="-108.09800078012026"><ele>1898.0</ele><time>2026-04-05T21:11:06.999Z</time></trkpt><trkpt lat="36.87095293779815" lon="-108.0978922954525"><ele>1899.25</ele><time>2026-04-05T21:11:07.999Z</time></trkpt><trkpt lat="36.87085714304662" lon="-108.09778259192966"><ele>1900.5</ele><time>2026-04-05T21:11:08.999Z</time></trkpt><trkpt lat="36.87075492155228" lon="-108.09767719182011"><ele>1901.75</ele><time>2026-04-05T21:11:09.999Z</time></trkpt><trkpt lat="36.87061920285723" lon="-108.09756646102286"><ele>1903.0</ele><time>2026-04-05T21:11:10.999Z</time></trkpt><trkpt lat="36.870482350147164" lon="-108.09743734761001"><ele>1903.2</ele><time>2026-04-05T21:11:11.999Z</time></trkpt><trkpt lat="36.87038567011853" lon="-108.0973431304787"><ele>1903.4</ele><time>2026-04-05T21:11:12.999Z</time></trkpt><trkpt lat="36.87032156756908" lon="-108.09728219739317"><ele>1903.6000000000001</ele><time>2026-04-05T21:11:13.999Z</time></trkpt><trkpt lat="36.87027687297515" lon="-108.09718963225802"><ele>1903.8000000000002</ele><time>2026-04-05T21:11:15.999Z</time></trkpt><trkpt lat="36.87022008147589" lon="-108.09710736100863"><ele>1904.0</ele><time>2026-04-05T21:12:01.999Z</time></trkpt><trkpt lat="36.87010130866431" lon="-108.09710359992148"><ele>1904.4</ele><time>2026-04-05T21:12:03.999Z</time></trkpt><trkpt lat="36.869985328904605" lon="-108.09704112365279"><ele>1904.8000000000002</ele><time>2026-04-05T21:12:05.999Z</time></trkpt><trkpt lat="36.86992562182119" lon="-108.09698974749918"><ele>1905.1999999999998</ele><time>2026-04-05T21:12:06.999Z</time></trkpt><trkpt lat="36.869832890942" lon="-108.09698778520388"><ele>1905.6</ele><time>2026-04-05T21:12:07.999Z</time></trkpt><trkpt lat="36.869727923345785" lon="-108.09697616937196"><ele>1906.0</ele><time>2026-04-05T21:12:08.999Z</time></trkpt><trkpt lat="36.869625277621175" lon="-108.09693138405392"><ele>1906.0</ele><time>2026-04-05T21:12:09.999Z</time></trkpt><trkpt lat="36.86952516194967" lon="-108.09684264344034"><ele>1906.0</ele><time>2026-04-05T21:12:10.999Z</time></trkpt><trkpt lat="36.869419992815956" lon="-108.09679672284369"><ele>1906.0</ele><time>2026-04-05T21:12:11.999Z</time></trkpt><trkpt lat="36.86933838948174" lon="-108.0967557118053"><ele>1906.0</ele><time>2026-04-05T21:12:12.999Z</time></trkpt><trkpt lat="36.86925948368687" lon="-108.09673821582128"><ele>1906.0</ele><time>2026-04-05T21:12:13.999Z</time></trkpt><trkpt lat="36.86918121049635" lon="-108.09672139469814"><ele>1906.5000000000002</ele><time>2026-04-05T21:12:14.999Z</time></trkpt><trkpt lat="36.869099723632836" lon="-108.09671955405474"><ele>1907.0</ele><time>2026-04-05T21:12:15.999Z</time></trkpt><trkpt lat="36.86900747939644" lon="-108.09674935074666"><ele>1907.5</ele><time>2026-04-05T21:12:16.999Z</time></trkpt><trkpt lat="36.86892509170251" lon="-108.09682876401942"><ele>1908.0</ele><time>2026-04-05T21:12:17.999Z</time></trkpt><trkpt lat="36.8688701809829" lon="-108.09691170747169"><ele>1908.5000000000002</ele><time>2026-04-05T21:12:18.999Z</time></trkpt><trkpt lat="36.86880693418623" lon="-108.09697105832613"><ele>1909.0</ele><time>2026-04-05T21:12:20.999Z</time></trkpt><trkpt lat="36.86861786649203" lon="-108.0967946590577"><ele>1909.0</ele><time>2026-04-05T21:12:21.999Z</time></trkpt><trkpt lat="36.86852835128565" lon="-108.09667629395584"><ele>1909.0</ele><time>2026-04-05T21:12:22.999Z</time></trkpt><trkpt lat="36.86844470202113" lon="-108.09654049793433"><ele>1909.0</ele><time>2026-04-05T21:12:23.999Z</time></trkpt><trkpt lat="36.86836546500473" lon="-108.09642116593875"><ele>1909.0</ele><time>2026-04-05T21:12:24.999Z</time></trkpt><trkpt lat="36.868262300384906" lon="-108.09633869970874"><ele>1907.0</ele><time>2026-04-05T21:12:25.999Z</time></trkpt><trkpt lat="36.86816366790015" lon="-108.09626160897979"><ele>1905.0</ele><time>2026-04-05T21:12:26.999Z</time></trkpt><trkpt lat="36.86807620202894" lon="-108.09616536719705"><ele>1903.0</ele><time>2026-04-05T21:12:27.999Z</time></trkpt><trkpt lat="36.86798517298167" lon="-108.09607154808859"><ele>1901.0</ele><time>2026-04-05T21:12:28.999Z</time></trkpt><trkpt lat="36.86792291523336" lon="-108.09597319562413"><ele>1901.0</ele><time>2026-04-05T21:12:29.999Z</time></trkpt><trkpt lat="36.86786339196672" lon="-108.09585303040772"><ele>1901.0</ele><time>2026-04-05T21:12:30.999Z</time></trkpt><trkpt lat="36.867788446985244" lon="-108.09575676834761"><ele>1901.0</ele><time>2026-04-05T21:12:31.999Z</time></trkpt><trkpt lat="36.86770906072298" lon="-108.09563213860096"><ele>1901.0</ele><time>2026-04-05T21:12:32.999Z</time></trkpt><trkpt lat="36.86764505119438" lon="-108.09553798239216"><ele>1901.0</ele><time>2026-04-05T21:12:33.999Z</time></trkpt><trkpt lat="36.8675728787683" lon="-108.09546014419352"><ele>1899.25</ele><time>2026-04-05T21:12:34.999Z</time></trkpt><trkpt lat="36.867485695323616" lon="-108.09534896714526"><ele>1897.5</ele><time>2026-04-05T21:12:35.999Z</time></trkpt><trkpt lat="36.86740287454815" lon="-108.09524764079443"><ele>1895.75</ele><time>2026-04-05T21:12:36.999Z</time></trkpt><trkpt lat="36.8673084269498" lon="-108.09520512072572"><ele>1894.0</ele><time>2026-04-05T21:12:37.999Z</time></trkpt><trkpt lat="36.86719216511744" lon="-108.0951985118726"><ele>1894.0</ele><time>2026-04-05T21:12:38.999Z</time></trkpt><trkpt lat="36.867087277570924" lon="-108.0951847474295"><ele>1894.0</ele><time>2026-04-05T21:12:39.999Z</time></trkpt><trkpt lat="36.86698847792906" lon="-108.09513929567882"><ele>1894.0</ele><time>2026-04-05T21:12:40.999Z</time></trkpt><trkpt lat="36.86694427270787" lon="-108.09506140239105"><ele>1894.0</ele><time>2026-04-05T21:12:41.999Z</time></trkpt><trkpt lat="36.86688799537015" lon="-108.09495677376334"><ele>1894.0</ele><time>2026-04-05T21:12:42.999Z</time></trkpt><trkpt lat="36.86684110161403" lon="-108.09481945151214"><ele>1893.2</ele><time>2026-04-05T21:12:43.999Z</time></trkpt><trkpt lat="36.8667819338963" lon="-108.09468738433955"><ele>1892.4</ele><time>2026-04-05T21:12:44.999Z</time></trkpt><trkpt lat="36.866749716997084" lon="-108.09457122922737"><ele>1891.6</ele><time>2026-04-05T21:12:45.999Z</time></trkpt><trkpt lat="36.866716806836195" lon="-108.09450226503313"><ele>1890.8</ele><time>2026-04-05T21:12:46.999Z</time></trkpt><trkpt lat="36.86661194809241" lon="-108.09444027027317"><ele>1890.0</ele><time>2026-04-05T21:12:48.999Z</time></trkpt><trkpt lat="36.86652763492875" lon="-108.0944244720016"><ele>1889.75</ele><time>2026-04-05T21:12:50.999Z</time></trkpt><trkpt lat="36.86643915321627" lon="-108.09449459074555"><ele>1889.5</ele><time>2026-04-05T21:12:52.999Z</time></trkpt><trkpt lat="36.866374020621734" lon="-108.09451055430077"><ele>1889.25</ele><time>2026-04-05T21:12:56.999Z</time></trkpt><trkpt lat="36.866300746048125" lon="-108.09456001350104"><ele>1889.0</ele><time>2026-04-05T21:13:00.999Z</time></trkpt><trkpt lat="36.866033625533596" lon="-108.09444961904644"><ele>1888.2</ele><time>2026-04-05T21:13:03.999Z</time></trkpt><trkpt lat="36.865941643599065" lon="-108.09444469274874"><ele>1887.4</ele><time>2026-04-05T21:13:04.999Z</time></trkpt><trkpt lat="36.86583796875092" lon="-108.0944644224929"><ele>1886.6</ele><time>2026-04-05T21:13:05.999Z</time></trkpt><trkpt lat="36.86573102907143" lon="-108.09449199497675"><ele>1885.8</ele><time>2026-04-05T21:13:06.999Z</time></trkpt><trkpt lat="36.865617647524054" lon="-108.0945072098103"><ele>1885.0</ele><time>2026-04-05T21:13:07.999Z</time></trkpt><trkpt lat="36.86550693015665" lon="-108.09449739460054"><ele>1885.0</ele><time>2026-04-05T21:13:08.999Z</time></trkpt><trkpt lat="36.8654165530071" lon="-108.0944970461477"><ele>1885.0</ele><time>2026-04-05T21:13:09.999Z</time></trkpt><trkpt lat="36.86532739015876" lon="-108.09451653554747"><ele>1885.0</ele><time>2026-04-05T21:13:10.999Z</time></trkpt><trkpt lat="36.86524293289107" lon="-108.09456395645701"><ele>1885.0</ele><time>2026-04-05T21:13:11.999Z</time></trkpt><trkpt lat="36.86518758268479" lon="-108.0946083988089"><ele>1885.0</ele><time>2026-04-05T21:13:12.999Z</time></trkpt><trkpt lat="36.86508947588573" lon="-108.09467262333237"><ele>1884.0000000000002</ele><time>2026-04-05T21:13:14.999Z</time></trkpt><trkpt lat="36.864999246315286" lon="-108.09469096264824"><ele>1883.0</ele><time>2026-04-05T21:13:15.999Z</time></trkpt><trkpt lat="36.86490133452936" lon="-108.09470900548008"><ele>1882.0</ele><time>2026-04-05T21:13:16.999Z</time></trkpt><trkpt lat="36.864833797056086" lon="-108.0947361995254"><ele>1881.0</ele><time>2026-04-05T21:13:17.999Z</time></trkpt><trkpt lat="36.864767541823234" lon="-108.09473854131788"><ele>1880.0000000000002</ele><time>2026-04-05T21:13:18.999Z</time></trkpt><trkpt lat="36.864695004448045" lon="-108.09467426102451"><ele>1879.0</ele><time>2026-04-05T21:13:19.999Z</time></trkpt><trkpt lat="36.864637622034344" lon="-108.09456846665849"><ele>1879.0</ele><time>2026-04-05T21:13:20.999Z</time></trkpt><trkpt lat="36.86458303106428" lon="-108.09446510192473"><ele>1879.0</ele><time>2026-04-05T21:13:21.999Z</time></trkpt><trkpt lat="36.86451445121421" lon="-108.0943841079557"><ele>1879.0</ele><time>2026-04-05T21:13:22.999Z</time></trkpt><trkpt lat="36.86445519462977" lon="-108.09430456641152"><ele>1879.0</ele><time>2026-04-05T21:13:23.999Z</time></trkpt><trkpt lat="36.864385036786494" lon="-108.09426005070485"><ele>1879.0</ele><time>2026-04-05T21:13:24.999Z</time></trkpt><trkpt lat="36.86429018311384" lon="-108.09428314108948"><ele>1878.6666666666667</ele><time>2026-04-05T21:13:26Z</time></trkpt><trkpt lat="36.86419278674014" lon="-108.09431633681535"><ele>1878.3333333333335</ele><time>2026-04-05T21:13:27Z</time></trkpt><trkpt lat="36.864115675058635" lon="-108.09433882719607"><ele>1878.0</ele><time>2026-04-05T21:13:28Z</time></trkpt><trkpt lat="36.86405421483395" lon="-108.09438921934321"><ele>1877.6666666666665</ele><time>2026-04-05T21:13:29Z</time></trkpt><trkpt lat="36.86399927907394" lon="-108.09446374514745"><ele>1877.3333333333333</ele><time>2026-04-05T21:13:30Z</time></trkpt><trkpt lat="36.863946202819776" lon="-108.09454656450652"><ele>1877.0</ele><time>2026-04-05T21:13:31Z</time></trkpt><trkpt lat="36.86390259533911" lon="-108.09464663776131"><ele>1877.0</ele><time>2026-04-05T21:13:32Z</time></trkpt><trkpt lat="36.86386374873162" lon="-108.09474218143403"><ele>1876.9999999999998</ele><time>2026-04-05T21:13:33Z</time></trkpt><trkpt lat="36.86377565532173" lon="-108.0947603292394"><ele>1876.9999999999998</ele><time>2026-04-05T21:13:35Z</time></trkpt><trkpt lat="36.863681281812916" lon="-108.09481522595107"><ele>1877.0</ele><time>2026-04-05T21:13:38Z</time></trkpt><trkpt lat="36.86358416609479" lon="-108.09480668969942"><ele>1877.0</ele><time>2026-04-05T21:13:40Z</time></trkpt><trkpt lat="36.863503854685284" lon="-108.0947876270805"><ele>1876.8</ele><time>2026-04-05T21:13:41Z</time></trkpt><trkpt lat="36.86341389491201" lon="-108.09476199244048"><ele>1876.6</ele><time>2026-04-05T21:13:42Z</time></trkpt><trkpt lat="36.86333394132962" lon="-108.09472367330883"><ele>1876.3999999999999</ele><time>2026-04-05T21:13:43Z</time></trkpt><trkpt lat="36.86319315760419" lon="-108.09478814753787"><ele>1876.1999999999998</ele><time>2026-04-05T21:13:45Z</time></trkpt><trkpt lat="36.863114112588505" lon="-108.09482817963759"><ele>1876.0</ele><time>2026-04-05T21:13:46Z</time></trkpt><trkpt lat="36.86302914175984" lon="-108.09481803352446"><ele>1876.0</ele><time>2026-04-05T21:13:48Z</time></trkpt><trkpt lat="36.86293611364637" lon="-108.0948048312272"><ele>1876.0</ele><time>2026-04-05T21:13:50Z</time></trkpt><trkpt lat="36.862808448029476" lon="-108.09488473309945"><ele>1876.0</ele><time>2026-04-05T21:13:52Z</time></trkpt><trkpt lat="36.862748819211774" lon="-108.09496884697589"><ele>1876.0</ele><time>2026-04-05T21:13:53Z</time></trkpt><trkpt lat="36.86271960927707" lon="-108.09504251801089"><ele>1876.0</ele><time>2026-04-05T21:13:54Z</time></trkpt><trkpt lat="36.86261114343569" lon="-108.09513354283371"><ele>1876.3333333333335</ele><time>2026-04-05T21:13:56Z</time></trkpt><trkpt lat="36.86256324840485" lon="-108.09520295999504"><ele>1876.6666666666667</ele><time>2026-04-05T21:13:57Z</time></trkpt><trkpt lat="36.86250883434949" lon="-108.09527726794873"><ele>1877.0</ele><time>2026-04-05T21:13:58Z</time></trkpt><trkpt lat="36.86244479059118" lon="-108.09533678428464"><ele>1877.3333333333335</ele><time>2026-04-05T21:13:59Z</time></trkpt><trkpt lat="36.86234567020556" lon="-108.0953619678632"><ele>1877.6666666666667</ele><time>2026-04-05T21:14:00Z</time></trkpt><trkpt lat="36.862240554862616" lon="-108.09536402422957"><ele>1878.0</ele><time>2026-04-05T21:14:01Z</time></trkpt><trkpt lat="36.86215333678112" lon="-108.09536365730092"><ele>1878.0</ele><time>2026-04-05T21:14:02Z</time></trkpt><trkpt lat="36.862089223181954" lon="-108.09534010232534"><ele>1878.0000000000002</ele><time>2026-04-05T21:14:02.999Z</time></trkpt><trkpt lat="36.862005847001825" lon="-108.09527375756745"><ele>1878.0000000000002</ele><time>2026-04-05T21:14:03.999Z</time></trkpt><trkpt lat="36.86190679325227" lon="-108.09522676776791"><ele>1878.0</ele><time>2026-04-05T21:14:04.999Z</time></trkpt><trkpt lat="36.86181854692231" lon="-108.09519195314478"><ele>1878.0</ele><time>2026-04-05T21:14:05.999Z</time></trkpt><trkpt lat="36.861721263122135" lon="-108.09513265182271"><ele>1878.0</ele><time>2026-04-05T21:14:07.999Z</time></trkpt><trkpt lat="36.86164080346268" lon="-108.09510815843376"><ele>1878.0</ele><time>2026-04-05T21:14:08.999Z</time></trkpt><trkpt lat="36.861546829236445" lon="-108.0950977116877"><ele>1878.0</ele><time>2026-04-05T21:14:09.999Z</time></trkpt><trkpt lat="36.86147636048195" lon="-108.09506214395627"><ele>1878.0</ele><time>2026-04-05T21:14:10.999Z</time></trkpt><trkpt lat="36.86141193415493" lon="-108.09500593037198"><ele>1878.0</ele><time>2026-04-05T21:14:11.999Z</time></trkpt><trkpt lat="36.86133518907348" lon="-108.09500442140089"><ele>1878.0</ele><time>2026-04-05T21:14:12.999Z</time></trkpt><trkpt lat="36.86125306229231" lon="-108.09503736571138"><ele>1878.0</ele><time>2026-04-05T21:14:13.999Z</time></trkpt><trkpt lat="36.86113738430008" lon="-108.09500428879126"><ele>1878.0000000000002</ele><time>2026-04-05T21:14:15.999Z</time></trkpt><trkpt lat="36.86105064590683" lon="-108.09500081680359"><ele>1878.0000000000002</ele><time>2026-04-05T21:14:16.999Z</time></trkpt><trkpt lat="36.86095895827395" lon="-108.09499508045687"><ele>1878.0</ele><time>2026-04-05T21:14:17.999Z</time></trkpt><trkpt lat="36.860876661361424" lon="-108.09496110702965"><ele>1878.0</ele><time>2026-04-05T21:14:18.999Z</time></trkpt><trkpt lat="36.86080043341189" lon="-108.09492195159704"><ele>1876.6666666666667</ele><time>2026-04-05T21:14:19.999Z</time></trkpt><trkpt lat="36.860726696151765" lon="-108.09489000684081"><ele>1875.3333333333335</ele><time>2026-04-05T21:14:20.999Z</time></trkpt><trkpt lat="36.86065905388722" lon="-108.09484130633773"><ele>1874.0</ele><time>2026-04-05T21:14:21.999Z</time></trkpt><trkpt lat="36.860590739674166" lon="-108.09480618365208"><ele>1872.6666666666667</ele><time>2026-04-05T21:14:22.999Z</time></trkpt><trkpt lat="36.86051584800562" lon="-108.09481634186089"><ele>1871.3333333333335</ele><time>2026-04-05T21:14:23.999Z</time></trkpt><trkpt lat="36.860432010005496" lon="-108.0946917736493"><ele>1870.0</ele><time>2026-04-05T21:14:25.999Z</time></trkpt><trkpt lat="36.860336589652555" lon="-108.09464507057832"><ele>1870.0000000000002</ele><time>2026-04-05T21:14:28.999Z</time></trkpt><trkpt lat="36.86027305544896" lon="-108.09468096782072"><ele>1870.0</ele><time>2026-04-05T21:14:29.999Z</time></trkpt><trkpt lat="36.86019064825421" lon="-108.09468549164671"><ele>1870.0</ele><time>2026-04-05T21:14:30.999Z</time></trkpt><trkpt lat="36.86010529550078" lon="-108.09465304917202"><ele>1870.0</ele><time>2026-04-05T21:14:31.999Z</time></trkpt><trkpt lat="36.86003371171028" lon="-108.09466367682644"><ele>1870.0000000000002</ele><time>2026-04-05T21:14:32.999Z</time></trkpt><trkpt lat="36.85996850377322" lon="-108.09467177810168"><ele>1870.0</ele><time>2026-04-05T21:14:33.999Z</time></trkpt><trkpt lat="36.85986257183437" lon="-108.09477578468642"><ele>1869.0</ele><time>2026-04-05T21:14:35.999Z</time></trkpt><trkpt lat="36.859760304119376" lon="-108.09480738494491"><ele>1868.0</ele><time>2026-04-05T21:14:37.999Z</time></trkpt><trkpt lat="36.859682231033304" lon="-108.09479065928274"><ele>1867.0</ele><time>2026-04-05T21:14:38.999Z</time></trkpt><trkpt lat="36.85960141901372" lon="-108.09477696416542"><ele>1866.0</ele><time>2026-04-05T21:14:39.999Z</time></trkpt><trkpt lat="36.859511854920186" lon="-108.0948137728599"><ele>1865.0</ele><time>2026-04-05T21:14:40.999Z</time></trkpt><trkpt lat="36.85942313894846" lon="-108.09483917436548"><ele>1864.9999999999998</ele><time>2026-04-05T21:14:41.999Z</time></trkpt><trkpt lat="36.85935611174845" lon="-108.09485136849757"><ele>1865.0</ele><time>2026-04-05T21:14:42.999Z</time></trkpt><trkpt lat="36.85927150760264" lon="-108.09484947362103"><ele>1865.0</ele><time>2026-04-05T21:14:43.999Z</time></trkpt><trkpt lat="36.85919029216177" lon="-108.09490237690616"><ele>1865.0</ele><time>2026-04-05T21:14:44.999Z</time></trkpt><trkpt lat="36.859103896503065" lon="-108.09494292241469"><ele>1864.9999999999998</ele><time>2026-04-05T21:14:45.999Z</time></trkpt><trkpt lat="36.85902605245625" lon="-108.09497896089215"><ele>1865.0</ele><time>2026-04-05T21:14:46.999Z</time></trkpt><trkpt lat="36.85893997288988" lon="-108.0950215691372"><ele>1865.9999999999998</ele><time>2026-04-05T21:14:47.999Z</time></trkpt><trkpt lat="36.858867818945775" lon="-108.09509282232678"><ele>1867.0</ele><time>2026-04-05T21:14:48.999Z</time></trkpt><trkpt lat="36.85880167486072" lon="-108.09514719639607"><ele>1868.0</ele><time>2026-04-05T21:14:49.999Z</time></trkpt><trkpt lat="36.85871040186891" lon="-108.0952045007817"><ele>1869.0</ele><time>2026-04-05T21:14:51.999Z</time></trkpt><trkpt lat="36.85862142750509" lon="-108.09525822717687"><ele>1869.9999999999998</ele><time>2026-04-05T21:14:53.999Z</time></trkpt><trkpt lat="36.85856895416145" lon="-108.095310571113"><ele>1871.0</ele><time>2026-04-05T21:14:54.999Z</time></trkpt><trkpt lat="36.85849691134009" lon="-108.09538128496844"><ele>1871.3333333333333</ele><time>2026-04-05T21:14:55.999Z</time></trkpt><trkpt lat="36.85842316919714" lon="-108.0954528652644"><ele>1871.6666666666665</ele><time>2026-04-05T21:14:56.999Z</time></trkpt><trkpt lat="36.858352386386265" lon="-108.09553512961617"><ele>1872.0</ele><time>2026-04-05T21:14:57.999Z</time></trkpt><trkpt lat="36.85829479808702" lon="-108.09560464825938"><ele>1872.3333333333335</ele><time>2026-04-05T21:14:58.999Z</time></trkpt><trkpt lat="36.85822542618712" lon="-108.09565880950474"><ele>1872.6666666666667</ele><time>2026-04-05T21:14:59.999Z</time></trkpt><trkpt lat="36.85816097904722" lon="-108.0956941380396"><ele>1873.0</ele><time>2026-04-05T21:15:00.999Z</time></trkpt><trkpt lat="36.85807399783843" lon="-108.09570550810696"><ele>1873.0000000000002</ele><time>2026-04-05T21:15:01.999Z</time></trkpt><trkpt lat="36.857966115651514" lon="-108.0957347216925"><ele>1873.0</ele><time>2026-04-05T21:15:02.999Z</time></trkpt><trkpt lat="36.857895370110164" lon="-108.09578473519288"><ele>1873.0</ele><time>2026-04-05T21:15:03.999Z</time></trkpt><trkpt lat="36.857842052818654" lon="-108.09583450605656"><ele>1873.0</ele><time>2026-04-05T21:15:04.999Z</time></trkpt><trkpt lat="36.85777347265562" lon="-108.09590686585514"><ele>1873.0000000000002</ele><time>2026-04-05T21:15:05.999Z</time></trkpt><trkpt lat="36.857687258222946" lon="-108.0959588779722"><ele>1873.0</ele><time>2026-04-05T21:15:06.999Z</time></trkpt><trkpt lat="36.85759399858535" lon="-108.09596943200384"><ele>1874.1666666666667</ele><time>2026-04-05T21:15:07.999Z</time></trkpt><trkpt lat="36.85751505530831" lon="-108.09594367542803"><ele>1875.3333333333335</ele><time>2026-04-05T21:15:08.999Z</time></trkpt><trkpt lat="36.85744709372117" lon="-108.09593520267809"><ele>1876.5</ele><time>2026-04-05T21:15:09.999Z</time></trkpt><trkpt lat="36.85737821186296" lon="-108.09590775895153"><ele>1877.6666666666665</ele><time>2026-04-05T21:15:10.999Z</time></trkpt><trkpt lat="36.85731458209622" lon="-108.0959445346005"><ele>1878.8333333333333</ele><time>2026-04-05T21:15:11.999Z</time></trkpt><trkpt lat="36.85722724251262" lon="-108.09596929085113"><ele>1880.0</ele><time>2026-04-05T21:15:12.999Z</time></trkpt><trkpt lat="36.85710818807618" lon="-108.0959886303922"><ele>1879.9999999999998</ele><time>2026-04-05T21:15:14.999Z</time></trkpt><trkpt lat="36.857033103701234" lon="-108.09602393775587"><ele>1880.0</ele><time>2026-04-05T21:15:15.999Z</time></trkpt><trkpt lat="36.856958450860326" lon="-108.09603096376276"><ele>1880.0</ele><time>2026-04-05T21:15:16.999Z</time></trkpt><trkpt lat="36.856883980347725" lon="-108.09603285794695"><ele>1880.0</ele><time>2026-04-05T21:15:17.999Z</time></trkpt><trkpt lat="36.85679539350243" lon="-108.09603389233861"><ele>1879.9999999999998</ele><time>2026-04-05T21:15:18.999Z</time></trkpt><trkpt lat="36.85671791841913" lon="-108.09606799537555"><ele>1880.0</ele><time>2026-04-05T21:15:19.999Z</time></trkpt><trkpt lat="36.85665093431188" lon="-108.09608337207675"><ele>1879.2</ele><time>2026-04-05T21:15:20.999Z</time></trkpt><trkpt lat="36.85657694921859" lon="-108.09609969279684"><ele>1878.4</ele><time>2026-04-05T21:15:21.999Z</time></trkpt><trkpt lat="36.856492830251554" lon="-108.09613979637324"><ele>1877.6</ele><time>2026-04-05T21:15:22.999Z</time></trkpt><trkpt lat="36.85636038262206" lon="-108.09615037371957"><ele>1876.8</ele><time>2026-04-05T21:15:24.999Z</time></trkpt><trkpt lat="36.856266816891676" lon="-108.0960693085859"><ele>1876.0</ele><time>2026-04-05T21:15:26.999Z</time></trkpt><trkpt lat="36.856258445109205" lon="-108.09595462977205"><ele>1876.0000000000002</ele><time>2026-04-05T21:15:27.999Z</time></trkpt><trkpt lat="36.85626977927172" lon="-108.09585380655217"><ele>1876.0</ele><time>2026-04-05T21:15:28.999Z</time></trkpt><trkpt lat="36.85626389748323" lon="-108.09576678446024"><ele>1876.0</ele><time>2026-04-05T21:15:29.999Z</time></trkpt><trkpt lat="36.8562164131368" lon="-108.0956804790095"><ele>1876.0</ele><time>2026-04-05T21:15:30.999Z</time></trkpt><trkpt lat="36.856161455061056" lon="-108.09558665872446"><ele>1876.0000000000002</ele><time>2026-04-05T21:15:32Z</time></trkpt><trkpt lat="36.85610367079262" lon="-108.0955102460378"><ele>1876.0</ele><time>2026-04-05T21:15:33Z</time></trkpt><trkpt lat="36.85601821401286" lon="-108.0954547084325"><ele>1874.1999999999998</ele><time>2026-04-05T21:15:34Z</time></trkpt><trkpt lat="36.855921870880636" lon="-108.09539379695546"><ele>1872.3999999999999</ele><time>2026-04-05T21:15:35Z</time></trkpt><trkpt lat="36.85585740601167" lon="-108.09530288900058"><ele>1870.6</ele><time>2026-04-05T21:15:36Z</time></trkpt><trkpt lat="36.85581374281641" lon="-108.09524363366474"><ele>1868.8</ele><time>2026-04-05T21:15:37Z</time></trkpt><trkpt lat="36.85571179920488" lon="-108.09514695371918"><ele>1867.0</ele><time>2026-04-05T21:15:39Z</time></trkpt><trkpt lat="36.855626518302365" lon="-108.09509960083649"><ele>1867.0</ele><time>2026-04-05T21:15:40Z</time></trkpt><trkpt lat="36.85552900912514" lon="-108.09504516019285"><ele>1866.9999999999998</ele><time>2026-04-05T21:15:41Z</time></trkpt><trkpt lat="36.855456179583285" lon="-108.0950042785947"><ele>1866.9999999999998</ele><time>2026-04-05T21:15:42Z</time></trkpt><trkpt lat="36.85539514669964" lon="-108.09498338709574"><ele>1867.0</ele><time>2026-04-05T21:15:43Z</time></trkpt><trkpt lat="36.85527475583317" lon="-108.09488807597803"><ele>1867.0</ele><time>2026-04-05T21:15:45Z</time></trkpt><trkpt lat="36.85523162332129" lon="-108.09481537630268"><ele>1865.8</ele><time>2026-04-05T21:15:46Z</time></trkpt><trkpt lat="36.85510355216854" lon="-108.09484829075976"><ele>1864.6</ele><time>2026-04-05T21:15:48Z</time></trkpt><trkpt lat="36.855014281300235" lon="-108.09490732011683"><ele>1863.3999999999999</ele><time>2026-04-05T21:15:49Z</time></trkpt><trkpt lat="36.85495060257707" lon="-108.09495455614207"><ele>1862.1999999999998</ele><time>2026-04-05T21:15:50Z</time></trkpt><trkpt lat="36.85482550415139" lon="-108.0949241650314"><ele>1861.0</ele><time>2026-04-05T21:15:52Z</time></trkpt><trkpt lat="36.85474360566654" lon="-108.0949298045912"><ele>1861.0000000000002</ele><time>2026-04-05T21:15:53Z</time></trkpt><trkpt lat="36.8546718054017" lon="-108.09494102741024"><ele>1861.0</ele><time>2026-04-05T21:15:54Z</time></trkpt><trkpt lat="36.85460293695589" lon="-108.09495163491367"><ele>1861.0</ele><time>2026-04-05T21:15:55Z</time></trkpt><trkpt lat="36.85455223608705" lon="-108.09479375033067"><ele>1861.0</ele><time>2026-04-05T21:15:57Z</time></trkpt><trkpt lat="36.85449897751653" lon="-108.09473526818422"><ele>1861.0000000000002</ele><time>2026-04-05T21:15:58Z</time></trkpt><trkpt lat="36.854418653840696" lon="-108.09475887329859"><ele>1861.0</ele><time>2026-04-05T21:15:59Z</time></trkpt><trkpt lat="36.8543235216327" lon="-108.09476952616787"><ele>1859.8</ele><time>2026-04-05T21:16:00Z</time></trkpt><trkpt lat="36.85425160228222" lon="-108.09478979464082"><ele>1858.6</ele><time>2026-04-05T21:16:01Z</time></trkpt><trkpt lat="36.854161099392385" lon="-108.09480808188927"><ele>1857.4</ele><time>2026-04-05T21:16:02Z</time></trkpt><trkpt lat="36.85408409559218" lon="-108.09486282237792"><ele>1856.2</ele><time>2026-04-05T21:16:03Z</time></trkpt><trkpt lat="36.85399141020876" lon="-108.09493368737238"><ele>1855.0</ele><time>2026-04-05T21:16:04Z</time></trkpt><trkpt lat="36.853903276324985" lon="-108.09498898039317"><ele>1854.6</ele><time>2026-04-05T21:16:05Z</time></trkpt><trkpt lat="36.853808044483245" lon="-108.09500989454173"><ele>1854.2</ele><time>2026-04-05T21:16:06Z</time></trkpt><trkpt lat="36.85372733080518" lon="-108.09502242139094"><ele>1853.8000000000002</ele><time>2026-04-05T21:16:07Z</time></trkpt><trkpt lat="36.853656225463816" lon="-108.09506984281332"><ele>1853.4</ele><time>2026-04-05T21:16:08Z</time></trkpt><trkpt lat="36.85356142826088" lon="-108.09516168118373"><ele>1853.0</ele><time>2026-04-05T21:16:09Z</time></trkpt><trkpt lat="36.85349271026359" lon="-108.09522507329538"><ele>1851.8333333333333</ele><time>2026-04-05T21:16:10Z</time></trkpt><trkpt lat="36.85343278386147" lon="-108.09530731742267"><ele>1850.6666666666665</ele><time>2026-04-05T21:16:11Z</time></trkpt><trkpt lat="36.85338307692036" lon="-108.09536002551442"><ele>1849.5</ele><time>2026-04-05T21:16:12Z</time></trkpt><trkpt lat="36.853303822209604" lon="-108.09537185534616"><ele>1848.3333333333335</ele><time>2026-04-05T21:16:13Z</time></trkpt><trkpt lat="36.85323033841498" lon="-108.09541541747032"><ele>1847.1666666666667</ele><time>2026-04-05T21:16:14Z</time></trkpt><trkpt lat="36.85317373779911" lon="-108.09549084613604"><ele>1846.0</ele><time>2026-04-05T21:16:15Z</time></trkpt><trkpt lat="36.85312602070769" lon="-108.09556380172879"><ele>1846.0000000000002</ele><time>2026-04-05T21:16:16Z</time></trkpt><trkpt lat="36.853045903036126" lon="-108.09558461770143"><ele>1846.0</ele><time>2026-04-05T21:16:17Z</time></trkpt><trkpt lat="36.85297298456813" lon="-108.0955411106445"><ele>1846.0</ele><time>2026-04-05T21:16:18Z</time></trkpt><trkpt lat="36.85292446568838" lon="-108.09542251923139"><ele>1846.0</ele><time>2026-04-05T21:16:19Z</time></trkpt><trkpt lat="36.85289954209325" lon="-108.09530049576597"><ele>1846.0000000000002</ele><time>2026-04-05T21:16:20Z</time></trkpt><trkpt lat="36.852871276055645" lon="-108.09521775969677"><ele>1846.0</ele><time>2026-04-05T21:16:21Z</time></trkpt><trkpt lat="36.8527863556356" lon="-108.0951806190271"><ele>1846.0</ele><time>2026-04-05T21:16:22Z</time></trkpt><trkpt lat="36.85270850068756" lon="-108.09513463043267"><ele>1846.0</ele><time>2026-04-05T21:16:23Z</time></trkpt><trkpt lat="36.85260747870893" lon="-108.09507749123404"><ele>1846.0</ele><time>2026-04-05T21:16:24Z</time></trkpt><trkpt lat="36.85251646244891" lon="-108.09500212548086"><ele>1846.0</ele><time>2026-04-05T21:16:25Z</time></trkpt><trkpt lat="36.852454573122465" lon="-108.09490697498026"><ele>1846.0</ele><time>2026-04-05T21:16:26Z</time></trkpt><trkpt lat="36.85237777323018" lon="-108.09484388651421"><ele>1845.0000000000002</ele><time>2026-04-05T21:16:27Z</time></trkpt><trkpt lat="36.85228215244691" lon="-108.09482301579463"><ele>1844.0</ele><time>2026-04-05T21:16:28Z</time></trkpt><trkpt lat="36.85221829979771" lon="-108.09475600720602"><ele>1843.0</ele><time>2026-04-05T21:16:29Z</time></trkpt><trkpt lat="36.85220600412291" lon="-108.09465462549342"><ele>1842.0</ele><time>2026-04-05T21:16:30Z</time></trkpt><trkpt lat="36.85221244057938" lon="-108.09455412373846"><ele>1841.0000000000002</ele><time>2026-04-05T21:16:31Z</time></trkpt><trkpt lat="36.85221466743187" lon="-108.09444952180421"><ele>1840.0</ele><time>2026-04-05T21:16:32Z</time></trkpt><trkpt lat="36.85220661764408" lon="-108.09435231230302"><ele>1840.0</ele><time>2026-04-05T21:16:33Z</time></trkpt><trkpt lat="36.85206323074343" lon="-108.09440925816783"><ele>1840.0</ele><time>2026-04-05T21:16:35Z</time></trkpt><trkpt lat="36.8519711874282" lon="-108.09447381145583"><ele>1840.0</ele><time>2026-04-05T21:16:36Z</time></trkpt><trkpt lat="36.851864195658735" lon="-108.09449768685681"><ele>1840.0</ele><time>2026-04-05T21:16:37Z</time></trkpt><trkpt lat="36.85176552826017" lon="-108.09456368826234"><ele>1839.4</ele><time>2026-04-05T21:16:38Z</time></trkpt><trkpt lat="36.851676863232534" lon="-108.09465758681912"><ele>1838.8</ele><time>2026-04-05T21:16:39Z</time></trkpt><trkpt lat="36.851597816235184" lon="-108.09471718987794"><ele>1838.1999999999998</ele><time>2026-04-05T21:16:40Z</time></trkpt><trkpt lat="36.851525634308864" lon="-108.0947489253062"><ele>1837.6</ele><time>2026-04-05T21:16:41Z</time></trkpt><trkpt lat="36.851454868604634" lon="-108.09474968404058"><ele>1837.0</ele><time>2026-04-05T21:16:42Z</time></trkpt><trkpt lat="36.851343667064484" lon="-108.09476439720483"><ele>1837.0</ele><time>2026-04-05T21:16:43Z</time></trkpt><trkpt lat="36.85123950101015" lon="-108.09481458634647"><ele>1836.9999999999998</ele><time>2026-04-05T21:16:44Z</time></trkpt><trkpt lat="36.85113808704804" lon="-108.09482805387154"><ele>1836.9999999999998</ele><time>2026-04-05T21:16:45Z</time></trkpt><trkpt lat="36.851044024967024" lon="-108.09482700707515"><ele>1837.0</ele><time>2026-04-05T21:16:46Z</time></trkpt><trkpt lat="36.85097787432202" lon="-108.09486639945115"><ele>1837.0</ele><time>2026-04-05T21:16:47Z</time></trkpt><trkpt lat="36.85097246715612" lon="-108.09498233310669"><ele>1836.0</ele><time>2026-04-05T21:16:48Z</time></trkpt><trkpt lat="36.850953349265815" lon="-108.09513848157327"><ele>1834.9999999999998</ele><time>2026-04-05T21:16:49Z</time></trkpt><trkpt lat="36.85091574241833" lon="-108.0952657823621"><ele>1833.9999999999998</ele><time>2026-04-05T21:16:50Z</time></trkpt><trkpt lat="36.85088571162765" lon="-108.0953768492572"><ele>1833.0</ele><time>2026-04-05T21:16:51Z</time></trkpt><trkpt lat="36.850843415401" lon="-108.09548659427935"><ele>1832.0</ele><time>2026-04-05T21:16:52Z</time></trkpt><trkpt lat="36.8508065261259" lon="-108.09560559749218"><ele>1831.9999999999998</ele><time>2026-04-05T21:16:53Z</time></trkpt><trkpt lat="36.85078254031508" lon="-108.09571428581654"><ele>1832.0</ele><time>2026-04-05T21:16:54Z</time></trkpt><trkpt lat="36.85073951244218" lon="-108.09579038658826"><ele>1832.0</ele><time>2026-04-05T21:16:55Z</time></trkpt><trkpt lat="36.850674757934705" lon="-108.09584286515464"><ele>1832.0</ele><time>2026-04-05T21:16:56Z</time></trkpt><trkpt lat="36.85060608898916" lon="-108.09587575790675"><ele>1831.9999999999998</ele><time>2026-04-05T21:16:57Z</time></trkpt><trkpt lat="36.85053021722798" lon="-108.09591753444772"><ele>1832.0</ele><time>2026-04-05T21:16:58Z</time></trkpt><trkpt lat="36.85048249930674" lon="-108.09597394326391"><ele>1830.3999999999999</ele><time>2026-04-05T21:16:59Z</time></trkpt><trkpt lat="36.85045977490456" lon="-108.0961011417197"><ele>1828.7999999999997</ele><time>2026-04-05T21:17:00Z</time></trkpt><trkpt lat="36.8504376326635" lon="-108.09623190097142"><ele>1827.2</ele><time>2026-04-05T21:17:01Z</time></trkpt><trkpt lat="36.85037400982734" lon="-108.0962868520243"><ele>1825.6</ele><time>2026-04-05T21:17:02Z</time></trkpt><trkpt lat="36.850296700735505" lon="-108.09633927167023"><ele>1824.0</ele><time>2026-04-05T21:17:03Z</time></trkpt><trkpt lat="36.85024618638059" lon="-108.09641521734594"><ele>1824.0</ele><time>2026-04-05T21:17:04Z</time></trkpt><trkpt lat="36.85021741051998" lon="-108.09651843011858"><ele>1824.0</ele><time>2026-04-05T21:17:05Z</time></trkpt><trkpt lat="36.85017907490046" lon="-108.09665015606257"><ele>1824.0</ele><time>2026-04-05T21:17:06Z</time></trkpt><trkpt lat="36.850162184807" lon="-108.09678306288072"><ele>1824.0</ele><time>2026-04-05T21:17:07Z</time></trkpt><trkpt lat="36.85013579341085" lon="-108.09691437326215"><ele>1824.0</ele><time>2026-04-05T21:17:08Z</time></trkpt><trkpt lat="36.85008640236716" lon="-108.09703969818986"><ele>1823.2</ele><time>2026-04-05T21:17:09Z</time></trkpt><trkpt lat="36.85006328217575" lon="-108.09714310133462"><ele>1822.4</ele><time>2026-04-05T21:17:09.999Z</time></trkpt><trkpt lat="36.85006312925671" lon="-108.09724987733092"><ele>1821.6</ele><time>2026-04-05T21:17:10.999Z</time></trkpt><trkpt lat="36.85002690653346" lon="-108.09733886330456"><ele>1820.8</ele><time>2026-04-05T21:17:11.999Z</time></trkpt><trkpt lat="36.84991782820727" lon="-108.0973839540574"><ele>1820.0</ele><time>2026-04-05T21:17:12.999Z</time></trkpt><trkpt lat="36.84978683525221" lon="-108.09742817592577"><ele>1818.25</ele><time>2026-04-05T21:17:13.999Z</time></trkpt><trkpt lat="36.84965837753314" lon="-108.09747097380378"><ele>1816.5</ele><time>2026-04-05T21:17:14.999Z</time></trkpt><trkpt lat="36.84954032509522" lon="-108.09751906785203"><ele>1814.75</ele><time>2026-04-05T21:17:15.999Z</time></trkpt><trkpt lat="36.849427554651584" lon="-108.09755915678548"><ele>1813.0</ele><time>2026-04-05T21:17:16.999Z</time></trkpt><trkpt lat="36.84933462857769" lon="-108.0975812617139"><ele>1813.0</ele><time>2026-04-05T21:17:17.999Z</time></trkpt><trkpt lat="36.8492452307038" lon="-108.0975822778662"><ele>1813.0000000000002</ele><time>2026-04-05T21:17:18.999Z</time></trkpt><trkpt lat="36.84916655942011" lon="-108.09758174027047"><ele>1813.0000000000002</ele><time>2026-04-05T21:17:19.999Z</time></trkpt><trkpt lat="36.84907455322995" lon="-108.09762032363082"><ele>1813.0</ele><time>2026-04-05T21:17:21.999Z</time></trkpt><trkpt lat="36.849073584764156" lon="-108.09774925533945"><ele>1813.0</ele><time>2026-04-05T21:17:23.999Z</time></trkpt><trkpt lat="36.84905226249506" lon="-108.09788519066335"><ele>1813.0000000000002</ele><time>2026-04-05T21:17:25.999Z</time></trkpt><trkpt lat="36.84903344693586" lon="-108.09796264623093"><ele>1813.0</ele><time>2026-04-05T21:17:26.999Z</time></trkpt><trkpt lat="36.84893910654093" lon="-108.09803094965743"><ele>1813.0</ele><time>2026-04-05T21:17:28.999Z</time></trkpt><trkpt lat="36.8488623647639" lon="-108.09801575935991"><ele>1813.0</ele><time>2026-04-05T21:17:29.999Z</time></trkpt><trkpt lat="36.848795941078414" lon="-108.09802393998568"><ele>1813.0000000000002</ele><time>2026-04-05T21:17:30.999Z</time></trkpt><trkpt lat="36.8486985717909" lon="-108.09805389265448"><ele>1813.0</ele><time>2026-04-05T21:17:31.999Z</time></trkpt><trkpt lat="36.848611781849435" lon="-108.09806709812491"><ele>1813.0</ele><time>2026-04-05T21:17:32.999Z</time></trkpt><trkpt lat="36.84851797637511" lon="-108.09807814408974"><ele>1813.0000000000002</ele><time>2026-04-05T21:17:33.999Z</time></trkpt><trkpt lat="36.848434120251454" lon="-108.09811568922429"><ele>1813.0000000000002</ele><time>2026-04-05T21:17:34.999Z</time></trkpt><trkpt lat="36.848327134466395" lon="-108.0981909434931"><ele>1813.0</ele><time>2026-04-05T21:17:35.999Z</time></trkpt><trkpt lat="36.84822337702422" lon="-108.09823500375781"><ele>1813.0</ele><time>2026-04-05T21:17:36.999Z</time></trkpt><trkpt lat="36.848133689794956" lon="-108.09828582502574"><ele>1811.5</ele><time>2026-04-05T21:17:38Z</time></trkpt><trkpt lat="36.848038277468014" lon="-108.09836956366632"><ele>1810.0</ele><time>2026-04-05T21:17:39Z</time></trkpt><trkpt lat="36.84794041243371" lon="-108.09841693359438"><ele>1808.5</ele><time>2026-04-05T21:17:40Z</time></trkpt><trkpt lat="36.84785149437555" lon="-108.09847968040657"><ele>1807.0</ele><time>2026-04-05T21:17:41Z</time></trkpt><trkpt lat="36.84777462624199" lon="-108.09861206345734"><ele>1807.0</ele><time>2026-04-05T21:17:42Z</time></trkpt><trkpt lat="36.84768067266108" lon="-108.09874760150957"><ele>1807.0</ele><time>2026-04-05T21:17:43Z</time></trkpt><trkpt lat="36.84759336796978" lon="-108.09887777289647"><ele>1807.0</ele><time>2026-04-05T21:17:44Z</time></trkpt><trkpt lat="36.847513051335426" lon="-108.09904664494861"><ele>1807.0</ele><time>2026-04-05T21:17:45Z</time></trkpt><trkpt lat="36.84745463574836" lon="-108.09922873914687"><ele>1805.6666666666667</ele><time>2026-04-05T21:17:46Z</time></trkpt><trkpt lat="36.847373357862644" lon="-108.09937934150413"><ele>1804.3333333333335</ele><time>2026-04-05T21:17:47Z</time></trkpt><trkpt lat="36.8472375324607" lon="-108.09948105161703"><ele>1803.0</ele><time>2026-04-05T21:17:48Z</time></trkpt><trkpt lat="36.847092726610384" lon="-108.09958848384724"><ele>1803.0</ele><time>2026-04-05T21:17:49Z</time></trkpt><trkpt lat="36.84697618729309" lon="-108.09969289735136"><ele>1803.0</ele><time>2026-04-05T21:17:50Z</time></trkpt><trkpt lat="36.846886433338334" lon="-108.09980365748545"><ele>1803.0</ele><time>2026-04-05T21:17:51Z</time></trkpt><trkpt lat="36.84684018130299" lon="-108.09994531819633"><ele>1803.0</ele><time>2026-04-05T21:17:52Z</time></trkpt><trkpt lat="36.84679194022195" lon="-108.10008557165538"><ele>1802.8000000000002</ele><time>2026-04-05T21:17:53Z</time></trkpt><trkpt lat="36.84671989841196" lon="-108.10015278138596"><ele>1802.6000000000001</ele><time>2026-04-05T21:17:54Z</time></trkpt><trkpt lat="36.84663222433736" lon="-108.10018330669665"><ele>1802.3999999999999</ele><time>2026-04-05T21:17:55Z</time></trkpt><trkpt lat="36.846523712791864" lon="-108.10015653679365"><ele>1802.1999999999998</ele><time>2026-04-05T21:17:56Z</time></trkpt><trkpt lat="36.84640896174144" lon="-108.10010127131794"><ele>1802.0</ele><time>2026-04-05T21:17:57Z</time></trkpt><trkpt lat="36.846310041640095" lon="-108.10006458530407"><ele>1802.0</ele><time>2026-04-05T21:17:58Z</time></trkpt><trkpt lat="36.84620884523171" lon="-108.10004230968953"><ele>1801.9999999999998</ele><time>2026-04-05T21:17:59Z</time></trkpt><trkpt lat="36.846097577272516" lon="-108.09999494402261"><ele>1801.9999999999998</ele><time>2026-04-05T21:18:00Z</time></trkpt><trkpt lat="36.84598856089053" lon="-108.09997014770354"><ele>1802.0</ele><time>2026-04-05T21:18:01Z</time></trkpt><trkpt lat="36.84588885534863" lon="-108.09992847794828"><ele>1802.0</ele><time>2026-04-05T21:18:02Z</time></trkpt><trkpt lat="36.84582778997315" lon="-108.09983443696643"><ele>1801.8</ele><time>2026-04-05T21:18:03Z</time></trkpt><trkpt lat="36.84577483228757" lon="-108.09978145837765"><ele>1801.6</ele><time>2026-04-05T21:18:04Z</time></trkpt><trkpt lat="36.84570869502619" lon="-108.09982252225258"><ele>1801.3999999999999</ele><time>2026-04-05T21:18:05Z</time></trkpt><trkpt lat="36.84562039465745" lon="-108.09993073243031"><ele>1801.1999999999998</ele><time>2026-04-05T21:18:06Z</time></trkpt><trkpt lat="36.845533128088775" lon="-108.10002868158107"><ele>1801.0</ele><time>2026-04-05T21:18:07Z</time></trkpt><trkpt lat="36.84543329382968" lon="-108.10011635592153"><ele>1801.0000000000002</ele><time>2026-04-05T21:18:08Z</time></trkpt><trkpt lat="36.84534753205082" lon="-108.10017003062767"><ele>1801.0</ele><time>2026-04-05T21:18:09Z</time></trkpt><trkpt lat="36.84525679859798" lon="-108.10019604390494"><ele>1801.0</ele><time>2026-04-05T21:18:10Z</time></trkpt><trkpt lat="36.84518948520189" lon="-108.10018714016125"><ele>1801.0</ele><time>2026-04-05T21:18:11Z</time></trkpt><trkpt lat="36.84508905184358" lon="-108.10017330398284"><ele>1801.0000000000002</ele><time>2026-04-05T21:18:12Z</time></trkpt><trkpt lat="36.845019295466884" lon="-108.10021738745434"><ele>1801.0</ele><time>2026-04-05T21:18:13Z</time></trkpt><trkpt lat="36.844934401284256" lon="-108.10028283283222"><ele>1801.8333333333335</ele><time>2026-04-05T21:18:14Z</time></trkpt><trkpt lat="36.8448788838075" lon="-108.10022359631395"><ele>1802.6666666666667</ele><time>2026-04-05T21:18:15Z</time></trkpt><trkpt lat="36.844807493701154" lon="-108.10015951243699"><ele>1803.5</ele><time>2026-04-05T21:18:16Z</time></trkpt><trkpt lat="36.84475099901355" lon="-108.1000856136839"><ele>1804.3333333333335</ele><time>2026-04-05T21:18:17Z</time></trkpt><trkpt lat="36.844673829276054" lon="-108.10000258480635"><ele>1805.1666666666667</ele><time>2026-04-05T21:18:18Z</time></trkpt><trkpt lat="36.84460259239898" lon="-108.09991282377749"><ele>1806.0</ele><time>2026-04-05T21:18:19Z</time></trkpt><trkpt lat="36.84454720918389" lon="-108.09984128133888"><ele>1806.0</ele><time>2026-04-05T21:18:20Z</time></trkpt><trkpt lat="36.8444086263537" lon="-108.09989610883673"><ele>1806.0</ele><time>2026-04-05T21:18:22Z</time></trkpt><trkpt lat="36.844335699198815" lon="-108.09995637222262"><ele>1806.0</ele><time>2026-04-05T21:18:23Z</time></trkpt><trkpt lat="36.844255616820604" lon="-108.1000446307764"><ele>1806.0</ele><time>2026-04-05T21:18:25Z</time></trkpt><trkpt lat="36.844140439886715" lon="-108.1001002486609"><ele>1806.1666666666667</ele><time>2026-04-05T21:18:53Z</time></trkpt><trkpt lat="36.84407685402652" lon="-108.10013709361279"><ele>1806.3333333333335</ele><time>2026-04-05T21:18:54Z</time></trkpt><trkpt lat="36.84400934974645" lon="-108.10019458169695"><ele>1806.5</ele><time>2026-04-05T21:18:55Z</time></trkpt><trkpt lat="36.84395813836977" lon="-108.10027606893996"><ele>1806.6666666666667</ele><time>2026-04-05T21:18:56Z</time></trkpt><trkpt lat="36.843915460607924" lon="-108.10035428263235"><ele>1806.8333333333335</ele><time>2026-04-05T21:18:57Z</time></trkpt><trkpt lat="36.84384518282223" lon="-108.10041934109914"><ele>1807.0</ele><time>2026-04-05T21:18:58Z</time></trkpt><trkpt lat="36.84375328887287" lon="-108.10048197503707"><ele>1807.0</ele><time>2026-04-05T21:18:59Z</time></trkpt><trkpt lat="36.84366599512089" lon="-108.10055854941659"><ele>1806.9999999999998</ele><time>2026-04-05T21:19:00Z</time></trkpt><trkpt lat="36.843612205869974" lon="-108.10063284252058"><ele>1806.9999999999998</ele><time>2026-04-05T21:19:01Z</time></trkpt><trkpt lat="36.84357451459425" lon="-108.10072052551473"><ele>1807.0</ele><time>2026-04-05T21:19:02Z</time></trkpt><trkpt lat="36.843597822280095" lon="-108.10086395987153"><ele>1807.0</ele><time>2026-04-05T21:19:04Z</time></trkpt><trkpt lat="36.84356524434787" lon="-108.10094772495641"><ele>1806.3333333333335</ele><time>2026-04-05T21:19:05Z</time></trkpt><trkpt lat="36.843521294036606" lon="-108.10100895762402"><ele>1805.6666666666667</ele><time>2026-04-05T21:19:06Z</time></trkpt><trkpt lat="36.84349070329086" lon="-108.10111852848496"><ele>1805.0</ele><time>2026-04-05T21:19:07Z</time></trkpt><trkpt lat="36.843496605905635" lon="-108.1012179135605"><ele>1804.3333333333335</ele><time>2026-04-05T21:19:08Z</time></trkpt><trkpt lat="36.84352147201329" lon="-108.10133909420875"><ele>1803.6666666666667</ele><time>2026-04-05T21:19:09Z</time></trkpt><trkpt lat="36.84354619787533" lon="-108.10146662542505"><ele>1803.0</ele><time>2026-04-05T21:19:10Z</time></trkpt><trkpt lat="36.84354020980686" lon="-108.10157727814871"><ele>1802.142857142857</ele><time>2026-04-05T21:19:11Z</time></trkpt><trkpt lat="36.843523002434935" lon="-108.10167181677262"><ele>1801.2857142857142</ele><time>2026-04-05T21:19:12Z</time></trkpt><trkpt lat="36.843487650590745" lon="-108.10174291284474"><ele>1800.4285714285713</ele><time>2026-04-05T21:19:13Z</time></trkpt><trkpt lat="36.84350758545647" lon="-108.10183311708036"><ele>1799.5714285714284</ele><time>2026-04-05T21:19:14Z</time></trkpt><trkpt lat="36.843536748232026" lon="-108.10191815279025"><ele>1798.7142857142858</ele><time>2026-04-05T21:19:15Z</time></trkpt><trkpt lat="36.843529931253215" lon="-108.10199675917944"><ele>1797.8571428571427</ele><time>2026-04-05T21:19:16Z</time></trkpt><trkpt lat="36.843509073548034" lon="-108.10208287839218"><ele>1797.0</ele><time>2026-04-05T21:19:18Z</time></trkpt><trkpt lat="36.84346652157536" lon="-108.10220339708383"><ele>1796.8333333333333</ele><time>2026-04-05T21:19:20Z</time></trkpt><trkpt lat="36.84342453407452" lon="-108.10232208409894"><ele>1796.6666666666665</ele><time>2026-04-05T21:19:21Z</time></trkpt><trkpt lat="36.84338384380388" lon="-108.10242205778654"><ele>1796.5</ele><time>2026-04-05T21:19:22Z</time></trkpt><trkpt lat="36.84335395029024" lon="-108.10250765372665"><ele>1796.3333333333333</ele><time>2026-04-05T21:19:23Z</time></trkpt><trkpt lat="36.843335454330315" lon="-108.10259173912914"><ele>1796.1666666666665</ele><time>2026-04-05T21:19:24Z</time></trkpt><trkpt lat="36.84329460900051" lon="-108.10271627835719"><ele>1796.0</ele><time>2026-04-05T21:19:24.999Z</time></trkpt><trkpt lat="36.843256210052985" lon="-108.10288410634102"><ele>1794.3333333333333</ele><time>2026-04-05T21:19:25.999Z</time></trkpt><trkpt lat="36.84321442061765" lon="-108.10304779714238"><ele>1792.6666666666665</ele><time>2026-04-05T21:19:26.999Z</time></trkpt><trkpt lat="36.84315047993879" lon="-108.10324269924148"><ele>1791.0</ele><time>2026-04-05T21:19:27.999Z</time></trkpt><trkpt lat="36.843081979876686" lon="-108.10346326679866"><ele>1790.6666666666665</ele><time>2026-04-05T21:19:28.999Z</time></trkpt><trkpt lat="36.84300466883955" lon="-108.10370799141727"><ele>1790.3333333333333</ele><time>2026-04-05T21:19:29.999Z</time></trkpt><trkpt lat="36.84293576196346" lon="-108.10393949606836"><ele>1790.0</ele><time>2026-04-05T21:19:30.999Z</time></trkpt><trkpt lat="36.84286724320273" lon="-108.10416035287325"><ele>1790.0</ele><time>2026-04-05T21:19:31.999Z</time></trkpt><trkpt lat="36.842812032956374" lon="-108.10432688603136"><ele>1790.0</ele><time>2026-04-05T21:19:32.999Z</time></trkpt><trkpt lat="36.84277880414777" lon="-108.10445953392642"><ele>1790.0</ele><time>2026-04-05T21:19:33.999Z</time></trkpt><trkpt lat="36.842757149824685" lon="-108.10456175131351"><ele>1790.0</ele><time>2026-04-05T21:19:34.999Z</time></trkpt><trkpt lat="36.84275369848208" lon="-108.10468930133442"><ele>1790.0</ele><time>2026-04-05T21:19:36.999Z</time></trkpt><trkpt lat="36.84266236348396" lon="-108.1047362391814"><ele>1789.0</ele><time>2026-04-05T21:19:38.999Z</time></trkpt><trkpt lat="36.84258562586558" lon="-108.10477425155565"><ele>1788.0</ele><time>2026-04-05T21:19:40.999Z</time></trkpt><trkpt lat="36.84249448995518" lon="-108.10483845154778"><ele>1787.0</ele><time>2026-04-05T21:19:42.999Z</time></trkpt><trkpt lat="36.84243798633245" lon="-108.10491875001205"><ele>1786.0</ele><time>2026-04-05T21:19:44Z</time></trkpt><trkpt lat="36.84234834383662" lon="-108.10496417729223"><ele>1785.0</ele><time>2026-04-05T21:19:45Z</time></trkpt><trkpt lat="36.842207870746904" lon="-108.10498920984844"><ele>1785.0</ele><time>2026-04-05T21:19:46Z</time></trkpt><trkpt lat="36.84207465816822" lon="-108.10505726424856"><ele>1785.0</ele><time>2026-04-05T21:19:47Z</time></trkpt><trkpt lat="36.84198699195893" lon="-108.10512461200962"><ele>1785.0</ele><time>2026-04-05T21:19:48Z</time></trkpt><trkpt lat="36.84193369167014" lon="-108.10523248670313"><ele>1785.0</ele><time>2026-04-05T21:19:50Z</time></trkpt><trkpt lat="36.84197729579971" lon="-108.10534792855167"><ele>1785.0</ele><time>2026-04-05T21:19:52Z</time></trkpt><trkpt lat="36.84204957503311" lon="-108.1053970876956"><ele>1785.0</ele><time>2026-04-05T21:19:53Z</time></trkpt><trkpt lat="36.84213264807651" lon="-108.10547582535527"><ele>1785.0</ele><time>2026-04-05T21:19:54Z</time></trkpt><trkpt lat="36.842222475620844" lon="-108.10558103753506"><ele>1785.0</ele><time>2026-04-05T21:19:55Z</time></trkpt><trkpt lat="36.84231321298616" lon="-108.10571028230174"><ele>1785.0</ele><time>2026-04-05T21:19:56Z</time></trkpt><trkpt lat="36.84240070264956" lon="-108.10582603580058"><ele>1785.25</ele><time>2026-04-05T21:19:57Z</time></trkpt><trkpt lat="36.84247279192674" lon="-108.10590860460333"><ele>1785.5</ele><time>2026-04-05T21:19:58Z</time></trkpt><trkpt lat="36.842539780386566" lon="-108.10600877215944"><ele>1785.75</ele><time>2026-04-05T21:20:00Z</time></trkpt><trkpt lat="36.84240151491734" lon="-108.10617301272924"><ele>1786.0</ele><time>2026-04-05T21:20:06Z</time></trkpt><trkpt lat="36.84236091008302" lon="-108.10624316612231"><ele>1786.0</ele><time>2026-04-05T21:20:07Z</time></trkpt><trkpt lat="36.842325491518935" lon="-108.10635569333485"><ele>1786.0</ele><time>2026-04-05T21:20:08Z</time></trkpt><trkpt lat="36.84226579762421" lon="-108.1064965926751"><ele>1786.0</ele><time>2026-04-05T21:20:09Z</time></trkpt><trkpt lat="36.84217249565242" lon="-108.1066189625472"><ele>1786.0</ele><time>2026-04-05T21:20:10Z</time></trkpt><trkpt lat="36.84205067558956" lon="-108.1067299875634"><ele>1786.5</ele><time>2026-04-05T21:20:11Z</time></trkpt><trkpt lat="36.841923325339835" lon="-108.10685053999765"><ele>1787.0</ele><time>2026-04-05T21:20:12Z</time></trkpt><trkpt lat="36.841849825074966" lon="-108.1069729241252"><ele>1787.5</ele><time>2026-04-05T21:20:13Z</time></trkpt><trkpt lat="36.841798560601845" lon="-108.10710552172205"><ele>1788.0</ele><time>2026-04-05T21:20:14Z</time></trkpt><trkpt lat="36.84175716268492" lon="-108.10720324047418"><ele>1788.0</ele><time>2026-04-05T21:20:15Z</time></trkpt><trkpt lat="36.84177276766526" lon="-108.10733182470804"><ele>1788.0000000000002</ele><time>2026-04-05T21:20:17Z</time></trkpt><trkpt lat="36.84182195771215" lon="-108.10745085789083"><ele>1788.0000000000002</ele><time>2026-04-05T21:20:18Z</time></trkpt><trkpt lat="36.841837327177586" lon="-108.10757051142105"><ele>1788.0</ele><time>2026-04-05T21:20:19Z</time></trkpt><trkpt lat="36.84186043523102" lon="-108.10768834027097"><ele>1788.0</ele><time>2026-04-05T21:20:20Z</time></trkpt><trkpt lat="36.84189672087049" lon="-108.10778139920512"><ele>1788.6000000000001</ele><time>2026-04-05T21:20:21Z</time></trkpt><trkpt lat="36.84194023449634" lon="-108.10785228627526"><ele>1789.2000000000003</ele><time>2026-04-05T21:20:22Z</time></trkpt><trkpt lat="36.8420645714614" lon="-108.10789035344564"><ele>1789.8</ele><time>2026-04-05T21:20:23Z</time></trkpt><trkpt lat="36.8421587303225" lon="-108.10796403648531"><ele>1790.4</ele><time>2026-04-05T21:20:24Z</time></trkpt><trkpt lat="36.842234040911194" lon="-108.10805156183173"><ele>1791.0</ele><time>2026-04-05T21:20:25Z</time></trkpt><trkpt lat="36.84232516410137" lon="-108.10810715375665"><ele>1791.0</ele><time>2026-04-05T21:20:26Z</time></trkpt><trkpt lat="36.84244215416427" lon="-108.10818025697053"><ele>1791.0</ele><time>2026-04-05T21:20:27Z</time></trkpt><trkpt lat="36.84252092933049" lon="-108.10826020178973"><ele>1791.0</ele><time>2026-04-05T21:20:28Z</time></trkpt><trkpt lat="36.84254012503295" lon="-108.10835114647453"><ele>1791.0</ele><time>2026-04-05T21:20:29Z</time></trkpt><trkpt lat="36.84253442143009" lon="-108.10846197362305"><ele>1791.0</ele><time>2026-04-05T21:20:30Z</time></trkpt><trkpt lat="36.842506095724474" lon="-108.10857655791554"><ele>1792.6</ele><time>2026-04-05T21:20:31Z</time></trkpt><trkpt lat="36.84248018929714" lon="-108.10867169407167"><ele>1794.1999999999998</ele><time>2026-04-05T21:20:32Z</time></trkpt><trkpt lat="36.842435913147426" lon="-108.10877212408649"><ele>1795.8000000000002</ele><time>2026-04-05T21:20:33Z</time></trkpt><trkpt lat="36.84239227968472" lon="-108.10889234976459"><ele>1797.4</ele><time>2026-04-05T21:20:34Z</time></trkpt><trkpt lat="36.842370856251854" lon="-108.10898850869391"><ele>1799.0</ele><time>2026-04-05T21:20:35Z</time></trkpt><trkpt lat="36.842368684168925" lon="-108.10910869632752"><ele>1800.3333333333333</ele><time>2026-04-05T21:20:36Z</time></trkpt><trkpt lat="36.84233959281241" lon="-108.10923257590453"><ele>1801.6666666666665</ele><time>2026-04-05T21:20:37Z</time></trkpt><trkpt lat="36.84229218325166" lon="-108.10932464259153"><ele>1803.0</ele><time>2026-04-05T21:20:38Z</time></trkpt><trkpt lat="36.84223814704507" lon="-108.10939490942155"><ele>1804.3333333333335</ele><time>2026-04-05T21:20:39Z</time></trkpt><trkpt lat="36.8422169629012" lon="-108.10947865696494"><ele>1805.6666666666667</ele><time>2026-04-05T21:20:41Z</time></trkpt><trkpt lat="36.84211496712013" lon="-108.10947492999742"><ele>1807.0</ele><time>2026-04-05T21:20:53Z</time></trkpt><trkpt lat="36.84204670080784" lon="-108.10946063472495"><ele>1807.0</ele><time>2026-04-05T21:20:54Z</time></trkpt><trkpt lat="36.84196977414524" lon="-108.10941194774483"><ele>1806.9999999999998</ele><time>2026-04-05T21:20:55Z</time></trkpt><trkpt lat="36.8418841099353" lon="-108.10934617316096"><ele>1806.9999999999998</ele><time>2026-04-05T21:20:56Z</time></trkpt><trkpt lat="36.841793446974144" lon="-108.1093220910135"><ele>1807.0</ele><time>2026-04-05T21:20:57Z</time></trkpt><trkpt lat="36.84171246538874" lon="-108.10926526896813"><ele>1807.0</ele><time>2026-04-05T21:20:58Z</time></trkpt><trkpt lat="36.841642652219875" lon="-108.10915993857797"><ele>1806.0</ele><time>2026-04-05T21:20:59Z</time></trkpt><trkpt lat="36.841562382802145" lon="-108.1090895574598"><ele>1805.0</ele><time>2026-04-05T21:21:00Z</time></trkpt><trkpt lat="36.841442354159646" lon="-108.109033449477"><ele>1804.0</ele><time>2026-04-05T21:21:01Z</time></trkpt><trkpt lat="36.841325333746695" lon="-108.10894592013454"><ele>1803.0</ele><time>2026-04-05T21:21:02Z</time></trkpt><trkpt lat="36.84121297535387" lon="-108.10887194546858"><ele>1801.8000000000002</ele><time>2026-04-05T21:21:03Z</time></trkpt><trkpt lat="36.84110330518757" lon="-108.10876268700443"><ele>1800.6000000000001</ele><time>2026-04-05T21:21:04Z</time></trkpt><trkpt lat="36.841007419381455" lon="-108.10868308151693"><ele>1799.3999999999999</ele><time>2026-04-05T21:21:05Z</time></trkpt><trkpt lat="36.840928130696724" lon="-108.10864724948689"><ele>1798.1999999999998</ele><time>2026-04-05T21:21:06Z</time></trkpt><trkpt lat="36.84085965980444" lon="-108.10862868685955"><ele>1797.0</ele><time>2026-04-05T21:21:07Z</time></trkpt><trkpt lat="36.84075093576696" lon="-108.10871460263512"><ele>1796.8</ele><time>2026-04-05T21:21:09Z</time></trkpt><trkpt lat="36.84068325917537" lon="-108.10876317115283"><ele>1796.6</ele><time>2026-04-05T21:21:10Z</time></trkpt><trkpt lat="36.84052778114872" lon="-108.10874121906583"><ele>1796.3999999999999</ele><time>2026-04-05T21:21:12Z</time></trkpt><trkpt lat="36.84041271808538" lon="-108.10875836403882"><ele>1796.1999999999998</ele><time>2026-04-05T21:21:13Z</time></trkpt><trkpt lat="36.84033639634848" lon="-108.10882218122545"><ele>1796.0</ele><time>2026-04-05T21:21:14Z</time></trkpt><trkpt lat="36.840296290376095" lon="-108.10889513594508"><ele>1796.0</ele><time>2026-04-05T21:21:15Z</time></trkpt><trkpt lat="36.84024354558805" lon="-108.10898028071308"><ele>1796.0</ele><time>2026-04-05T21:21:16Z</time></trkpt><trkpt lat="36.840172054900506" lon="-108.10909146628984"><ele>1796.0</ele><time>2026-04-05T21:21:17Z</time></trkpt><trkpt lat="36.840100923615466" lon="-108.10919930186991"><ele>1796.0</ele><time>2026-04-05T21:21:18Z</time></trkpt><trkpt lat="36.84001419230782" lon="-108.1093104534206"><ele>1796.0</ele><time>2026-04-05T21:21:19Z</time></trkpt><trkpt lat="36.83989181714575" lon="-108.10943413164853"><ele>1794.25</ele><time>2026-04-05T21:21:20Z</time></trkpt><trkpt lat="36.839783954236076" lon="-108.10958197489728"><ele>1792.5</ele><time>2026-04-05T21:21:21Z</time></trkpt><trkpt lat="36.839685658088534" lon="-108.10969459089944"><ele>1790.75</ele><time>2026-04-05T21:21:22Z</time></trkpt><trkpt lat="36.83957606274667" lon="-108.10981509214945"><ele>1789.0</ele><time>2026-04-05T21:21:23Z</time></trkpt><trkpt lat="36.83947117406577" lon="-108.10992042822275"><ele>1788.0</ele><time>2026-04-05T21:21:24Z</time></trkpt><trkpt lat="36.839340420511526" lon="-108.10997041593113"><ele>1787.0</ele><time>2026-04-05T21:21:25Z</time></trkpt><trkpt lat="36.83922908900169" lon="-108.11004392586997"><ele>1786.0</ele><time>2026-04-05T21:21:26Z</time></trkpt><trkpt lat="36.839179524211694" lon="-108.11016368082497"><ele>1785.0</ele><time>2026-04-05T21:21:27Z</time></trkpt><trkpt lat="36.83912695539979" lon="-108.11031533165819"><ele>1784.25</ele><time>2026-04-05T21:21:28Z</time></trkpt><trkpt lat="36.83905160706717" lon="-108.11047101834644"><ele>1783.5</ele><time>2026-04-05T21:21:29Z</time></trkpt><trkpt lat="36.838983367524854" lon="-108.11059746515609"><ele>1782.75</ele><time>2026-04-05T21:21:30Z</time></trkpt><trkpt lat="36.83891783625072" lon="-108.1106849058597"><ele>1782.0</ele><time>2026-04-05T21:21:31Z</time></trkpt><trkpt lat="36.83883574255988" lon="-108.11074822962412"><ele>1782.0</ele><time>2026-04-05T21:21:32Z</time></trkpt><trkpt lat="36.83873555463983" lon="-108.11079506867236"><ele>1782.0</ele><time>2026-04-05T21:21:33Z</time></trkpt><trkpt lat="36.838610212622356" lon="-108.11088674579543"><ele>1782.0</ele><time>2026-04-05T21:21:34Z</time></trkpt><trkpt lat="36.83850704216937" lon="-108.11101207890617"><ele>1782.0</ele><time>2026-04-05T21:21:35Z</time></trkpt><trkpt lat="36.83841062399812" lon="-108.1111354751235"><ele>1782.0</ele><time>2026-04-05T21:21:36Z</time></trkpt><trkpt lat="36.83831632225337" lon="-108.1112705986258"><ele>1782.0</ele><time>2026-04-05T21:21:37Z</time></trkpt><trkpt lat="36.838224213624585" lon="-108.11144141402568"><ele>1782.0</ele><time>2026-04-05T21:21:38Z</time></trkpt><trkpt lat="36.83811699155303" lon="-108.11164802978028"><ele>1782.0</ele><time>2026-04-05T21:21:39Z</time></trkpt><trkpt lat="36.838032737788524" lon="-108.11183005611323"><ele>1781.9999999999998</ele><time>2026-04-05T21:21:40Z</time></trkpt><trkpt lat="36.83800398995564" lon="-108.11193986447323"><ele>1781.9999999999998</ele><time>2026-04-05T21:21:41Z</time></trkpt><trkpt lat="36.83803691810174" lon="-108.11206231198533"><ele>1782.0</ele><time>2026-04-05T21:21:43Z</time></trkpt><trkpt lat="36.83807270515978" lon="-108.11214058986711"><ele>1782.0</ele><time>2026-04-05T21:21:44Z</time></trkpt><trkpt lat="36.8381048876101" lon="-108.11222971033872"><ele>1782.0</ele><time>2026-04-05T21:21:45Z</time></trkpt><trkpt lat="36.838140533426774" lon="-108.11235855790122"><ele>1782.0</ele><time>2026-04-05T21:21:46Z</time></trkpt><trkpt lat="36.83814488442683" lon="-108.11252800295729"><ele>1782.0</ele><time>2026-04-05T21:21:47Z</time></trkpt><trkpt lat="36.83812812112808" lon="-108.11268299499409"><ele>1782.0</ele><time>2026-04-05T21:21:48Z</time></trkpt><trkpt lat="36.83817688107227" lon="-108.11281003782761"><ele>1782.25</ele><time>2026-04-05T21:21:49Z</time></trkpt><trkpt lat="36.83825230011521" lon="-108.11293041542618"><ele>1782.5</ele><time>2026-04-05T21:21:50Z</time></trkpt><trkpt lat="36.838250341823255" lon="-108.11306310466405"><ele>1782.75</ele><time>2026-04-05T21:21:51Z</time></trkpt><trkpt lat="36.83819901239699" lon="-108.11320748203475"><ele>1783.0</ele><time>2026-04-05T21:21:52Z</time></trkpt><trkpt lat="36.838133372560776" lon="-108.1133441161992"><ele>1783.5</ele><time>2026-04-05T21:21:53Z</time></trkpt><trkpt lat="36.838049228599296" lon="-108.11346758537793"><ele>1784.0</ele><time>2026-04-05T21:21:54Z</time></trkpt><trkpt lat="36.83797695613621" lon="-108.11359267423137"><ele>1784.5</ele><time>2026-04-05T21:21:55Z</time></trkpt><trkpt lat="36.837888246543514" lon="-108.11371098194739"><ele>1785.0</ele><time>2026-04-05T21:21:56Z</time></trkpt><trkpt lat="36.83778699820076" lon="-108.1137976004625"><ele>1785.0</ele><time>2026-04-05T21:21:57Z</time></trkpt><trkpt lat="36.837691960592906" lon="-108.11389480048311"><ele>1785.0</ele><time>2026-04-05T21:21:58Z</time></trkpt><trkpt lat="36.837622133455746" lon="-108.11397904682929"><ele>1785.0</ele><time>2026-04-05T21:21:59Z</time></trkpt><trkpt lat="36.83756413351207" lon="-108.11403533287971"><ele>1785.0</ele><time>2026-04-05T21:22:00Z</time></trkpt><trkpt lat="36.83756925797266" lon="-108.11415586946276"><ele>1785.0</ele><time>2026-04-05T21:22:01Z</time></trkpt><trkpt lat="36.837587815080965" lon="-108.11433007831631"><ele>1785.8</ele><time>2026-04-05T21:22:02Z</time></trkpt><trkpt lat="36.83755054254588" lon="-108.11446453444015"><ele>1786.6</ele><time>2026-04-05T21:22:03Z</time></trkpt><trkpt lat="36.83749257517002" lon="-108.11453434136126"><ele>1787.4</ele><time>2026-04-05T21:22:04Z</time></trkpt><trkpt lat="36.837376012766875" lon="-108.11458444951107"><ele>1788.2</ele><time>2026-04-05T21:22:05Z</time></trkpt><trkpt lat="36.837266095940095" lon="-108.11463687739534"><ele>1789.0</ele><time>2026-04-05T21:22:06Z</time></trkpt><trkpt lat="36.83716680625989" lon="-108.114677433995"><ele>1789.0</ele><time>2026-04-05T21:22:07Z</time></trkpt><trkpt lat="36.83704482663676" lon="-108.11473690819685"><ele>1789.0</ele><time>2026-04-05T21:22:08Z</time></trkpt><trkpt lat="36.836908030978314" lon="-108.11474680159502"><ele>1789.0</ele><time>2026-04-05T21:22:09Z</time></trkpt><trkpt lat="36.836765699706696" lon="-108.11470354851136"><ele>1789.0</ele><time>2026-04-05T21:22:10Z</time></trkpt><trkpt lat="36.83664848168485" lon="-108.11465785426256"><ele>1789.0</ele><time>2026-04-05T21:22:11Z</time></trkpt><trkpt lat="36.83653109872636" lon="-108.11457368524633"><ele>1789.0</ele><time>2026-04-05T21:22:12Z</time></trkpt><trkpt lat="36.836412050468944" lon="-108.1144515571456"><ele>1789.0</ele><time>2026-04-05T21:22:13Z</time></trkpt><trkpt lat="36.83629833599211" lon="-108.11435826923945"><ele>1789.0</ele><time>2026-04-05T21:22:14Z</time></trkpt><trkpt lat="36.83620278292976" lon="-108.114287521951"><ele>1789.0000000000002</ele><time>2026-04-05T21:22:15Z</time></trkpt><trkpt lat="36.83610785226007" lon="-108.114237464794"><ele>1789.0</ele><time>2026-04-05T21:22:16Z</time></trkpt><trkpt lat="36.83598892645965" lon="-108.11421595544624"><ele>1789.0</ele><time>2026-04-05T21:22:17Z</time></trkpt><trkpt lat="36.835921871855554" lon="-108.11416721123163"><ele>1789.0</ele><time>2026-04-05T21:22:18Z</time></trkpt><trkpt lat="36.83589586480725" lon="-108.11408511079885"><ele>1789.0000000000002</ele><time>2026-04-05T21:22:20Z</time></trkpt><trkpt lat="36.835859593170625" lon="-108.11399977417175"><ele>1789.0</ele><time>2026-04-05T21:22:28Z</time></trkpt><trkpt lat="36.83584644639219" lon="-108.11389437986088"><ele>1789.0</ele><time>2026-04-05T21:22:29Z</time></trkpt><trkpt lat="36.83583301318057" lon="-108.11377661099164"><ele>1789.0</ele><time>2026-04-05T21:22:30Z</time></trkpt><trkpt lat="36.835809165700134" lon="-108.11367240527184"><ele>1789.0</ele><time>2026-04-05T21:22:31Z</time></trkpt><trkpt lat="36.835737360802526" lon="-108.11356699756867"><ele>1789.0</ele><time>2026-04-05T21:22:32Z</time></trkpt><trkpt lat="36.83562927410836" lon="-108.11347119058456"><ele>1789.0</ele><time>2026-04-05T21:22:33Z</time></trkpt><trkpt lat="36.83555425198149" lon="-108.11336977333141"><ele>1789.0</ele><time>2026-04-05T21:22:34Z</time></trkpt><trkpt lat="36.83543317315832" lon="-108.11329057314995"><ele>1789.0</ele><time>2026-04-05T21:22:35Z</time></trkpt><trkpt lat="36.83530107118951" lon="-108.11321271933454"><ele>1789.0</ele><time>2026-04-05T21:22:36Z</time></trkpt><trkpt lat="36.83518813678357" lon="-108.11315969547351"><ele>1789.0</ele><time>2026-04-05T21:22:37Z</time></trkpt><trkpt lat="36.83506907244906" lon="-108.11312123968744"><ele>1788.2</ele><time>2026-04-05T21:22:38Z</time></trkpt><trkpt lat="36.834946992153604" lon="-108.11312267122926"><ele>1787.4</ele><time>2026-04-05T21:22:39Z</time></trkpt><trkpt lat="36.83483963132595" lon="-108.11308806566291"><ele>1786.6</ele><time>2026-04-05T21:22:40Z</time></trkpt><trkpt lat="36.83474274318532" lon="-108.11306808032352"><ele>1785.8</ele><time>2026-04-05T21:22:41Z</time></trkpt><trkpt lat="36.83463118684814" lon="-108.11308491533923"><ele>1785.0</ele><time>2026-04-05T21:22:42Z</time></trkpt><trkpt lat="36.83449146930666" lon="-108.11306267216104"><ele>1785.0</ele><time>2026-04-05T21:22:43Z</time></trkpt><trkpt lat="36.834373476228976" lon="-108.113036024483"><ele>1785.0</ele><time>2026-04-05T21:22:44Z</time></trkpt><trkpt lat="36.83426791840106" lon="-108.11298161350669"><ele>1785.0</ele><time>2026-04-05T21:22:45Z</time></trkpt><trkpt lat="36.83417206640464" lon="-108.11289935173687"><ele>1785.0</ele><time>2026-04-05T21:22:46Z</time></trkpt><trkpt lat="36.83407619750753" lon="-108.11280821015497"><ele>1784.5</ele><time>2026-04-05T21:22:47Z</time></trkpt><trkpt lat="36.83397323555138" lon="-108.11274601031846"><ele>1784.0</ele><time>2026-04-05T21:22:48Z</time></trkpt><trkpt lat="36.83386425707154" lon="-108.1127015774682"><ele>1783.5</ele><time>2026-04-05T21:22:49Z</time></trkpt><trkpt lat="36.83375836884335" lon="-108.11266706543876"><ele>1783.0</ele><time>2026-04-05T21:22:50Z</time></trkpt><trkpt lat="36.83364426477981" lon="-108.1126375358158"><ele>1783.0</ele><time>2026-04-05T21:22:51Z</time></trkpt><trkpt lat="36.833542384433514" lon="-108.112613584075"><ele>1783.0000000000002</ele><time>2026-04-05T21:22:52Z</time></trkpt><trkpt lat="36.833445554178546" lon="-108.11263052655444"><ele>1783.0000000000002</ele><time>2026-04-05T21:22:53Z</time></trkpt><trkpt lat="36.833330958184874" lon="-108.11263290455527"><ele>1783.0</ele><time>2026-04-05T21:22:54Z</time></trkpt><trkpt lat="36.83321701288042" lon="-108.11258252756943"><ele>1783.0</ele><time>2026-04-05T21:22:55Z</time></trkpt><trkpt lat="36.83308091370833" lon="-108.11251054043235"><ele>1782.25</ele><time>2026-04-05T21:22:56Z</time></trkpt><trkpt lat="36.83292215664715" lon="-108.11245210043715"><ele>1781.5</ele><time>2026-04-05T21:22:57Z</time></trkpt><trkpt lat="36.83276555682992" lon="-108.11238781657093"><ele>1780.75</ele><time>2026-04-05T21:22:58Z</time></trkpt><trkpt lat="36.832662666765536" lon="-108.1123520975954"><ele>1780.0</ele><time>2026-04-05T21:22:59Z</time></trkpt><trkpt lat="36.83254274604189" lon="-108.11235368700034"><ele>1778.0</ele><time>2026-04-05T21:23:00Z</time></trkpt><trkpt lat="36.83242487775216" lon="-108.1124024735223"><ele>1776.0</ele><time>2026-04-05T21:23:01Z</time></trkpt><trkpt lat="36.83231257840277" lon="-108.11248561980321"><ele>1774.0</ele><time>2026-04-05T21:23:02Z</time></trkpt><trkpt lat="36.832178533986045" lon="-108.11250865467073"><ele>1772.0</ele><time>2026-04-05T21:23:03Z</time></trkpt><trkpt lat="36.83205771638031" lon="-108.11250248799784"><ele>1771.8333333333333</ele><time>2026-04-05T21:23:04Z</time></trkpt><trkpt lat="36.83196387784741" lon="-108.11252347479706"><ele>1771.6666666666665</ele><time>2026-04-05T21:23:05Z</time></trkpt><trkpt lat="36.83188502652442" lon="-108.11257904656175"><ele>1771.5</ele><time>2026-04-05T21:23:07Z</time></trkpt><trkpt lat="36.831829423462146" lon="-108.11254024772403"><ele>1771.3333333333335</ele><time>2026-04-05T21:23:10Z</time></trkpt><trkpt lat="36.831772762258645" lon="-108.11249699165155"><ele>1771.1666666666667</ele><time>2026-04-05T21:23:13Z</time></trkpt><trkpt lat="36.83171104566716" lon="-108.11253817575917"><ele>1771.0</ele><time>2026-04-05T21:23:15Z</time></trkpt><trkpt lat="36.831664974208685" lon="-108.11259749560078"><ele>1771.0</ele><time>2026-04-05T21:23:18Z</time></trkpt><trkpt lat="36.83159982075481" lon="-108.11262197946837"><ele>1771.0</ele><time>2026-04-05T21:23:23Z</time></trkpt><trkpt lat="36.83152907328909" lon="-108.1127305919765"><ele>1771.0</ele><time>2026-04-05T21:23:25Z</time></trkpt><trkpt lat="36.83143275620835" lon="-108.1127428198732"><ele>1771.0</ele><time>2026-04-05T21:23:26Z</time></trkpt><trkpt lat="36.83132977103909" lon="-108.11275895945803"><ele>1771.0</ele><time>2026-04-05T21:23:27Z</time></trkpt><trkpt lat="36.831221761803484" lon="-108.11276432488613"><ele>1771.0</ele><time>2026-04-05T21:23:28Z</time></trkpt><trkpt lat="36.83110887307229" lon="-108.11277485169528"><ele>1771.0</ele><time>2026-04-05T21:23:29Z</time></trkpt><trkpt lat="36.830969528464145" lon="-108.11278467948428"><ele>1771.0</ele><time>2026-04-05T21:23:30Z</time></trkpt><trkpt lat="36.83084995508132" lon="-108.11277095719413"><ele>1771.0</ele><time>2026-04-05T21:23:31Z</time></trkpt><trkpt lat="36.83074817636961" lon="-108.11278400477524"><ele>1771.0000000000002</ele><time>2026-04-05T21:23:32Z</time></trkpt><trkpt lat="36.830646385907194" lon="-108.11279747064121"><ele>1771.0</ele><time>2026-04-05T21:23:33Z</time></trkpt><trkpt lat="36.83053924232644" lon="-108.11281311306945"><ele>1771.0</ele><time>2026-04-05T21:23:34Z</time></trkpt><trkpt lat="36.83047036840316" lon="-108.11283722697874"><ele>1771.0</ele><time>2026-04-05T21:23:35Z</time></trkpt><trkpt lat="36.83042761881637" lon="-108.11291600549387"><ele>1771.0000000000002</ele><time>2026-04-05T21:23:36Z</time></trkpt><trkpt lat="36.83040937336782" lon="-108.1130148760819"><ele>1771.0</ele><time>2026-04-05T21:23:37Z</time></trkpt><trkpt lat="36.83040310979283" lon="-108.11312818856196"><ele>1771.0</ele><time>2026-04-05T21:23:39Z</time></trkpt><trkpt lat="36.83037083876626" lon="-108.11322570509084"><ele>1771.0</ele><time>2026-04-05T21:23:40Z</time></trkpt><trkpt lat="36.83029630365186" lon="-108.1133096523366"><ele>1771.0</ele><time>2026-04-05T21:23:41Z</time></trkpt><trkpt lat="36.830226719698395" lon="-108.11339330655571"><ele>1771.0</ele><time>2026-04-05T21:23:42Z</time></trkpt><trkpt lat="36.83018357653091" lon="-108.11352321487034"><ele>1771.0</ele><time>2026-04-05T21:23:43Z</time></trkpt><trkpt lat="36.83015120324022" lon="-108.11367203362255"><ele>1770.8</ele><time>2026-04-05T21:23:44Z</time></trkpt><trkpt lat="36.83010391459538" lon="-108.11382139380646"><ele>1770.6</ele><time>2026-04-05T21:23:45Z</time></trkpt><trkpt lat="36.830050642942446" lon="-108.11394265336286"><ele>1770.4</ele><time>2026-04-05T21:23:46Z</time></trkpt><trkpt lat="36.83003542917745" lon="-108.11405017801786"><ele>1770.2</ele><time>2026-04-05T21:23:47Z</time></trkpt><trkpt lat="36.83004032002084" lon="-108.11416962593391"><ele>1770.0</ele><time>2026-04-05T21:23:48Z</time></trkpt><trkpt lat="36.830024967624915" lon="-108.11425472056901"><ele>1770.0</ele><time>2026-04-05T21:23:49Z</time></trkpt><trkpt lat="36.82994174235675" lon="-108.11439213391935"><ele>1770.0</ele><time>2026-04-05T21:23:51Z</time></trkpt><trkpt lat="36.82986363320015" lon="-108.11438043925759"><ele>1770.0</ele><time>2026-04-05T21:23:52Z</time></trkpt><trkpt lat="36.82978458558942" lon="-108.11442832962634"><ele>1770.0</ele><time>2026-04-05T21:23:53Z</time></trkpt><trkpt lat="36.82966994307375" lon="-108.11448571522165"><ele>1770.0</ele><time>2026-04-05T21:23:54Z</time></trkpt><trkpt lat="36.8295390631321" lon="-108.11460162314489"><ele>1770.0</ele><time>2026-04-05T21:23:55Z</time></trkpt><trkpt lat="36.829405907574106" lon="-108.11470486520594"><ele>1770.0</ele><time>2026-04-05T21:23:56Z</time></trkpt><trkpt lat="36.82925281226829" lon="-108.11480403517797"><ele>1770.0</ele><time>2026-04-05T21:23:57Z</time></trkpt><trkpt lat="36.82908327036207" lon="-108.11489999104538"><ele>1770.0</ele><time>2026-04-05T21:23:58Z</time></trkpt><trkpt lat="36.82893458304124" lon="-108.11498302917697"><ele>1770.0</ele><time>2026-04-05T21:23:59Z</time></trkpt><trkpt lat="36.82880860412625" lon="-108.11506339385566"><ele>1770.0</ele><time>2026-04-05T21:24:00Z</time></trkpt><trkpt lat="36.82866781442052" lon="-108.11514673524003"><ele>1770.0</ele><time>2026-04-05T21:24:01Z</time></trkpt><trkpt lat="36.828534220455545" lon="-108.11524760607476"><ele>1770.0</ele><time>2026-04-05T21:24:02Z</time></trkpt><trkpt lat="36.828388286207016" lon="-108.11534143815129"><ele>1770.0</ele><time>2026-04-05T21:24:03Z</time></trkpt><trkpt lat="36.82825472294648" lon="-108.11540588409893"><ele>1771.6666666666665</ele><time>2026-04-05T21:24:04Z</time></trkpt><trkpt lat="36.8281140871465" lon="-108.1155000953214"><ele>1773.3333333333333</ele><time>2026-04-05T21:24:05Z</time></trkpt><trkpt lat="36.8279793953822" lon="-108.11558804009299"><ele>1775.0</ele><time>2026-04-05T21:24:06Z</time></trkpt><trkpt lat="36.827841065986114" lon="-108.11566426306152"><ele>1775.25</ele><time>2026-04-05T21:24:07Z</time></trkpt><trkpt lat="36.82769952850303" lon="-108.11574990694825"><ele>1775.5</ele><time>2026-04-05T21:24:08Z</time></trkpt><trkpt lat="36.827574637519604" lon="-108.11583509246496"><ele>1775.75</ele><time>2026-04-05T21:24:09Z</time></trkpt><trkpt lat="36.82744796247073" lon="-108.11591163309704"><ele>1776.0</ele><time>2026-04-05T21:24:10Z</time></trkpt><trkpt lat="36.82729759717341" lon="-108.11600438844589"><ele>1777.0</ele><time>2026-04-05T21:24:11Z</time></trkpt><trkpt lat="36.827153273914675" lon="-108.11610653788544"><ele>1778.0</ele><time>2026-04-05T21:24:12Z</time></trkpt><trkpt lat="36.827007062831704" lon="-108.1162199246129"><ele>1779.0</ele><time>2026-04-05T21:24:13Z</time></trkpt><trkpt lat="36.82684971426462" lon="-108.11632126928302"><ele>1778.25</ele><time>2026-04-05T21:24:14Z</time></trkpt><trkpt lat="36.82669630348858" lon="-108.11641530019617"><ele>1777.5</ele><time>2026-04-05T21:24:15Z</time></trkpt><trkpt lat="36.82656874836631" lon="-108.11649013554127"><ele>1776.75</ele><time>2026-04-05T21:24:16Z</time></trkpt><trkpt lat="36.826447133096224" lon="-108.11655303014345"><ele>1776.0</ele><time>2026-04-05T21:24:17Z</time></trkpt><trkpt lat="36.82630637570915" lon="-108.11661395380862"><ele>1776.0</ele><time>2026-04-05T21:24:18Z</time></trkpt><trkpt lat="36.826172077194826" lon="-108.11673911886537"><ele>1776.0</ele><time>2026-04-05T21:24:19Z</time></trkpt><trkpt lat="36.826013933605346" lon="-108.11686408950708"><ele>1776.0</ele><time>2026-04-05T21:24:20Z</time></trkpt><trkpt lat="36.82586667037783" lon="-108.11693044059719"><ele>1776.3333333333335</ele><time>2026-04-05T21:24:21Z</time></trkpt><trkpt lat="36.82572429387577" lon="-108.11701078560827"><ele>1776.6666666666667</ele><time>2026-04-05T21:24:22Z</time></trkpt><trkpt lat="36.82557911610195" lon="-108.11712200052875"><ele>1777.0</ele><time>2026-04-05T21:24:23Z</time></trkpt><trkpt lat="36.82541740583794" lon="-108.1172373329048"><ele>1777.0</ele><time>2026-04-05T21:24:24Z</time></trkpt><trkpt lat="36.825268755337305" lon="-108.11731784917303"><ele>1777.0</ele><time>2026-04-05T21:24:25Z</time></trkpt><trkpt lat="36.82513660345273" lon="-108.11739380255085"><ele>1777.0</ele><time>2026-04-05T21:24:26Z</time></trkpt><trkpt lat="36.825015937906244" lon="-108.11747581814933"><ele>1777.0</ele><time>2026-04-05T21:24:27Z</time></trkpt><trkpt lat="36.82488817762817" lon="-108.11756027952526"><ele>1777.75</ele><time>2026-04-05T21:24:28Z</time></trkpt><trkpt lat="36.82475608208382" lon="-108.1176333866588"><ele>1778.5</ele><time>2026-04-05T21:24:29Z</time></trkpt><trkpt lat="36.82461393810595" lon="-108.11771115469271"><ele>1779.25</ele><time>2026-04-05T21:24:30Z</time></trkpt><trkpt lat="36.82448403073404" lon="-108.11779864874099"><ele>1780.0</ele><time>2026-04-05T21:24:31Z</time></trkpt><trkpt lat="36.824337890224555" lon="-108.11788876679243"><ele>1780.5</ele><time>2026-04-05T21:24:32Z</time></trkpt><trkpt lat="36.824200451640145" lon="-108.11798950502164"><ele>1781.0</ele><time>2026-04-05T21:24:33Z</time></trkpt><trkpt lat="36.82408187048826" lon="-108.11806970291714"><ele>1781.5</ele><time>2026-04-05T21:24:34Z</time></trkpt><trkpt lat="36.82396986204642" lon="-108.11815029681865"><ele>1782.0</ele><time>2026-04-05T21:24:35Z</time></trkpt><trkpt lat="36.82386197352816" lon="-108.11823095639996"><ele>1782.1999999999998</ele><time>2026-04-05T21:24:36Z</time></trkpt><trkpt lat="36.82377423925677" lon="-108.11827401931139"><ele>1782.3999999999999</ele><time>2026-04-05T21:24:37Z</time></trkpt><trkpt lat="36.82366618334917" lon="-108.11832895261274"><ele>1782.6000000000001</ele><time>2026-04-05T21:24:38Z</time></trkpt><trkpt lat="36.82356216795926" lon="-108.11840233556039"><ele>1782.8000000000002</ele><time>2026-04-05T21:24:39Z</time></trkpt><trkpt lat="36.82347538429948" lon="-108.11846570603966"><ele>1783.0</ele><time>2026-04-05T21:24:40Z</time></trkpt><trkpt lat="36.823360403412025" lon="-108.11854361862562"><ele>1781.6666666666667</ele><time>2026-04-05T21:24:41Z</time></trkpt><trkpt lat="36.82321377045818" lon="-108.11864547490077"><ele>1780.3333333333335</ele><time>2026-04-05T21:24:42Z</time></trkpt><trkpt lat="36.82307034197623" lon="-108.11874320369401"><ele>1779.0</ele><time>2026-04-05T21:24:43Z</time></trkpt><trkpt lat="36.82294183050671" lon="-108.11881661066"><ele>1779.0</ele><time>2026-04-05T21:24:44Z</time></trkpt><trkpt lat="36.82284402630696" lon="-108.11889273311937"><ele>1779.0</ele><time>2026-04-05T21:24:45Z</time></trkpt><trkpt lat="36.82273488239692" lon="-108.11897386481334"><ele>1779.0</ele><time>2026-04-05T21:24:46Z</time></trkpt><trkpt lat="36.8226151606052" lon="-108.11904764910177"><ele>1779.0</ele><time>2026-04-05T21:24:47Z</time></trkpt><trkpt lat="36.822480981479615" lon="-108.11912701060993"><ele>1777.6666666666665</ele><time>2026-04-05T21:24:48Z</time></trkpt><trkpt lat="36.82234376663598" lon="-108.11922100013669"><ele>1776.3333333333333</ele><time>2026-04-05T21:24:49Z</time></trkpt><trkpt lat="36.82220690921652" lon="-108.11931884237985"><ele>1775.0</ele><time>2026-04-05T21:24:50Z</time></trkpt><trkpt lat="36.82208970827826" lon="-108.11940758138857"><ele>1775.0</ele><time>2026-04-05T21:24:51Z</time></trkpt><trkpt lat="36.82200838742967" lon="-108.1194479408027"><ele>1775.0</ele><time>2026-04-05T21:24:52Z</time></trkpt><trkpt lat="36.821927409266976" lon="-108.11945501717004"><ele>1775.0</ele><time>2026-04-05T21:24:53Z</time></trkpt><trkpt lat="36.82183130431896" lon="-108.11941894282059"><ele>1775.0</ele><time>2026-04-05T21:24:54Z</time></trkpt><trkpt lat="36.82172328684595" lon="-108.11937643942247"><ele>1775.0</ele><time>2026-04-05T21:24:55Z</time></trkpt><trkpt lat="36.82164029099257" lon="-108.11937950154356"><ele>1775.2</ele><time>2026-04-05T21:24:56Z</time></trkpt><trkpt lat="36.821574230624464" lon="-108.11945676466004"><ele>1775.4</ele><time>2026-04-05T21:24:57Z</time></trkpt><trkpt lat="36.82149847558876" lon="-108.11952732988159"><ele>1775.6</ele><time>2026-04-05T21:24:58Z</time></trkpt><trkpt lat="36.82141413932489" lon="-108.11956874978175"><ele>1775.8</ele><time>2026-04-05T21:24:59Z</time></trkpt><trkpt lat="36.82133611008237" lon="-108.11966841761803"><ele>1776.0</ele><time>2026-04-05T21:25:01Z</time></trkpt><trkpt lat="36.8212893069793" lon="-108.11974946045065"><ele>1776.0</ele><time>2026-04-05T21:25:02Z</time></trkpt><trkpt lat="36.821207716822734" lon="-108.11978370903252"><ele>1776.0</ele><time>2026-04-05T21:25:03Z</time></trkpt><trkpt lat="36.82109776755369" lon="-108.11983672607046"><ele>1776.0</ele><time>2026-04-05T21:25:04Z</time></trkpt><trkpt lat="36.821033503703646" lon="-108.11993404470755"><ele>1776.0</ele><time>2026-04-05T21:25:05Z</time></trkpt><trkpt lat="36.820995390627495" lon="-108.12001004649215"><ele>1776.0</ele><time>2026-04-05T21:25:06Z</time></trkpt><trkpt lat="36.8209545009933" lon="-108.12007760991132"><ele>1776.0</ele><time>2026-04-05T21:25:07Z</time></trkpt><trkpt lat="36.82090202898705" lon="-108.1201414186787"><ele>1775.4</ele><time>2026-04-05T21:25:08Z</time></trkpt><trkpt lat="36.82085773436419" lon="-108.12020044401936"><ele>1774.8</ele><time>2026-04-05T21:25:09Z</time></trkpt><trkpt lat="36.82076896774448" lon="-108.12029772443007"><ele>1774.2000000000003</ele><time>2026-04-05T21:25:11Z</time></trkpt><trkpt lat="36.820667775870575" lon="-108.1203481079377"><ele>1773.6000000000001</ele><time>2026-04-05T21:25:13Z</time></trkpt><trkpt lat="36.82060325480846" lon="-108.1203587576201"><ele>1773.0</ele><time>2026-04-05T21:25:14Z</time></trkpt><trkpt lat="36.820504177247095" lon="-108.12041126757275"><ele>1773.0</ele><time>2026-04-05T21:25:16Z</time></trkpt><trkpt lat="36.82040896039597" lon="-108.12047558223188"><ele>1773.0</ele><time>2026-04-05T21:25:18Z</time></trkpt><trkpt lat="36.82029677804354" lon="-108.12058678669013"><ele>1773.0</ele><time>2026-04-05T21:25:20Z</time></trkpt><trkpt lat="36.82024028765356" lon="-108.12069003865065"><ele>1773.0</ele><time>2026-04-05T21:25:21Z</time></trkpt><trkpt lat="36.82019291413373" lon="-108.12080415522091"><ele>1773.2</ele><time>2026-04-05T21:25:22Z</time></trkpt><trkpt lat="36.820163263888105" lon="-108.12088956999138"><ele>1773.4</ele><time>2026-04-05T21:25:23Z</time></trkpt><trkpt lat="36.82014730524031" lon="-108.12100198248667"><ele>1773.6000000000001</ele><time>2026-04-05T21:25:25Z</time></trkpt><trkpt lat="36.82007355230756" lon="-108.12109187719524"><ele>1773.8000000000002</ele><time>2026-04-05T21:25:27Z</time></trkpt><trkpt lat="36.81995471656847" lon="-108.12107876486239"><ele>1774.0</ele><time>2026-04-05T21:25:29Z</time></trkpt><trkpt lat="36.81986908411141" lon="-108.12103612829395"><ele>1774.0000000000002</ele><time>2026-04-05T21:25:30Z</time></trkpt><trkpt lat="36.81982687505227" lon="-108.12096147709526"><ele>1774.0</ele><time>2026-04-05T21:25:31Z</time></trkpt><trkpt lat="36.81978232429937" lon="-108.12089623173101"><ele>1774.0</ele><time>2026-04-05T21:25:32Z</time></trkpt><trkpt lat="36.819707625483815" lon="-108.12090344073228"><ele>1774.0</ele><time>2026-04-05T21:25:33Z</time></trkpt><trkpt lat="36.81962590621448" lon="-108.1209734822895"><ele>1774.0000000000002</ele><time>2026-04-05T21:25:34Z</time></trkpt><trkpt lat="36.819532505735054" lon="-108.12105915362505"><ele>1774.0</ele><time>2026-04-05T21:25:35Z</time></trkpt><trkpt lat="36.81942836316398" lon="-108.12113274874932"><ele>1775.25</ele><time>2026-04-05T21:25:36Z</time></trkpt><trkpt lat="36.81931497888694" lon="-108.12120985963698"><ele>1776.5</ele><time>2026-04-05T21:25:37Z</time></trkpt><trkpt lat="36.819194593144644" lon="-108.12129737236086"><ele>1777.75</ele><time>2026-04-05T21:25:38Z</time></trkpt><trkpt lat="36.81907609737018" lon="-108.12136317988482"><ele>1779.0</ele><time>2026-04-05T21:25:39Z</time></trkpt><trkpt lat="36.81894421957952" lon="-108.1214260729856"><ele>1779.0</ele><time>2026-04-05T21:25:40Z</time></trkpt><trkpt lat="36.81879974331865" lon="-108.1215066496208"><ele>1779.0</ele><time>2026-04-05T21:25:41Z</time></trkpt><trkpt lat="36.818665945842156" lon="-108.12161249985733"><ele>1779.0</ele><time>2026-04-05T21:25:42Z</time></trkpt><trkpt lat="36.81854858269441" lon="-108.12167985919567"><ele>1779.0</ele><time>2026-04-05T21:25:43Z</time></trkpt><trkpt lat="36.81842852707057" lon="-108.12173569658361"><ele>1780.5</ele><time>2026-04-05T21:25:44Z</time></trkpt><trkpt lat="36.8183255573379" lon="-108.12179025993882"><ele>1782.0</ele><time>2026-04-05T21:25:45Z</time></trkpt><trkpt lat="36.81823161844326" lon="-108.12186803617097"><ele>1783.5</ele><time>2026-04-05T21:25:46Z</time></trkpt><trkpt lat="36.81812656388202" lon="-108.12193832581002"><ele>1785.0</ele><time>2026-04-05T21:25:47Z</time></trkpt><trkpt lat="36.81802367799763" lon="-108.1220002418041"><ele>1785.0</ele><time>2026-04-05T21:25:48Z</time></trkpt><trkpt lat="36.81793575627195" lon="-108.1220530163415"><ele>1785.0</ele><time>2026-04-05T21:25:49Z</time></trkpt><trkpt lat="36.817872378472316" lon="-108.12209077672443"><ele>1785.0</ele><time>2026-04-05T21:25:50Z</time></trkpt><trkpt lat="36.817810007567694" lon="-108.12212822155583"><ele>1785.0</ele><time>2026-04-05T21:25:51Z</time></trkpt><trkpt lat="36.81774704374966" lon="-108.12218134535199"><ele>1785.0</ele><time>2026-04-05T21:25:54Z</time></trkpt><trkpt lat="36.817679476912886" lon="-108.12222485196713"><ele>1785.0</ele><time>2026-04-05T21:25:57Z</time></trkpt><trkpt lat="36.81759934661193" lon="-108.12229027805445"><ele>1784.6</ele><time>2026-04-05T21:26:00Z</time></trkpt><trkpt lat="36.81753035742269" lon="-108.12235345263244"><ele>1784.2</ele><time>2026-04-05T21:26:01Z</time></trkpt><trkpt lat="36.81744298012574" lon="-108.12241271390782"><ele>1783.8000000000002</ele><time>2026-04-05T21:26:02Z</time></trkpt><trkpt lat="36.8173526415905" lon="-108.12248239945286"><ele>1783.4</ele><time>2026-04-05T21:26:03Z</time></trkpt><trkpt lat="36.81725676907329" lon="-108.12256951433841"><ele>1783.0</ele><time>2026-04-05T21:26:04Z</time></trkpt><trkpt lat="36.81714618828011" lon="-108.12265019732284"><ele>1783.0</ele><time>2026-04-05T21:26:05Z</time></trkpt><trkpt lat="36.817024447368546" lon="-108.12273817715774"><ele>1783.0</ele><time>2026-04-05T21:26:06Z</time></trkpt><trkpt lat="36.81690258925894" lon="-108.12282808295377"><ele>1783.0</ele><time>2026-04-05T21:26:07Z</time></trkpt><trkpt lat="36.81677008284559" lon="-108.12291749330295"><ele>1783.0</ele><time>2026-04-05T21:26:08Z</time></trkpt><trkpt lat="36.81664735374481" lon="-108.12303885748466"><ele>1782.75</ele><time>2026-04-05T21:26:09Z</time></trkpt><trkpt lat="36.81653369423614" lon="-108.12315307454067"><ele>1782.5</ele><time>2026-04-05T21:26:10Z</time></trkpt><trkpt lat="36.81643417471913" lon="-108.12326996692488"><ele>1782.25</ele><time>2026-04-05T21:26:11Z</time></trkpt><trkpt lat="36.81631378695428" lon="-108.12339679427494"><ele>1782.0</ele><time>2026-04-05T21:26:12Z</time></trkpt><trkpt lat="36.81622482942148" lon="-108.12348386770527"><ele>1782.0</ele><time>2026-04-05T21:26:13Z</time></trkpt><trkpt lat="36.816145761850805" lon="-108.12355184642234"><ele>1781.9999999999998</ele><time>2026-04-05T21:26:14Z</time></trkpt><trkpt lat="36.81606362536927" lon="-108.12359881534377"><ele>1781.9999999999998</ele><time>2026-04-05T21:26:15Z</time></trkpt><trkpt lat="36.815956176351825" lon="-108.12363119712765"><ele>1782.0</ele><time>2026-04-05T21:26:16Z</time></trkpt><trkpt lat="36.81586793420084" lon="-108.12362303175885"><ele>1782.0</ele><time>2026-04-05T21:26:17Z</time></trkpt><trkpt lat="36.81581073409785" lon="-108.12356876448203"><ele>1782.1666666666667</ele><time>2026-04-05T21:26:18Z</time></trkpt><trkpt lat="36.815728951693536" lon="-108.1236038009643"><ele>1782.3333333333335</ele><time>2026-04-05T21:26:20Z</time></trkpt><trkpt lat="36.815661250186295" lon="-108.1236459923324"><ele>1782.5</ele><time>2026-04-05T21:26:21Z</time></trkpt><trkpt lat="36.81559404262556" lon="-108.1237004844148"><ele>1782.6666666666667</ele><time>2026-04-05T21:26:22Z</time></trkpt><trkpt lat="36.81554091523878" lon="-108.1237502205878"><ele>1782.8333333333335</ele><time>2026-04-05T21:26:23Z</time></trkpt><trkpt lat="36.81547406512932" lon="-108.12381170512816"><ele>1783.0</ele><time>2026-04-05T21:26:36Z</time></trkpt><trkpt lat="36.81538785636511" lon="-108.1238858194297"><ele>1783.0</ele><time>2026-04-05T21:26:38Z</time></trkpt><trkpt lat="36.81528364465994" lon="-108.12397810197638"><ele>1783.0000000000002</ele><time>2026-04-05T21:26:40Z</time></trkpt><trkpt lat="36.81520181821459" lon="-108.12402667246243"><ele>1783.0000000000002</ele><time>2026-04-05T21:26:41Z</time></trkpt><trkpt lat="36.815105423457005" lon="-108.12408953670648"><ele>1783.0</ele><time>2026-04-05T21:26:42Z</time></trkpt><trkpt lat="36.81501448153293" lon="-108.12416195066046"><ele>1783.0</ele><time>2026-04-05T21:26:43Z</time></trkpt><trkpt lat="36.81491255466576" lon="-108.12424920099886"><ele>1784.75</ele><time>2026-04-05T21:26:44Z</time></trkpt><trkpt lat="36.81479951166295" lon="-108.12434158878649"><ele>1786.5</ele><time>2026-04-05T21:26:45Z</time></trkpt><trkpt lat="36.81467795892931" lon="-108.12442475080051"><ele>1788.25</ele><time>2026-04-05T21:26:46Z</time></trkpt><trkpt lat="36.81454476293971" lon="-108.12450373501274"><ele>1790.0</ele><time>2026-04-05T21:26:47Z</time></trkpt><trkpt lat="36.81440292304001" lon="-108.12460378739898"><ele>1790.0</ele><time>2026-04-05T21:26:48Z</time></trkpt><trkpt lat="36.81426625980689" lon="-108.12470407297143"><ele>1790.0</ele><time>2026-04-05T21:26:49Z</time></trkpt><trkpt lat="36.814145878251736" lon="-108.12479022250147"><ele>1790.0</ele><time>2026-04-05T21:26:50Z</time></trkpt><trkpt lat="36.814046199478966" lon="-108.12485151169714"><ele>1790.0</ele><time>2026-04-05T21:26:51Z</time></trkpt><trkpt lat="36.813946342400264" lon="-108.12492092323966"><ele>1790.75</ele><time>2026-04-05T21:26:52Z</time></trkpt><trkpt lat="36.81384348544117" lon="-108.12499399771445"><ele>1791.5</ele><time>2026-04-05T21:26:53Z</time></trkpt><trkpt lat="36.81372452482006" lon="-108.12507894732782"><ele>1792.25</ele><time>2026-04-05T21:26:54Z</time></trkpt><trkpt lat="36.81360836227347" lon="-108.12516046733721"><ele>1793.0</ele><time>2026-04-05T21:26:55Z</time></trkpt><trkpt lat="36.81349193428339" lon="-108.12525271928727"><ele>1793.25</ele><time>2026-04-05T21:26:56Z</time></trkpt><trkpt lat="36.813370500110985" lon="-108.12534284161734"><ele>1793.5</ele><time>2026-04-05T21:26:57Z</time></trkpt><trkpt lat="36.81324890768468" lon="-108.12542839696357"><ele>1793.75</ele><time>2026-04-05T21:26:58Z</time></trkpt><trkpt lat="36.813140314187336" lon="-108.12551700557768"><ele>1794.0</ele><time>2026-04-05T21:26:59Z</time></trkpt><trkpt lat="36.813036198185664" lon="-108.12559401008681"><ele>1794.0</ele><time>2026-04-05T21:27:00Z</time></trkpt><trkpt lat="36.81293850945253" lon="-108.12566049433089"><ele>1794.0</ele><time>2026-04-05T21:27:01Z</time></trkpt><trkpt lat="36.81283562052798" lon="-108.12572711228825"><ele>1794.0</ele><time>2026-04-05T21:27:02Z</time></trkpt><trkpt lat="36.812727764489296" lon="-108.12579478378316"><ele>1794.0</ele><time>2026-04-05T21:27:03Z</time></trkpt><trkpt lat="36.81261894475845" lon="-108.12587230707904"><ele>1794.5</ele><time>2026-04-05T21:27:04Z</time></trkpt><trkpt lat="36.81250952036348" lon="-108.12596264022376"><ele>1795.0</ele><time>2026-04-05T21:27:05Z</time></trkpt><trkpt lat="36.81241941244136" lon="-108.126056565313"><ele>1795.5</ele><time>2026-04-05T21:27:06Z</time></trkpt><trkpt lat="36.81233811406859" lon="-108.12614653051436"><ele>1796.0</ele><time>2026-04-05T21:27:07Z</time></trkpt><trkpt lat="36.81224506115731" lon="-108.12622164150591"><ele>1796.0</ele><time>2026-04-05T21:27:08Z</time></trkpt><trkpt lat="36.81213613402277" lon="-108.12628949321538"><ele>1796.0</ele><time>2026-04-05T21:27:09Z</time></trkpt><trkpt lat="36.812013389355094" lon="-108.12633411790029"><ele>1796.0</ele><time>2026-04-05T21:27:10Z</time></trkpt><trkpt lat="36.81188015322567" lon="-108.1263691692951"><ele>1796.0</ele><time>2026-04-05T21:27:11Z</time></trkpt><trkpt lat="36.811741574366685" lon="-108.12642212263148"><ele>1796.6666666666665</ele><time>2026-04-05T21:27:12Z</time></trkpt><trkpt lat="36.81159901735989" lon="-108.12648826343565"><ele>1797.3333333333335</ele><time>2026-04-05T21:27:13Z</time></trkpt><trkpt lat="36.811436176788035" lon="-108.12652076198108"><ele>1798.0</ele><time>2026-04-05T21:27:14Z</time></trkpt><trkpt lat="36.811287360289896" lon="-108.12653978246402"><ele>1798.6000000000001</ele><time>2026-04-05T21:27:15Z</time></trkpt><trkpt lat="36.811187936647" lon="-108.12656746489918"><ele>1799.2000000000003</ele><time>2026-04-05T21:27:16Z</time></trkpt><trkpt lat="36.8111537456989" lon="-108.1266398590336"><ele>1799.8</ele><time>2026-04-05T21:27:17Z</time></trkpt><trkpt lat="36.811129822138" lon="-108.12674300238275"><ele>1800.4</ele><time>2026-04-05T21:27:18Z</time></trkpt><trkpt lat="36.811044529978034" lon="-108.12682923643875"><ele>1801.0</ele><time>2026-04-05T21:27:19Z</time></trkpt><trkpt lat="36.81095647573693" lon="-108.12688678995204"><ele>1801.0</ele><time>2026-04-05T21:27:20Z</time></trkpt><trkpt lat="36.81087396339511" lon="-108.12693896914021"><ele>1801.0</ele><time>2026-04-05T21:27:21Z</time></trkpt><trkpt lat="36.81076000711398" lon="-108.1267489278704"><ele>1801.0</ele><time>2026-04-05T21:27:23Z</time></trkpt><trkpt lat="36.8106687518809" lon="-108.1266367467284"><ele>1801.0</ele><time>2026-04-05T21:27:24Z</time></trkpt><trkpt lat="36.81052907258805" lon="-108.12658808973298"><ele>1801.0</ele><time>2026-04-05T21:27:25Z</time></trkpt><trkpt lat="36.81039272713676" lon="-108.1265169960533"><ele>1801.0</ele><time>2026-04-05T21:27:26Z</time></trkpt><trkpt lat="36.810280562102854" lon="-108.12645280379002"><ele>1801.0</ele><time>2026-04-05T21:27:27Z</time></trkpt><trkpt lat="36.81016773815915" lon="-108.12638099387509"><ele>1801.0</ele><time>2026-04-05T21:27:28Z</time></trkpt><trkpt lat="36.81008166597102" lon="-108.12632090318301"><ele>1800.0</ele><time>2026-04-05T21:27:29Z</time></trkpt><trkpt lat="36.81001633761766" lon="-108.12630778536841"><ele>1799.0</ele><time>2026-04-05T21:27:30Z</time></trkpt><trkpt lat="36.809933315210415" lon="-108.12629900411174"><ele>1798.0</ele><time>2026-04-05T21:27:31Z</time></trkpt><trkpt lat="36.809810619726036" lon="-108.12626911885343"><ele>1797.0</ele><time>2026-04-05T21:27:32Z</time></trkpt><trkpt lat="36.80967785025821" lon="-108.12624245287378"><ele>1796.0</ele><time>2026-04-05T21:27:33Z</time></trkpt><trkpt lat="36.809504531985105" lon="-108.12624657138196"><ele>1796.0</ele><time>2026-04-05T21:27:34Z</time></trkpt><trkpt lat="36.80938325471588" lon="-108.12630640721528"><ele>1796.0</ele><time>2026-04-05T21:27:35Z</time></trkpt><trkpt lat="36.809266833523616" lon="-108.12646407816463"><ele>1796.0</ele><time>2026-04-05T21:27:36Z</time></trkpt><trkpt lat="36.80912889137702" lon="-108.12655309874077"><ele>1794.25</ele><time>2026-04-05T21:27:37Z</time></trkpt><trkpt lat="36.808981564283734" lon="-108.12665318774576"><ele>1792.5</ele><time>2026-04-05T21:27:38Z</time></trkpt><trkpt lat="36.808856897958655" lon="-108.12673603733256"><ele>1790.75</ele><time>2026-04-05T21:27:39Z</time></trkpt><trkpt lat="36.80874952621826" lon="-108.12680360630395"><ele>1789.0</ele><time>2026-04-05T21:27:40Z</time></trkpt><trkpt lat="36.80865614515165" lon="-108.12684882801109"><ele>1789.0</ele><time>2026-04-05T21:27:41Z</time></trkpt><trkpt lat="36.80856719130485" lon="-108.12689320762085"><ele>1789.0</ele><time>2026-04-05T21:27:42Z</time></trkpt><trkpt lat="36.80849005449324" lon="-108.12691498173963"><ele>1789.0</ele><time>2026-04-05T21:27:43Z</time></trkpt><trkpt lat="36.80835692389069" lon="-108.12692734042052"><ele>1789.0</ele><time>2026-04-05T21:27:45Z</time></trkpt><trkpt lat="36.808296667812456" lon="-108.12690364283844"><ele>1789.0</ele><time>2026-04-05T21:27:47Z</time></trkpt><trkpt lat="36.808188679013796" lon="-108.1273223291927"><ele>1789.5000000000002</ele><time>2026-04-05T21:27:49Z</time></trkpt><trkpt lat="36.808121390821114" lon="-108.12739658306026"><ele>1790.0</ele><time>2026-04-05T21:28:24Z</time></trkpt><trkpt lat="36.808078338611104" lon="-108.1274544433433"><ele>1790.5</ele><time>2026-04-05T21:28:25Z</time></trkpt><trkpt lat="36.80802643097475" lon="-108.12753213670551"><ele>1791.0</ele><time>2026-04-05T21:28:26Z</time></trkpt><trkpt lat="36.807965865261615" lon="-108.1276047669981"><ele>1791.5000000000002</ele><time>2026-04-05T21:28:27Z</time></trkpt><trkpt lat="36.80790244898154" lon="-108.12766967247138"><ele>1792.0</ele><time>2026-04-05T21:28:28Z</time></trkpt><trkpt lat="36.80785195796224" lon="-108.12776312755224"><ele>1792.0</ele><time>2026-04-05T21:28:29Z</time></trkpt><trkpt lat="36.80784915317677" lon="-108.12786601128636"><ele>1791.9999999999998</ele><time>2026-04-05T21:28:30Z</time></trkpt><trkpt lat="36.807857930488474" lon="-108.12799664175894"><ele>1791.9999999999998</ele><time>2026-04-05T21:28:31Z</time></trkpt><trkpt lat="36.80785417520981" lon="-108.12807833928204"><ele>1792.0</ele><time>2026-04-05T21:28:32Z</time></trkpt><trkpt lat="36.807805515419496" lon="-108.12819599198959"><ele>1792.0</ele><time>2026-04-05T21:28:34Z</time></trkpt><trkpt lat="36.80767644598206" lon="-108.12817194756364"><ele>1790.75</ele><time>2026-04-05T21:28:36Z</time></trkpt><trkpt lat="36.80759235586492" lon="-108.12813581795199"><ele>1789.5</ele><time>2026-04-05T21:28:37Z</time></trkpt><trkpt lat="36.80749763343284" lon="-108.12811792552236"><ele>1788.25</ele><time>2026-04-05T21:28:38Z</time></trkpt><trkpt lat="36.807369607120066" lon="-108.12816523699703"><ele>1787.0</ele><time>2026-04-05T21:28:39Z</time></trkpt><trkpt lat="36.807223819457256" lon="-108.12819704422549"><ele>1787.0</ele><time>2026-04-05T21:28:40Z</time></trkpt><trkpt lat="36.807081918456106" lon="-108.128193063136"><ele>1787.0</ele><time>2026-04-05T21:28:41Z</time></trkpt><trkpt lat="36.80691825485428" lon="-108.12816922089651"><ele>1787.0</ele><time>2026-04-05T21:28:42Z</time></trkpt><trkpt lat="36.806802267178305" lon="-108.12814296514266"><ele>1787.0</ele><time>2026-04-05T21:28:43Z</time></trkpt><trkpt lat="36.806687645010065" lon="-108.12815056094887"><ele>1786.75</ele><time>2026-04-05T21:28:44Z</time></trkpt><trkpt lat="36.80655829683975" lon="-108.12817818876336"><ele>1786.5</ele><time>2026-04-05T21:28:45Z</time></trkpt><trkpt lat="36.8064539417458" lon="-108.12824027520993"><ele>1786.25</ele><time>2026-04-05T21:28:46Z</time></trkpt><trkpt lat="36.80636368958208" lon="-108.12838145598917"><ele>1786.0</ele><time>2026-04-05T21:28:47Z</time></trkpt><trkpt lat="36.80625540971216" lon="-108.1285098216303"><ele>1786.6666666666667</ele><time>2026-04-05T21:28:48Z</time></trkpt><trkpt lat="36.80609817415281" lon="-108.12857386655921"><ele>1787.3333333333335</ele><time>2026-04-05T21:28:49Z</time></trkpt><trkpt lat="36.805943197394534" lon="-108.1286115552498"><ele>1788.0</ele><time>2026-04-05T21:28:50Z</time></trkpt><trkpt lat="36.805790767395166" lon="-108.12872197128759"><ele>1787.0</ele><time>2026-04-05T21:28:51Z</time></trkpt><trkpt lat="36.805655119235276" lon="-108.12881830606273"><ele>1786.0</ele><time>2026-04-05T21:28:52Z</time></trkpt><trkpt lat="36.80551589366667" lon="-108.12884351823088"><ele>1785.0</ele><time>2026-04-05T21:28:53Z</time></trkpt><trkpt lat="36.80539733240504" lon="-108.12888806885915"><ele>1784.0</ele><time>2026-04-05T21:28:54Z</time></trkpt><trkpt lat="36.805317769057" lon="-108.1289411005736"><ele>1784.0</ele><time>2026-04-05T21:28:55Z</time></trkpt><trkpt lat="36.80522877457082" lon="-108.1290045128971"><ele>1784.0</ele><time>2026-04-05T21:28:56Z</time></trkpt><trkpt lat="36.80515542472244" lon="-108.12909660405387"><ele>1784.0</ele><time>2026-04-05T21:28:57Z</time></trkpt><trkpt lat="36.80508325024423" lon="-108.12916418920962"><ele>1784.0</ele><time>2026-04-05T21:28:58Z</time></trkpt><trkpt lat="36.80504575958823" lon="-108.12934108138633"><ele>1784.0</ele><time>2026-04-05T21:29:00Z</time></trkpt><trkpt lat="36.80501380392668" lon="-108.12947651335176"><ele>1782.6</ele><time>2026-04-05T21:29:01Z</time></trkpt><trkpt lat="36.804963011155095" lon="-108.12958787497621"><ele>1781.2</ele><time>2026-04-05T21:29:02Z</time></trkpt><trkpt lat="36.80494919830773" lon="-108.12966841997417"><ele>1779.7999999999997</ele><time>2026-04-05T21:29:03Z</time></trkpt><trkpt lat="36.80497291425789" lon="-108.12980975631028"><ele>1778.3999999999999</ele><time>2026-04-05T21:29:04Z</time></trkpt><trkpt lat="36.80499794499276" lon="-108.12997378443404"><ele>1777.0</ele><time>2026-04-05T21:29:05Z</time></trkpt><trkpt lat="36.80500221397325" lon="-108.13015851060648"><ele>1777.0</ele><time>2026-04-05T21:29:06Z</time></trkpt><trkpt lat="36.80500608787751" lon="-108.13035252839425"><ele>1777.0</ele><time>2026-04-05T21:29:07Z</time></trkpt><trkpt lat="36.805013180384705" lon="-108.13056432978073"><ele>1777.0</ele><time>2026-04-05T21:29:08Z</time></trkpt><trkpt lat="36.80501737145607" lon="-108.13074402555078"><ele>1777.0</ele><time>2026-04-05T21:29:09Z</time></trkpt><trkpt lat="36.80501649257762" lon="-108.13092700684521"><ele>1777.0</ele><time>2026-04-05T21:29:10Z</time></trkpt><trkpt lat="36.80501494636888" lon="-108.13111725954437"><ele>1777.0</ele><time>2026-04-05T21:29:11Z</time></trkpt><trkpt lat="36.80501635684368" lon="-108.1313085850713"><ele>1777.0</ele><time>2026-04-05T21:29:12Z</time></trkpt><trkpt lat="36.805017604004995" lon="-108.13150373109087"><ele>1777.0</ele><time>2026-04-05T21:29:13Z</time></trkpt><trkpt lat="36.80501810462506" lon="-108.13169408421636"><ele>1777.0</ele><time>2026-04-05T21:29:14Z</time></trkpt><trkpt lat="36.80502072380055" lon="-108.13187162243393"><ele>1777.25</ele><time>2026-04-05T21:29:15Z</time></trkpt><trkpt lat="36.80502640677219" lon="-108.13204207467417"><ele>1777.5</ele><time>2026-04-05T21:29:16Z</time></trkpt><trkpt lat="36.80503033698496" lon="-108.13221106725646"><ele>1777.75</ele><time>2026-04-05T21:29:17Z</time></trkpt><trkpt lat="36.80502900839184" lon="-108.13237575604306"><ele>1778.0</ele><time>2026-04-05T21:29:18Z</time></trkpt><trkpt lat="36.80501557504779" lon="-108.13252983131615"><ele>1779.0</ele><time>2026-04-05T21:29:19Z</time></trkpt><trkpt lat="36.80496950179856" lon="-108.13265113932317"><ele>1780.0</ele><time>2026-04-05T21:29:20Z</time></trkpt><trkpt lat="36.80491341585078" lon="-108.13274543230791"><ele>1781.0</ele><time>2026-04-05T21:29:21Z</time></trkpt><trkpt lat="36.80481881317544" lon="-108.13279808269918"><ele>1782.0</ele><time>2026-04-05T21:29:22Z</time></trkpt><trkpt lat="36.80467397986781" lon="-108.1327666726068"><ele>1782.0</ele><time>2026-04-05T21:29:23Z</time></trkpt><trkpt lat="36.8045350249194" lon="-108.1327701579874"><ele>1782.0</ele><time>2026-04-05T21:29:24Z</time></trkpt><trkpt lat="36.80438649273299" lon="-108.13277397307381"><ele>1782.0</ele><time>2026-04-05T21:29:25Z</time></trkpt><trkpt lat="36.80423673606625" lon="-108.1327778841851"><ele>1782.0</ele><time>2026-04-05T21:29:26Z</time></trkpt><trkpt lat="36.80408442016464" lon="-108.13278419926196"><ele>1781.6666666666665</ele><time>2026-04-05T21:29:27Z</time></trkpt><trkpt lat="36.80392053052994" lon="-108.13279099419107"><ele>1781.3333333333333</ele><time>2026-04-05T21:29:28Z</time></trkpt><trkpt lat="36.80376056560442" lon="-108.13279562091127"><ele>1781.0</ele><time>2026-04-05T21:29:29Z</time></trkpt><trkpt lat="36.803588711688185" lon="-108.13279925953283"><ele>1779.3333333333333</ele><time>2026-04-05T21:29:30Z</time></trkpt><trkpt lat="36.80342665347126" lon="-108.13280350224296"><ele>1777.6666666666665</ele><time>2026-04-05T21:29:31Z</time></trkpt><trkpt lat="36.8032689257529" lon="-108.13280748676304"><ele>1776.0</ele><time>2026-04-05T21:29:32Z</time></trkpt><trkpt lat="36.803130435895454" lon="-108.1328109852931"><ele>1776.0</ele><time>2026-04-05T21:29:33Z</time></trkpt><trkpt lat="36.80300152300484" lon="-108.13281424189849"><ele>1776.0</ele><time>2026-04-05T21:29:34Z</time></trkpt><trkpt lat="36.802883201408505" lon="-108.1328172309432"><ele>1776.0</ele><time>2026-04-05T21:29:35Z</time></trkpt><trkpt lat="36.8027719658542" lon="-108.13282054830307"><ele>1776.0</ele><time>2026-04-05T21:29:36Z</time></trkpt><trkpt lat="36.80266441090347" lon="-108.1328238860452"><ele>1775.5</ele><time>2026-04-05T21:29:37Z</time></trkpt><trkpt lat="36.80255525802595" lon="-108.13282927251356"><ele>1775.0</ele><time>2026-04-05T21:29:38Z</time></trkpt><trkpt lat="36.80241916911992" lon="-108.13283960901812"><ele>1774.5</ele><time>2026-04-05T21:29:39Z</time></trkpt><trkpt lat="36.802284726959996" lon="-108.13287662715715"><ele>1774.0</ele><time>2026-04-05T21:29:40Z</time></trkpt><trkpt lat="36.80217577177818" lon="-108.13294271926942"><ele>1774.0000000000002</ele><time>2026-04-05T21:29:41Z</time></trkpt><trkpt lat="36.80208549151968" lon="-108.13300937029646"><ele>1774.0</ele><time>2026-04-05T21:29:42Z</time></trkpt><trkpt lat="36.802001098512115" lon="-108.13305681044223"><ele>1774.0</ele><time>2026-04-05T21:29:43Z</time></trkpt><trkpt lat="36.80194520594052" lon="-108.13311852444973"><ele>1774.0</ele><time>2026-04-05T21:29:44Z</time></trkpt><trkpt lat="36.801890202350876" lon="-108.13316134891237"><ele>1774.0000000000002</ele><time>2026-04-05T21:29:45Z</time></trkpt><trkpt lat="36.80181878410481" lon="-108.13321735271303"><ele>1774.0</ele><time>2026-04-05T21:29:47Z</time></trkpt><trkpt lat="36.8016926367225" lon="-108.13301416223196"><ele>1773.0</ele><time>2026-04-05T21:29:48Z</time></trkpt><trkpt lat="36.80160852378025" lon="-108.13289578588443"><ele>1772.0</ele><time>2026-04-05T21:29:49Z</time></trkpt><trkpt lat="36.80153317353139" lon="-108.132748964372"><ele>1771.0</ele><time>2026-04-05T21:29:50Z</time></trkpt><trkpt lat="36.801460411664394" lon="-108.13258405163286"><ele>1770.0</ele><time>2026-04-05T21:29:51Z</time></trkpt><trkpt lat="36.801412355160245" lon="-108.13239820476348"><ele>1769.0</ele><time>2026-04-05T21:29:52Z</time></trkpt><trkpt lat="36.801344165625856" lon="-108.13222279466977"><ele>1768.0</ele><time>2026-04-05T21:29:53Z</time></trkpt><trkpt lat="36.80131143193715" lon="-108.1320206105709"><ele>1767.0</ele><time>2026-04-05T21:29:54Z</time></trkpt><trkpt lat="36.80129390183546" lon="-108.13183348964031"><ele>1767.0</ele><time>2026-04-05T21:29:55Z</time></trkpt><trkpt lat="36.80128031480528" lon="-108.13164498363453"><ele>1767.0</ele><time>2026-04-05T21:29:56Z</time></trkpt><trkpt lat="36.80127007769073" lon="-108.13145312513143"><ele>1767.0</ele><time>2026-04-05T21:29:57Z</time></trkpt><trkpt lat="36.801261056959184" lon="-108.13126277786964"><ele>1766.25</ele><time>2026-04-05T21:29:58Z</time></trkpt><trkpt lat="36.80125175003655" lon="-108.13107616132085"><ele>1765.5</ele><time>2026-04-05T21:29:59Z</time></trkpt><trkpt lat="36.80123236286261" lon="-108.130900052743"><ele>1764.75</ele><time>2026-04-05T21:30:00Z</time></trkpt><trkpt lat="36.80118941262048" lon="-108.1307318643497"><ele>1764.0</ele><time>2026-04-05T21:30:01Z</time></trkpt><trkpt lat="36.80112904524467" lon="-108.13057439071028"><ele>1763.5</ele><time>2026-04-05T21:30:02Z</time></trkpt><trkpt lat="36.80105916780026" lon="-108.13043099254172"><ele>1763.0</ele><time>2026-04-05T21:30:03Z</time></trkpt><trkpt lat="36.800976497042306" lon="-108.13028737304755"><ele>1762.5</ele><time>2026-04-05T21:30:04Z</time></trkpt><trkpt lat="36.80088627429622" lon="-108.13015625976408"><ele>1762.0</ele><time>2026-04-05T21:30:05Z</time></trkpt><trkpt lat="36.8007857490084" lon="-108.13003184510944"><ele>1761.0</ele><time>2026-04-05T21:30:06Z</time></trkpt><trkpt lat="36.800679105061676" lon="-108.12993839622958"><ele>1760.0</ele><time>2026-04-05T21:30:07Z</time></trkpt><trkpt lat="36.80056987877211" lon="-108.1298538443568"><ele>1759.0</ele><time>2026-04-05T21:30:08Z</time></trkpt><trkpt lat="36.800453232676524" lon="-108.12978565579859"><ele>1758.0</ele><time>2026-04-05T21:30:09Z</time></trkpt><trkpt lat="36.80032724949043" lon="-108.1297374079045"><ele>1758.0</ele><time>2026-04-05T21:30:10Z</time></trkpt><trkpt lat="36.80020923671924" lon="-108.12969705930605"><ele>1758.0</ele><time>2026-04-05T21:30:11Z</time></trkpt><trkpt lat="36.80008439957219" lon="-108.12966287536103"><ele>1758.0</ele><time>2026-04-05T21:30:12Z</time></trkpt><trkpt lat="36.79995949481357" lon="-108.12963605978655"><ele>1758.0</ele><time>2026-04-05T21:30:13Z</time></trkpt><trkpt lat="36.79983138484536" lon="-108.12960945876426"><ele>1757.25</ele><time>2026-04-05T21:30:14Z</time></trkpt><trkpt lat="36.79970453345119" lon="-108.12958343974714"><ele>1756.5</ele><time>2026-04-05T21:30:15Z</time></trkpt><trkpt lat="36.799576188452335" lon="-108.12955711440361"><ele>1755.75</ele><time>2026-04-05T21:30:16Z</time></trkpt><trkpt lat="36.79944646419001" lon="-108.12952522579252"><ele>1755.0</ele><time>2026-04-05T21:30:17Z</time></trkpt><trkpt lat="36.79931409046356" lon="-108.12947222519473"><ele>1754.5</ele><time>2026-04-05T21:30:18Z</time></trkpt><trkpt lat="36.79919010012545" lon="-108.12940566094255"><ele>1754.0</ele><time>2026-04-05T21:30:19Z</time></trkpt><trkpt lat="36.79906949866308" lon="-108.12930991128306"><ele>1753.5</ele><time>2026-04-05T21:30:20Z</time></trkpt><trkpt lat="36.798955274791744" lon="-108.1292135737316"><ele>1753.0</ele><time>2026-04-05T21:30:21Z</time></trkpt><trkpt lat="36.798839256919685" lon="-108.12910517368717"><ele>1753.0</ele><time>2026-04-05T21:30:22Z</time></trkpt><trkpt lat="36.7987319936139" lon="-108.12898214133801"><ele>1753.0</ele><time>2026-04-05T21:30:23Z</time></trkpt><trkpt lat="36.79864135953014" lon="-108.12886397767909"><ele>1753.0</ele><time>2026-04-05T21:30:24Z</time></trkpt><trkpt lat="36.7985594966507" lon="-108.12873278205471"><ele>1753.0</ele><time>2026-04-05T21:30:25Z</time></trkpt><trkpt lat="36.79849126479872" lon="-108.12859000200531"><ele>1753.0</ele><time>2026-04-05T21:30:26Z</time></trkpt><trkpt lat="36.798423515478056" lon="-108.12844854374956"><ele>1753.0</ele><time>2026-04-05T21:30:27Z</time></trkpt><trkpt lat="36.79837453887758" lon="-108.12828978205651"><ele>1753.0</ele><time>2026-04-05T21:30:28Z</time></trkpt><trkpt lat="36.798322525593065" lon="-108.12813547737086"><ele>1753.0</ele><time>2026-04-05T21:30:29Z</time></trkpt><trkpt lat="36.79826802779777" lon="-108.12797441009714"><ele>1754.0</ele><time>2026-04-05T21:30:30Z</time></trkpt><trkpt lat="36.79823804978219" lon="-108.12780075910247"><ele>1755.0</ele><time>2026-04-05T21:30:31Z</time></trkpt><trkpt lat="36.79821821455873" lon="-108.1276180269746"><ele>1756.0</ele><time>2026-04-05T21:30:32Z</time></trkpt><trkpt lat="36.79820874604057" lon="-108.12744580507255"><ele>1757.0</ele><time>2026-04-05T21:30:33Z</time></trkpt><trkpt lat="36.79820212082006" lon="-108.12727789709697"><ele>1754.75</ele><time>2026-04-05T21:30:34Z</time></trkpt><trkpt lat="36.79819912441102" lon="-108.12710828213221"><ele>1752.5</ele><time>2026-04-05T21:30:35Z</time></trkpt><trkpt lat="36.79820110144027" lon="-108.1269429202156"><ele>1750.25</ele><time>2026-04-05T21:30:36Z</time></trkpt><trkpt lat="36.7982057429487" lon="-108.12679245129226"><ele>1748.0</ele><time>2026-04-05T21:30:37Z</time></trkpt><trkpt lat="36.79820978331224" lon="-108.12665949536597"><ele>1746.5</ele><time>2026-04-05T21:30:38Z</time></trkpt><trkpt lat="36.79820891727456" lon="-108.12654354248743"><ele>1745.0</ele><time>2026-04-05T21:30:39Z</time></trkpt><trkpt lat="36.79820759124293" lon="-108.12645040473372"><ele>1743.5</ele><time>2026-04-05T21:30:40Z</time></trkpt><trkpt lat="36.79840381283007" lon="-108.12638239921985"><ele>1742.0</ele><time>2026-04-05T21:30:41Z</time></trkpt><trkpt lat="36.798515602995664" lon="-108.12639345408815"><ele>1742.0</ele><time>2026-04-05T21:30:42Z</time></trkpt><trkpt lat="36.79865526110614" lon="-108.12639283276303"><ele>1742.0</ele><time>2026-04-05T21:30:43Z</time></trkpt><trkpt lat="36.79878864453801" lon="-108.12637649306498"><ele>1742.0</ele><time>2026-04-05T21:30:44Z</time></trkpt><trkpt lat="36.798939642576265" lon="-108.12637852437992"><ele>1742.0</ele><time>2026-04-05T21:30:45Z</time></trkpt><trkpt lat="36.7991035581494" lon="-108.12637567014393"><ele>1742.0</ele><time>2026-04-05T21:30:46Z</time></trkpt><trkpt lat="36.799254014648625" lon="-108.12637839319454"><ele>1742.0</ele><time>2026-04-05T21:30:47Z</time></trkpt><trkpt lat="36.79938136977948" lon="-108.12639040942013"><ele>1742.0</ele><time>2026-04-05T21:30:48Z</time></trkpt><trkpt lat="36.79949079833613" lon="-108.12640038029916"><ele>1742.0</ele><time>2026-04-05T21:30:49Z</time></trkpt><trkpt lat="36.79958993134816" lon="-108.12639388653551"><ele>1743.25</ele><time>2026-04-05T21:30:50Z</time></trkpt><trkpt lat="36.7996818688181" lon="-108.12637811781067"><ele>1744.5</ele><time>2026-04-05T21:30:51Z</time></trkpt><trkpt lat="36.79975722166265" lon="-108.12637582061721"><ele>1745.75</ele><time>2026-04-05T21:30:52Z</time></trkpt><trkpt lat="36.79980029467396" lon="-108.12609736057937"><ele>1747.0</ele><time>2026-04-05T21:30:55Z</time></trkpt><trkpt lat="36.799795389391875" lon="-108.12597314700255"><ele>1747.0</ele><time>2026-04-05T21:30:56Z</time></trkpt><trkpt lat="36.7997900254158" lon="-108.12584870433102"><ele>1747.0</ele><time>2026-04-05T21:30:57Z</time></trkpt><trkpt lat="36.799767357796284" lon="-108.12576325402569"><ele>1747.0</ele><time>2026-04-05T21:30:58Z</time></trkpt><trkpt lat="36.799780339353646" lon="-108.12565988613837"><ele>1746.0</ele><time>2026-04-05T21:31:01Z</time></trkpt><trkpt lat="36.79983699987237" lon="-108.12560659268908"><ele>1746.0</ele><time>2026-04-05T21:33:18Z</time></trkpt></trkseg></trk></gpx>